<?xml version='1.0' encoding='UTF-8'?><gpx version="1.1" creator="JPX - https://github.com/jenetics/jpx" xmlns="http://www.topografix.com/GPX/1/1"><trk><trkseg><trkpt lat="41.8236463110533" lon="12.329082210421367"><ele>8.666666666666668</ele><time>2026-04-21T08:23:52.999Z</time></trkpt><trkpt lat="41.82377948744615" lon="12.328874373354193"><ele>7.333333333333334</ele><time>2026-04-21T08:23:53.999Z</time></trkpt><trkpt lat="41.82391054604618" lon="12.328663588233793"><ele>6.0</ele><time>2026-04-21T08:23:54.999Z</time></trkpt><trkpt lat="41.82404035176197" lon="12.32845419009154"><ele>6.0</ele><time>2026-04-21T08:23:55.999Z</time></trkpt><trkpt lat="41.82416950603586" lon="12.328248412276706"><ele>6.0</ele><time>2026-04-21T08:23:56.999Z</time></trkpt><trkpt lat="41.82429840597999" lon="12.328045286000965"><ele>6.0</ele><time>2026-04-21T08:23:57.999Z</time></trkpt><trkpt lat="41.82442770230616" lon="12.327842225672065"><ele>6.333333333333334</ele><time>2026-04-21T08:23:58.999Z</time></trkpt><trkpt lat="41.824557699440355" lon="12.327639415486608"><ele>6.666666666666667</ele><time>2026-04-21T08:23:59.999Z</time></trkpt><trkpt lat="41.8246948744102" lon="12.327424628617054"><ele>7.0</ele><time>2026-04-21T08:24:00.999Z</time></trkpt><trkpt lat="41.824828763761865" lon="12.327211564982763"><ele>7.0</ele><time>2026-04-21T08:24:01.999Z</time></trkpt><trkpt lat="41.82495973052137" lon="12.327004365301544"><ele>7.0</ele><time>2026-04-21T08:24:02.999Z</time></trkpt><trkpt lat="41.825088430172244" lon="12.326801629647166"><ele>7.0</ele><time>2026-04-21T08:24:03.999Z</time></trkpt><trkpt lat="41.825210126289946" lon="12.326614522536063"><ele>7.666666666666667</ele><time>2026-04-21T08:24:04.999Z</time></trkpt><trkpt lat="41.825332755611335" lon="12.326419961528961"><ele>8.333333333333334</ele><time>2026-04-21T08:24:05.999Z</time></trkpt><trkpt lat="41.82545362245736" lon="12.326220586999677"><ele>9.0</ele><time>2026-04-21T08:24:06.999Z</time></trkpt><trkpt lat="41.82557854223992" lon="12.326025555545387"><ele>9.0</ele><time>2026-04-21T08:24:07.999Z</time></trkpt><trkpt lat="41.82570119591641" lon="12.32583151941019"><ele>9.0</ele><time>2026-04-21T08:24:08.999Z</time></trkpt><trkpt lat="41.825822721227894" lon="12.325640991016044"><ele>9.0</ele><time>2026-04-21T08:24:09.999Z</time></trkpt><trkpt lat="41.82594653747252" lon="12.32544497731583"><ele>10.333333333333332</ele><time>2026-04-21T08:24:10.999Z</time></trkpt><trkpt lat="41.82606722788549" lon="12.32524287118257"><ele>11.666666666666666</ele><time>2026-04-21T08:24:11.999Z</time></trkpt><trkpt lat="41.8261825652899" lon="12.32504280585741"><ele>13.0</ele><time>2026-04-21T08:24:12.999Z</time></trkpt><trkpt lat="41.826298767709524" lon="12.324848151527933"><ele>10.333333333333332</ele><time>2026-04-21T08:24:13.999Z</time></trkpt><trkpt lat="41.826417858403204" lon="12.324660761458869"><ele>7.666666666666666</ele><time>2026-04-21T08:24:14.999Z</time></trkpt><trkpt lat="41.826535666574394" lon="12.324466135109496"><ele>5.0</ele><time>2026-04-21T08:24:15.999Z</time></trkpt><trkpt lat="41.82664812650295" lon="12.324285601249187"><ele>5.0</ele><time>2026-04-21T08:24:16.999Z</time></trkpt><trkpt lat="41.82675871152459" lon="12.324097059726506"><ele>5.0</ele><time>2026-04-21T08:24:17.999Z</time></trkpt><trkpt lat="41.8268678385685" lon="12.32391304368847"><ele>5.0</ele><time>2026-04-21T08:24:19Z</time></trkpt><trkpt lat="41.82697106451953" lon="12.32373555240992"><ele>7.333333333333334</ele><time>2026-04-21T08:24:20Z</time></trkpt><trkpt lat="41.827084683132256" lon="12.32355533094225"><ele>9.666666666666666</ele><time>2026-04-21T08:24:21Z</time></trkpt><trkpt lat="41.8272006568746" lon="12.323371329149442"><ele>12.0</ele><time>2026-04-21T08:24:22Z</time></trkpt><trkpt lat="41.827311320055834" lon="12.32319598590041"><ele>10.666666666666666</ele><time>2026-04-21T08:24:23Z</time></trkpt><trkpt lat="41.827428120345566" lon="12.32300888465559"><ele>9.333333333333332</ele><time>2026-04-21T08:24:24Z</time></trkpt><trkpt lat="41.827547489873155" lon="12.322820038501737"><ele>8.0</ele><time>2026-04-21T08:24:25Z</time></trkpt><trkpt lat="41.827674471831436" lon="12.32261632091061"><ele>7.666666666666666</ele><time>2026-04-21T08:24:26Z</time></trkpt><trkpt lat="41.82779980905945" lon="12.322409814850387"><ele>7.333333333333334</ele><time>2026-04-21T08:24:27Z</time></trkpt><trkpt lat="41.82793369825002" lon="12.322182460419352"><ele>7.0</ele><time>2026-04-21T08:24:28Z</time></trkpt><trkpt lat="41.82805270953862" lon="12.321963634562161"><ele>7.0</ele><time>2026-04-21T08:24:29Z</time></trkpt><trkpt lat="41.82817800082383" lon="12.32170823986423"><ele>7.0</ele><time>2026-04-21T08:24:30Z</time></trkpt><trkpt lat="41.82828936573062" lon="12.321469279254611"><ele>7.0</ele><time>2026-04-21T08:24:31Z</time></trkpt><trkpt lat="41.8283847893877" lon="12.32125402266589"><ele>6.0</ele><time>2026-04-21T08:24:32Z</time></trkpt><trkpt lat="41.828472236870965" lon="12.32106510018969"><ele>5.0</ele><time>2026-04-21T08:24:33Z</time></trkpt><trkpt lat="41.82854657382396" lon="12.320874724467616"><ele>4.0</ele><time>2026-04-21T08:24:34Z</time></trkpt><trkpt lat="41.82861026851675" lon="12.320692167078763"><ele>4.666666666666666</ele><time>2026-04-21T08:24:35Z</time></trkpt><trkpt lat="41.82867913848634" lon="12.32049218633923"><ele>5.333333333333333</ele><time>2026-04-21T08:24:36Z</time></trkpt><trkpt lat="41.82876388430926" lon="12.320258463410532"><ele>6.0</ele><time>2026-04-21T08:24:37Z</time></trkpt><trkpt lat="41.82884718065065" lon="12.319963830855427"><ele>5.5</ele><time>2026-04-21T08:24:38Z</time></trkpt><trkpt lat="41.828931694014486" lon="12.319605728679104"><ele>5.0</ele><time>2026-04-21T08:24:39Z</time></trkpt><trkpt lat="41.8290150504087" lon="12.319249913644327"><ele>5.0</ele><time>2026-04-21T08:24:40Z</time></trkpt><trkpt lat="41.829071629748256" lon="12.318926035620509"><ele>5.0</ele><time>2026-04-21T08:24:41Z</time></trkpt><trkpt lat="41.829105205802946" lon="12.318639603854153"><ele>5.0</ele><time>2026-04-21T08:24:42Z</time></trkpt><trkpt lat="41.829134443073976" lon="12.318351958111718"><ele>5.0</ele><time>2026-04-21T08:24:43Z</time></trkpt><trkpt lat="41.82914923558505" lon="12.31808721596132"><ele>5.0</ele><time>2026-04-21T08:24:44Z</time></trkpt><trkpt lat="41.829156688899005" lon="12.317820256269162"><ele>5.0</ele><time>2026-04-21T08:24:45Z</time></trkpt><trkpt lat="41.82914914605996" lon="12.317550758914676"><ele>5.0</ele><time>2026-04-21T08:24:46Z</time></trkpt><trkpt lat="41.829139744326234" lon="12.317313840653473"><ele>5.0</ele><time>2026-04-21T08:24:47Z</time></trkpt><trkpt lat="41.829126509504995" lon="12.31704830485096"><ele>5.0</ele><time>2026-04-21T08:24:48Z</time></trkpt><trkpt lat="41.82911853219812" lon="12.316806753815786"><ele>5.0</ele><time>2026-04-21T08:24:49Z</time></trkpt><trkpt lat="41.82910981948709" lon="12.316583198538057"><ele>5.0</ele><time>2026-04-21T08:24:50Z</time></trkpt><trkpt lat="41.82910316209385" lon="12.316376490324487"><ele>5.666666666666667</ele><time>2026-04-21T08:24:51Z</time></trkpt><trkpt lat="41.829096190201916" lon="12.316177872495718"><ele>6.333333333333334</ele><time>2026-04-21T08:24:52Z</time></trkpt><trkpt lat="41.82909107000135" lon="12.31595574438525"><ele>7.0</ele><time>2026-04-21T08:24:53Z</time></trkpt><trkpt lat="41.829083052604936" lon="12.315735613561674"><ele>6.666666666666667</ele><time>2026-04-21T08:24:54Z</time></trkpt><trkpt lat="41.829077209181925" lon="12.315530469121356"><ele>6.333333333333334</ele><time>2026-04-21T08:24:55Z</time></trkpt><trkpt lat="41.82907129636042" lon="12.315319968848067"><ele>6.0</ele><time>2026-04-21T08:24:56Z</time></trkpt><trkpt lat="41.82906429879939" lon="12.315115587214214"><ele>6.0</ele><time>2026-04-21T08:24:57Z</time></trkpt><trkpt lat="41.829057194199606" lon="12.314926234718596"><ele>6.0</ele><time>2026-04-21T08:24:58Z</time></trkpt><trkpt lat="41.82904996881474" lon="12.31475057837027"><ele>6.0</ele><time>2026-04-21T08:24:59Z</time></trkpt><trkpt lat="41.829038992110654" lon="12.314576610350418"><ele>6.0</ele><time>2026-04-21T08:25:00Z</time></trkpt><trkpt lat="41.82903345234655" lon="12.314390812767446"><ele>6.333333333333334</ele><time>2026-04-21T08:25:01Z</time></trkpt><trkpt lat="41.8290370978124" lon="12.314176614852569"><ele>6.666666666666667</ele><time>2026-04-21T08:25:02Z</time></trkpt><trkpt lat="41.82902762277487" lon="12.313946966424242"><ele>7.0</ele><time>2026-04-21T08:25:03Z</time></trkpt><trkpt lat="41.829018302324016" lon="12.313721064735574"><ele>7.666666666666667</ele><time>2026-04-21T08:25:04Z</time></trkpt><trkpt lat="41.829007728834746" lon="12.313464792858444"><ele>8.333333333333334</ele><time>2026-04-21T08:25:05Z</time></trkpt><trkpt lat="41.828992743368424" lon="12.313229038255145"><ele>9.0</ele><time>2026-04-21T08:25:06Z</time></trkpt><trkpt lat="41.82898768432936" lon="12.313005992884843"><ele>9.333333333333334</ele><time>2026-04-21T08:25:07Z</time></trkpt><trkpt lat="41.82896984498705" lon="12.312781756963192"><ele>9.666666666666668</ele><time>2026-04-21T08:25:08Z</time></trkpt><trkpt lat="41.82896073593083" lon="12.312551227377485"><ele>10.0</ele><time>2026-04-21T08:25:09Z</time></trkpt><trkpt lat="41.828958741409316" lon="12.312339938394265"><ele>10.666666666666668</ele><time>2026-04-21T08:25:10Z</time></trkpt><trkpt lat="41.82895267294435" lon="12.312138153058106"><ele>11.333333333333334</ele><time>2026-04-21T08:25:11Z</time></trkpt><trkpt lat="41.82894368512506" lon="12.311930219941978"><ele>12.0</ele><time>2026-04-21T08:25:12Z</time></trkpt><trkpt lat="41.82893142464587" lon="12.311718080949948"><ele>12.0</ele><time>2026-04-21T08:25:13Z</time></trkpt><trkpt lat="41.828936784370455" lon="12.311484930395652"><ele>12.0</ele><time>2026-04-21T08:25:14Z</time></trkpt><trkpt lat="41.8289319728351" lon="12.311253928722754"><ele>12.0</ele><time>2026-04-21T08:25:15Z</time></trkpt><trkpt lat="41.828934394787495" lon="12.311016405818105"><ele>11.666666666666666</ele><time>2026-04-21T08:25:16Z</time></trkpt><trkpt lat="41.82894150140519" lon="12.310775389943963"><ele>11.333333333333332</ele><time>2026-04-21T08:25:17Z</time></trkpt><trkpt lat="41.82893561379223" lon="12.310538722772803"><ele>11.0</ele><time>2026-04-21T08:25:18Z</time></trkpt><trkpt lat="41.82894595162121" lon="12.31031517813687"><ele>10.333333333333332</ele><time>2026-04-21T08:25:19Z</time></trkpt><trkpt lat="41.828959308219005" lon="12.310095880897817"><ele>9.666666666666666</ele><time>2026-04-21T08:25:20Z</time></trkpt><trkpt lat="41.828963705771876" lon="12.309864168124758"><ele>9.0</ele><time>2026-04-21T08:25:21Z</time></trkpt><trkpt lat="41.82896762853602" lon="12.309639796594086"><ele>8.333333333333334</ele><time>2026-04-21T08:25:22Z</time></trkpt><trkpt lat="41.82898099559494" lon="12.309418327695093"><ele>7.666666666666667</ele><time>2026-04-21T08:25:23Z</time></trkpt><trkpt lat="41.82900395740611" lon="12.309181066146568"><ele>7.0</ele><time>2026-04-21T08:25:24Z</time></trkpt><trkpt lat="41.82903366352001" lon="12.308951431865642"><ele>7.0</ele><time>2026-04-21T08:25:25Z</time></trkpt><trkpt lat="41.8290644505013" lon="12.308723480380376"><ele>7.0</ele><time>2026-04-21T08:25:26Z</time></trkpt><trkpt lat="41.82909537335247" lon="12.308463626820751"><ele>7.0</ele><time>2026-04-21T08:25:27Z</time></trkpt><trkpt lat="41.82913065906994" lon="12.308210529466715"><ele>6.666666666666667</ele><time>2026-04-21T08:25:28Z</time></trkpt><trkpt lat="41.829163252877024" lon="12.30798230867129"><ele>6.333333333333334</ele><time>2026-04-21T08:25:29Z</time></trkpt><trkpt lat="41.829221809878895" lon="12.307757609199605"><ele>6.0</ele><time>2026-04-21T08:25:30Z</time></trkpt><trkpt lat="41.82925833051387" lon="12.30752705717483"><ele>7.666666666666666</ele><time>2026-04-21T08:25:31Z</time></trkpt><trkpt lat="41.82931680741628" lon="12.307294256504155"><ele>9.333333333333332</ele><time>2026-04-21T08:25:32Z</time></trkpt><trkpt lat="41.8293711933894" lon="12.307059656367544"><ele>11.0</ele><time>2026-04-21T08:25:33Z</time></trkpt><trkpt lat="41.829422672046555" lon="12.3068142863392"><ele>11.0</ele><time>2026-04-21T08:25:34Z</time></trkpt><trkpt lat="41.82947836552764" lon="12.306563829347505"><ele>11.0</ele><time>2026-04-21T08:25:35Z</time></trkpt><trkpt lat="41.82952547414323" lon="12.306335040242457"><ele>11.0</ele><time>2026-04-21T08:25:36Z</time></trkpt><trkpt lat="41.82957712536565" lon="12.306095295407749"><ele>10.333333333333332</ele><time>2026-04-21T08:25:37Z</time></trkpt><trkpt lat="41.82964758488188" lon="12.305857534431555"><ele>9.666666666666666</ele><time>2026-04-21T08:25:38Z</time></trkpt><trkpt lat="41.8296879071295" lon="12.30560255278656"><ele>9.0</ele><time>2026-04-21T08:25:39Z</time></trkpt><trkpt lat="41.82975242324068" lon="12.30533379477501"><ele>8.333333333333334</ele><time>2026-04-21T08:25:40Z</time></trkpt><trkpt lat="41.82981728884667" lon="12.30508017611144"><ele>7.666666666666667</ele><time>2026-04-21T08:25:41Z</time></trkpt><trkpt lat="41.82986853998658" lon="12.304823854808392"><ele>7.0</ele><time>2026-04-21T08:25:42Z</time></trkpt><trkpt lat="41.82993001921591" lon="12.304562549445608"><ele>6.666666666666667</ele><time>2026-04-21T08:25:43Z</time></trkpt><trkpt lat="41.82998425936934" lon="12.304287958925034"><ele>6.333333333333334</ele><time>2026-04-21T08:25:44Z</time></trkpt><trkpt lat="41.83005658466811" lon="12.304034533580865"><ele>6.0</ele><time>2026-04-21T08:25:45Z</time></trkpt><trkpt lat="41.8301039956634" lon="12.303796767777815"><ele>9.666666666666668</ele><time>2026-04-21T08:25:46Z</time></trkpt><trkpt lat="41.8301439120261" lon="12.30357375340229"><ele>13.333333333333334</ele><time>2026-04-21T08:25:47Z</time></trkpt><trkpt lat="41.83015829314249" lon="12.303357271871583"><ele>17.0</ele><time>2026-04-21T08:25:48Z</time></trkpt><trkpt lat="41.83018556824366" lon="12.303162789750768"><ele>15.666666666666668</ele><time>2026-04-21T08:25:49Z</time></trkpt><trkpt lat="41.83021370299519" lon="12.302938478102245"><ele>14.333333333333332</ele><time>2026-04-21T08:25:50Z</time></trkpt><trkpt lat="41.83023907569274" lon="12.302642724707589"><ele>13.0</ele><time>2026-04-21T08:25:51Z</time></trkpt><trkpt lat="41.830268020140316" lon="12.302276963232192"><ele>11.333333333333332</ele><time>2026-04-21T08:25:52Z</time></trkpt><trkpt lat="41.83028544768767" lon="12.301966261661759"><ele>9.666666666666666</ele><time>2026-04-21T08:25:53Z</time></trkpt><trkpt lat="41.83027879765965" lon="12.301678904188291"><ele>8.0</ele><time>2026-04-21T08:25:54Z</time></trkpt><trkpt lat="41.830277800518836" lon="12.301414550523031"><ele>6.666666666666666</ele><time>2026-04-21T08:25:55Z</time></trkpt><trkpt lat="41.83027630130128" lon="12.301165253142312"><ele>5.333333333333333</ele><time>2026-04-21T08:25:56Z</time></trkpt><trkpt lat="41.830276137764564" lon="12.300912462210261"><ele>4.0</ele><time>2026-04-21T08:25:57Z</time></trkpt><trkpt lat="41.83026605260911" lon="12.30065641760815"><ele>4.333333333333333</ele><time>2026-04-21T08:25:57.999Z</time></trkpt><trkpt lat="41.83025755825053" lon="12.300408578207803"><ele>4.666666666666667</ele><time>2026-04-21T08:25:58.999Z</time></trkpt><trkpt lat="41.83024812729678" lon="12.300152516946333"><ele>5.0</ele><time>2026-04-21T08:25:59.999Z</time></trkpt><trkpt lat="41.830236279168524" lon="12.299901323995385"><ele>6.0</ele><time>2026-04-21T08:26:00.999Z</time></trkpt><trkpt lat="41.83022248012334" lon="12.299622581400309"><ele>7.0</ele><time>2026-04-21T08:26:01.999Z</time></trkpt><trkpt lat="41.83020460299316" lon="12.299341619441455"><ele>8.0</ele><time>2026-04-21T08:26:02.999Z</time></trkpt><trkpt lat="41.830171128123325" lon="12.29907106793921"><ele>6.333333333333333</ele><time>2026-04-21T08:26:03.999Z</time></trkpt><trkpt lat="41.83012904399003" lon="12.298806491687612"><ele>4.666666666666666</ele><time>2026-04-21T08:26:04.999Z</time></trkpt><trkpt lat="41.83008413955741" lon="12.298544200744564"><ele>3.0</ele><time>2026-04-21T08:26:05.999Z</time></trkpt><trkpt lat="41.830033215383416" lon="12.298284108299624"><ele>4.0</ele><time>2026-04-21T08:26:06.999Z</time></trkpt><trkpt lat="41.82998328768788" lon="12.298029826756904"><ele>5.0</ele><time>2026-04-21T08:26:07.999Z</time></trkpt><trkpt lat="41.82993736434833" lon="12.297789463307836"><ele>6.0</ele><time>2026-04-21T08:26:08.999Z</time></trkpt><trkpt lat="41.8298936938505" lon="12.29753906387899"><ele>6.0</ele><time>2026-04-21T08:26:09.999Z</time></trkpt><trkpt lat="41.829844728963145" lon="12.29727930795379"><ele>6.0</ele><time>2026-04-21T08:26:10.999Z</time></trkpt><trkpt lat="41.82978753564907" lon="12.29700548844388"><ele>6.0</ele><time>2026-04-21T08:26:11.999Z</time></trkpt><trkpt lat="41.829740745919125" lon="12.29675744515766"><ele>6.666666666666666</ele><time>2026-04-21T08:26:12.999Z</time></trkpt><trkpt lat="41.829691963966596" lon="12.29650117099098"><ele>7.333333333333333</ele><time>2026-04-21T08:26:13.999Z</time></trkpt><trkpt lat="41.82964719192503" lon="12.296250598162125"><ele>8.0</ele><time>2026-04-21T08:26:14.999Z</time></trkpt><trkpt lat="41.829599296401" lon="12.295998796266826"><ele>8.0</ele><time>2026-04-21T08:26:15.999Z</time></trkpt><trkpt lat="41.82955180370867" lon="12.295750769444703"><ele>8.0</ele><time>2026-04-21T08:26:16.999Z</time></trkpt><trkpt lat="41.82950509907168" lon="12.295500498857006"><ele>8.0</ele><time>2026-04-21T08:26:17.999Z</time></trkpt><trkpt lat="41.82946078836999" lon="12.295252477645294"><ele>8.0</ele><time>2026-04-21T08:26:18.999Z</time></trkpt><trkpt lat="41.82941752695513" lon="12.295020540173146"><ele>8.0</ele><time>2026-04-21T08:26:19.999Z</time></trkpt><trkpt lat="41.82938096790577" lon="12.294771224351095"><ele>8.0</ele><time>2026-04-21T08:26:20.999Z</time></trkpt><trkpt lat="41.829344138606864" lon="12.294499151931223"><ele>7.0</ele><time>2026-04-21T08:26:21.999Z</time></trkpt><trkpt lat="41.82931797257448" lon="12.294207793658998"><ele>6.0</ele><time>2026-04-21T08:26:22.999Z</time></trkpt><trkpt lat="41.82929736630971" lon="12.293917843431597"><ele>5.0</ele><time>2026-04-21T08:26:23.999Z</time></trkpt><trkpt lat="41.829281730023126" lon="12.293661049000155"><ele>5.0</ele><time>2026-04-21T08:26:24.999Z</time></trkpt><trkpt lat="41.829282579631204" lon="12.293413961135286"><ele>5.0</ele><time>2026-04-21T08:26:25.999Z</time></trkpt><trkpt lat="41.82925229832012" lon="12.293167205957745"><ele>5.0</ele><time>2026-04-21T08:26:26.999Z</time></trkpt><trkpt lat="41.82925453212201" lon="12.292904974448824"><ele>5.0</ele><time>2026-04-21T08:26:27.999Z</time></trkpt><trkpt lat="41.82922945841829" lon="12.292661350191072"><ele>5.0</ele><time>2026-04-21T08:26:28.999Z</time></trkpt><trkpt lat="41.829246227495034" lon="12.292405810052905"><ele>5.0</ele><time>2026-04-21T08:26:30Z</time></trkpt><trkpt lat="41.82926254326727" lon="12.292138891178096"><ele>5.333333333333334</ele><time>2026-04-21T08:26:31Z</time></trkpt><trkpt lat="41.829281675479116" lon="12.291873702388108"><ele>5.666666666666667</ele><time>2026-04-21T08:26:32Z</time></trkpt><trkpt lat="41.82930066041753" lon="12.291610554915325"><ele>6.0</ele><time>2026-04-21T08:26:33Z</time></trkpt><trkpt lat="41.82932096382499" lon="12.291356509878879"><ele>6.0</ele><time>2026-04-21T08:26:34Z</time></trkpt><trkpt lat="41.829344752264085" lon="12.29111401079242"><ele>6.0</ele><time>2026-04-21T08:26:35Z</time></trkpt><trkpt lat="41.82938727973753" lon="12.290869155543875"><ele>6.0</ele><time>2026-04-21T08:26:36Z</time></trkpt><trkpt lat="41.82944292603215" lon="12.290621170442236"><ele>6.0</ele><time>2026-04-21T08:26:37Z</time></trkpt><trkpt lat="41.82948627378842" lon="12.290392725029726"><ele>6.0</ele><time>2026-04-21T08:26:38Z</time></trkpt><trkpt lat="41.829541388685534" lon="12.290190431693302"><ele>6.0</ele><time>2026-04-21T08:26:39Z</time></trkpt><trkpt lat="41.829598366636894" lon="12.289982445998254"><ele>6.0</ele><time>2026-04-21T08:26:40Z</time></trkpt><trkpt lat="41.829662743355186" lon="12.289789305449816"><ele>6.0</ele><time>2026-04-21T08:26:41Z</time></trkpt><trkpt lat="41.82972109788251" lon="12.289610375701258"><ele>6.0</ele><time>2026-04-21T08:26:42Z</time></trkpt><trkpt lat="41.829781520955294" lon="12.289428634066354"><ele>6.5</ele><time>2026-04-21T08:26:43Z</time></trkpt><trkpt lat="41.82983651928351" lon="12.289248559143008"><ele>7.0</ele><time>2026-04-21T08:26:44Z</time></trkpt><trkpt lat="41.829900067289884" lon="12.289076199627896"><ele>7.5</ele><time>2026-04-21T08:26:45Z</time></trkpt><trkpt lat="41.8299578165901" lon="12.288905070273767"><ele>8.0</ele><time>2026-04-21T08:26:46Z</time></trkpt><trkpt lat="41.83000741061036" lon="12.28872823284739"><ele>8.0</ele><time>2026-04-21T08:26:47Z</time></trkpt><trkpt lat="41.830055749248345" lon="12.288564659514211"><ele>8.0</ele><time>2026-04-21T08:26:48Z</time></trkpt><trkpt lat="41.830109269761955" lon="12.28838989316219"><ele>8.0</ele><time>2026-04-21T08:26:49Z</time></trkpt><trkpt lat="41.83016875551109" lon="12.28821965935794"><ele>8.0</ele><time>2026-04-21T08:26:50Z</time></trkpt><trkpt lat="41.8302383217238" lon="12.288056095384524"><ele>7.333333333333333</ele><time>2026-04-21T08:26:51Z</time></trkpt><trkpt lat="41.830332507749496" lon="12.28788251548919"><ele>6.666666666666666</ele><time>2026-04-21T08:26:52Z</time></trkpt><trkpt lat="41.83044475217303" lon="12.287715572998394"><ele>6.0</ele><time>2026-04-21T08:26:53Z</time></trkpt><trkpt lat="41.83057740909386" lon="12.287551010307196"><ele>6.0</ele><time>2026-04-21T08:26:54Z</time></trkpt><trkpt lat="41.830711535094416" lon="12.28738660591147"><ele>6.0</ele><time>2026-04-21T08:26:55Z</time></trkpt><trkpt lat="41.830829736282055" lon="12.287230340485793"><ele>6.0</ele><time>2026-04-21T08:26:56Z</time></trkpt><trkpt lat="41.83094476422599" lon="12.287067760475919"><ele>5.666666666666667</ele><time>2026-04-21T08:26:57Z</time></trkpt><trkpt lat="41.83105973838699" lon="12.286914032610463"><ele>5.333333333333334</ele><time>2026-04-21T08:26:58Z</time></trkpt><trkpt lat="41.831171423144426" lon="12.2867586303008"><ele>5.0</ele><time>2026-04-21T08:26:59Z</time></trkpt><trkpt lat="41.831274234786164" lon="12.28660776650735"><ele>5.0</ele><time>2026-04-21T08:27:00Z</time></trkpt><trkpt lat="41.831399484811286" lon="12.28644899959682"><ele>5.0</ele><time>2026-04-21T08:27:01Z</time></trkpt><trkpt lat="41.8315435341061" lon="12.286270185713377"><ele>5.0</ele><time>2026-04-21T08:27:02Z</time></trkpt><trkpt lat="41.831679486799246" lon="12.286129388645605"><ele>4.666666666666667</ele><time>2026-04-21T08:27:03Z</time></trkpt><trkpt lat="41.83180696049394" lon="12.285971578974138"><ele>4.333333333333333</ele><time>2026-04-21T08:27:04Z</time></trkpt><trkpt lat="41.831941710056746" lon="12.285816877282821"><ele>4.0</ele><time>2026-04-21T08:27:05Z</time></trkpt><trkpt lat="41.83206858042533" lon="12.285670998950229"><ele>4.25</ele><time>2026-04-21T08:27:06Z</time></trkpt><trkpt lat="41.83218810427301" lon="12.28554502836875"><ele>4.5</ele><time>2026-04-21T08:27:07Z</time></trkpt><trkpt lat="41.832280475357386" lon="12.285437935192236"><ele>4.75</ele><time>2026-04-21T08:27:08Z</time></trkpt><trkpt lat="41.832368683987134" lon="12.28533313254769"><ele>5.0</ele><time>2026-04-21T08:27:09Z</time></trkpt><trkpt lat="41.8324611105314" lon="12.285220707910527"><ele>5.0</ele><time>2026-04-21T08:27:10Z</time></trkpt><trkpt lat="41.83255431455767" lon="12.285116795004502"><ele>5.0</ele><time>2026-04-21T08:27:11Z</time></trkpt><trkpt lat="41.83263816918256" lon="12.285029145884575"><ele>5.0</ele><time>2026-04-21T08:27:12Z</time></trkpt><trkpt lat="41.8327125866867" lon="12.284942836297258"><ele>5.0</ele><time>2026-04-21T08:27:13Z</time></trkpt><trkpt lat="41.83280206288452" lon="12.284848357435536"><ele>5.0</ele><time>2026-04-21T08:27:14Z</time></trkpt><trkpt lat="41.8329006331888" lon="12.284744253668702"><ele>5.666666666666667</ele><time>2026-04-21T08:27:15Z</time></trkpt><trkpt lat="41.83301231983557" lon="12.284613649778901"><ele>6.333333333333334</ele><time>2026-04-21T08:27:16Z</time></trkpt><trkpt lat="41.83315082229278" lon="12.284460149038079"><ele>7.0</ele><time>2026-04-21T08:27:17Z</time></trkpt><trkpt lat="41.83326675317617" lon="12.284327667882945"><ele>7.0</ele><time>2026-04-21T08:27:18Z</time></trkpt><trkpt lat="41.83338568798569" lon="12.284182589261713"><ele>7.0</ele><time>2026-04-21T08:27:19Z</time></trkpt><trkpt lat="41.83353751224627" lon="12.284006904752347"><ele>7.0</ele><time>2026-04-21T08:27:20Z</time></trkpt><trkpt lat="41.833696447642176" lon="12.283819326657095"><ele>6.333333333333334</ele><time>2026-04-21T08:27:21Z</time></trkpt><trkpt lat="41.83382541340795" lon="12.283667628389876"><ele>5.666666666666667</ele><time>2026-04-21T08:27:22Z</time></trkpt><trkpt lat="41.83396795854555" lon="12.283504387352805"><ele>5.0</ele><time>2026-04-21T08:27:23Z</time></trkpt><trkpt lat="41.834101392607465" lon="12.283348916195404"><ele>5.0</ele><time>2026-04-21T08:27:24Z</time></trkpt><trkpt lat="41.83423248905555" lon="12.283197804222375"><ele>5.0</ele><time>2026-04-21T08:27:25Z</time></trkpt><trkpt lat="41.83437127295931" lon="12.283036096894737"><ele>5.0</ele><time>2026-04-21T08:27:26Z</time></trkpt><trkpt lat="41.83450995572024" lon="12.282853151252512"><ele>5.666666666666667</ele><time>2026-04-21T08:27:27Z</time></trkpt><trkpt lat="41.8346264205681" lon="12.2826674839404"><ele>6.333333333333334</ele><time>2026-04-21T08:27:28Z</time></trkpt><trkpt lat="41.834727698331484" lon="12.28249142068655"><ele>7.0</ele><time>2026-04-21T08:27:29Z</time></trkpt><trkpt lat="41.83481544817006" lon="12.282318593341238"><ele>6.0</ele><time>2026-04-21T08:27:30Z</time></trkpt><trkpt lat="41.83490183088314" lon="12.282136397792577"><ele>5.0</ele><time>2026-04-21T08:27:31Z</time></trkpt><trkpt lat="41.83498823549643" lon="12.281966996897227"><ele>4.0</ele><time>2026-04-21T08:27:32Z</time></trkpt><trkpt lat="41.83507599194728" lon="12.281809372676419"><ele>4.25</ele><time>2026-04-21T08:27:33Z</time></trkpt><trkpt lat="41.83518474600283" lon="12.281683626818"><ele>4.5</ele><time>2026-04-21T08:27:34Z</time></trkpt><trkpt lat="41.835291487081165" lon="12.281560573443752"><ele>4.75</ele><time>2026-04-21T08:27:35Z</time></trkpt><trkpt lat="41.83539593688206" lon="12.281441665524135"><ele>5.0</ele><time>2026-04-21T08:27:36Z</time></trkpt><trkpt lat="41.83549949789117" lon="12.281304212036494"><ele>5.0</ele><time>2026-04-21T08:27:37Z</time></trkpt><trkpt lat="41.835604991893824" lon="12.281188909948629"><ele>5.0</ele><time>2026-04-21T08:27:38Z</time></trkpt><trkpt lat="41.835706530980204" lon="12.281073567312506"><ele>5.0</ele><time>2026-04-21T08:27:39Z</time></trkpt><trkpt lat="41.83581056158524" lon="12.280962423062547"><ele>5.0</ele><time>2026-04-21T08:27:40Z</time></trkpt><trkpt lat="41.835898382105576" lon="12.280862420760657"><ele>5.666666666666667</ele><time>2026-04-21T08:27:41Z</time></trkpt><trkpt lat="41.83601640249991" lon="12.280759688679519"><ele>6.333333333333334</ele><time>2026-04-21T08:27:42Z</time></trkpt><trkpt lat="41.8361506250881" lon="12.280616771214602"><ele>7.0</ele><time>2026-04-21T08:27:43Z</time></trkpt><trkpt lat="41.836295036408174" lon="12.280464393140557"><ele>7.666666666666667</ele><time>2026-04-21T08:27:44Z</time></trkpt><trkpt lat="41.83642871851862" lon="12.28031477169187"><ele>8.333333333333334</ele><time>2026-04-21T08:27:45Z</time></trkpt><trkpt lat="41.83656119241122" lon="12.280188119949196"><ele>9.0</ele><time>2026-04-21T08:27:46Z</time></trkpt><trkpt lat="41.83667977947416" lon="12.280048405142491"><ele>9.0</ele><time>2026-04-21T08:27:47Z</time></trkpt><trkpt lat="41.83683436664811" lon="12.279877581292183"><ele>9.0</ele><time>2026-04-21T08:27:48Z</time></trkpt><trkpt lat="41.83701516348478" lon="12.279695281161016"><ele>9.0</ele><time>2026-04-21T08:27:49Z</time></trkpt><trkpt lat="41.837160964035" lon="12.279541147306805"><ele>8.666666666666666</ele><time>2026-04-21T08:27:50Z</time></trkpt><trkpt lat="41.83730153006494" lon="12.279389439590371"><ele>8.333333333333332</ele><time>2026-04-21T08:27:51Z</time></trkpt><trkpt lat="41.83745220152371" lon="12.279235088450122"><ele>8.0</ele><time>2026-04-21T08:27:52Z</time></trkpt><trkpt lat="41.8376264174954" lon="12.279068867953438"><ele>8.666666666666666</ele><time>2026-04-21T08:27:53Z</time></trkpt><trkpt lat="41.837790371996434" lon="12.278911967752807"><ele>9.333333333333334</ele><time>2026-04-21T08:27:54Z</time></trkpt><trkpt lat="41.837987037187844" lon="12.278754699553105"><ele>10.0</ele><time>2026-04-21T08:27:55Z</time></trkpt><trkpt lat="41.83820170588562" lon="12.278605191837654"><ele>10.0</ele><time>2026-04-21T08:27:56Z</time></trkpt><trkpt lat="41.83839415743121" lon="12.278467953074934"><ele>10.0</ele><time>2026-04-21T08:27:57Z</time></trkpt><trkpt lat="41.83855469683604" lon="12.278310498435806"><ele>10.0</ele><time>2026-04-21T08:27:58Z</time></trkpt><trkpt lat="41.838699980005835" lon="12.278145422656591"><ele>10.0</ele><time>2026-04-21T08:27:59Z</time></trkpt><trkpt lat="41.83884750243105" lon="12.277968196338154"><ele>10.0</ele><time>2026-04-21T08:28:00Z</time></trkpt><trkpt lat="41.83900381092969" lon="12.277786556218409"><ele>10.0</ele><time>2026-04-21T08:28:01Z</time></trkpt><trkpt lat="41.83915342140432" lon="12.277607823267214"><ele>10.0</ele><time>2026-04-21T08:28:02Z</time></trkpt><trkpt lat="41.83931620074766" lon="12.277430176276345"><ele>10.0</ele><time>2026-04-21T08:28:03Z</time></trkpt><trkpt lat="41.83946594767677" lon="12.27725087198982"><ele>10.0</ele><time>2026-04-21T08:28:03.999Z</time></trkpt><trkpt lat="41.83962223582699" lon="12.277078784233359"><ele>10.0</ele><time>2026-04-21T08:28:04.999Z</time></trkpt><trkpt lat="41.839773933488544" lon="12.276897422884522"><ele>10.0</ele><time>2026-04-21T08:28:05.999Z</time></trkpt><trkpt lat="41.83993564455147" lon="12.276721746557689"><ele>10.0</ele><time>2026-04-21T08:28:06.999Z</time></trkpt><trkpt lat="41.84008114339607" lon="12.276537275965147"><ele>9.0</ele><time>2026-04-21T08:28:07.999Z</time></trkpt><trkpt lat="41.84022880720665" lon="12.276328341497765"><ele>8.0</ele><time>2026-04-21T08:28:08.999Z</time></trkpt><trkpt lat="41.8403562401198" lon="12.276102242562306"><ele>7.0</ele><time>2026-04-21T08:28:09.999Z</time></trkpt><trkpt lat="41.840465795626365" lon="12.2758738210583"><ele>7.0</ele><time>2026-04-21T08:28:10.999Z</time></trkpt><trkpt lat="41.840590755497" lon="12.275680622007636"><ele>7.0</ele><time>2026-04-21T08:28:11.999Z</time></trkpt><trkpt lat="41.840704483842714" lon="12.275464566172648"><ele>7.0</ele><time>2026-04-21T08:28:12.999Z</time></trkpt><trkpt lat="41.840841041884396" lon="12.27528873619705"><ele>6.666666666666667</ele><time>2026-04-21T08:28:13.999Z</time></trkpt><trkpt lat="41.84098918676557" lon="12.275102916413749"><ele>6.333333333333334</ele><time>2026-04-21T08:28:14.999Z</time></trkpt><trkpt lat="41.84114525813259" lon="12.27492117305389"><ele>6.0</ele><time>2026-04-21T08:28:15.999Z</time></trkpt><trkpt lat="41.84129387702197" lon="12.274757150890938"><ele>6.0</ele><time>2026-04-21T08:28:16.999Z</time></trkpt><trkpt lat="41.84143772632836" lon="12.274601924121686"><ele>6.0</ele><time>2026-04-21T08:28:17.999Z</time></trkpt><trkpt lat="41.84157835191473" lon="12.274444770294835"><ele>6.0</ele><time>2026-04-21T08:28:18.999Z</time></trkpt><trkpt lat="41.84171418748879" lon="12.274283239171934"><ele>5.333333333333333</ele><time>2026-04-21T08:28:19.999Z</time></trkpt><trkpt lat="41.84185428207905" lon="12.274134535203387"><ele>4.666666666666666</ele><time>2026-04-21T08:28:20.999Z</time></trkpt><trkpt lat="41.84201090155315" lon="12.273977552265343"><ele>4.0</ele><time>2026-04-21T08:28:21.999Z</time></trkpt><trkpt lat="41.842179246967156" lon="12.273829277186966"><ele>5.0</ele><time>2026-04-21T08:28:22.999Z</time></trkpt><trkpt lat="41.8423653727804" lon="12.27368505674811"><ele>6.0</ele><time>2026-04-21T08:28:23.999Z</time></trkpt><trkpt lat="41.842572314545116" lon="12.273539344134324"><ele>7.0</ele><time>2026-04-21T08:28:24.999Z</time></trkpt><trkpt lat="41.842757295286624" lon="12.273414081905758"><ele>7.0</ele><time>2026-04-21T08:28:25.999Z</time></trkpt><trkpt lat="41.84293319850558" lon="12.273283129512606"><ele>7.0</ele><time>2026-04-21T08:28:26.999Z</time></trkpt><trkpt lat="41.8430893507091" lon="12.273136621994894"><ele>7.0</ele><time>2026-04-21T08:28:27.999Z</time></trkpt><trkpt lat="41.84323203111634" lon="12.27295462202942"><ele>7.333333333333334</ele><time>2026-04-21T08:28:28.999Z</time></trkpt><trkpt lat="41.843391459505405" lon="12.272787128652018"><ele>7.666666666666666</ele><time>2026-04-21T08:28:29.999Z</time></trkpt><trkpt lat="41.84353584423451" lon="12.272598102698845"><ele>8.0</ele><time>2026-04-21T08:28:30.999Z</time></trkpt><trkpt lat="41.843692861154175" lon="12.272417753496574"><ele>9.0</ele><time>2026-04-21T08:28:31.999Z</time></trkpt><trkpt lat="41.84385935747641" lon="12.272230033820644"><ele>10.0</ele><time>2026-04-21T08:28:32.999Z</time></trkpt><trkpt lat="41.84402683941796" lon="12.27204267486797"><ele>11.0</ele><time>2026-04-21T08:28:33.999Z</time></trkpt><trkpt lat="41.84418835976344" lon="12.271865903427676"><ele>11.0</ele><time>2026-04-21T08:28:34.999Z</time></trkpt><trkpt lat="41.84434823134455" lon="12.271685675019695"><ele>11.0</ele><time>2026-04-21T08:28:35.999Z</time></trkpt><trkpt lat="41.84452307007583" lon="12.271514217471623"><ele>11.0</ele><time>2026-04-21T08:28:36.999Z</time></trkpt><trkpt lat="41.84468967836674" lon="12.2713303754669"><ele>11.0</ele><time>2026-04-21T08:28:37.999Z</time></trkpt><trkpt lat="41.844859304239414" lon="12.271144669421709"><ele>11.0</ele><time>2026-04-21T08:28:38.999Z</time></trkpt><trkpt lat="41.845028235212666" lon="12.270962141053314"><ele>11.0</ele><time>2026-04-21T08:28:40Z</time></trkpt><trkpt lat="41.845197124430726" lon="12.27078474541527"><ele>10.666666666666666</ele><time>2026-04-21T08:28:41Z</time></trkpt><trkpt lat="41.84536957551396" lon="12.27060727273692"><ele>10.333333333333334</ele><time>2026-04-21T08:28:42Z</time></trkpt><trkpt lat="41.845543025267645" lon="12.270430693853566"><ele>10.0</ele><time>2026-04-21T08:28:43Z</time></trkpt><trkpt lat="41.84570404154011" lon="12.270254534073358"><ele>10.0</ele><time>2026-04-21T08:28:44Z</time></trkpt><trkpt lat="41.84585781269801" lon="12.270080456882836"><ele>10.0</ele><time>2026-04-21T08:28:45Z</time></trkpt><trkpt lat="41.84602310764486" lon="12.269905691960266"><ele>10.0</ele><time>2026-04-21T08:28:46Z</time></trkpt><trkpt lat="41.84619772522671" lon="12.26971458385254"><ele>8.5</ele><time>2026-04-21T08:28:47Z</time></trkpt><trkpt lat="41.84637133210591" lon="12.269514076919227"><ele>7.0</ele><time>2026-04-21T08:28:48Z</time></trkpt><trkpt lat="41.84653454051064" lon="12.269312801479186"><ele>7.0</ele><time>2026-04-21T08:28:49Z</time></trkpt><trkpt lat="41.84668432038154" lon="12.269131071772023"><ele>7.0</ele><time>2026-04-21T08:28:50Z</time></trkpt><trkpt lat="41.84681777134007" lon="12.268950056252896"><ele>7.0</ele><time>2026-04-21T08:28:51Z</time></trkpt><trkpt lat="41.84695146138" lon="12.268776331954799"><ele>7.0</ele><time>2026-04-21T08:28:52Z</time></trkpt><trkpt lat="41.84709031568761" lon="12.26859877890454"><ele>7.0</ele><time>2026-04-21T08:28:53Z</time></trkpt><trkpt lat="41.847238341404434" lon="12.268412805455194"><ele>7.0</ele><time>2026-04-21T08:28:54Z</time></trkpt><trkpt lat="41.847393032529695" lon="12.268229703616912"><ele>7.0</ele><time>2026-04-21T08:28:55Z</time></trkpt><trkpt lat="41.8475580845107" lon="12.268051430956824"><ele>7.0</ele><time>2026-04-21T08:28:56Z</time></trkpt><trkpt lat="41.84772546995031" lon="12.267878745492437"><ele>7.0</ele><time>2026-04-21T08:28:57Z</time></trkpt><trkpt lat="41.847898499677434" lon="12.267701202853118"><ele>7.0</ele><time>2026-04-21T08:28:58Z</time></trkpt><trkpt lat="41.84806413765466" lon="12.267533836456774"><ele>7.0</ele><time>2026-04-21T08:28:59Z</time></trkpt><trkpt lat="41.84822638757744" lon="12.26737423365148"><ele>7.0</ele><time>2026-04-21T08:29:00Z</time></trkpt><trkpt lat="41.84839063532711" lon="12.267221700123098"><ele>8.0</ele><time>2026-04-21T08:29:01Z</time></trkpt><trkpt lat="41.84856035868869" lon="12.267074313322691"><ele>9.0</ele><time>2026-04-21T08:29:02Z</time></trkpt><trkpt lat="41.8487385872788" lon="12.266926386383073"><ele>10.0</ele><time>2026-04-21T08:29:03Z</time></trkpt><trkpt lat="41.84891006871948" lon="12.266780052001044"><ele>10.0</ele><time>2026-04-21T08:29:04Z</time></trkpt><trkpt lat="41.84908730521194" lon="12.26662751400215"><ele>10.0</ele><time>2026-04-21T08:29:05Z</time></trkpt><trkpt lat="41.849265452360356" lon="12.266477257280993"><ele>10.0</ele><time>2026-04-21T08:29:06Z</time></trkpt><trkpt lat="41.84943835144857" lon="12.266328902822433"><ele>10.0</ele><time>2026-04-21T08:29:07Z</time></trkpt><trkpt lat="41.84960783191526" lon="12.266185848157052"><ele>10.0</ele><time>2026-04-21T08:29:08Z</time></trkpt><trkpt lat="41.84979269111308" lon="12.266067752219687"><ele>10.0</ele><time>2026-04-21T08:29:09Z</time></trkpt><trkpt lat="41.84998612159309" lon="12.265974146372573"><ele>10.0</ele><time>2026-04-21T08:29:10Z</time></trkpt><trkpt lat="41.85017347717688" lon="12.265865887506"><ele>10.0</ele><time>2026-04-21T08:29:11Z</time></trkpt><trkpt lat="41.85035923872997" lon="12.265723663946988"><ele>10.0</ele><time>2026-04-21T08:29:12Z</time></trkpt><trkpt lat="41.85053349540595" lon="12.265547770094777"><ele>10.0</ele><time>2026-04-21T08:29:13Z</time></trkpt><trkpt lat="41.85070025737436" lon="12.265365265913593"><ele>10.0</ele><time>2026-04-21T08:29:14Z</time></trkpt><trkpt lat="41.850869467928554" lon="12.265196086607734"><ele>10.0</ele><time>2026-04-21T08:29:15Z</time></trkpt><trkpt lat="41.85101189481414" lon="12.26504876342933"><ele>9.75</ele><time>2026-04-21T08:29:16Z</time></trkpt><trkpt lat="41.85113912371366" lon="12.264919347293471"><ele>9.5</ele><time>2026-04-21T08:29:17Z</time></trkpt><trkpt lat="41.85124004867453" lon="12.26481733363988"><ele>9.25</ele><time>2026-04-21T08:29:18Z</time></trkpt><trkpt lat="41.851336146879845" lon="12.26471936489599"><ele>9.0</ele><time>2026-04-21T08:29:19Z</time></trkpt><trkpt lat="41.851425723052365" lon="12.264626616846718"><ele>9.0</ele><time>2026-04-21T08:29:20Z</time></trkpt><trkpt lat="41.851512854366106" lon="12.264538591180967"><ele>9.0</ele><time>2026-04-21T08:29:21Z</time></trkpt><trkpt lat="41.85160053089236" lon="12.264455083958373"><ele>9.0</ele><time>2026-04-21T08:29:22Z</time></trkpt><trkpt lat="41.85170094415419" lon="12.264359904295075"><ele>9.0</ele><time>2026-04-21T08:29:23Z</time></trkpt><trkpt lat="41.8518148930499" lon="12.264248349630128"><ele>8.666666666666666</ele><time>2026-04-21T08:29:24Z</time></trkpt><trkpt lat="41.851939441332014" lon="12.264116096484557"><ele>8.333333333333332</ele><time>2026-04-21T08:29:25Z</time></trkpt><trkpt lat="41.8520855471243" lon="12.263958583272132"><ele>8.0</ele><time>2026-04-21T08:29:26Z</time></trkpt><trkpt lat="41.85222826601152" lon="12.26380831494675"><ele>8.0</ele><time>2026-04-21T08:29:27Z</time></trkpt><trkpt lat="41.85237726694576" lon="12.263657335321325"><ele>8.0</ele><time>2026-04-21T08:29:28Z</time></trkpt><trkpt lat="41.85251954213243" lon="12.263512993285705"><ele>8.0</ele><time>2026-04-21T08:29:29Z</time></trkpt><trkpt lat="41.8526671514574" lon="12.26336139864752"><ele>8.0</ele><time>2026-04-21T08:29:30Z</time></trkpt><trkpt lat="41.852820752231366" lon="12.263209821601167"><ele>8.0</ele><time>2026-04-21T08:29:31Z</time></trkpt><trkpt lat="41.85298490326301" lon="12.26305283664644"><ele>8.0</ele><time>2026-04-21T08:29:32Z</time></trkpt><trkpt lat="41.85315356801678" lon="12.26289655283562"><ele>7.666666666666666</ele><time>2026-04-21T08:29:33Z</time></trkpt><trkpt lat="41.85329526283606" lon="12.262762017624901"><ele>7.333333333333334</ele><time>2026-04-21T08:29:34Z</time></trkpt><trkpt lat="41.85342965403976" lon="12.262627820296125"><ele>7.0</ele><time>2026-04-21T08:29:35Z</time></trkpt><trkpt lat="41.85356298265403" lon="12.262497221150543"><ele>7.666666666666667</ele><time>2026-04-21T08:29:36Z</time></trkpt><trkpt lat="41.85369307319382" lon="12.262370121237321"><ele>8.333333333333334</ele><time>2026-04-21T08:29:37Z</time></trkpt><trkpt lat="41.85381915746482" lon="12.262240587817052"><ele>9.0</ele><time>2026-04-21T08:29:38Z</time></trkpt><trkpt lat="41.853929966016445" lon="12.26211946508867"><ele>9.0</ele><time>2026-04-21T08:29:39Z</time></trkpt><trkpt lat="41.854028402105584" lon="12.262006766089598"><ele>9.0</ele><time>2026-04-21T08:29:40Z</time></trkpt><trkpt lat="41.85412081787331" lon="12.261905678984016"><ele>9.0</ele><time>2026-04-21T08:29:41Z</time></trkpt><trkpt lat="41.85420607671353" lon="12.261809351261448"><ele>9.0</ele><time>2026-04-21T08:29:42Z</time></trkpt><trkpt lat="41.85429336799928" lon="12.261723110655526"><ele>9.25</ele><time>2026-04-21T08:29:43Z</time></trkpt><trkpt lat="41.85439162095281" lon="12.261649557597107"><ele>9.5</ele><time>2026-04-21T08:29:44Z</time></trkpt><trkpt lat="41.854498530334716" lon="12.26156748420748"><ele>9.75</ele><time>2026-04-21T08:29:45Z</time></trkpt><trkpt lat="41.85459990021879" lon="12.261441291659885"><ele>10.0</ele><time>2026-04-21T08:29:46Z</time></trkpt><trkpt lat="41.8547131537593" lon="12.261308057417239"><ele>10.333333333333334</ele><time>2026-04-21T08:29:47Z</time></trkpt><trkpt lat="41.85486170476164" lon="12.26119019347269"><ele>10.666666666666666</ele><time>2026-04-21T08:29:48Z</time></trkpt><trkpt lat="41.855002163281206" lon="12.261071071736383"><ele>11.0</ele><time>2026-04-21T08:29:49Z</time></trkpt><trkpt lat="41.85513798196217" lon="12.260949538142553"><ele>11.0</ele><time>2026-04-21T08:29:50Z</time></trkpt><trkpt lat="41.85527546184857" lon="12.260823928100477"><ele>11.0</ele><time>2026-04-21T08:29:51Z</time></trkpt><trkpt lat="41.85541450549998" lon="12.26068682216542"><ele>11.0</ele><time>2026-04-21T08:29:52Z</time></trkpt><trkpt lat="41.85555335129232" lon="12.260544492366678"><ele>11.0</ele><time>2026-04-21T08:29:53Z</time></trkpt><trkpt lat="41.85570502807814" lon="12.260396502109867"><ele>11.0</ele><time>2026-04-21T08:29:54Z</time></trkpt><trkpt lat="41.85586725869089" lon="12.260234511659066"><ele>11.0</ele><time>2026-04-21T08:29:55Z</time></trkpt><trkpt lat="41.856054365760244" lon="12.260043107724366"><ele>10.666666666666666</ele><time>2026-04-21T08:29:56Z</time></trkpt><trkpt lat="41.85622040268375" lon="12.259886636540802"><ele>10.333333333333334</ele><time>2026-04-21T08:29:57Z</time></trkpt><trkpt lat="41.85637597218863" lon="12.259732705794338"><ele>10.0</ele><time>2026-04-21T08:29:58Z</time></trkpt><trkpt lat="41.85652984577083" lon="12.259577258381531"><ele>10.0</ele><time>2026-04-21T08:29:59Z</time></trkpt><trkpt lat="41.85668791140205" lon="12.259421100831624"><ele>10.0</ele><time>2026-04-21T08:30:00Z</time></trkpt><trkpt lat="41.856847066612126" lon="12.259262506957677"><ele>10.0</ele><time>2026-04-21T08:30:01Z</time></trkpt><trkpt lat="41.85701165884134" lon="12.259098285877561"><ele>10.666666666666668</ele><time>2026-04-21T08:30:02Z</time></trkpt><trkpt lat="41.85716317923868" lon="12.258945057046768"><ele>11.333333333333334</ele><time>2026-04-21T08:30:03Z</time></trkpt><trkpt lat="41.857302353232264" lon="12.258799246584392"><ele>12.0</ele><time>2026-04-21T08:30:04Z</time></trkpt><trkpt lat="41.857430288899" lon="12.25866588835359"><ele>12.0</ele><time>2026-04-21T08:30:05Z</time></trkpt><trkpt lat="41.85755706499001" lon="12.258566655797523"><ele>12.0</ele><time>2026-04-21T08:30:06Z</time></trkpt><trkpt lat="41.85766945562388" lon="12.25845477458021"><ele>12.0</ele><time>2026-04-21T08:30:07Z</time></trkpt><trkpt lat="41.857805737801485" lon="12.258319109824605"><ele>11.666666666666666</ele><time>2026-04-21T08:30:08Z</time></trkpt><trkpt lat="41.85792606284725" lon="12.258199329100352"><ele>11.333333333333332</ele><time>2026-04-21T08:30:09Z</time></trkpt><trkpt lat="41.8580419468865" lon="12.25806869300166"><ele>11.0</ele><time>2026-04-21T08:30:09.999Z</time></trkpt><trkpt lat="41.85816937201447" lon="12.257943400768363"><ele>10.666666666666666</ele><time>2026-04-21T08:30:10.999Z</time></trkpt><trkpt lat="41.85830772727086" lon="12.257805438153449"><ele>10.333333333333334</ele><time>2026-04-21T08:30:11.999Z</time></trkpt><trkpt lat="41.85845761267515" lon="12.257655154499593"><ele>10.0</ele><time>2026-04-21T08:30:12.999Z</time></trkpt><trkpt lat="41.85860429363907" lon="12.257510370464622"><ele>10.0</ele><time>2026-04-21T08:30:13.999Z</time></trkpt><trkpt lat="41.85874653915463" lon="12.257367860197746"><ele>10.0</ele><time>2026-04-21T08:30:14.999Z</time></trkpt><trkpt lat="41.85889651455923" lon="12.25721677178527"><ele>10.0</ele><time>2026-04-21T08:30:15.999Z</time></trkpt><trkpt lat="41.85904014000331" lon="12.25707447226956"><ele>10.333333333333334</ele><time>2026-04-21T08:30:16.999Z</time></trkpt><trkpt lat="41.859181633817535" lon="12.256930771026653"><ele>10.666666666666666</ele><time>2026-04-21T08:30:17.999Z</time></trkpt><trkpt lat="41.85933300460894" lon="12.256781795761876"><ele>11.0</ele><time>2026-04-21T08:30:18.999Z</time></trkpt><trkpt lat="41.85947583386538" lon="12.25663625552931"><ele>11.0</ele><time>2026-04-21T08:30:19.999Z</time></trkpt><trkpt lat="41.85960028069419" lon="12.256508595977317"><ele>11.0</ele><time>2026-04-21T08:30:20.999Z</time></trkpt><trkpt lat="41.85970745228367" lon="12.256398348018072"><ele>11.0</ele><time>2026-04-21T08:30:21.999Z</time></trkpt><trkpt lat="41.85980147977096" lon="12.256302682646519"><ele>11.0</ele><time>2026-04-21T08:30:22.999Z</time></trkpt><trkpt lat="41.8599022367509" lon="12.256200507293663"><ele>10.5</ele><time>2026-04-21T08:30:23.999Z</time></trkpt><trkpt lat="41.85999812004868" lon="12.256104402656206"><ele>10.0</ele><time>2026-04-21T08:30:24.999Z</time></trkpt><trkpt lat="41.86010705061776" lon="12.255996857157239"><ele>9.5</ele><time>2026-04-21T08:30:26Z</time></trkpt><trkpt lat="41.86021889572134" lon="12.255885338563466"><ele>9.0</ele><time>2026-04-21T08:30:27Z</time></trkpt><trkpt lat="41.860329327015236" lon="12.255772849039268"><ele>9.0</ele><time>2026-04-21T08:30:28Z</time></trkpt><trkpt lat="41.86046507741538" lon="12.255643317289552"><ele>9.0</ele><time>2026-04-21T08:30:29Z</time></trkpt><trkpt lat="41.8606113658384" lon="12.255491622406254"><ele>9.0</ele><time>2026-04-21T08:30:30Z</time></trkpt><trkpt lat="41.860755758863874" lon="12.255373646207532"><ele>9.0</ele><time>2026-04-21T08:30:31Z</time></trkpt><trkpt lat="41.86089117969994" lon="12.255237963419638"><ele>9.0</ele><time>2026-04-21T08:30:32Z</time></trkpt><trkpt lat="41.86101343161473" lon="12.255090299864232"><ele>9.0</ele><time>2026-04-21T08:30:33Z</time></trkpt><trkpt lat="41.86114744966307" lon="12.25495509993205"><ele>9.0</ele><time>2026-04-21T08:30:34Z</time></trkpt><trkpt lat="41.86129207721362" lon="12.254812888683002"><ele>9.0</ele><time>2026-04-21T08:30:35Z</time></trkpt><trkpt lat="41.86143948383191" lon="12.254664623233724"><ele>9.0</ele><time>2026-04-21T08:30:36Z</time></trkpt><trkpt lat="41.86158800553807" lon="12.2545123809669"><ele>8.333333333333334</ele><time>2026-04-21T08:30:37Z</time></trkpt><trkpt lat="41.86173682912598" lon="12.254383372384309"><ele>7.666666666666667</ele><time>2026-04-21T08:30:38Z</time></trkpt><trkpt lat="41.86185945167747" lon="12.25422898028353"><ele>7.0</ele><time>2026-04-21T08:30:39Z</time></trkpt><trkpt lat="41.86199461364529" lon="12.254066716298134"><ele>6.666666666666667</ele><time>2026-04-21T08:30:40Z</time></trkpt><trkpt lat="41.86211273725386" lon="12.253881236238657"><ele>6.333333333333334</ele><time>2026-04-21T08:30:41Z</time></trkpt><trkpt lat="41.86221112285568" lon="12.253679930783287"><ele>6.0</ele><time>2026-04-21T08:30:42Z</time></trkpt><trkpt lat="41.86229425898831" lon="12.253433792593736"><ele>6.0</ele><time>2026-04-21T08:30:43Z</time></trkpt><trkpt lat="41.862365625895805" lon="12.253180819185616"><ele>6.0</ele><time>2026-04-21T08:30:44Z</time></trkpt><trkpt lat="41.86243093487542" lon="12.252961652011527"><ele>6.0</ele><time>2026-04-21T08:30:45Z</time></trkpt><trkpt lat="41.86249803529959" lon="12.252771240057482"><ele>6.0</ele><time>2026-04-21T08:30:46Z</time></trkpt><trkpt lat="41.86258591723437" lon="12.252558959114173"><ele>6.0</ele><time>2026-04-21T08:30:47Z</time></trkpt><trkpt lat="41.862707099717156" lon="12.252400028014074"><ele>6.0</ele><time>2026-04-21T08:30:48Z</time></trkpt><trkpt lat="41.86285023802639" lon="12.252283742962264"><ele>5.666666666666667</ele><time>2026-04-21T08:30:49Z</time></trkpt><trkpt lat="41.86301808708723" lon="12.252153022981375"><ele>5.333333333333334</ele><time>2026-04-21T08:30:50Z</time></trkpt><trkpt lat="41.86322075365897" lon="12.252025700644975"><ele>5.0</ele><time>2026-04-21T08:30:51Z</time></trkpt><trkpt lat="41.8634114853205" lon="12.251897356462798"><ele>5.333333333333334</ele><time>2026-04-21T08:30:52Z</time></trkpt><trkpt lat="41.86358179268491" lon="12.251784193987245"><ele>5.666666666666667</ele><time>2026-04-21T08:30:53Z</time></trkpt><trkpt lat="41.86375018125944" lon="12.251674094654819"><ele>6.0</ele><time>2026-04-21T08:30:54Z</time></trkpt><trkpt lat="41.8639191262652" lon="12.25155814270719"><ele>5.666666666666667</ele><time>2026-04-21T08:30:55Z</time></trkpt><trkpt lat="41.864086436534514" lon="12.25144704114154"><ele>5.333333333333334</ele><time>2026-04-21T08:30:56Z</time></trkpt><trkpt lat="41.86425412638548" lon="12.251336916262092"><ele>5.0</ele><time>2026-04-21T08:30:57Z</time></trkpt><trkpt lat="41.86440200616669" lon="12.25123095609599"><ele>6.0</ele><time>2026-04-21T08:30:58Z</time></trkpt><trkpt lat="41.864544363929916" lon="12.251135791840383"><ele>7.0</ele><time>2026-04-21T08:30:59Z</time></trkpt><trkpt lat="41.8646870332506" lon="12.251044026294753"><ele>8.0</ele><time>2026-04-21T08:31:00Z</time></trkpt><trkpt lat="41.86482521530052" lon="12.250956312457555"><ele>8.0</ele><time>2026-04-21T08:31:01Z</time></trkpt><trkpt lat="41.86498476876046" lon="12.250854348530902"><ele>8.0</ele><time>2026-04-21T08:31:02Z</time></trkpt><trkpt lat="41.865135517546804" lon="12.250756152201575"><ele>8.0</ele><time>2026-04-21T08:31:03Z</time></trkpt><trkpt lat="41.86527889886726" lon="12.2506643513781"><ele>8.0</ele><time>2026-04-21T08:31:04Z</time></trkpt><trkpt lat="41.865421301919525" lon="12.250567811450958"><ele>8.0</ele><time>2026-04-21T08:31:05Z</time></trkpt><trkpt lat="41.86555931488878" lon="12.250467755148128"><ele>8.0</ele><time>2026-04-21T08:31:06Z</time></trkpt><trkpt lat="41.86569942085021" lon="12.25037031666598"><ele>8.0</ele><time>2026-04-21T08:31:07Z</time></trkpt><trkpt lat="41.8658430102936" lon="12.25026791665628"><ele>8.0</ele><time>2026-04-21T08:31:08Z</time></trkpt><trkpt lat="41.865975407559" lon="12.250157674897414"><ele>8.0</ele><time>2026-04-21T08:31:09Z</time></trkpt><trkpt lat="41.866092271464275" lon="12.250046961549163"><ele>8.0</ele><time>2026-04-21T08:31:10Z</time></trkpt><trkpt lat="41.866193963800036" lon="12.249950230581568"><ele>8.0</ele><time>2026-04-21T08:31:11Z</time></trkpt><trkpt lat="41.86628774964363" lon="12.249856335018517"><ele>8.0</ele><time>2026-04-21T08:31:12Z</time></trkpt><trkpt lat="41.86636520362105" lon="12.249777631226205"><ele>8.0</ele><time>2026-04-21T08:31:13Z</time></trkpt><trkpt lat="41.86643451151233" lon="12.24970800715389"><ele>8.0</ele><time>2026-04-21T08:31:14Z</time></trkpt><trkpt lat="41.86650670264033" lon="12.249636150479414"><ele>8.0</ele><time>2026-04-21T08:31:15Z</time></trkpt><trkpt lat="41.86659256825916" lon="12.249553030631576"><ele>8.0</ele><time>2026-04-21T08:31:16Z</time></trkpt><trkpt lat="41.86669116634941" lon="12.249448492740305"><ele>8.0</ele><time>2026-04-21T08:31:17Z</time></trkpt><trkpt lat="41.86679917550599" lon="12.249361668101931"><ele>8.0</ele><time>2026-04-21T08:31:18Z</time></trkpt><trkpt lat="41.866899150184224" lon="12.24926125094149"><ele>8.333333333333332</ele><time>2026-04-21T08:31:19Z</time></trkpt><trkpt lat="41.86704184658885" lon="12.249092250083184"><ele>8.666666666666666</ele><time>2026-04-21T08:31:20Z</time></trkpt><trkpt lat="41.86717207682251" lon="12.248966146665975"><ele>9.0</ele><time>2026-04-21T08:31:21Z</time></trkpt><trkpt lat="41.86730756552648" lon="12.24883334016441"><ele>8.333333333333334</ele><time>2026-04-21T08:31:22Z</time></trkpt><trkpt lat="41.86744433886798" lon="12.248691225456538"><ele>7.666666666666667</ele><time>2026-04-21T08:31:23Z</time></trkpt><trkpt lat="41.867576762669906" lon="12.248561681777177"><ele>7.0</ele><time>2026-04-21T08:31:24Z</time></trkpt><trkpt lat="41.867706828075285" lon="12.24843473609885"><ele>7.0</ele><time>2026-04-21T08:31:25Z</time></trkpt><trkpt lat="41.86783825121202" lon="12.24830179494834"><ele>7.0</ele><time>2026-04-21T08:31:26Z</time></trkpt><trkpt lat="41.86796285996038" lon="12.248178792827062"><ele>7.0</ele><time>2026-04-21T08:31:27Z</time></trkpt><trkpt lat="41.868084400941285" lon="12.248051770478403"><ele>7.0</ele><time>2026-04-21T08:31:28Z</time></trkpt><trkpt lat="41.86820777604293" lon="12.247927720214461"><ele>7.0</ele><time>2026-04-21T08:31:29Z</time></trkpt><trkpt lat="41.86833156577888" lon="12.24780056517619"><ele>7.0</ele><time>2026-04-21T08:31:30Z</time></trkpt><trkpt lat="41.8684600740128" lon="12.247674628883994"><ele>7.0</ele><time>2026-04-21T08:31:31Z</time></trkpt><trkpt lat="41.868597472265144" lon="12.247539546066154"><ele>7.0</ele><time>2026-04-21T08:31:32Z</time></trkpt><trkpt lat="41.8687243380123" lon="12.24741078168705"><ele>7.0</ele><time>2026-04-21T08:31:33Z</time></trkpt><trkpt lat="41.8688518922945" lon="12.24728281337807"><ele>7.0</ele><time>2026-04-21T08:31:34Z</time></trkpt><trkpt lat="41.868975502646" lon="12.247156830505672"><ele>7.0</ele><time>2026-04-21T08:31:35Z</time></trkpt><trkpt lat="41.86909912408405" lon="12.24703021661905"><ele>7.0</ele><time>2026-04-21T08:31:36Z</time></trkpt><trkpt lat="41.86922516494524" lon="12.246895771363985"><ele>6.666666666666667</ele><time>2026-04-21T08:31:37Z</time></trkpt><trkpt lat="41.869346639355825" lon="12.246757564534024"><ele>6.333333333333334</ele><time>2026-04-21T08:31:38Z</time></trkpt><trkpt lat="41.86947480575261" lon="12.246608751243812"><ele>6.0</ele><time>2026-04-21T08:31:39Z</time></trkpt><trkpt lat="41.869605641830255" lon="12.24646320952363"><ele>6.333333333333334</ele><time>2026-04-21T08:31:40Z</time></trkpt><trkpt lat="41.86974393448428" lon="12.24631928380641"><ele>6.666666666666667</ele><time>2026-04-21T08:31:41Z</time></trkpt><trkpt lat="41.86989178113699" lon="12.246171447324699"><ele>7.0</ele><time>2026-04-21T08:31:42Z</time></trkpt><trkpt lat="41.870016821434334" lon="12.24603466176175"><ele>7.0</ele><time>2026-04-21T08:31:43Z</time></trkpt><trkpt lat="41.87015966448634" lon="12.245901856406153"><ele>7.0</ele><time>2026-04-21T08:31:44Z</time></trkpt><trkpt lat="41.87030831408359" lon="12.245736463663354"><ele>7.0</ele><time>2026-04-21T08:31:45Z</time></trkpt><trkpt lat="41.87045738284897" lon="12.24557258498284"><ele>7.0</ele><time>2026-04-21T08:31:46Z</time></trkpt><trkpt lat="41.870590226570414" lon="12.24542613741893"><ele>7.0</ele><time>2026-04-21T08:31:47Z</time></trkpt><trkpt lat="41.87070152916532" lon="12.245266318727843"><ele>7.0</ele><time>2026-04-21T08:31:48Z</time></trkpt><trkpt lat="41.87082165744867" lon="12.245099053506747"><ele>7.0</ele><time>2026-04-21T08:31:49Z</time></trkpt><trkpt lat="41.87093616586119" lon="12.24493656492325"><ele>7.0</ele><time>2026-04-21T08:31:50Z</time></trkpt><trkpt lat="41.87104832544152" lon="12.244775314359758"><ele>7.0</ele><time>2026-04-21T08:31:51Z</time></trkpt><trkpt lat="41.87115551084324" lon="12.244613246739776"><ele>7.25</ele><time>2026-04-21T08:31:52Z</time></trkpt><trkpt lat="41.87125261186695" lon="12.244471407815766"><ele>7.5</ele><time>2026-04-21T08:31:53Z</time></trkpt><trkpt lat="41.871348492909604" lon="12.24434030406504"><ele>7.75</ele><time>2026-04-21T08:31:54Z</time></trkpt><trkpt lat="41.871452795001126" lon="12.244189033229262"><ele>8.0</ele><time>2026-04-21T08:31:55Z</time></trkpt><trkpt lat="41.871559066941266" lon="12.244038972581134"><ele>8.0</ele><time>2026-04-21T08:31:56Z</time></trkpt><trkpt lat="41.871655649221026" lon="12.243897070010672"><ele>8.0</ele><time>2026-04-21T08:31:57Z</time></trkpt><trkpt lat="41.8717459388636" lon="12.243773113426514"><ele>8.0</ele><time>2026-04-21T08:31:58Z</time></trkpt><trkpt lat="41.87182669021411" lon="12.243651613220527"><ele>8.0</ele><time>2026-04-21T08:31:59Z</time></trkpt><trkpt lat="41.87189511264447" lon="12.243552209979102"><ele>8.166666666666666</ele><time>2026-04-21T08:32:00Z</time></trkpt><trkpt lat="41.87195693801637" lon="12.243456141541433"><ele>8.333333333333332</ele><time>2026-04-21T08:32:01Z</time></trkpt><trkpt lat="41.872028831393365" lon="12.24335281248199"><ele>8.5</ele><time>2026-04-21T08:32:02Z</time></trkpt><trkpt lat="41.872074794905465" lon="12.24328715374146"><ele>8.666666666666666</ele><time>2026-04-21T08:32:03Z</time></trkpt><trkpt lat="41.87214982418751" lon="12.24318501742648"><ele>8.833333333333334</ele><time>2026-04-21T08:32:05Z</time></trkpt><trkpt lat="41.87219387435861" lon="12.243119988841032"><ele>9.0</ele><time>2026-04-21T08:32:07Z</time></trkpt><trkpt lat="41.87227590364651" lon="12.243033098704807"><ele>9.0</ele><time>2026-04-21T08:32:09Z</time></trkpt><trkpt lat="41.872350129467016" lon="12.242975892102963"><ele>9.0</ele><time>2026-04-21T08:32:11Z</time></trkpt><trkpt lat="41.87242144738835" lon="12.242944090792511"><ele>9.0</ele><time>2026-04-21T08:32:13Z</time></trkpt><trkpt lat="41.87254977566567" lon="12.242924751100801"><ele>9.0</ele><time>2026-04-21T08:32:15Z</time></trkpt><trkpt lat="41.87262547467782" lon="12.24294591265037"><ele>9.0</ele><time>2026-04-21T08:32:16Z</time></trkpt><trkpt lat="41.8727098135202" lon="12.242997104272762"><ele>9.0</ele><time>2026-04-21T08:32:17Z</time></trkpt><trkpt lat="41.87279131996485" lon="12.243076377552116"><ele>9.0</ele><time>2026-04-21T08:32:18Z</time></trkpt><trkpt lat="41.87284966044441" lon="12.243162246803587"><ele>9.0</ele><time>2026-04-21T08:32:19Z</time></trkpt><trkpt lat="41.87290580077547" lon="12.24326250289102"><ele>9.0</ele><time>2026-04-21T08:32:20Z</time></trkpt><trkpt lat="41.87296819364432" lon="12.243378897561866"><ele>9.0</ele><time>2026-04-21T08:32:21Z</time></trkpt><trkpt lat="41.8730225699101" lon="12.243482719492766"><ele>9.0</ele><time>2026-04-21T08:32:22Z</time></trkpt><trkpt lat="41.87308100504911" lon="12.243595497941236"><ele>9.0</ele><time>2026-04-21T08:32:23Z</time></trkpt><trkpt lat="41.87313508907659" lon="12.243692894893737"><ele>9.0</ele><time>2026-04-21T08:32:24Z</time></trkpt><trkpt lat="41.87320098923281" lon="12.243804669733942"><ele>9.0</ele><time>2026-04-21T08:32:25Z</time></trkpt><trkpt lat="41.87327641182891" lon="12.243897474750849"><ele>9.0</ele><time>2026-04-21T08:32:26Z</time></trkpt><trkpt lat="41.87336106432334" lon="12.243957694479084"><ele>8.75</ele><time>2026-04-21T08:32:27Z</time></trkpt><trkpt lat="41.873465849572156" lon="12.243996870539785"><ele>8.5</ele><time>2026-04-21T08:32:28Z</time></trkpt><trkpt lat="41.87357879190868" lon="12.244000322852251"><ele>8.25</ele><time>2026-04-21T08:32:29Z</time></trkpt><trkpt lat="41.873690873753056" lon="12.243968860185856"><ele>8.0</ele><time>2026-04-21T08:32:30Z</time></trkpt><trkpt lat="41.87380067060335" lon="12.243899735185943"><ele>8.0</ele><time>2026-04-21T08:32:31Z</time></trkpt><trkpt lat="41.873911577144696" lon="12.243789739698636"><ele>8.0</ele><time>2026-04-21T08:32:32Z</time></trkpt><trkpt lat="41.874032228919596" lon="12.243652132942758"><ele>8.0</ele><time>2026-04-21T08:32:33Z</time></trkpt><trkpt lat="41.87414541145455" lon="12.243527831522515"><ele>8.0</ele><time>2026-04-21T08:32:34Z</time></trkpt><trkpt lat="41.87425512028679" lon="12.243412881140962"><ele>8.0</ele><time>2026-04-21T08:32:35Z</time></trkpt><trkpt lat="41.874369443899795" lon="12.24329808596223"><ele>8.0</ele><time>2026-04-21T08:32:36Z</time></trkpt><trkpt lat="41.87449071324939" lon="12.243173704706118"><ele>8.0</ele><time>2026-04-21T08:32:37Z</time></trkpt><trkpt lat="41.874615917242586" lon="12.243046769335702"><ele>8.0</ele><time>2026-04-21T08:32:38Z</time></trkpt><trkpt lat="41.8747406198944" lon="12.242922116926902"><ele>8.0</ele><time>2026-04-21T08:32:39Z</time></trkpt><trkpt lat="41.8748864901697" lon="12.242773134056412"><ele>8.0</ele><time>2026-04-21T08:32:40Z</time></trkpt><trkpt lat="41.87502212029419" lon="12.242636802690775"><ele>8.0</ele><time>2026-04-21T08:32:41Z</time></trkpt><trkpt lat="41.8751485823386" lon="12.242511285402694"><ele>8.0</ele><time>2026-04-21T08:32:42Z</time></trkpt><trkpt lat="41.87527261110431" lon="12.24238954728281"><ele>8.0</ele><time>2026-04-21T08:32:43Z</time></trkpt><trkpt lat="41.87539364638136" lon="12.242273369731956"><ele>8.666666666666666</ele><time>2026-04-21T08:32:44Z</time></trkpt><trkpt lat="41.87552207525641" lon="12.24214158091188"><ele>9.333333333333334</ele><time>2026-04-21T08:32:45Z</time></trkpt><trkpt lat="41.875651986432985" lon="12.24200764867163"><ele>10.0</ele><time>2026-04-21T08:32:46Z</time></trkpt><trkpt lat="41.87576759308548" lon="12.24188829322082"><ele>10.0</ele><time>2026-04-21T08:32:47Z</time></trkpt><trkpt lat="41.87587188357064" lon="12.241781301302344"><ele>10.0</ele><time>2026-04-21T08:32:48Z</time></trkpt><trkpt lat="41.87597316828634" lon="12.24168076634467"><ele>10.0</ele><time>2026-04-21T08:32:49Z</time></trkpt><trkpt lat="41.87606675571941" lon="12.241588349074348"><ele>10.0</ele><time>2026-04-21T08:32:50Z</time></trkpt><trkpt lat="41.876166927250836" lon="12.241490059524208"><ele>9.75</ele><time>2026-04-21T08:32:51Z</time></trkpt><trkpt lat="41.876269776175434" lon="12.241388228589432"><ele>9.5</ele><time>2026-04-21T08:32:52Z</time></trkpt><trkpt lat="41.87637249199108" lon="12.241284057732805"><ele>9.25</ele><time>2026-04-21T08:32:53Z</time></trkpt><trkpt lat="41.87647602679558" lon="12.24118059072192"><ele>9.0</ele><time>2026-04-21T08:32:54Z</time></trkpt><trkpt lat="41.87657427426723" lon="12.241083208199427"><ele>9.0</ele><time>2026-04-21T08:32:55Z</time></trkpt><trkpt lat="41.876670624632965" lon="12.240987656907492"><ele>9.0</ele><time>2026-04-21T08:32:56Z</time></trkpt><trkpt lat="41.87677487445246" lon="12.24088869774866"><ele>9.0</ele><time>2026-04-21T08:32:57Z</time></trkpt><trkpt lat="41.87687486463912" lon="12.240781063846406"><ele>9.0</ele><time>2026-04-21T08:32:58Z</time></trkpt><trkpt lat="41.87699513212443" lon="12.240663572814652"><ele>9.0</ele><time>2026-04-21T08:32:59Z</time></trkpt><trkpt lat="41.877118179574424" lon="12.240554196176758"><ele>9.0</ele><time>2026-04-21T08:33:00Z</time></trkpt><trkpt lat="41.87724693606967" lon="12.240434425755044"><ele>9.0</ele><time>2026-04-21T08:33:01Z</time></trkpt><trkpt lat="41.87737500577244" lon="12.240320858614963"><ele>9.0</ele><time>2026-04-21T08:33:02Z</time></trkpt><trkpt lat="41.877492152004294" lon="12.240201493834363"><ele>9.0</ele><time>2026-04-21T08:33:03Z</time></trkpt><trkpt lat="41.877635629964054" lon="12.240129350625478"><ele>9.0</ele><time>2026-04-21T08:33:04Z</time></trkpt><trkpt lat="41.87778032522611" lon="12.240053478062896"><ele>8.666666666666666</ele><time>2026-04-21T08:33:05Z</time></trkpt><trkpt lat="41.87793503549415" lon="12.239977938482108"><ele>8.333333333333332</ele><time>2026-04-21T08:33:06Z</time></trkpt><trkpt lat="41.878097260230795" lon="12.23990399791741"><ele>8.0</ele><time>2026-04-21T08:33:07Z</time></trkpt><trkpt lat="41.87823989788194" lon="12.239819599450213"><ele>8.0</ele><time>2026-04-21T08:33:08Z</time></trkpt><trkpt lat="41.878393281042285" lon="12.2397578221289"><ele>8.0</ele><time>2026-04-21T08:33:09Z</time></trkpt><trkpt lat="41.87855488934687" lon="12.23968438772049"><ele>8.0</ele><time>2026-04-21T08:33:10Z</time></trkpt><trkpt lat="41.878716955350335" lon="12.239611538027365"><ele>7.666666666666666</ele><time>2026-04-21T08:33:11Z</time></trkpt><trkpt lat="41.87888968593818" lon="12.23954064066335"><ele>7.333333333333334</ele><time>2026-04-21T08:33:12Z</time></trkpt><trkpt lat="41.87906741236872" lon="12.239457458865706"><ele>7.0</ele><time>2026-04-21T08:33:13Z</time></trkpt><trkpt lat="41.87923746317089" lon="12.239384695014476"><ele>7.0</ele><time>2026-04-21T08:33:14Z</time></trkpt><trkpt lat="41.8793842272429" lon="12.239318442504434"><ele>7.0</ele><time>2026-04-21T08:33:15Z</time></trkpt><trkpt lat="41.87952864653287" lon="12.239253658479555"><ele>7.0</ele><time>2026-04-21T08:33:16Z</time></trkpt><trkpt lat="41.87968271170291" lon="12.239186431805708"><ele>7.0</ele><time>2026-04-21T08:33:17Z</time></trkpt><trkpt lat="41.87984401114745" lon="12.239114230859679"><ele>7.0</ele><time>2026-04-21T08:33:18Z</time></trkpt><trkpt lat="41.88001961410287" lon="12.239030509011151"><ele>7.0</ele><time>2026-04-21T08:33:19Z</time></trkpt><trkpt lat="41.8801936349468" lon="12.238954667791166"><ele>7.333333333333334</ele><time>2026-04-21T08:33:20Z</time></trkpt><trkpt lat="41.88034879511523" lon="12.23888251960534"><ele>7.666666666666666</ele><time>2026-04-21T08:33:21Z</time></trkpt><trkpt lat="41.88049997826107" lon="12.238820328060052"><ele>8.0</ele><time>2026-04-21T08:33:22Z</time></trkpt><trkpt lat="41.88066129505498" lon="12.238750079984614"><ele>8.0</ele><time>2026-04-21T08:33:23Z</time></trkpt><trkpt lat="41.88081614416968" lon="12.238682419331981"><ele>8.0</ele><time>2026-04-21T08:33:24Z</time></trkpt><trkpt lat="41.88096836422368" lon="12.238616627014247"><ele>8.0</ele><time>2026-04-21T08:33:25Z</time></trkpt><trkpt lat="41.88112969892311" lon="12.238546553317901"><ele>8.333333333333332</ele><time>2026-04-21T08:33:26Z</time></trkpt><trkpt lat="41.88129547753762" lon="12.238478039900578"><ele>8.666666666666666</ele><time>2026-04-21T08:33:27Z</time></trkpt><trkpt lat="41.88146736063331" lon="12.2383935690119"><ele>9.0</ele><time>2026-04-21T08:33:28Z</time></trkpt><trkpt lat="41.88163572585211" lon="12.238331248046345"><ele>9.0</ele><time>2026-04-21T08:33:29Z</time></trkpt><trkpt lat="41.88179028011206" lon="12.238264381005303"><ele>9.0</ele><time>2026-04-21T08:33:30Z</time></trkpt><trkpt lat="41.881956662580954" lon="12.238189273491482"><ele>9.0</ele><time>2026-04-21T08:33:31Z</time></trkpt><trkpt lat="41.88212825413672" lon="12.238110809472825"><ele>9.0</ele><time>2026-04-21T08:33:32Z</time></trkpt><trkpt lat="41.88229422928268" lon="12.238035390657075"><ele>9.0</ele><time>2026-04-21T08:33:33Z</time></trkpt><trkpt lat="41.8824706382028" lon="12.237956197115954"><ele>9.0</ele><time>2026-04-21T08:33:34Z</time></trkpt><trkpt lat="41.88264577145831" lon="12.237880006788716"><ele>9.0</ele><time>2026-04-21T08:33:35Z</time></trkpt><trkpt lat="41.882824743870714" lon="12.237796908995966"><ele>9.0</ele><time>2026-04-21T08:33:36Z</time></trkpt><trkpt lat="41.8830227301943" lon="12.237708326708868"><ele>9.0</ele><time>2026-04-21T08:33:37Z</time></trkpt><trkpt lat="41.883227134517846" lon="12.237621283874555"><ele>9.0</ele><time>2026-04-21T08:33:38Z</time></trkpt><trkpt lat="41.88340837271502" lon="12.237541253622311"><ele>9.0</ele><time>2026-04-21T08:33:39Z</time></trkpt><trkpt lat="41.88359272192307" lon="12.23746097123933"><ele>9.0</ele><time>2026-04-21T08:33:40Z</time></trkpt><trkpt lat="41.88377871842834" lon="12.237380815068118"><ele>8.666666666666666</ele><time>2026-04-21T08:33:41.001Z</time></trkpt><trkpt lat="41.8839693485196" lon="12.237296167817574"><ele>8.333333333333332</ele><time>2026-04-21T08:33:42.001Z</time></trkpt><trkpt lat="41.88416494143391" lon="12.237209207668915"><ele>8.0</ele><time>2026-04-21T08:33:43.001Z</time></trkpt><trkpt lat="41.88435206057724" lon="12.237127897862253"><ele>8.0</ele><time>2026-04-21T08:33:44.001Z</time></trkpt><trkpt lat="41.88452754638075" lon="12.23705270846835"><ele>8.0</ele><time>2026-04-21T08:33:45.001Z</time></trkpt><trkpt lat="41.8847018583796" lon="12.236978309058422"><ele>8.0</ele><time>2026-04-21T08:33:46.001Z</time></trkpt><trkpt lat="41.884868893989015" lon="12.236924021615483"><ele>8.0</ele><time>2026-04-21T08:33:47.001Z</time></trkpt><trkpt lat="41.885035932633144" lon="12.236909496966774"><ele>8.0</ele><time>2026-04-21T08:33:48.001Z</time></trkpt><trkpt lat="41.885190154282405" lon="12.236961369514693"><ele>8.0</ele><time>2026-04-21T08:33:49.001Z</time></trkpt><trkpt lat="41.88535005404094" lon="12.237000949477382"><ele>7.666666666666666</ele><time>2026-04-21T08:33:50.001Z</time></trkpt><trkpt lat="41.88550830069537" lon="12.237090877851996"><ele>7.333333333333334</ele><time>2026-04-21T08:33:51.001Z</time></trkpt><trkpt lat="41.88568378037467" lon="12.237177631470944"><ele>7.0</ele><time>2026-04-21T08:33:52.001Z</time></trkpt><trkpt lat="41.88589388999165" lon="12.23727169862509"><ele>7.666666666666667</ele><time>2026-04-21T08:33:53.001Z</time></trkpt><trkpt lat="41.886073677457084" lon="12.23735776579227"><ele>8.333333333333334</ele><time>2026-04-21T08:33:54.001Z</time></trkpt><trkpt lat="41.886232106315376" lon="12.237441185370642"><ele>9.0</ele><time>2026-04-21T08:33:55.001Z</time></trkpt><trkpt lat="41.88639170415572" lon="12.237533163809498"><ele>9.0</ele><time>2026-04-21T08:33:56.001Z</time></trkpt><trkpt lat="41.88654256356004" lon="12.237623299599802"><ele>9.0</ele><time>2026-04-21T08:33:57.001Z</time></trkpt><trkpt lat="41.88668547594259" lon="12.23771561776792"><ele>9.0</ele><time>2026-04-21T08:33:58.001Z</time></trkpt><trkpt lat="41.88681071578803" lon="12.237804627419775"><ele>8.75</ele><time>2026-04-21T08:33:59.001Z</time></trkpt><trkpt lat="41.88692577428066" lon="12.237900189559797"><ele>8.5</ele><time>2026-04-21T08:34:00.001Z</time></trkpt><trkpt lat="41.88702781360972" lon="12.23799760999241"><ele>8.25</ele><time>2026-04-21T08:34:01.001Z</time></trkpt><trkpt lat="41.88712667166033" lon="12.238101683203947"><ele>8.0</ele><time>2026-04-21T08:34:02.001Z</time></trkpt><trkpt lat="41.88721048323524" lon="12.23820257263022"><ele>8.4</ele><time>2026-04-21T08:34:03.001Z</time></trkpt><trkpt lat="41.88729362254689" lon="12.23830476583664"><ele>8.8</ele><time>2026-04-21T08:34:04.001Z</time></trkpt><trkpt lat="41.88736983548909" lon="12.238403132693009"><ele>9.2</ele><time>2026-04-21T08:34:05.001Z</time></trkpt><trkpt lat="41.88743731575527" lon="12.238497629941348"><ele>9.6</ele><time>2026-04-21T08:34:06.001Z</time></trkpt><trkpt lat="41.88748587207565" lon="12.238573557193286"><ele>10.0</ele><time>2026-04-21T08:34:07.001Z</time></trkpt><trkpt lat="41.88754315187805" lon="12.238653826582993"><ele>10.333333333333334</ele><time>2026-04-21T08:34:08.001Z</time></trkpt><trkpt lat="41.887596892961646" lon="12.238720716611912"><ele>10.666666666666668</ele><time>2026-04-21T08:34:09.001Z</time></trkpt><trkpt lat="41.88765257490053" lon="12.238783413231534"><ele>11.0</ele><time>2026-04-21T08:34:10.001Z</time></trkpt><trkpt lat="41.88773746373141" lon="12.23886812174704"><ele>11.333333333333334</ele><time>2026-04-21T08:34:12.001Z</time></trkpt><trkpt lat="41.887801073789845" lon="12.238889393968403"><ele>11.666666666666666</ele><time>2026-04-21T08:34:14.001Z</time></trkpt><trkpt lat="41.88788526615414" lon="12.238833800965741"><ele>12.0</ele><time>2026-04-21T08:34:23Z</time></trkpt><trkpt lat="41.88789605000971" lon="12.238714355010295"><ele>12.0</ele><time>2026-04-21T08:34:26Z</time></trkpt><trkpt lat="41.88796568215539" lon="12.238753101879308"><ele>12.0</ele><time>2026-04-21T08:36:50Z</time></trkpt><trkpt lat="41.88802585997637" lon="12.23871279695085"><ele>12.0</ele><time>2026-04-21T08:38:03.001Z</time></trkpt><trkpt lat="41.88797311482535" lon="12.238771151322668"><ele>12.0</ele><time>2026-04-21T08:42:02Z</time></trkpt><trkpt lat="41.887944733827005" lon="12.238653563629724"><ele>12.0</ele><time>2026-04-21T08:51:19.999Z</time></trkpt><trkpt lat="41.88799528723138" lon="12.238561634636545"><ele>12.0</ele><time>2026-04-21T08:51:22.999Z</time></trkpt><trkpt lat="41.88793890733072" lon="12.238500858632381"><ele>12.0</ele><time>2026-04-21T08:51:38Z</time></trkpt><trkpt lat="41.88787178213161" lon="12.2384919786547"><ele>12.0</ele><time>2026-04-21T08:51:42Z</time></trkpt><trkpt lat="41.887827885753666" lon="12.238361338330716"><ele>12.0</ele><time>2026-04-21T08:52:13Z</time></trkpt><trkpt lat="41.887893479240994" lon="12.23823812130492"><ele>12.0</ele><time>2026-04-21T08:52:14Z</time></trkpt><trkpt lat="41.887950625140775" lon="12.238152690904087"><ele>12.0</ele><time>2026-04-21T08:52:15Z</time></trkpt><trkpt lat="41.88800086267994" lon="12.238077750908886"><ele>12.0</ele><time>2026-04-21T08:52:16Z</time></trkpt><trkpt lat="41.88805696515127" lon="12.238011133222319"><ele>12.333333333333334</ele><time>2026-04-21T08:52:17Z</time></trkpt><trkpt lat="41.88812520946926" lon="12.237940431733234"><ele>12.666666666666668</ele><time>2026-04-21T08:52:18Z</time></trkpt><trkpt lat="41.88819874444197" lon="12.23786816179082"><ele>13.0</ele><time>2026-04-21T08:52:19Z</time></trkpt><trkpt lat="41.88825566725235" lon="12.237796696702882"><ele>13.333333333333334</ele><time>2026-04-21T08:52:20Z</time></trkpt><trkpt lat="41.888310175654425" lon="12.237732837401746"><ele>13.666666666666668</ele><time>2026-04-21T08:52:21Z</time></trkpt><trkpt lat="41.88836009270484" lon="12.237651974411737"><ele>14.0</ele><time>2026-04-21T08:52:22Z</time></trkpt><trkpt lat="41.88842924219386" lon="12.23759348084186"><ele>14.000000000000002</ele><time>2026-04-21T08:52:23Z</time></trkpt><trkpt lat="41.88849862913235" lon="12.237514117611607"><ele>14.0</ele><time>2026-04-21T08:52:24Z</time></trkpt><trkpt lat="41.8885660121349" lon="12.237437046402171"><ele>14.0</ele><time>2026-04-21T08:52:25Z</time></trkpt><trkpt lat="41.88863502863734" lon="12.237357094428903"><ele>14.0</ele><time>2026-04-21T08:52:26Z</time></trkpt><trkpt lat="41.888705115228106" lon="12.237275785113468"><ele>14.000000000000002</ele><time>2026-04-21T08:52:27Z</time></trkpt><trkpt lat="41.888769476361695" lon="12.237200222508628"><ele>14.0</ele><time>2026-04-21T08:52:28Z</time></trkpt><trkpt lat="41.88885660887212" lon="12.237100569672023"><ele>13.333333333333334</ele><time>2026-04-21T08:52:29Z</time></trkpt><trkpt lat="41.888921819427644" lon="12.23702446295874"><ele>12.666666666666668</ele><time>2026-04-21T08:52:30Z</time></trkpt><trkpt lat="41.88899106346569" lon="12.236942689439678"><ele>12.0</ele><time>2026-04-21T08:52:31Z</time></trkpt><trkpt lat="41.88906065342575" lon="12.236863178098542"><ele>11.333333333333334</ele><time>2026-04-21T08:52:32Z</time></trkpt><trkpt lat="41.889122064874755" lon="12.236778697466395"><ele>10.666666666666668</ele><time>2026-04-21T08:52:33Z</time></trkpt><trkpt lat="41.88918711319497" lon="12.236693764470697"><ele>10.0</ele><time>2026-04-21T08:52:34Z</time></trkpt><trkpt lat="41.8892549012526" lon="12.236600327157882"><ele>10.333333333333334</ele><time>2026-04-21T08:52:35Z</time></trkpt><trkpt lat="41.88931529221561" lon="12.236514089592681"><ele>10.666666666666668</ele><time>2026-04-21T08:52:36Z</time></trkpt><trkpt lat="41.88936336214098" lon="12.23643681197853"><ele>11.0</ele><time>2026-04-21T08:52:37Z</time></trkpt><trkpt lat="41.88940932915195" lon="12.236356197085748"><ele>11.333333333333334</ele><time>2026-04-21T08:52:38Z</time></trkpt><trkpt lat="41.8894515163247" lon="12.23626245520064"><ele>11.666666666666666</ele><time>2026-04-21T08:52:39Z</time></trkpt><trkpt lat="41.88949152323844" lon="12.23616953977632"><ele>12.0</ele><time>2026-04-21T08:52:40Z</time></trkpt><trkpt lat="41.88953361226938" lon="12.23607737429588"><ele>12.0</ele><time>2026-04-21T08:52:41Z</time></trkpt><trkpt lat="41.88957305330585" lon="12.235987297343284"><ele>12.0</ele><time>2026-04-21T08:52:42Z</time></trkpt><trkpt lat="41.88960957589479" lon="12.235895492965023"><ele>12.0</ele><time>2026-04-21T08:52:43Z</time></trkpt><trkpt lat="41.88964567016456" lon="12.23580802768491"><ele>12.0</ele><time>2026-04-21T08:52:44Z</time></trkpt><trkpt lat="41.88968334441043" lon="12.235716554483027"><ele>12.0</ele><time>2026-04-21T08:52:45Z</time></trkpt><trkpt lat="41.889726829646875" lon="12.235621583911412"><ele>12.0</ele><time>2026-04-21T08:52:46Z</time></trkpt><trkpt lat="41.88976735930777" lon="12.235524375983381"><ele>11.5</ele><time>2026-04-21T08:52:47Z</time></trkpt><trkpt lat="41.88980913857078" lon="12.235430007478252"><ele>11.0</ele><time>2026-04-21T08:52:48Z</time></trkpt><trkpt lat="41.88984640347524" lon="12.235344442982438"><ele>10.5</ele><time>2026-04-21T08:52:49Z</time></trkpt><trkpt lat="41.88989320169093" lon="12.235235694521618"><ele>10.0</ele><time>2026-04-21T08:52:51Z</time></trkpt><trkpt lat="41.88992714511619" lon="12.235157633440913"><ele>9.5</ele><time>2026-04-21T08:53:07Z</time></trkpt><trkpt lat="41.88997566628572" lon="12.235029380203384"><ele>9.0</ele><time>2026-04-21T08:53:09Z</time></trkpt><trkpt lat="41.89001467762575" lon="12.23495127129673"><ele>9.0</ele><time>2026-04-21T08:53:10Z</time></trkpt><trkpt lat="41.89004811672542" lon="12.23487304285644"><ele>9.0</ele><time>2026-04-21T08:53:11Z</time></trkpt><trkpt lat="41.89007927184804" lon="12.234797027823676"><ele>9.0</ele><time>2026-04-21T08:53:12Z</time></trkpt><trkpt lat="41.89012279322421" lon="12.234695552499277"><ele>9.0</ele><time>2026-04-21T08:53:13Z</time></trkpt><trkpt lat="41.89018619038894" lon="12.234544263199481"><ele>9.0</ele><time>2026-04-21T08:53:14Z</time></trkpt><trkpt lat="41.89024477578623" lon="12.234410122374756"><ele>9.25</ele><time>2026-04-21T08:53:14.999Z</time></trkpt><trkpt lat="41.89030196918046" lon="12.234271987212404"><ele>9.5</ele><time>2026-04-21T08:53:15.999Z</time></trkpt><trkpt lat="41.89036632326364" lon="12.234114120317658"><ele>9.75</ele><time>2026-04-21T08:53:16.999Z</time></trkpt><trkpt lat="41.890436421841166" lon="12.233945648260967"><ele>10.0</ele><time>2026-04-21T08:53:17.999Z</time></trkpt><trkpt lat="41.89052332529958" lon="12.23374675391942"><ele>10.0</ele><time>2026-04-21T08:53:18.999Z</time></trkpt><trkpt lat="41.89060277675613" lon="12.233558708046203"><ele>10.0</ele><time>2026-04-21T08:53:19.999Z</time></trkpt><trkpt lat="41.89069220544264" lon="12.233351933213658"><ele>10.0</ele><time>2026-04-21T08:53:20.999Z</time></trkpt><trkpt lat="41.89078467883285" lon="12.233136372113828"><ele>10.0</ele><time>2026-04-21T08:53:21.999Z</time></trkpt><trkpt lat="41.89088011739236" lon="12.232904057038853"><ele>10.0</ele><time>2026-04-21T08:53:22.999Z</time></trkpt><trkpt lat="41.890990300592215" lon="12.232664819973833"><ele>10.0</ele><time>2026-04-21T08:53:23.999Z</time></trkpt><trkpt lat="41.891084668505385" lon="12.232457836941546"><ele>10.0</ele><time>2026-04-21T08:53:24.999Z</time></trkpt><trkpt lat="41.89117218810366" lon="12.232239886827516"><ele>10.0</ele><time>2026-04-21T08:53:25.999Z</time></trkpt><trkpt lat="41.891261792722425" lon="12.232020733889325"><ele>10.0</ele><time>2026-04-21T08:53:26.999Z</time></trkpt><trkpt lat="41.89135306563111" lon="12.231807960896973"><ele>10.0</ele><time>2026-04-21T08:53:27.999Z</time></trkpt><trkpt lat="41.891450860895596" lon="12.231577325560055"><ele>10.0</ele><time>2026-04-21T08:53:28.999Z</time></trkpt><trkpt lat="41.89154345853947" lon="12.231360233039048"><ele>10.0</ele><time>2026-04-21T08:53:29.999Z</time></trkpt><trkpt lat="41.891634191837845" lon="12.231146144710056"><ele>10.0</ele><time>2026-04-21T08:53:30.999Z</time></trkpt><trkpt lat="41.891737228063576" lon="12.230903014153483"><ele>10.0</ele><time>2026-04-21T08:53:31.999Z</time></trkpt><trkpt lat="41.89185408585527" lon="12.230671153764064"><ele>10.0</ele><time>2026-04-21T08:53:32.999Z</time></trkpt><trkpt lat="41.89198204161186" lon="12.23047812239432"><ele>10.333333333333334</ele><time>2026-04-21T08:53:33.999Z</time></trkpt><trkpt lat="41.89213783192567" lon="12.230293400577963"><ele>10.666666666666666</ele><time>2026-04-21T08:53:34.999Z</time></trkpt><trkpt lat="41.89231025572376" lon="12.230099371486341"><ele>11.0</ele><time>2026-04-21T08:53:35.999Z</time></trkpt><trkpt lat="41.892455231225036" lon="12.229926269108397"><ele>11.0</ele><time>2026-04-21T08:53:36.999Z</time></trkpt><trkpt lat="41.8925973061019" lon="12.229757863560867"><ele>11.0</ele><time>2026-04-21T08:53:37.999Z</time></trkpt><trkpt lat="41.89273494687373" lon="12.229590766976973"><ele>11.0</ele><time>2026-04-21T08:53:38.999Z</time></trkpt><trkpt lat="41.89287214209422" lon="12.229422415384423"><ele>11.0</ele><time>2026-04-21T08:53:39.999Z</time></trkpt><trkpt lat="41.89300852773317" lon="12.229256397004608"><ele>11.0</ele><time>2026-04-21T08:53:40.999Z</time></trkpt><trkpt lat="41.89316683121503" lon="12.229065239620317"><ele>11.0</ele><time>2026-04-21T08:53:41.999Z</time></trkpt><trkpt lat="41.89333605938481" lon="12.228854970935053"><ele>11.5</ele><time>2026-04-21T08:53:42.999Z</time></trkpt><trkpt lat="41.893522266625574" lon="12.22861752011886"><ele>12.0</ele><time>2026-04-21T08:53:43.999Z</time></trkpt><trkpt lat="41.89369564334307" lon="12.228399258299513"><ele>12.0</ele><time>2026-04-21T08:53:44.999Z</time></trkpt><trkpt lat="41.89384437291574" lon="12.228207797128931"><ele>12.0</ele><time>2026-04-21T08:53:45.999Z</time></trkpt><trkpt lat="41.89399147861272" lon="12.228010690332994"><ele>12.0</ele><time>2026-04-21T08:53:46.999Z</time></trkpt><trkpt lat="41.89413383541326" lon="12.227822782425049"><ele>12.0</ele><time>2026-04-21T08:53:47.999Z</time></trkpt><trkpt lat="41.89427256783639" lon="12.227645117655312"><ele>12.0</ele><time>2026-04-21T08:53:48.999Z</time></trkpt><trkpt lat="41.89440678310088" lon="12.22746808237679"><ele>12.0</ele><time>2026-04-21T08:53:50Z</time></trkpt><trkpt lat="41.894556537484256" lon="12.22727581473515"><ele>12.0</ele><time>2026-04-21T08:53:51Z</time></trkpt><trkpt lat="41.89472628486665" lon="12.227062124357849"><ele>12.0</ele><time>2026-04-21T08:53:52Z</time></trkpt><trkpt lat="41.89489707362732" lon="12.226842926398383"><ele>12.0</ele><time>2026-04-21T08:53:53Z</time></trkpt><trkpt lat="41.89505103429961" lon="12.226646213077366"><ele>12.0</ele><time>2026-04-21T08:53:54Z</time></trkpt><trkpt lat="41.89520167520315" lon="12.22645061164065"><ele>12.0</ele><time>2026-04-21T08:53:55Z</time></trkpt><trkpt lat="41.89535479960803" lon="12.226255460153421"><ele>11.666666666666666</ele><time>2026-04-21T08:53:56Z</time></trkpt><trkpt lat="41.89551108356155" lon="12.22605641818085"><ele>11.333333333333332</ele><time>2026-04-21T08:53:57Z</time></trkpt><trkpt lat="41.89566447724773" lon="12.2258620607001"><ele>11.0</ele><time>2026-04-21T08:53:58Z</time></trkpt><trkpt lat="41.89582652575892" lon="12.22565601560809"><ele>11.0</ele><time>2026-04-21T08:53:59Z</time></trkpt><trkpt lat="41.89597622697537" lon="12.225469562895537"><ele>11.0</ele><time>2026-04-21T08:54:00Z</time></trkpt><trkpt lat="41.896128370553846" lon="12.22524512241686"><ele>11.0</ele><time>2026-04-21T08:54:01Z</time></trkpt><trkpt lat="41.896253178883846" lon="12.22499274512686"><ele>11.0</ele><time>2026-04-21T08:54:02Z</time></trkpt><trkpt lat="41.89636259321467" lon="12.22468699238815"><ele>11.0</ele><time>2026-04-21T08:54:03Z</time></trkpt><trkpt lat="41.896467041777456" lon="12.224352096623065"><ele>11.0</ele><time>2026-04-21T08:54:04Z</time></trkpt><trkpt lat="41.896575259534586" lon="12.224055196491248"><ele>11.0</ele><time>2026-04-21T08:54:05Z</time></trkpt><trkpt lat="41.89667040979642" lon="12.22380050881818"><ele>11.0</ele><time>2026-04-21T08:54:06Z</time></trkpt><trkpt lat="41.896764282625035" lon="12.223548324673903"><ele>11.0</ele><time>2026-04-21T08:54:07Z</time></trkpt><trkpt lat="41.896861057523" lon="12.223286283711007"><ele>11.0</ele><time>2026-04-21T08:54:08Z</time></trkpt><trkpt lat="41.89696574354578" lon="12.22300961342586"><ele>11.0</ele><time>2026-04-21T08:54:09Z</time></trkpt><trkpt lat="41.897070259688334" lon="12.22274143944384"><ele>11.0</ele><time>2026-04-21T08:54:10Z</time></trkpt><trkpt lat="41.897166290140994" lon="12.222483825815118"><ele>11.0</ele><time>2026-04-21T08:54:11Z</time></trkpt><trkpt lat="41.89725582066658" lon="12.222232896371574"><ele>10.333333333333332</ele><time>2026-04-21T08:54:12Z</time></trkpt><trkpt lat="41.89734710205339" lon="12.221979759692426"><ele>9.666666666666666</ele><time>2026-04-21T08:54:13Z</time></trkpt><trkpt lat="41.89745027533672" lon="12.221735663645642"><ele>9.0</ele><time>2026-04-21T08:54:14Z</time></trkpt><trkpt lat="41.897541986936794" lon="12.221476500073683"><ele>8.333333333333334</ele><time>2026-04-21T08:54:15Z</time></trkpt><trkpt lat="41.8976371828966" lon="12.22122762056912"><ele>7.666666666666667</ele><time>2026-04-21T08:54:16Z</time></trkpt><trkpt lat="41.897725849092275" lon="12.220979076603127"><ele>7.0</ele><time>2026-04-21T08:54:17Z</time></trkpt><trkpt lat="41.897812990665926" lon="12.220751671754007"><ele>7.0</ele><time>2026-04-21T08:54:18Z</time></trkpt><trkpt lat="41.89789206053741" lon="12.220541375160353"><ele>7.0</ele><time>2026-04-21T08:54:19Z</time></trkpt><trkpt lat="41.89797997200096" lon="12.220323981320416"><ele>7.0</ele><time>2026-04-21T08:54:20Z</time></trkpt><trkpt lat="41.89806827375061" lon="12.220106548516709"><ele>7.0</ele><time>2026-04-21T08:54:21Z</time></trkpt><trkpt lat="41.89818123606305" lon="12.21987989938811"><ele>7.0</ele><time>2026-04-21T08:54:22Z</time></trkpt><trkpt lat="41.89835271328195" lon="12.219694579485317"><ele>7.0</ele><time>2026-04-21T08:54:23Z</time></trkpt><trkpt lat="41.89853145821098" lon="12.219475861616012"><ele>8.5</ele><time>2026-04-21T08:54:24Z</time></trkpt><trkpt lat="41.89873509978235" lon="12.219308224498008"><ele>10.0</ele><time>2026-04-21T08:54:25Z</time></trkpt><trkpt lat="41.89890512954205" lon="12.219130095011073"><ele>9.0</ele><time>2026-04-21T08:54:26Z</time></trkpt><trkpt lat="41.89905050873609" lon="12.21895698620465"><ele>8.0</ele><time>2026-04-21T08:54:27Z</time></trkpt><trkpt lat="41.8992227019952" lon="12.21878312723641"><ele>7.0</ele><time>2026-04-21T08:54:28Z</time></trkpt><trkpt lat="41.89938752172218" lon="12.218612125876128"><ele>6.5</ele><time>2026-04-21T08:54:29Z</time></trkpt><trkpt lat="41.899563549554166" lon="12.218431136102724"><ele>6.0</ele><time>2026-04-21T08:54:30Z</time></trkpt><trkpt lat="41.89974789990417" lon="12.218232577537437"><ele>6.0</ele><time>2026-04-21T08:54:31Z</time></trkpt><trkpt lat="41.8999223686423" lon="12.21804629255606"><ele>6.0</ele><time>2026-04-21T08:54:32Z</time></trkpt><trkpt lat="41.90007372123153" lon="12.217869566567922"><ele>6.0</ele><time>2026-04-21T08:54:33Z</time></trkpt><trkpt lat="41.900244937703455" lon="12.217700774734082"><ele>7.0</ele><time>2026-04-21T08:54:34Z</time></trkpt><trkpt lat="41.90046386284765" lon="12.217478269831298"><ele>8.0</ele><time>2026-04-21T08:54:35Z</time></trkpt><trkpt lat="41.900686013708466" lon="12.21722983965157"><ele>8.0</ele><time>2026-04-21T08:54:36Z</time></trkpt><trkpt lat="41.900927164405324" lon="12.216968502407699"><ele>8.0</ele><time>2026-04-21T08:54:37Z</time></trkpt><trkpt lat="41.901174866020526" lon="12.216709883002192"><ele>8.0</ele><time>2026-04-21T08:54:38Z</time></trkpt><trkpt lat="41.901405346866966" lon="12.216460404711517"><ele>8.0</ele><time>2026-04-21T08:54:39Z</time></trkpt><trkpt lat="41.901623848777476" lon="12.216226190666694"><ele>8.0</ele><time>2026-04-21T08:54:40Z</time></trkpt><trkpt lat="41.9018430973679" lon="12.216005627392194"><ele>8.0</ele><time>2026-04-21T08:54:41Z</time></trkpt><trkpt lat="41.90207072977867" lon="12.215794505869933"><ele>7.5</ele><time>2026-04-21T08:54:42Z</time></trkpt><trkpt lat="41.9022808826349" lon="12.215584594658965"><ele>7.0</ele><time>2026-04-21T08:54:43Z</time></trkpt><trkpt lat="41.90246351462269" lon="12.215382706011559"><ele>7.5</ele><time>2026-04-21T08:54:44Z</time></trkpt><trkpt lat="41.902642962473784" lon="12.215192356254347"><ele>8.0</ele><time>2026-04-21T08:54:45Z</time></trkpt><trkpt lat="41.90282246052372" lon="12.21500978641175"><ele>7.5</ele><time>2026-04-21T08:54:46Z</time></trkpt><trkpt lat="41.903012092133494" lon="12.2148181426505"><ele>7.0</ele><time>2026-04-21T08:54:47Z</time></trkpt><trkpt lat="41.903198638373574" lon="12.214639394237686"><ele>7.0</ele><time>2026-04-21T08:54:48Z</time></trkpt><trkpt lat="41.903408754921074" lon="12.214462595342233"><ele>7.0</ele><time>2026-04-21T08:54:49Z</time></trkpt><trkpt lat="41.90365315734504" lon="12.214279289728863"><ele>7.0</ele><time>2026-04-21T08:54:50Z</time></trkpt><trkpt lat="41.903908291121766" lon="12.21410599958584"><ele>7.0</ele><time>2026-04-21T08:54:51Z</time></trkpt><trkpt lat="41.90414559034487" lon="12.213960784780571"><ele>8.0</ele><time>2026-04-21T08:54:52Z</time></trkpt><trkpt lat="41.90435783398357" lon="12.213822388326404"><ele>9.0</ele><time>2026-04-21T08:54:53Z</time></trkpt><trkpt lat="41.904559678917984" lon="12.213680774808362"><ele>9.0</ele><time>2026-04-21T08:54:54Z</time></trkpt><trkpt lat="41.904747595172246" lon="12.213553030917389"><ele>9.0</ele><time>2026-04-21T08:54:55Z</time></trkpt><trkpt lat="41.90493149101519" lon="12.21343231845308"><ele>9.0</ele><time>2026-04-21T08:54:56Z</time></trkpt><trkpt lat="41.9051120749244" lon="12.213312145019298"><ele>9.666666666666666</ele><time>2026-04-21T08:54:57Z</time></trkpt><trkpt lat="41.90529391646364" lon="12.213188493088268"><ele>10.333333333333332</ele><time>2026-04-21T08:54:58Z</time></trkpt><trkpt lat="41.90549103551674" lon="12.213055124030092"><ele>11.0</ele><time>2026-04-21T08:54:59Z</time></trkpt><trkpt lat="41.905684183167416" lon="12.212922847703254"><ele>11.0</ele><time>2026-04-21T08:55:00Z</time></trkpt><trkpt lat="41.90585644799343" lon="12.21280701045975"><ele>11.0</ele><time>2026-04-21T08:55:01Z</time></trkpt><trkpt lat="41.906011155609654" lon="12.21270532250697"><ele>11.0</ele><time>2026-04-21T08:55:02Z</time></trkpt><trkpt lat="41.90614781172206" lon="12.212591807151723"><ele>11.25</ele><time>2026-04-21T08:55:03Z</time></trkpt><trkpt lat="41.90624683449671" lon="12.212456282391635"><ele>11.5</ele><time>2026-04-21T08:55:04Z</time></trkpt><trkpt lat="41.9063096502981" lon="12.212287668087843"><ele>11.75</ele><time>2026-04-21T08:55:05Z</time></trkpt><trkpt lat="41.9063419882696" lon="12.212089821457758"><ele>12.0</ele><time>2026-04-21T08:55:06Z</time></trkpt><trkpt lat="41.906351859786035" lon="12.211872008100777"><ele>12.0</ele><time>2026-04-21T08:55:07Z</time></trkpt><trkpt lat="41.90637034729621" lon="12.21166368458992"><ele>12.0</ele><time>2026-04-21T08:55:08Z</time></trkpt><trkpt lat="41.9063919108342" lon="12.21146315770022"><ele>12.0</ele><time>2026-04-21T08:55:09Z</time></trkpt><trkpt lat="41.906415276060564" lon="12.211246792405243"><ele>11.666666666666666</ele><time>2026-04-21T08:55:10Z</time></trkpt><trkpt lat="41.906458877043804" lon="12.211040751285962"><ele>11.333333333333332</ele><time>2026-04-21T08:55:11Z</time></trkpt><trkpt lat="41.906539636171935" lon="12.210870813153178"><ele>11.0</ele><time>2026-04-21T08:55:12Z</time></trkpt><trkpt lat="41.90665580181573" lon="12.210728265559881"><ele>10.666666666666666</ele><time>2026-04-21T08:55:13Z</time></trkpt><trkpt lat="41.906788154343694" lon="12.210583921561684"><ele>10.333333333333334</ele><time>2026-04-21T08:55:14Z</time></trkpt><trkpt lat="41.906922135614636" lon="12.210424227484424"><ele>10.0</ele><time>2026-04-21T08:55:15Z</time></trkpt><trkpt lat="41.907053911610326" lon="12.210246950497885"><ele>10.0</ele><time>2026-04-21T08:55:16Z</time></trkpt><trkpt lat="41.90719244910514" lon="12.21004710724848"><ele>10.0</ele><time>2026-04-21T08:55:17Z</time></trkpt><trkpt lat="41.907312576834805" lon="12.209858717291187"><ele>10.0</ele><time>2026-04-21T08:55:18Z</time></trkpt><trkpt lat="41.907428559440035" lon="12.209670528793925"><ele>10.0</ele><time>2026-04-21T08:55:19Z</time></trkpt><trkpt lat="41.90754844489152" lon="12.209482970768152"><ele>10.0</ele><time>2026-04-21T08:55:20Z</time></trkpt><trkpt lat="41.90766841171544" lon="12.209286033885999"><ele>10.0</ele><time>2026-04-21T08:55:20.999Z</time></trkpt><trkpt lat="41.907797953301326" lon="12.20908810024646"><ele>9.333333333333334</ele><time>2026-04-21T08:55:21.999Z</time></trkpt><trkpt lat="41.907927210853224" lon="12.208897662350402"><ele>8.666666666666666</ele><time>2026-04-21T08:55:22.999Z</time></trkpt><trkpt lat="41.908086245856545" lon="12.208677966925134"><ele>8.0</ele><time>2026-04-21T08:55:23.999Z</time></trkpt><trkpt lat="41.90824509221779" lon="12.208470443730524"><ele>8.0</ele><time>2026-04-21T08:55:24.999Z</time></trkpt><trkpt lat="41.90840066974828" lon="12.208284279249344"><ele>8.0</ele><time>2026-04-21T08:55:25.999Z</time></trkpt><trkpt lat="41.908558635551906" lon="12.208120562202215"><ele>8.0</ele><time>2026-04-21T08:55:26.999Z</time></trkpt><trkpt lat="41.908714804085825" lon="12.207970433951047"><ele>8.0</ele><time>2026-04-21T08:55:27.999Z</time></trkpt><trkpt lat="41.90887519287427" lon="12.207815465939717"><ele>8.0</ele><time>2026-04-21T08:55:28.999Z</time></trkpt><trkpt lat="41.90903701143393" lon="12.207644976530403"><ele>8.0</ele><time>2026-04-21T08:55:29.999Z</time></trkpt><trkpt lat="41.90920161685797" lon="12.20747485195434"><ele>9.0</ele><time>2026-04-21T08:55:30.999Z</time></trkpt><trkpt lat="41.909368728927845" lon="12.207297128295853"><ele>10.0</ele><time>2026-04-21T08:55:31.999Z</time></trkpt><trkpt lat="41.90953474228716" lon="12.207114772375288"><ele>11.0</ele><time>2026-04-21T08:55:32.999Z</time></trkpt><trkpt lat="41.90969692712525" lon="12.206928196382096"><ele>11.0</ele><time>2026-04-21T08:55:33.999Z</time></trkpt><trkpt lat="41.90985955697715" lon="12.206741155593058"><ele>11.0</ele><time>2026-04-21T08:55:34.999Z</time></trkpt><trkpt lat="41.910021076051166" lon="12.206553300409237"><ele>11.0</ele><time>2026-04-21T08:55:35.999Z</time></trkpt><trkpt lat="41.910182173342584" lon="12.206364801939847"><ele>11.333333333333332</ele><time>2026-04-21T08:55:36.999Z</time></trkpt><trkpt lat="41.91034214611372" lon="12.206178944214727"><ele>11.666666666666666</ele><time>2026-04-21T08:55:37.999Z</time></trkpt><trkpt lat="41.910505715603136" lon="12.205990291830112"><ele>12.0</ele><time>2026-04-21T08:55:38.999Z</time></trkpt><trkpt lat="41.910666116264764" lon="12.20579978185034"><ele>12.666666666666668</ele><time>2026-04-21T08:55:39.999Z</time></trkpt><trkpt lat="41.9108184020598" lon="12.205613026666839"><ele>13.333333333333334</ele><time>2026-04-21T08:55:40.999Z</time></trkpt><trkpt lat="41.91095664379515" lon="12.205441215101915"><ele>14.0</ele><time>2026-04-21T08:55:41.999Z</time></trkpt><trkpt lat="41.91108435283455" lon="12.205281831117228"><ele>14.0</ele><time>2026-04-21T08:55:42.999Z</time></trkpt><trkpt lat="41.91119668079294" lon="12.205144948159472"><ele>14.0</ele><time>2026-04-21T08:55:43.999Z</time></trkpt><trkpt lat="41.91130337488753" lon="12.205017853323966"><ele>14.0</ele><time>2026-04-21T08:55:44.999Z</time></trkpt><trkpt lat="41.911403155181766" lon="12.204901884149995"><ele>14.0</ele><time>2026-04-21T08:55:45.999Z</time></trkpt><trkpt lat="41.91150822096306" lon="12.204791218221084"><ele>14.0</ele><time>2026-04-21T08:55:46.999Z</time></trkpt><trkpt lat="41.91162334992005" lon="12.204675847255842"><ele>14.0</ele><time>2026-04-21T08:55:47.999Z</time></trkpt><trkpt lat="41.911744788148624" lon="12.204561589009192"><ele>14.0</ele><time>2026-04-21T08:55:49Z</time></trkpt><trkpt lat="41.91185992642127" lon="12.204468948356473"><ele>14.0</ele><time>2026-04-21T08:55:50Z</time></trkpt><trkpt lat="41.91197410819431" lon="12.20439347546246"><ele>13.25</ele><time>2026-04-21T08:55:51Z</time></trkpt><trkpt lat="41.912095723983825" lon="12.204309469335282"><ele>12.5</ele><time>2026-04-21T08:55:52Z</time></trkpt><trkpt lat="41.91221814751581" lon="12.204221493416359"><ele>11.75</ele><time>2026-04-21T08:55:53Z</time></trkpt><trkpt lat="41.912330793948335" lon="12.204143818260894"><ele>11.0</ele><time>2026-04-21T08:55:54Z</time></trkpt><trkpt lat="41.9124384921644" lon="12.204069472561399"><ele>10.8</ele><time>2026-04-21T08:55:55Z</time></trkpt><trkpt lat="41.91254503360348" lon="12.203992713239272"><ele>10.600000000000001</ele><time>2026-04-21T08:55:56Z</time></trkpt><trkpt lat="41.91264398582582" lon="12.203916168646382"><ele>10.4</ele><time>2026-04-21T08:55:57Z</time></trkpt><trkpt lat="41.912735127988164" lon="12.203828814184929"><ele>10.2</ele><time>2026-04-21T08:55:58Z</time></trkpt><trkpt lat="41.91281438849501" lon="12.20374975653968"><ele>10.0</ele><time>2026-04-21T08:55:59Z</time></trkpt><trkpt lat="41.91288534878327" lon="12.203663150214961"><ele>10.0</ele><time>2026-04-21T08:56:00Z</time></trkpt><trkpt lat="41.91296318762124" lon="12.20356103096341"><ele>10.0</ele><time>2026-04-21T08:56:01Z</time></trkpt><trkpt lat="41.913055846205836" lon="12.203450679802692"><ele>10.0</ele><time>2026-04-21T08:56:02Z</time></trkpt><trkpt lat="41.91314558027891" lon="12.203346909467577"><ele>10.0</ele><time>2026-04-21T08:56:03Z</time></trkpt><trkpt lat="41.91325279952252" lon="12.203276976922446"><ele>10.0</ele><time>2026-04-21T08:56:04Z</time></trkpt><trkpt lat="41.91334380248297" lon="12.203198974562417"><ele>10.0</ele><time>2026-04-21T08:56:05Z</time></trkpt><trkpt lat="41.91344022066057" lon="12.203123006919569"><ele>10.0</ele><time>2026-04-21T08:56:06Z</time></trkpt><trkpt lat="41.91354152184301" lon="12.203042598004496"><ele>10.0</ele><time>2026-04-21T08:56:07Z</time></trkpt><trkpt lat="41.91366904894618" lon="12.20300957560146"><ele>10.75</ele><time>2026-04-21T08:56:08Z</time></trkpt><trkpt lat="41.91379838097568" lon="12.20299655494596"><ele>11.5</ele><time>2026-04-21T08:56:09Z</time></trkpt><trkpt lat="41.91391903809941" lon="12.203000931641789"><ele>12.25</ele><time>2026-04-21T08:56:10Z</time></trkpt><trkpt lat="41.91404555964978" lon="12.203010401248571"><ele>13.0</ele><time>2026-04-21T08:56:11Z</time></trkpt><trkpt lat="41.91417426593785" lon="12.203010277984536"><ele>13.0</ele><time>2026-04-21T08:56:12Z</time></trkpt><trkpt lat="41.91430732186374" lon="12.203004408612314"><ele>13.0</ele><time>2026-04-21T08:56:13Z</time></trkpt><trkpt lat="41.91444438983114" lon="12.20300867124048"><ele>13.0</ele><time>2026-04-21T08:56:14Z</time></trkpt><trkpt lat="41.91457454040733" lon="12.203006718542087"><ele>13.0</ele><time>2026-04-21T08:56:15Z</time></trkpt><trkpt lat="41.91467909938047" lon="12.203007843522553"><ele>13.0</ele><time>2026-04-21T08:56:16Z</time></trkpt><trkpt lat="41.91477264798999" lon="12.203011477025814"><ele>13.0</ele><time>2026-04-21T08:56:17Z</time></trkpt><trkpt lat="41.91486614449893" lon="12.203023179402017"><ele>13.0</ele><time>2026-04-21T08:56:18Z</time></trkpt><trkpt lat="41.91496881728168" lon="12.203112162596932"><ele>13.0</ele><time>2026-04-21T08:56:19Z</time></trkpt><trkpt lat="41.915050078562246" lon="12.203214406029126"><ele>13.0</ele><time>2026-04-21T08:56:20Z</time></trkpt><trkpt lat="41.91508002314167" lon="12.203360417669026"><ele>13.4</ele><time>2026-04-21T08:56:21Z</time></trkpt><trkpt lat="41.915070144130326" lon="12.203493609027772"><ele>13.8</ele><time>2026-04-21T08:56:22Z</time></trkpt><trkpt lat="41.91502893467297" lon="12.203623203887513"><ele>14.2</ele><time>2026-04-21T08:56:23Z</time></trkpt><trkpt lat="41.91495659745599" lon="12.2037296725847"><ele>14.6</ele><time>2026-04-21T08:56:24Z</time></trkpt><trkpt lat="41.914874531128916" lon="12.203806682936067"><ele>15.0</ele><time>2026-04-21T08:56:25Z</time></trkpt><trkpt lat="41.91478958246997" lon="12.203838696874024"><ele>15.0</ele><time>2026-04-21T08:56:26Z</time></trkpt><trkpt lat="41.91469941209468" lon="12.2038604333793"><ele>15.0</ele><time>2026-04-21T08:56:27Z</time></trkpt><trkpt lat="41.914613232635446" lon="12.203759953801033"><ele>15.0</ele><time>2026-04-21T08:56:28Z</time></trkpt><trkpt lat="41.91453431918285" lon="12.20367617724434"><ele>15.0</ele><time>2026-04-21T08:56:29Z</time></trkpt><trkpt lat="41.91448423792318" lon="12.2035771086577"><ele>15.0</ele><time>2026-04-21T08:56:30Z</time></trkpt><trkpt lat="41.91446996655632" lon="12.203472800480592"><ele>15.0</ele><time>2026-04-21T08:56:31Z</time></trkpt><trkpt lat="41.91448649634528" lon="12.20335201788095"><ele>15.0</ele><time>2026-04-21T08:56:32Z</time></trkpt><trkpt lat="41.9144814661441" lon="12.203235295990737"><ele>15.0</ele><time>2026-04-21T08:56:33Z</time></trkpt><trkpt lat="41.914517931574935" lon="12.203110308651695"><ele>15.0</ele><time>2026-04-21T08:56:34Z</time></trkpt><trkpt lat="41.9145693761535" lon="12.202948010966834"><ele>15.0</ele><time>2026-04-21T08:56:35Z</time></trkpt><trkpt lat="41.91462162078638" lon="12.202778943410063"><ele>14.6</ele><time>2026-04-21T08:56:36Z</time></trkpt><trkpt lat="41.91468267077139" lon="12.202631099880808"><ele>14.2</ele><time>2026-04-21T08:56:37Z</time></trkpt><trkpt lat="41.91472956679612" lon="12.202506319470837"><ele>13.8</ele><time>2026-04-21T08:56:38Z</time></trkpt><trkpt lat="41.914773807730086" lon="12.20239206630104"><ele>13.4</ele><time>2026-04-21T08:56:39Z</time></trkpt><trkpt lat="41.914817832037315" lon="12.202275814306283"><ele>13.0</ele><time>2026-04-21T08:56:40Z</time></trkpt><trkpt lat="41.914866193702245" lon="12.202138983082941"><ele>13.0</ele><time>2026-04-21T08:56:41Z</time></trkpt><trkpt lat="41.91491571169696" lon="12.202002142147819"><ele>13.0</ele><time>2026-04-21T08:56:42Z</time></trkpt><trkpt lat="41.91496478341533" lon="12.20187886916453"><ele>13.0</ele><time>2026-04-21T08:56:43Z</time></trkpt><trkpt lat="41.91501057209155" lon="12.201767720601898"><ele>13.0</ele><time>2026-04-21T08:56:44Z</time></trkpt><trkpt lat="41.91504542419728" lon="12.201677416415716"><ele>13.0</ele><time>2026-04-21T08:56:45Z</time></trkpt><trkpt lat="41.91507729607511" lon="12.201603659192525"><ele>12.999999999999998</ele><time>2026-04-21T08:56:46Z</time></trkpt><trkpt lat="41.91510939046921" lon="12.201527450818514"><ele>13.0</ele><time>2026-04-21T08:56:47Z</time></trkpt><trkpt lat="41.91513785328466" lon="12.201451290505224"><ele>13.0</ele><time>2026-04-21T08:56:48Z</time></trkpt><trkpt lat="41.915208747846286" lon="12.201352671423114"><ele>13.0</ele><time>2026-04-21T08:56:50Z</time></trkpt><trkpt lat="41.91526066999328" lon="12.201257606249282"><ele>12.999999999999998</ele><time>2026-04-21T08:56:52Z</time></trkpt><trkpt lat="41.915299316878716" lon="12.201188467956914"><ele>13.0</ele><time>2026-04-21T08:56:54Z</time></trkpt><trkpt lat="41.91533398801635" lon="12.201100896398241"><ele>13.0</ele><time>2026-04-21T08:56:57Z</time></trkpt><trkpt lat="41.91540341920852" lon="12.201049452792418"><ele>13.0</ele><time>2026-04-21T08:57:08.001Z</time></trkpt><trkpt lat="41.915462127919625" lon="12.200944806542209"><ele>13.0</ele><time>2026-04-21T08:57:09.001Z</time></trkpt><trkpt lat="41.91553506541325" lon="12.200818006438679"><ele>13.0</ele><time>2026-04-21T08:57:10.001Z</time></trkpt><trkpt lat="41.91560907936027" lon="12.200704681856688"><ele>13.0</ele><time>2026-04-21T08:57:11.001Z</time></trkpt><trkpt lat="41.91570058497614" lon="12.200589174567915"><ele>13.0</ele><time>2026-04-21T08:57:12.001Z</time></trkpt><trkpt lat="41.915773764574475" lon="12.200483275270024"><ele>13.0</ele><time>2026-04-21T08:57:13.001Z</time></trkpt><trkpt lat="41.91584376891602" lon="12.200379454400856"><ele>13.0</ele><time>2026-04-21T08:57:14.001Z</time></trkpt><trkpt lat="41.91590984235071" lon="12.200281097894495"><ele>13.0</ele><time>2026-04-21T08:57:15.001Z</time></trkpt><trkpt lat="41.91596738349518" lon="12.20019387910351"><ele>13.0</ele><time>2026-04-21T08:57:16.001Z</time></trkpt><trkpt lat="41.91602586772757" lon="12.200104285200817"><ele>13.600000000000001</ele><time>2026-04-21T08:57:17.001Z</time></trkpt><trkpt lat="41.916089460681576" lon="12.200014584320572"><ele>14.200000000000001</ele><time>2026-04-21T08:57:18.001Z</time></trkpt><trkpt lat="41.916153250202825" lon="12.199920372961348"><ele>14.8</ele><time>2026-04-21T08:57:19.001Z</time></trkpt><trkpt lat="41.91622004936475" lon="12.199821809054919"><ele>15.4</ele><time>2026-04-21T08:57:20.001Z</time></trkpt><trkpt lat="41.91628363014062" lon="12.199719498382299"><ele>16.0</ele><time>2026-04-21T08:57:21.001Z</time></trkpt><trkpt lat="41.91634864452973" lon="12.199619933197512"><ele>16.0</ele><time>2026-04-21T08:57:22.001Z</time></trkpt><trkpt lat="41.91642613037256" lon="12.199505085684384"><ele>16.0</ele><time>2026-04-21T08:57:23.001Z</time></trkpt><trkpt lat="41.91651157247975" lon="12.19937713995985"><ele>16.0</ele><time>2026-04-21T08:57:24.001Z</time></trkpt><trkpt lat="41.91659527406779" lon="12.199246046209748"><ele>16.0</ele><time>2026-04-21T08:57:25.001Z</time></trkpt><trkpt lat="41.91668503987422" lon="12.199106082131921"><ele>16.5</ele><time>2026-04-21T08:57:26.001Z</time></trkpt><trkpt lat="41.916789403613" lon="12.198947117684648"><ele>17.0</ele><time>2026-04-21T08:57:27Z</time></trkpt><trkpt lat="41.91688668151336" lon="12.198800859810452"><ele>17.5</ele><time>2026-04-21T08:57:28Z</time></trkpt><trkpt lat="41.91697292514368" lon="12.198668661777083"><ele>18.0</ele><time>2026-04-21T08:57:29Z</time></trkpt><trkpt lat="41.91705468744398" lon="12.198544292971826"><ele>18.0</ele><time>2026-04-21T08:57:30Z</time></trkpt><trkpt lat="41.91714049139969" lon="12.198412703476357"><ele>18.0</ele><time>2026-04-21T08:57:31Z</time></trkpt><trkpt lat="41.9172283191953" lon="12.198281670739426"><ele>18.0</ele><time>2026-04-21T08:57:32Z</time></trkpt><trkpt lat="41.91731852471538" lon="12.198147079494332"><ele>18.0</ele><time>2026-04-21T08:57:33Z</time></trkpt><trkpt lat="41.917408106605" lon="12.198012541482859"><ele>17.5</ele><time>2026-04-21T08:57:34Z</time></trkpt><trkpt lat="41.917502151552696" lon="12.197870643876307"><ele>17.0</ele><time>2026-04-21T08:57:35Z</time></trkpt><trkpt lat="41.91760411976341" lon="12.197718234929765"><ele>16.5</ele><time>2026-04-21T08:57:36Z</time></trkpt><trkpt lat="41.91769401867677" lon="12.197567914380592"><ele>16.0</ele><time>2026-04-21T08:57:37Z</time></trkpt><trkpt lat="41.917778637505485" lon="12.197390325793812"><ele>15.333333333333332</ele><time>2026-04-21T08:57:38Z</time></trkpt><trkpt lat="41.91790147317937" lon="12.197221157641785"><ele>14.666666666666668</ele><time>2026-04-21T08:57:39Z</time></trkpt><trkpt lat="41.918032777518384" lon="12.197029723425878"><ele>14.0</ele><time>2026-04-21T08:57:40Z</time></trkpt><trkpt lat="41.918152649521936" lon="12.19684897161049"><ele>14.0</ele><time>2026-04-21T08:57:41Z</time></trkpt><trkpt lat="41.91827432565341" lon="12.196635925090066"><ele>14.0</ele><time>2026-04-21T08:57:42Z</time></trkpt><trkpt lat="41.91844389296348" lon="12.196407626655244"><ele>14.0</ele><time>2026-04-21T08:57:43Z</time></trkpt><trkpt lat="41.91858097072091" lon="12.196180417625765"><ele>13.333333333333334</ele><time>2026-04-21T08:57:44Z</time></trkpt><trkpt lat="41.918708791638146" lon="12.195999103076801"><ele>12.666666666666668</ele><time>2026-04-21T08:57:45Z</time></trkpt><trkpt lat="41.918826668191365" lon="12.195821487141732"><ele>12.0</ele><time>2026-04-21T08:57:46Z</time></trkpt><trkpt lat="41.91895239112297" lon="12.195640588493422"><ele>12.333333333333332</ele><time>2026-04-21T08:57:47Z</time></trkpt><trkpt lat="41.919079595663256" lon="12.195460529655856"><ele>12.666666666666666</ele><time>2026-04-21T08:57:48Z</time></trkpt><trkpt lat="41.9192020458162" lon="12.195277494768515"><ele>13.0</ele><time>2026-04-21T08:57:49Z</time></trkpt><trkpt lat="41.91932234241822" lon="12.195094104839969"><ele>13.0</ele><time>2026-04-21T08:57:50Z</time></trkpt><trkpt lat="41.91945179782776" lon="12.194902111659669"><ele>13.0</ele><time>2026-04-21T08:57:51Z</time></trkpt><trkpt lat="41.91958166190185" lon="12.194713120105112"><ele>13.0</ele><time>2026-04-21T08:57:52Z</time></trkpt><trkpt lat="41.919709093955575" lon="12.194523650711687"><ele>13.0</ele><time>2026-04-21T08:57:53Z</time></trkpt><trkpt lat="41.919835184141206" lon="12.194339278910814"><ele>13.0</ele><time>2026-04-21T08:57:54Z</time></trkpt><trkpt lat="41.9199652843481" lon="12.194139899113265"><ele>13.0</ele><time>2026-04-21T08:57:55Z</time></trkpt><trkpt lat="41.92009531990659" lon="12.193942151311155"><ele>12.0</ele><time>2026-04-21T08:57:56Z</time></trkpt><trkpt lat="41.92022605689537" lon="12.193743414856113"><ele>11.0</ele><time>2026-04-21T08:57:57Z</time></trkpt><trkpt lat="41.92036772135361" lon="12.193531322955671"><ele>10.0</ele><time>2026-04-21T08:57:58Z</time></trkpt><trkpt lat="41.92050998290736" lon="12.193317380585993"><ele>10.333333333333334</ele><time>2026-04-21T08:57:59Z</time></trkpt><trkpt lat="41.92065347666091" lon="12.193097123707364"><ele>10.666666666666666</ele><time>2026-04-21T08:58:00Z</time></trkpt><trkpt lat="41.920806228582315" lon="12.192864712712815"><ele>11.0</ele><time>2026-04-21T08:58:01Z</time></trkpt><trkpt lat="41.92097014194124" lon="12.192616931443894"><ele>11.666666666666666</ele><time>2026-04-21T08:58:02Z</time></trkpt><trkpt lat="41.92112875739194" lon="12.1923878670808"><ele>12.333333333333332</ele><time>2026-04-21T08:58:03Z</time></trkpt><trkpt lat="41.92126759612369" lon="12.192178439756708"><ele>13.0</ele><time>2026-04-21T08:58:04Z</time></trkpt><trkpt lat="41.921405251764455" lon="12.191965169421383"><ele>13.0</ele><time>2026-04-21T08:58:05Z</time></trkpt><trkpt lat="41.92153224796489" lon="12.19176903614696"><ele>13.0</ele><time>2026-04-21T08:58:06Z</time></trkpt><trkpt lat="41.9216647771129" lon="12.191563872358836"><ele>13.0</ele><time>2026-04-21T08:58:07Z</time></trkpt><trkpt lat="41.921795703614265" lon="12.191350786288696"><ele>13.666666666666666</ele><time>2026-04-21T08:58:08Z</time></trkpt><trkpt lat="41.92191183834317" lon="12.191142815634329"><ele>14.333333333333332</ele><time>2026-04-21T08:58:09Z</time></trkpt><trkpt lat="41.92202752291181" lon="12.190932641609228"><ele>15.0</ele><time>2026-04-21T08:58:10Z</time></trkpt><trkpt lat="41.92214249575296" lon="12.190721770489983"><ele>13.333333333333334</ele><time>2026-04-21T08:58:11Z</time></trkpt><trkpt lat="41.92225747118708" lon="12.190503814631048"><ele>11.666666666666668</ele><time>2026-04-21T08:58:12Z</time></trkpt><trkpt lat="41.92236833902496" lon="12.19029051957507"><ele>10.0</ele><time>2026-04-21T08:58:13Z</time></trkpt><trkpt lat="41.92248508088686" lon="12.190065042007804"><ele>10.333333333333334</ele><time>2026-04-21T08:58:14Z</time></trkpt><trkpt lat="41.92260523042682" lon="12.189839907828276"><ele>10.666666666666666</ele><time>2026-04-21T08:58:15Z</time></trkpt><trkpt lat="41.922722865614325" lon="12.189614341401652"><ele>11.0</ele><time>2026-04-21T08:58:16Z</time></trkpt><trkpt lat="41.92283604321514" lon="12.189398131401125"><ele>11.0</ele><time>2026-04-21T08:58:17Z</time></trkpt><trkpt lat="41.92294408060134" lon="12.189189283078615"><ele>11.0</ele><time>2026-04-21T08:58:18Z</time></trkpt><trkpt lat="41.92305458967024" lon="12.188971733780763"><ele>11.0</ele><time>2026-04-21T08:58:19Z</time></trkpt><trkpt lat="41.923163647451425" lon="12.188764389417381"><ele>11.333333333333332</ele><time>2026-04-21T08:58:20Z</time></trkpt><trkpt lat="41.92327432486347" lon="12.188560756839413"><ele>11.666666666666666</ele><time>2026-04-21T08:58:21Z</time></trkpt><trkpt lat="41.923381359905456" lon="12.188351028095921"><ele>12.0</ele><time>2026-04-21T08:58:22Z</time></trkpt><trkpt lat="41.92348928881584" lon="12.18813077517292"><ele>12.0</ele><time>2026-04-21T08:58:23Z</time></trkpt><trkpt lat="41.92359229703089" lon="12.187931216953617"><ele>12.0</ele><time>2026-04-21T08:58:24Z</time></trkpt><trkpt lat="41.923697294837154" lon="12.187722525787487"><ele>12.0</ele><time>2026-04-21T08:58:25Z</time></trkpt><trkpt lat="41.92380355965303" lon="12.187514050416189"><ele>11.333333333333334</ele><time>2026-04-21T08:58:26Z</time></trkpt><trkpt lat="41.923906066741935" lon="12.187315519426445"><ele>10.666666666666668</ele><time>2026-04-21T08:58:27Z</time></trkpt><trkpt lat="41.92400418234978" lon="12.187130235824522"><ele>10.0</ele><time>2026-04-21T08:58:28Z</time></trkpt><trkpt lat="41.924101376242135" lon="12.18694890422254"><ele>10.0</ele><time>2026-04-21T08:58:29Z</time></trkpt><trkpt lat="41.92419665761001" lon="12.186753444656146"><ele>10.0</ele><time>2026-04-21T08:58:30Z</time></trkpt><trkpt lat="41.92429327195711" lon="12.186566732480545"><ele>10.0</ele><time>2026-04-21T08:58:31Z</time></trkpt><trkpt lat="41.92438846238762" lon="12.186382990768376"><ele>10.666666666666668</ele><time>2026-04-21T08:58:32Z</time></trkpt><trkpt lat="41.924486989631475" lon="12.186188808491426"><ele>11.333333333333334</ele><time>2026-04-21T08:58:33Z</time></trkpt><trkpt lat="41.92458512586217" lon="12.186000948584974"><ele>12.0</ele><time>2026-04-21T08:58:34Z</time></trkpt><trkpt lat="41.92468403511381" lon="12.185807132361354"><ele>12.0</ele><time>2026-04-21T08:58:35Z</time></trkpt><trkpt lat="41.92477817941374" lon="12.185620355070709"><ele>12.0</ele><time>2026-04-21T08:58:36Z</time></trkpt><trkpt lat="41.92487143905975" lon="12.185438130172725"><ele>12.0</ele><time>2026-04-21T08:58:37Z</time></trkpt><trkpt lat="41.92496839954024" lon="12.185252791638563"><ele>13.0</ele><time>2026-04-21T08:58:38Z</time></trkpt><trkpt lat="41.925064691502406" lon="12.185063668313463"><ele>14.0</ele><time>2026-04-21T08:58:39Z</time></trkpt><trkpt lat="41.925152689408144" lon="12.184890195687245"><ele>15.0</ele><time>2026-04-21T08:58:40Z</time></trkpt><trkpt lat="41.92524095533636" lon="12.184721756223862"><ele>15.0</ele><time>2026-04-21T08:58:41Z</time></trkpt><trkpt lat="41.92533347072222" lon="12.184541293550923"><ele>15.0</ele><time>2026-04-21T08:58:42Z</time></trkpt><trkpt lat="41.92542227271934" lon="12.18436641069644"><ele>15.0</ele><time>2026-04-21T08:58:43Z</time></trkpt><trkpt lat="41.9255140564957" lon="12.184179581347342"><ele>14.0</ele><time>2026-04-21T08:58:44Z</time></trkpt><trkpt lat="41.92560921395117" lon="12.183987487080676"><ele>13.0</ele><time>2026-04-21T08:58:45.001Z</time></trkpt><trkpt lat="41.92569904374222" lon="12.183792560756778"><ele>12.0</ele><time>2026-04-21T08:58:46.001Z</time></trkpt><trkpt lat="41.925774644026255" lon="12.18361676402087"><ele>12.0</ele><time>2026-04-21T08:58:47.001Z</time></trkpt><trkpt lat="41.92586239935885" lon="12.183427518002834"><ele>12.0</ele><time>2026-04-21T08:58:48.001Z</time></trkpt><trkpt lat="41.92594337195356" lon="12.183251196318661"><ele>12.0</ele><time>2026-04-21T08:58:49.001Z</time></trkpt><trkpt lat="41.92602524319696" lon="12.1830799595698"><ele>12.666666666666668</ele><time>2026-04-21T08:58:50.001Z</time></trkpt><trkpt lat="41.926107443725726" lon="12.182901502380806"><ele>13.333333333333334</ele><time>2026-04-21T08:58:51.001Z</time></trkpt><trkpt lat="41.926192312748505" lon="12.182707917605578"><ele>14.0</ele><time>2026-04-21T08:58:52.001Z</time></trkpt><trkpt lat="41.9262716295181" lon="12.182522097735713"><ele>13.333333333333334</ele><time>2026-04-21T08:58:53.001Z</time></trkpt><trkpt lat="41.92635451821247" lon="12.182332791095172"><ele>12.666666666666668</ele><time>2026-04-21T08:58:54.001Z</time></trkpt><trkpt lat="41.92643812537003" lon="12.18214765382259"><ele>12.0</ele><time>2026-04-21T08:58:55.001Z</time></trkpt><trkpt lat="41.92652868500121" lon="12.181954765531522"><ele>12.0</ele><time>2026-04-21T08:58:56.001Z</time></trkpt><trkpt lat="41.92661640319068" lon="12.18176047930591"><ele>12.0</ele><time>2026-04-21T08:58:57.001Z</time></trkpt><trkpt lat="41.9267050996869" lon="12.181565750125705"><ele>12.0</ele><time>2026-04-21T08:58:58.001Z</time></trkpt><trkpt lat="41.926792110568975" lon="12.181366707456519"><ele>12.0</ele><time>2026-04-21T08:58:59.001Z</time></trkpt><trkpt lat="41.9268770263367" lon="12.181180808249637"><ele>12.0</ele><time>2026-04-21T08:59:00.001Z</time></trkpt><trkpt lat="41.92695841967823" lon="12.180992581316664"><ele>12.0</ele><time>2026-04-21T08:59:01.001Z</time></trkpt><trkpt lat="41.92704024894114" lon="12.180811724602181"><ele>12.0</ele><time>2026-04-21T08:59:02.001Z</time></trkpt><trkpt lat="41.927121127637754" lon="12.180630412044222"><ele>12.0</ele><time>2026-04-21T08:59:03.001Z</time></trkpt><trkpt lat="41.927203812278" lon="12.180445646854455"><ele>12.0</ele><time>2026-04-21T08:59:04.001Z</time></trkpt><trkpt lat="41.92728720595703" lon="12.180259862187159"><ele>12.0</ele><time>2026-04-21T08:59:05.001Z</time></trkpt><trkpt lat="41.92737030844641" lon="12.180081743401564"><ele>12.0</ele><time>2026-04-21T08:59:06.001Z</time></trkpt><trkpt lat="41.92744929801431" lon="12.179912847462413"><ele>12.0</ele><time>2026-04-21T08:59:07.001Z</time></trkpt><trkpt lat="41.92752515769592" lon="12.179762190762537"><ele>12.0</ele><time>2026-04-21T08:59:08.001Z</time></trkpt><trkpt lat="41.92760451537507" lon="12.179615900950132"><ele>12.0</ele><time>2026-04-21T08:59:09.001Z</time></trkpt><trkpt lat="41.927696360742445" lon="12.179463494247091"><ele>12.0</ele><time>2026-04-21T08:59:10.001Z</time></trkpt><trkpt lat="41.92779735608406" lon="12.179318087259846"><ele>12.0</ele><time>2026-04-21T08:59:11.001Z</time></trkpt><trkpt lat="41.9279050447525" lon="12.17918276657919"><ele>12.0</ele><time>2026-04-21T08:59:12.001Z</time></trkpt><trkpt lat="41.928017265484435" lon="12.179037293882825"><ele>11.75</ele><time>2026-04-21T08:59:13.001Z</time></trkpt><trkpt lat="41.92813767936164" lon="12.17889410478025"><ele>11.5</ele><time>2026-04-21T08:59:14.001Z</time></trkpt><trkpt lat="41.92824862993483" lon="12.178764428093771"><ele>11.25</ele><time>2026-04-21T08:59:15.001Z</time></trkpt><trkpt lat="41.92835618184016" lon="12.178642737629774"><ele>11.0</ele><time>2026-04-21T08:59:16.001Z</time></trkpt><trkpt lat="41.92847337173854" lon="12.178520417604343"><ele>11.0</ele><time>2026-04-21T08:59:17.001Z</time></trkpt><trkpt lat="41.928592094654206" lon="12.178404218076015"><ele>11.0</ele><time>2026-04-21T08:59:18.001Z</time></trkpt><trkpt lat="41.92870089284677" lon="12.17830434991346"><ele>11.0</ele><time>2026-04-21T08:59:19.001Z</time></trkpt><trkpt lat="41.92880580109735" lon="12.17821337397872"><ele>11.0</ele><time>2026-04-21T08:59:20.001Z</time></trkpt><trkpt lat="41.92890635465239" lon="12.17813537528244"><ele>10.8</ele><time>2026-04-21T08:59:21.001Z</time></trkpt><trkpt lat="41.92901425169965" lon="12.178058610439459"><ele>10.600000000000001</ele><time>2026-04-21T08:59:22.001Z</time></trkpt><trkpt lat="41.92911668548249" lon="12.177986267378932"><ele>10.4</ele><time>2026-04-21T08:59:23.001Z</time></trkpt><trkpt lat="41.92921321077312" lon="12.177925961535722"><ele>10.2</ele><time>2026-04-21T08:59:24.001Z</time></trkpt><trkpt lat="41.92931021324893" lon="12.177893630473774"><ele>10.0</ele><time>2026-04-21T08:59:25.001Z</time></trkpt><trkpt lat="41.92939553002081" lon="12.177893648127416"><ele>11.0</ele><time>2026-04-21T08:59:26.001Z</time></trkpt><trkpt lat="41.92951490639021" lon="12.177925426381208"><ele>12.0</ele><time>2026-04-21T08:59:27.001Z</time></trkpt><trkpt lat="41.929638487726876" lon="12.177971695011406"><ele>13.0</ele><time>2026-04-21T08:59:28.001Z</time></trkpt><trkpt lat="41.929809114853235" lon="12.1780198341175"><ele>14.0</ele><time>2026-04-21T08:59:29.001Z</time></trkpt><trkpt lat="41.929964739294455" lon="12.178074421960261"><ele>15.666666666666668</ele><time>2026-04-21T08:59:30.001Z</time></trkpt><trkpt lat="41.93011118736505" lon="12.178115410222139"><ele>17.333333333333332</ele><time>2026-04-21T08:59:31.001Z</time></trkpt><trkpt lat="41.930274758611105" lon="12.17812911076431"><ele>19.0</ele><time>2026-04-21T08:59:32.001Z</time></trkpt><trkpt lat="41.9304308390551" lon="12.178177736564159"><ele>17.333333333333332</ele><time>2026-04-21T08:59:33Z</time></trkpt><trkpt lat="41.93058430801904" lon="12.178228680247422"><ele>15.666666666666668</ele><time>2026-04-21T08:59:34Z</time></trkpt><trkpt lat="41.930732825054285" lon="12.17826242322144"><ele>14.0</ele><time>2026-04-21T08:59:35Z</time></trkpt><trkpt lat="41.93087749298733" lon="12.178292919708795"><ele>14.0</ele><time>2026-04-21T08:59:36Z</time></trkpt><trkpt lat="41.93102435033794" lon="12.178327918046403"><ele>14.0</ele><time>2026-04-21T08:59:37Z</time></trkpt><trkpt lat="41.93114695802156" lon="12.178363282399726"><ele>14.0</ele><time>2026-04-21T08:59:38Z</time></trkpt><trkpt lat="41.93125810781375" lon="12.178397801610096"><ele>14.0</ele><time>2026-04-21T08:59:39Z</time></trkpt><trkpt lat="41.931367997831025" lon="12.178443181746273"><ele>14.0</ele><time>2026-04-21T08:59:40Z</time></trkpt><trkpt lat="41.93145959425344" lon="12.178495735068314"><ele>14.0</ele><time>2026-04-21T08:59:41Z</time></trkpt><trkpt lat="41.93157522710671" lon="12.178555378953746"><ele>14.0</ele><time>2026-04-21T08:59:42Z</time></trkpt><trkpt lat="41.93170206187283" lon="12.17862937975445"><ele>14.0</ele><time>2026-04-21T08:59:43Z</time></trkpt><trkpt lat="41.93184299181396" lon="12.178732124211905"><ele>14.0</ele><time>2026-04-21T08:59:44Z</time></trkpt><trkpt lat="41.931965211421286" lon="12.178821928003206"><ele>14.0</ele><time>2026-04-21T08:59:45Z</time></trkpt><trkpt lat="41.93206924125483" lon="12.178907803084842"><ele>14.0</ele><time>2026-04-21T08:59:46Z</time></trkpt><trkpt lat="41.93219802684074" lon="12.179002666026468"><ele>14.0</ele><time>2026-04-21T08:59:47Z</time></trkpt><trkpt lat="41.93233436924322" lon="12.179101281854251"><ele>14.0</ele><time>2026-04-21T08:59:48Z</time></trkpt><trkpt lat="41.93247058629567" lon="12.17919230519523"><ele>14.0</ele><time>2026-04-21T08:59:49Z</time></trkpt><trkpt lat="41.932602415369736" lon="12.179273796109412"><ele>14.0</ele><time>2026-04-21T08:59:50Z</time></trkpt><trkpt lat="41.93273826290318" lon="12.179366425270295"><ele>14.0</ele><time>2026-04-21T08:59:51Z</time></trkpt><trkpt lat="41.9328942676284" lon="12.179475778214425"><ele>14.0</ele><time>2026-04-21T08:59:52Z</time></trkpt><trkpt lat="41.93307391960318" lon="12.179604186313972"><ele>14.0</ele><time>2026-04-21T08:59:53Z</time></trkpt><trkpt lat="41.93322762190992" lon="12.179713957564404"><ele>14.0</ele><time>2026-04-21T08:59:54Z</time></trkpt><trkpt lat="41.9333838847542" lon="12.179824305697652"><ele>14.0</ele><time>2026-04-21T08:59:55Z</time></trkpt><trkpt lat="41.933532673406646" lon="12.179917400570607"><ele>14.0</ele><time>2026-04-21T08:59:56Z</time></trkpt><trkpt lat="41.93368188259594" lon="12.180018472590325"><ele>14.666666666666668</ele><time>2026-04-21T08:59:57Z</time></trkpt><trkpt lat="41.933838796163265" lon="12.180125236951252"><ele>15.333333333333332</ele><time>2026-04-21T08:59:58Z</time></trkpt><trkpt lat="41.93398570488823" lon="12.180236698599611"><ele>16.0</ele><time>2026-04-21T08:59:59Z</time></trkpt><trkpt lat="41.934108883534904" lon="12.180359648379131"><ele>16.0</ele><time>2026-04-21T09:00:00Z</time></trkpt><trkpt lat="41.934224002550955" lon="12.18051899839761"><ele>16.0</ele><time>2026-04-21T09:00:01Z</time></trkpt><trkpt lat="41.934339022757825" lon="12.180701357282288"><ele>16.0</ele><time>2026-04-21T09:00:02Z</time></trkpt><trkpt lat="41.934451471765755" lon="12.18088790624256"><ele>16.0</ele><time>2026-04-21T09:00:03Z</time></trkpt><trkpt lat="41.934568925867666" lon="12.181082208446472"><ele>16.0</ele><time>2026-04-21T09:00:04Z</time></trkpt><trkpt lat="41.934678404600035" lon="12.18126087444392"><ele>16.0</ele><time>2026-04-21T09:00:05Z</time></trkpt><trkpt lat="41.93476071310292" lon="12.1814385496703"><ele>16.666666666666664</ele><time>2026-04-21T09:00:06Z</time></trkpt><trkpt lat="41.93482381599982" lon="12.181641918601448"><ele>17.333333333333332</ele><time>2026-04-21T09:00:07Z</time></trkpt><trkpt lat="41.9348829859864" lon="12.181897400956199"><ele>18.0</ele><time>2026-04-21T09:00:08Z</time></trkpt><trkpt lat="41.93493362820898" lon="12.182141330630735"><ele>18.0</ele><time>2026-04-21T09:00:09Z</time></trkpt><trkpt lat="41.934996208303346" lon="12.182352930872701"><ele>18.0</ele><time>2026-04-21T09:00:10Z</time></trkpt><trkpt lat="41.9350800673693" lon="12.182539629221576"><ele>18.0</ele><time>2026-04-21T09:00:11Z</time></trkpt><trkpt lat="41.93519162502041" lon="12.18270796590887"><ele>18.666666666666668</ele><time>2026-04-21T09:00:12Z</time></trkpt><trkpt lat="41.93533192592013" lon="12.182838927524651"><ele>19.333333333333336</ele><time>2026-04-21T09:00:13Z</time></trkpt><trkpt lat="41.9354916346821" lon="12.182938551470045"><ele>20.0</ele><time>2026-04-21T09:00:14Z</time></trkpt><trkpt lat="41.93567698268321" lon="12.183046232420367"><ele>20.0</ele><time>2026-04-21T09:00:15Z</time></trkpt><trkpt lat="41.93587506325819" lon="12.18316837276858"><ele>20.0</ele><time>2026-04-21T09:00:16Z</time></trkpt><trkpt lat="41.93604974935666" lon="12.183280792210377"><ele>20.0</ele><time>2026-04-21T09:00:17Z</time></trkpt><trkpt lat="41.93620385557127" lon="12.183392763705703"><ele>21.666666666666668</ele><time>2026-04-21T09:00:18Z</time></trkpt><trkpt lat="41.93635023516334" lon="12.183534180672657"><ele>23.333333333333336</ele><time>2026-04-21T09:00:19Z</time></trkpt><trkpt lat="41.93648150079961" lon="12.183707559557684"><ele>25.0</ele><time>2026-04-21T09:00:20Z</time></trkpt><trkpt lat="41.93661115478503" lon="12.18391599813913"><ele>27.5</ele><time>2026-04-21T09:00:21Z</time></trkpt><trkpt lat="41.93675579727539" lon="12.18416951024527"><ele>30.0</ele><time>2026-04-21T09:00:22Z</time></trkpt><trkpt lat="41.93690893926913" lon="12.184423627416184"><ele>30.0</ele><time>2026-04-21T09:00:23Z</time></trkpt><trkpt lat="41.937079184233255" lon="12.184608503685265"><ele>30.0</ele><time>2026-04-21T09:00:24Z</time></trkpt><trkpt lat="41.937238664143464" lon="12.184793623326897"><ele>30.0</ele><time>2026-04-21T09:00:25Z</time></trkpt><trkpt lat="41.93739316486217" lon="12.184929921059586"><ele>30.333333333333336</ele><time>2026-04-21T09:00:26.001Z</time></trkpt><trkpt lat="41.93754674966939" lon="12.185082181338585"><ele>30.666666666666668</ele><time>2026-04-21T09:00:27.001Z</time></trkpt><trkpt lat="41.93768827148915" lon="12.185233118476598"><ele>31.0</ele><time>2026-04-21T09:00:28.001Z</time></trkpt><trkpt lat="41.93783062149394" lon="12.185381952610271"><ele>32.0</ele><time>2026-04-21T09:00:29.001Z</time></trkpt><trkpt lat="41.93797804751476" lon="12.185535471129956"><ele>33.0</ele><time>2026-04-21T09:00:30.001Z</time></trkpt><trkpt lat="41.93812558341653" lon="12.18568273949742"><ele>34.0</ele><time>2026-04-21T09:00:31.001Z</time></trkpt><trkpt lat="41.93828378036372" lon="12.185840160983366"><ele>36.0</ele><time>2026-04-21T09:00:32.001Z</time></trkpt><trkpt lat="41.93844756660643" lon="12.18600644015158"><ele>38.0</ele><time>2026-04-21T09:00:33.001Z</time></trkpt><trkpt lat="41.938615214038116" lon="12.186175155458505"><ele>40.0</ele><time>2026-04-21T09:00:34.001Z</time></trkpt><trkpt lat="41.9387694076097" lon="12.186332451828129"><ele>40.0</ele><time>2026-04-21T09:00:35.001Z</time></trkpt><trkpt lat="41.93890310304853" lon="12.186481226292809"><ele>40.0</ele><time>2026-04-21T09:00:36.001Z</time></trkpt><trkpt lat="41.93900781220657" lon="12.186644848052683"><ele>40.0</ele><time>2026-04-21T09:00:37.001Z</time></trkpt><trkpt lat="41.93909103444912" lon="12.186838381756198"><ele>40.66666666666667</ele><time>2026-04-21T09:00:38.001Z</time></trkpt><trkpt lat="41.939158199407615" lon="12.187054984628748"><ele>41.333333333333336</ele><time>2026-04-21T09:00:39.001Z</time></trkpt><trkpt lat="41.9391939089803" lon="12.18726382376254"><ele>42.0</ele><time>2026-04-21T09:00:40.001Z</time></trkpt><trkpt lat="41.939177416563545" lon="12.187496141344717"><ele>42.666666666666664</ele><time>2026-04-21T09:00:41.001Z</time></trkpt><trkpt lat="41.93916283526297" lon="12.187732152152293"><ele>43.33333333333333</ele><time>2026-04-21T09:00:42.001Z</time></trkpt><trkpt lat="41.93915416487128" lon="12.187976221525524"><ele>44.0</ele><time>2026-04-21T09:00:43.001Z</time></trkpt><trkpt lat="41.93913033062738" lon="12.188232946620813"><ele>44.33333333333333</ele><time>2026-04-21T09:00:44.001Z</time></trkpt><trkpt lat="41.9391126702735" lon="12.188486690468823"><ele>44.666666666666664</ele><time>2026-04-21T09:00:45.001Z</time></trkpt><trkpt lat="41.9390976742115" lon="12.188759582392972"><ele>45.0</ele><time>2026-04-21T09:00:46.001Z</time></trkpt><trkpt lat="41.939077543659764" lon="12.189035161073878"><ele>45.666666666666664</ele><time>2026-04-21T09:00:47.001Z</time></trkpt><trkpt lat="41.93905649085046" lon="12.189313030852988"><ele>46.33333333333333</ele><time>2026-04-21T09:00:48.001Z</time></trkpt><trkpt lat="41.939035798190744" lon="12.189582824171849"><ele>47.0</ele><time>2026-04-21T09:00:49.001Z</time></trkpt><trkpt lat="41.939019924349964" lon="12.189831640145547"><ele>48.33333333333333</ele><time>2026-04-21T09:00:50.001Z</time></trkpt><trkpt lat="41.939005380338635" lon="12.190077910086334"><ele>49.666666666666664</ele><time>2026-04-21T09:00:51.001Z</time></trkpt><trkpt lat="41.93900267046224" lon="12.190320487570103"><ele>51.0</ele><time>2026-04-21T09:00:52.001Z</time></trkpt><trkpt lat="41.93902187702558" lon="12.19054739683392"><ele>52.33333333333333</ele><time>2026-04-21T09:00:53.001Z</time></trkpt><trkpt lat="41.93906651684422" lon="12.190768805148057"><ele>53.666666666666664</ele><time>2026-04-21T09:00:54.001Z</time></trkpt><trkpt lat="41.93913916286951" lon="12.190978696052909"><ele>55.0</ele><time>2026-04-21T09:00:55.001Z</time></trkpt><trkpt lat="41.939251422784565" lon="12.19116864523528"><ele>54.666666666666664</ele><time>2026-04-21T09:00:56.001Z</time></trkpt><trkpt lat="41.939380313887995" lon="12.191347347207689"><ele>54.33333333333333</ele><time>2026-04-21T09:00:57.001Z</time></trkpt><trkpt lat="41.93953547380378" lon="12.19152273725631"><ele>54.0</ele><time>2026-04-21T09:00:58.001Z</time></trkpt><trkpt lat="41.93969414553408" lon="12.191696390880768"><ele>54.0</ele><time>2026-04-21T09:00:59.001Z</time></trkpt><trkpt lat="41.939853237507435" lon="12.191882974921741"><ele>54.0</ele><time>2026-04-21T09:01:00.001Z</time></trkpt><trkpt lat="41.940010972131546" lon="12.192072116833428"><ele>54.0</ele><time>2026-04-21T09:01:01.001Z</time></trkpt><trkpt lat="41.94016884539219" lon="12.192264208297953"><ele>54.0</ele><time>2026-04-21T09:01:02.001Z</time></trkpt><trkpt lat="41.94031658460601" lon="12.192444341707535"><ele>54.0</ele><time>2026-04-21T09:01:03.001Z</time></trkpt><trkpt lat="41.94046489592486" lon="12.192621974041082"><ele>54.0</ele><time>2026-04-21T09:01:04.001Z</time></trkpt><trkpt lat="41.940607239364184" lon="12.19277550742904"><ele>54.0</ele><time>2026-04-21T09:01:05.001Z</time></trkpt><trkpt lat="41.940768972690556" lon="12.192902273532058"><ele>54.0</ele><time>2026-04-21T09:01:06.001Z</time></trkpt><trkpt lat="41.94095796745296" lon="12.192997376973771"><ele>54.0</ele><time>2026-04-21T09:01:07.001Z</time></trkpt><trkpt lat="41.9411626025653" lon="12.19308087234152"><ele>55.0</ele><time>2026-04-21T09:01:08.001Z</time></trkpt><trkpt lat="41.94138006265155" lon="12.193164524334637"><ele>56.0</ele><time>2026-04-21T09:01:09.001Z</time></trkpt><trkpt lat="41.94159116623183" lon="12.193252580011185"><ele>57.0</ele><time>2026-04-21T09:01:10.001Z</time></trkpt><trkpt lat="41.94180135920363" lon="12.193338670789057"><ele>57.33333333333333</ele><time>2026-04-21T09:01:11.001Z</time></trkpt><trkpt lat="41.94198845789988" lon="12.19342594951559"><ele>57.666666666666664</ele><time>2026-04-21T09:01:12.001Z</time></trkpt><trkpt lat="41.94217337241261" lon="12.193508448942803"><ele>58.0</ele><time>2026-04-21T09:01:13.001Z</time></trkpt><trkpt lat="41.942377361914744" lon="12.193618588738177"><ele>58.0</ele><time>2026-04-21T09:01:14.001Z</time></trkpt><trkpt lat="41.94259244564671" lon="12.19373571784178"><ele>58.0</ele><time>2026-04-21T09:01:15.001Z</time></trkpt><trkpt lat="41.94278537394013" lon="12.19384670016899"><ele>58.0</ele><time>2026-04-21T09:01:16.001Z</time></trkpt><trkpt lat="41.942974884064135" lon="12.193963130586432"><ele>59.33333333333333</ele><time>2026-04-21T09:01:17.001Z</time></trkpt><trkpt lat="41.943169168831915" lon="12.194074575178504"><ele>60.66666666666667</ele><time>2026-04-21T09:01:18.001Z</time></trkpt><trkpt lat="41.943344105324286" lon="12.19416667841192"><ele>62.0</ele><time>2026-04-21T09:01:19.001Z</time></trkpt><trkpt lat="41.943507972865234" lon="12.194255858696343"><ele>63.66666666666667</ele><time>2026-04-21T09:01:20.001Z</time></trkpt><trkpt lat="41.94368226646784" lon="12.19433596946309"><ele>65.33333333333333</ele><time>2026-04-21T09:01:21.001Z</time></trkpt><trkpt lat="41.94387368123707" lon="12.19438181132212"><ele>67.0</ele><time>2026-04-21T09:01:22.001Z</time></trkpt><trkpt lat="41.9440828891391" lon="12.194394112305769"><ele>66.33333333333333</ele><time>2026-04-21T09:01:23.001Z</time></trkpt><trkpt lat="41.94430452462046" lon="12.194402567215665"><ele>65.66666666666667</ele><time>2026-04-21T09:01:24.001Z</time></trkpt><trkpt lat="41.944497960133276" lon="12.194422247072813"><ele>65.0</ele><time>2026-04-21T09:01:25.001Z</time></trkpt><trkpt lat="41.944661184484445" lon="12.19444338957609"><ele>65.0</ele><time>2026-04-21T09:01:26.001Z</time></trkpt><trkpt lat="41.94481983945965" lon="12.194475090489647"><ele>65.0</ele><time>2026-04-21T09:01:27.001Z</time></trkpt><trkpt lat="41.94497445588126" lon="12.194546339390152"><ele>65.0</ele><time>2026-04-21T09:01:28.001Z</time></trkpt><trkpt lat="41.94512143010307" lon="12.194682427255072"><ele>65.66666666666667</ele><time>2026-04-21T09:01:29.001Z</time></trkpt><trkpt lat="41.94525163262383" lon="12.194849457332424"><ele>66.33333333333333</ele><time>2026-04-21T09:01:30.001Z</time></trkpt><trkpt lat="41.94536080264276" lon="12.195044650403757"><ele>67.0</ele><time>2026-04-21T09:01:31.001Z</time></trkpt><trkpt lat="41.94548486372857" lon="12.195251308426164"><ele>67.0</ele><time>2026-04-21T09:01:32.001Z</time></trkpt><trkpt lat="41.94560214814171" lon="12.195421883356719"><ele>67.0</ele><time>2026-04-21T09:01:33.001Z</time></trkpt><trkpt lat="41.94572169877806" lon="12.195565529443337"><ele>67.0</ele><time>2026-04-21T09:01:34.001Z</time></trkpt><trkpt lat="41.945850987497934" lon="12.195690006186036"><ele>67.33333333333333</ele><time>2026-04-21T09:01:35.001Z</time></trkpt><trkpt lat="41.94600506651993" lon="12.195769547799589"><ele>67.66666666666667</ele><time>2026-04-21T09:01:36.001Z</time></trkpt><trkpt lat="41.94617751486656" lon="12.195811414999204"><ele>68.0</ele><time>2026-04-21T09:01:37.001Z</time></trkpt><trkpt lat="41.946364045446465" lon="12.19585751805525"><ele>68.0</ele><time>2026-04-21T09:01:38.001Z</time></trkpt><trkpt lat="41.946544034686646" lon="12.195906794943284"><ele>68.0</ele><time>2026-04-21T09:01:39Z</time></trkpt><trkpt lat="41.94672508227531" lon="12.195958212839411"><ele>68.0</ele><time>2026-04-21T09:01:40Z</time></trkpt><trkpt lat="41.946894579883825" lon="12.196006165529935"><ele>68.25</ele><time>2026-04-21T09:01:41Z</time></trkpt><trkpt lat="41.9470463905032" lon="12.196055662967284"><ele>68.5</ele><time>2026-04-21T09:01:42Z</time></trkpt><trkpt lat="41.94718742148398" lon="12.196096177987128"><ele>68.75</ele><time>2026-04-21T09:01:43Z</time></trkpt><trkpt lat="41.94731536772274" lon="12.19613080951464"><ele>69.0</ele><time>2026-04-21T09:01:44Z</time></trkpt><trkpt lat="41.947437915846805" lon="12.19616429184371"><ele>68.75</ele><time>2026-04-21T09:01:45Z</time></trkpt><trkpt lat="41.94755476266715" lon="12.196195484242027"><ele>68.5</ele><time>2026-04-21T09:01:46Z</time></trkpt><trkpt lat="41.94766944310397" lon="12.196230601147434"><ele>68.25</ele><time>2026-04-21T09:01:47Z</time></trkpt><trkpt lat="41.947791144119506" lon="12.196276025064508"><ele>68.0</ele><time>2026-04-21T09:01:48Z</time></trkpt><trkpt lat="41.947916464498654" lon="12.196344165532789"><ele>68.0</ele><time>2026-04-21T09:01:49Z</time></trkpt><trkpt lat="41.94806565895663" lon="12.196457934574608"><ele>68.0</ele><time>2026-04-21T09:01:50Z</time></trkpt><trkpt lat="41.948230813599984" lon="12.19660989467"><ele>68.0</ele><time>2026-04-21T09:01:51Z</time></trkpt><trkpt lat="41.948390418208106" lon="12.196763115839792"><ele>69.66666666666667</ele><time>2026-04-21T09:01:52Z</time></trkpt><trkpt lat="41.94854744479033" lon="12.19690602385657"><ele>71.33333333333333</ele><time>2026-04-21T09:01:53Z</time></trkpt><trkpt lat="41.94870681533633" lon="12.197039313686496"><ele>73.0</ele><time>2026-04-21T09:01:54Z</time></trkpt><trkpt lat="41.948871044435386" lon="12.197197885534854"><ele>72.33333333333333</ele><time>2026-04-21T09:01:55Z</time></trkpt><trkpt lat="41.94900720402609" lon="12.197338512239035"><ele>71.66666666666667</ele><time>2026-04-21T09:01:56Z</time></trkpt><trkpt lat="41.94914415942598" lon="12.197473647058485"><ele>71.0</ele><time>2026-04-21T09:01:57Z</time></trkpt><trkpt lat="41.94928300415494" lon="12.197656265804369"><ele>71.0</ele><time>2026-04-21T09:01:58Z</time></trkpt><trkpt lat="41.94941660478109" lon="12.19784572615223"><ele>71.0</ele><time>2026-04-21T09:01:59Z</time></trkpt><trkpt lat="41.9495337878385" lon="12.198025660199251"><ele>71.0</ele><time>2026-04-21T09:02:00Z</time></trkpt><trkpt lat="41.94965127474619" lon="12.198199183946208"><ele>72.66666666666667</ele><time>2026-04-21T09:02:01Z</time></trkpt><trkpt lat="41.949764869336825" lon="12.198356475474911"><ele>74.33333333333333</ele><time>2026-04-21T09:02:02Z</time></trkpt><trkpt lat="41.949870483569335" lon="12.19850295709627"><ele>76.0</ele><time>2026-04-21T09:02:03Z</time></trkpt><trkpt lat="41.94999249067474" lon="12.19865394951757"><ele>75.66666666666666</ele><time>2026-04-21T09:02:04Z</time></trkpt><trkpt lat="41.95013576329423" lon="12.198755720009695"><ele>75.33333333333333</ele><time>2026-04-21T09:02:05Z</time></trkpt><trkpt lat="41.950301060979214" lon="12.198804806522185"><ele>75.0</ele><time>2026-04-21T09:02:06Z</time></trkpt><trkpt lat="41.9504700867628" lon="12.198811218816832"><ele>75.0</ele><time>2026-04-21T09:02:07Z</time></trkpt><trkpt lat="41.95063824317503" lon="12.198778383704157"><ele>75.0</ele><time>2026-04-21T09:02:08Z</time></trkpt><trkpt lat="41.95081634624967" lon="12.19870835664071"><ele>75.0</ele><time>2026-04-21T09:02:09Z</time></trkpt><trkpt lat="41.95098348036337" lon="12.1986375336185"><ele>75.66666666666667</ele><time>2026-04-21T09:02:10Z</time></trkpt><trkpt lat="41.951149382634085" lon="12.198579056657534"><ele>76.33333333333334</ele><time>2026-04-21T09:02:11Z</time></trkpt><trkpt lat="41.95130980941144" lon="12.198533160961569"><ele>77.0</ele><time>2026-04-21T09:02:12Z</time></trkpt><trkpt lat="41.951477930883556" lon="12.198483634286067"><ele>77.0</ele><time>2026-04-21T09:02:13Z</time></trkpt><trkpt lat="41.951649758486695" lon="12.198424976284016"><ele>77.0</ele><time>2026-04-21T09:02:14Z</time></trkpt><trkpt lat="41.95182126511539" lon="12.198351730380352"><ele>77.0</ele><time>2026-04-21T09:02:15Z</time></trkpt><trkpt lat="41.95198926830404" lon="12.198260936537723"><ele>76.33333333333334</ele><time>2026-04-21T09:02:16Z</time></trkpt><trkpt lat="41.9521622374984" lon="12.198152251228587"><ele>75.66666666666667</ele><time>2026-04-21T09:02:17.001Z</time></trkpt><trkpt lat="41.95232681343406" lon="12.198049177056534"><ele>75.0</ele><time>2026-04-21T09:02:18.001Z</time></trkpt><trkpt lat="41.952484683626714" lon="12.197959195323005"><ele>76.33333333333333</ele><time>2026-04-21T09:02:19.001Z</time></trkpt><trkpt lat="41.9526305196872" lon="12.197870648387847"><ele>77.66666666666666</ele><time>2026-04-21T09:02:20.001Z</time></trkpt><trkpt lat="41.952785372811526" lon="12.197781632848729"><ele>79.0</ele><time>2026-04-21T09:02:21.001Z</time></trkpt><trkpt lat="41.952942166030496" lon="12.197688844669141"><ele>79.0</ele><time>2026-04-21T09:02:22.001Z</time></trkpt><trkpt lat="41.95310292459527" lon="12.197593754179357"><ele>79.0</ele><time>2026-04-21T09:02:23.001Z</time></trkpt><trkpt lat="41.95326345651168" lon="12.197500388574621"><ele>79.0</ele><time>2026-04-21T09:02:24.001Z</time></trkpt><trkpt lat="41.953421192883134" lon="12.197407797281832"><ele>80.0</ele><time>2026-04-21T09:02:25.001Z</time></trkpt><trkpt lat="41.95360275106594" lon="12.19730826889347"><ele>81.0</ele><time>2026-04-21T09:02:26.001Z</time></trkpt><trkpt lat="41.953769140347305" lon="12.197211985032569"><ele>82.0</ele><time>2026-04-21T09:02:27.001Z</time></trkpt><trkpt lat="41.953947487354945" lon="12.197108018511338"><ele>82.0</ele><time>2026-04-21T09:02:28.001Z</time></trkpt><trkpt lat="41.95415495994985" lon="12.196988561750498"><ele>82.0</ele><time>2026-04-21T09:02:29.001Z</time></trkpt><trkpt lat="41.95438588491383" lon="12.19685345774891"><ele>81.5</ele><time>2026-04-21T09:02:30.001Z</time></trkpt><trkpt lat="41.95461625160451" lon="12.196723334419959"><ele>81.0</ele><time>2026-04-21T09:02:31.001Z</time></trkpt><trkpt lat="41.95481524345793" lon="12.196609145138867"><ele>80.0</ele><time>2026-04-21T09:02:32.001Z</time></trkpt><trkpt lat="41.9550090811461" lon="12.196496970879707"><ele>79.0</ele><time>2026-04-21T09:02:33.001Z</time></trkpt><trkpt lat="41.955190021436756" lon="12.196393052842655"><ele>78.0</ele><time>2026-04-21T09:02:34.001Z</time></trkpt><trkpt lat="41.95537521437365" lon="12.19628834202584"><ele>80.0</ele><time>2026-04-21T09:02:35.001Z</time></trkpt><trkpt lat="41.95554662720277" lon="12.196187414518056"><ele>82.0</ele><time>2026-04-21T09:02:36.001Z</time></trkpt><trkpt lat="41.9557070998568" lon="12.196099657595665"><ele>84.0</ele><time>2026-04-21T09:02:37.001Z</time></trkpt><trkpt lat="41.955856372203094" lon="12.196029206335169"><ele>83.66666666666667</ele><time>2026-04-21T09:02:38.001Z</time></trkpt><trkpt lat="41.956016011820196" lon="12.195998149022365"><ele>83.33333333333334</ele><time>2026-04-21T09:02:39.001Z</time></trkpt><trkpt lat="41.95619939911102" lon="12.196005099595961"><ele>83.0</ele><time>2026-04-21T09:02:40.001Z</time></trkpt><trkpt lat="41.956409948905325" lon="12.196030739591142"><ele>83.0</ele><time>2026-04-21T09:02:41.001Z</time></trkpt><trkpt lat="41.9566021621433" lon="12.196064889868001"><ele>83.0</ele><time>2026-04-21T09:02:42.001Z</time></trkpt><trkpt lat="41.956773257703645" lon="12.196089497016136"><ele>83.0</ele><time>2026-04-21T09:02:43.001Z</time></trkpt><trkpt lat="41.95692565071549" lon="12.196105756057761"><ele>83.0</ele><time>2026-04-21T09:02:44.001Z</time></trkpt><trkpt lat="41.95708280705707" lon="12.19612215848306"><ele>83.0</ele><time>2026-04-21T09:02:45.001Z</time></trkpt><trkpt lat="41.95724263378269" lon="12.196141041553162"><ele>83.0</ele><time>2026-04-21T09:02:46.001Z</time></trkpt><trkpt lat="41.957411198738754" lon="12.196149191898161"><ele>83.33333333333334</ele><time>2026-04-21T09:02:47.001Z</time></trkpt><trkpt lat="41.95757238078768" lon="12.196117153563078"><ele>83.66666666666667</ele><time>2026-04-21T09:02:48.001Z</time></trkpt><trkpt lat="41.95772698600374" lon="12.196044512372984"><ele>84.0</ele><time>2026-04-21T09:02:49.001Z</time></trkpt><trkpt lat="41.95787289133459" lon="12.195940412830318"><ele>84.0</ele><time>2026-04-21T09:02:50.001Z</time></trkpt><trkpt lat="41.9580304810845" lon="12.19580684967645"><ele>84.0</ele><time>2026-04-21T09:02:51.001Z</time></trkpt><trkpt lat="41.95818998228208" lon="12.195638929651691"><ele>84.0</ele><time>2026-04-21T09:02:52.001Z</time></trkpt><trkpt lat="41.958364890030005" lon="12.195496366610158"><ele>84.5</ele><time>2026-04-21T09:02:53.001Z</time></trkpt><trkpt lat="41.958544061549254" lon="12.195312482192154"><ele>85.0</ele><time>2026-04-21T09:02:54.001Z</time></trkpt><trkpt lat="41.95875495636575" lon="12.195146450931533"><ele>85.0</ele><time>2026-04-21T09:02:55.001Z</time></trkpt><trkpt lat="41.95893092277854" lon="12.194997971527345"><ele>85.0</ele><time>2026-04-21T09:02:56.001Z</time></trkpt><trkpt lat="41.95908942983768" lon="12.194853678490553"><ele>85.0</ele><time>2026-04-21T09:02:57.001Z</time></trkpt><trkpt lat="41.95923963351983" lon="12.194720644850348"><ele>86.0</ele><time>2026-04-21T09:02:58.001Z</time></trkpt><trkpt lat="41.9593879921692" lon="12.194583613167604"><ele>87.0</ele><time>2026-04-21T09:02:59.001Z</time></trkpt><trkpt lat="41.95953173267626" lon="12.19442517035567"><ele>88.0</ele><time>2026-04-21T09:03:00.001Z</time></trkpt><trkpt lat="41.95964838775878" lon="12.194213194306595"><ele>88.0</ele><time>2026-04-21T09:03:01.001Z</time></trkpt><trkpt lat="41.95975983326047" lon="12.193997434499378"><ele>88.0</ele><time>2026-04-21T09:03:02.001Z</time></trkpt><trkpt lat="41.95985427225879" lon="12.193818583511264"><ele>88.0</ele><time>2026-04-21T09:03:03.001Z</time></trkpt><trkpt lat="41.95993436427706" lon="12.193667164425644"><ele>88.0</ele><time>2026-04-21T09:03:04.001Z</time></trkpt><trkpt lat="41.960004992306615" lon="12.193530438148299"><ele>88.0</ele><time>2026-04-21T09:03:05.001Z</time></trkpt><trkpt lat="41.9600787658263" lon="12.193396827148506"><ele>88.0</ele><time>2026-04-21T09:03:06.001Z</time></trkpt><trkpt lat="41.960152387607096" lon="12.193267030956617"><ele>88.0</ele><time>2026-04-21T09:03:07.001Z</time></trkpt><trkpt lat="41.960226140053905" lon="12.193138751507327"><ele>89.0</ele><time>2026-04-21T09:03:08.001Z</time></trkpt><trkpt lat="41.96031119663737" lon="12.192990662525954"><ele>90.0</ele><time>2026-04-21T09:03:09.001Z</time></trkpt><trkpt lat="41.96040594400321" lon="12.19281489937094"><ele>91.0</ele><time>2026-04-21T09:03:10.001Z</time></trkpt><trkpt lat="41.960495544534204" lon="12.192659017365918"><ele>92.0</ele><time>2026-04-21T09:03:11.001Z</time></trkpt><trkpt lat="41.96058842710216" lon="12.192502216744623"><ele>92.33333333333334</ele><time>2026-04-21T09:03:12.001Z</time></trkpt><trkpt lat="41.96068047503242" lon="12.192319666762167"><ele>92.66666666666667</ele><time>2026-04-21T09:03:13.001Z</time></trkpt><trkpt lat="41.960796243553915" lon="12.192129383493091"><ele>93.0</ele><time>2026-04-21T09:03:14.001Z</time></trkpt><trkpt lat="41.9609232691321" lon="12.191907750079219"><ele>93.66666666666667</ele><time>2026-04-21T09:03:15.001Z</time></trkpt><trkpt lat="41.96103568279877" lon="12.191700487141295"><ele>94.33333333333334</ele><time>2026-04-21T09:03:16.001Z</time></trkpt><trkpt lat="41.9611393142758" lon="12.191513725069807"><ele>95.0</ele><time>2026-04-21T09:03:17.001Z</time></trkpt><trkpt lat="41.96124035253579" lon="12.191327621531649"><ele>95.0</ele><time>2026-04-21T09:03:18.001Z</time></trkpt><trkpt lat="41.961357218858524" lon="12.191132141891849"><ele>95.0</ele><time>2026-04-21T09:03:19.001Z</time></trkpt><trkpt lat="41.961458524384376" lon="12.1909388268194"><ele>95.0</ele><time>2026-04-21T09:03:20.001Z</time></trkpt><trkpt lat="41.96155802176534" lon="12.190751919665225"><ele>95.0</ele><time>2026-04-21T09:03:21.001Z</time></trkpt><trkpt lat="41.96166960881145" lon="12.19057101946076"><ele>95.0</ele><time>2026-04-21T09:03:22.001Z</time></trkpt><trkpt lat="41.96180504897625" lon="12.190360476493614"><ele>95.0</ele><time>2026-04-21T09:03:23.001Z</time></trkpt><trkpt lat="41.96194826043128" lon="12.190159128648215"><ele>94.33333333333334</ele><time>2026-04-21T09:03:24.001Z</time></trkpt><trkpt lat="41.962077361221596" lon="12.189980883866157"><ele>93.66666666666667</ele><time>2026-04-21T09:03:25.001Z</time></trkpt><trkpt lat="41.962201244085755" lon="12.189812916948677"><ele>93.0</ele><time>2026-04-21T09:03:26.001Z</time></trkpt><trkpt lat="41.9623229423272" lon="12.189648949647072"><ele>92.66666666666667</ele><time>2026-04-21T09:03:27.001Z</time></trkpt><trkpt lat="41.96245403905154" lon="12.18949492757425"><ele>92.33333333333334</ele><time>2026-04-21T09:03:28.001Z</time></trkpt><trkpt lat="41.96259613972012" lon="12.189381221526517"><ele>92.0</ele><time>2026-04-21T09:03:29.001Z</time></trkpt><trkpt lat="41.962750057624646" lon="12.189298350083467"><ele>91.0</ele><time>2026-04-21T09:03:30.001Z</time></trkpt><trkpt lat="41.96291616152831" lon="12.189242245244204"><ele>90.0</ele><time>2026-04-21T09:03:31.001Z</time></trkpt><trkpt lat="41.96308517969299" lon="12.189210436086931"><ele>89.0</ele><time>2026-04-21T09:03:32.001Z</time></trkpt><trkpt lat="41.9632628699476" lon="12.189185565179528"><ele>88.66666666666667</ele><time>2026-04-21T09:03:33.001Z</time></trkpt><trkpt lat="41.963440989030815" lon="12.189165105646971"><ele>88.33333333333333</ele><time>2026-04-21T09:03:34.001Z</time></trkpt><trkpt lat="41.96360852508124" lon="12.189139173077047"><ele>88.0</ele><time>2026-04-21T09:03:35.001Z</time></trkpt><trkpt lat="41.96377681578269" lon="12.18911051345871"><ele>88.0</ele><time>2026-04-21T09:03:36.001Z</time></trkpt><trkpt lat="41.96394209411418" lon="12.189086538357099"><ele>88.0</ele><time>2026-04-21T09:03:37.001Z</time></trkpt><trkpt lat="41.964119114141326" lon="12.189056776272205"><ele>88.0</ele><time>2026-04-21T09:03:38.001Z</time></trkpt><trkpt lat="41.9642881199494" lon="12.189026323510717"><ele>87.0</ele><time>2026-04-21T09:03:39.001Z</time></trkpt><trkpt lat="41.96446074958115" lon="12.188996901402898"><ele>86.0</ele><time>2026-04-21T09:03:40.001Z</time></trkpt><trkpt lat="41.96463361262885" lon="12.188965882710148"><ele>85.0</ele><time>2026-04-21T09:03:41.001Z</time></trkpt><trkpt lat="41.964812227126416" lon="12.188935337040876"><ele>85.0</ele><time>2026-04-21T09:03:42.001Z</time></trkpt><trkpt lat="41.96500022775564" lon="12.188931019327242"><ele>85.0</ele><time>2026-04-21T09:03:43.001Z</time></trkpt><trkpt lat="41.96519072148691" lon="12.188956877562408"><ele>85.0</ele><time>2026-04-21T09:03:44.001Z</time></trkpt><trkpt lat="41.96539838048537" lon="12.188995319506503"><ele>85.0</ele><time>2026-04-21T09:03:45Z</time></trkpt><trkpt lat="41.96561893240812" lon="12.18903227366802"><ele>85.0</ele><time>2026-04-21T09:03:46Z</time></trkpt><trkpt lat="41.96583496817821" lon="12.189068458961914"><ele>85.0</ele><time>2026-04-21T09:03:47Z</time></trkpt><trkpt lat="41.96604810614208" lon="12.189099270066976"><ele>85.0</ele><time>2026-04-21T09:03:48Z</time></trkpt><trkpt lat="41.966266768925614" lon="12.189132637868052"><ele>85.0</ele><time>2026-04-21T09:03:49Z</time></trkpt><trkpt lat="41.96649010563681" lon="12.18917058208666"><ele>85.0</ele><time>2026-04-21T09:03:50Z</time></trkpt><trkpt lat="41.96671147146118" lon="12.18920854011862"><ele>84.33333333333333</ele><time>2026-04-21T09:03:51Z</time></trkpt><trkpt lat="41.96694158845836" lon="12.189240314758349"><ele>83.66666666666667</ele><time>2026-04-21T09:03:52Z</time></trkpt><trkpt lat="41.96715235675099" lon="12.189270077964995"><ele>83.0</ele><time>2026-04-21T09:03:53Z</time></trkpt><trkpt lat="41.96735677763016" lon="12.189308017014012"><ele>83.33333333333334</ele><time>2026-04-21T09:03:54Z</time></trkpt><trkpt lat="41.967572880399956" lon="12.189358705285908"><ele>83.66666666666667</ele><time>2026-04-21T09:03:55Z</time></trkpt><trkpt lat="41.96779203531421" lon="12.189437860640092"><ele>84.0</ele><time>2026-04-21T09:03:56Z</time></trkpt><trkpt lat="41.96800344422481" lon="12.189542511522589"><ele>84.0</ele><time>2026-04-21T09:03:57Z</time></trkpt><trkpt lat="41.96821420391829" lon="12.189647953596785"><ele>84.0</ele><time>2026-04-21T09:03:58Z</time></trkpt><trkpt lat="41.96840933706626" lon="12.189743989123953"><ele>84.0</ele><time>2026-04-21T09:03:59Z</time></trkpt><trkpt lat="41.968590265455234" lon="12.189835115787927"><ele>85.0</ele><time>2026-04-21T09:04:00Z</time></trkpt><trkpt lat="41.968760266531035" lon="12.189917532361351"><ele>86.0</ele><time>2026-04-21T09:04:01Z</time></trkpt><trkpt lat="41.96892945974212" lon="12.18996683383836"><ele>87.0</ele><time>2026-04-21T09:04:02Z</time></trkpt><trkpt lat="41.969111408596234" lon="12.189975257064654"><ele>86.66666666666667</ele><time>2026-04-21T09:04:03Z</time></trkpt><trkpt lat="41.96926153400768" lon="12.189935685793825"><ele>86.33333333333334</ele><time>2026-04-21T09:04:04Z</time></trkpt><trkpt lat="41.96943970777079" lon="12.189860203784935"><ele>86.0</ele><time>2026-04-21T09:04:05Z</time></trkpt><trkpt lat="41.96962194938892" lon="12.189782950403991"><ele>87.0</ele><time>2026-04-21T09:04:06Z</time></trkpt><trkpt lat="41.969796811001615" lon="12.189697908209618"><ele>88.0</ele><time>2026-04-21T09:04:07Z</time></trkpt><trkpt lat="41.969956130963816" lon="12.189625302234115"><ele>89.0</ele><time>2026-04-21T09:04:08Z</time></trkpt><trkpt lat="41.970122512908816" lon="12.189557578998095"><ele>89.0</ele><time>2026-04-21T09:04:09Z</time></trkpt><trkpt lat="41.970286776396314" lon="12.189486050207424"><ele>89.0</ele><time>2026-04-21T09:04:10Z</time></trkpt><trkpt lat="41.97044797032589" lon="12.189418991727196"><ele>89.0</ele><time>2026-04-21T09:04:11Z</time></trkpt><trkpt lat="41.970601777942555" lon="12.189384745422528"><ele>89.0</ele><time>2026-04-21T09:04:12Z</time></trkpt><trkpt lat="41.97076110543271" lon="12.189403185231082"><ele>89.0</ele><time>2026-04-21T09:04:13Z</time></trkpt><trkpt lat="41.97092824208481" lon="12.189422093186389"><ele>89.0</ele><time>2026-04-21T09:04:14.001Z</time></trkpt><trkpt lat="41.97110764125771" lon="12.189443626307433"><ele>88.66666666666667</ele><time>2026-04-21T09:04:15.001Z</time></trkpt><trkpt lat="41.97129496950753" lon="12.18950118396609"><ele>88.33333333333333</ele><time>2026-04-21T09:04:16.001Z</time></trkpt><trkpt lat="41.971511140801084" lon="12.189559123831744"><ele>88.0</ele><time>2026-04-21T09:04:17.001Z</time></trkpt><trkpt lat="41.97176153715145" lon="12.189625931867273"><ele>88.0</ele><time>2026-04-21T09:04:18.001Z</time></trkpt><trkpt lat="41.97199259009209" lon="12.18968241833341"><ele>88.0</ele><time>2026-04-21T09:04:19.001Z</time></trkpt><trkpt lat="41.972197907740366" lon="12.189732327337857"><ele>88.0</ele><time>2026-04-21T09:04:20.001Z</time></trkpt><trkpt lat="41.97238645360801" lon="12.189781720849316"><ele>87.33333333333333</ele><time>2026-04-21T09:04:21.001Z</time></trkpt><trkpt lat="41.972576826568904" lon="12.189825590357605"><ele>86.66666666666667</ele><time>2026-04-21T09:04:22.001Z</time></trkpt><trkpt lat="41.97277594469297" lon="12.189879844222107"><ele>86.0</ele><time>2026-04-21T09:04:23.001Z</time></trkpt><trkpt lat="41.972976710768656" lon="12.189931181525095"><ele>88.0</ele><time>2026-04-21T09:04:24.001Z</time></trkpt><trkpt lat="41.97317986420674" lon="12.189976237379993"><ele>90.0</ele><time>2026-04-21T09:04:25.001Z</time></trkpt><trkpt lat="41.973387550330365" lon="12.189992041365057"><ele>92.0</ele><time>2026-04-21T09:04:26.001Z</time></trkpt><trkpt lat="41.97361006430309" lon="12.19000946926634"><ele>92.0</ele><time>2026-04-21T09:04:27.001Z</time></trkpt><trkpt lat="41.97383836482522" lon="12.190025645702061"><ele>92.0</ele><time>2026-04-21T09:04:28.001Z</time></trkpt><trkpt lat="41.974041987954884" lon="12.190051545255333"><ele>92.0</ele><time>2026-04-21T09:04:29.001Z</time></trkpt><trkpt lat="41.97423585577938" lon="12.190072487189576"><ele>93.33333333333334</ele><time>2026-04-21T09:04:30.001Z</time></trkpt><trkpt lat="41.97442511575207" lon="12.190094463070269"><ele>94.66666666666667</ele><time>2026-04-21T09:04:31.001Z</time></trkpt><trkpt lat="41.97459767416283" lon="12.190112081580173"><ele>96.0</ele><time>2026-04-21T09:04:32.001Z</time></trkpt><trkpt lat="41.974765315381525" lon="12.19013029762067"><ele>96.0</ele><time>2026-04-21T09:04:33.001Z</time></trkpt><trkpt lat="41.97494022548436" lon="12.190153964135815"><ele>96.0</ele><time>2026-04-21T09:04:34.001Z</time></trkpt><trkpt lat="41.97511728869791" lon="12.190203512321819"><ele>96.0</ele><time>2026-04-21T09:04:35.001Z</time></trkpt><trkpt lat="41.97526472057965" lon="12.190291507469691"><ele>97.33333333333334</ele><time>2026-04-21T09:04:36.001Z</time></trkpt><trkpt lat="41.975415946054724" lon="12.190417102747071"><ele>98.66666666666667</ele><time>2026-04-21T09:04:37.001Z</time></trkpt><trkpt lat="41.97555891743791" lon="12.190580132994711"><ele>100.0</ele><time>2026-04-21T09:04:38.001Z</time></trkpt><trkpt lat="41.97568265073076" lon="12.190772581190874"><ele>100.0</ele><time>2026-04-21T09:04:39.001Z</time></trkpt><trkpt lat="41.97579601032391" lon="12.190986206917838"><ele>100.0</ele><time>2026-04-21T09:04:40.001Z</time></trkpt><trkpt lat="41.975936673884874" lon="12.191199903439216"><ele>100.0</ele><time>2026-04-21T09:04:41.001Z</time></trkpt><trkpt lat="41.97606668095776" lon="12.191382942632021"><ele>101.33333333333334</ele><time>2026-04-21T09:04:42.001Z</time></trkpt><trkpt lat="41.97617495450725" lon="12.191553812891122"><ele>102.66666666666666</ele><time>2026-04-21T09:04:43.001Z</time></trkpt><trkpt lat="41.976287646600944" lon="12.191712100673188"><ele>104.0</ele><time>2026-04-21T09:04:44.001Z</time></trkpt><trkpt lat="41.97640332788744" lon="12.191870788102195"><ele>104.0</ele><time>2026-04-21T09:04:45.001Z</time></trkpt><trkpt lat="41.97654496464848" lon="12.192007821426682"><ele>104.0</ele><time>2026-04-21T09:04:46.001Z</time></trkpt><trkpt lat="41.97670992784496" lon="12.192099935924926"><ele>104.0</ele><time>2026-04-21T09:04:47.001Z</time></trkpt><trkpt lat="41.97689326968911" lon="12.192139950589754"><ele>106.0</ele><time>2026-04-21T09:04:48.001Z</time></trkpt><trkpt lat="41.977075203333555" lon="12.192089527592774"><ele>108.0</ele><time>2026-04-21T09:04:49.001Z</time></trkpt><trkpt lat="41.97726187447631" lon="12.192044075775646"><ele>110.0</ele><time>2026-04-21T09:04:50.001Z</time></trkpt><trkpt lat="41.977449315173786" lon="12.191967443826737"><ele>112.0</ele><time>2026-04-21T09:04:51.001Z</time></trkpt><trkpt lat="41.97761144134682" lon="12.191909668256379"><ele>114.0</ele><time>2026-04-21T09:04:52.001Z</time></trkpt><trkpt lat="41.97776983186236" lon="12.191861018710293"><ele>116.0</ele><time>2026-04-21T09:04:53.001Z</time></trkpt><trkpt lat="41.97794803410631" lon="12.191810899509676"><ele>116.0</ele><time>2026-04-21T09:04:54.001Z</time></trkpt><trkpt lat="41.97811532615252" lon="12.191757821719502"><ele>116.0</ele><time>2026-04-21T09:04:55.001Z</time></trkpt><trkpt lat="41.97828802316483" lon="12.191699831783236"><ele>116.0</ele><time>2026-04-21T09:04:56.001Z</time></trkpt><trkpt lat="41.97843952344397" lon="12.191652586649074"><ele>116.33333333333333</ele><time>2026-04-21T09:04:57.001Z</time></trkpt><trkpt lat="41.978598631049366" lon="12.191639684655247"><ele>116.66666666666666</ele><time>2026-04-21T09:04:58.001Z</time></trkpt><trkpt lat="41.97876576858469" lon="12.191675429497193"><ele>117.0</ele><time>2026-04-21T09:04:59.001Z</time></trkpt><trkpt lat="41.978932784567334" lon="12.191747835643856"><ele>117.0</ele><time>2026-04-21T09:05:00.001Z</time></trkpt><trkpt lat="41.97909963722147" lon="12.191821790713348"><ele>117.0</ele><time>2026-04-21T09:05:01.001Z</time></trkpt><trkpt lat="41.979267180710735" lon="12.19188945139851"><ele>117.0</ele><time>2026-04-21T09:05:02.001Z</time></trkpt><trkpt lat="41.97943965400216" lon="12.191949065049293"><ele>116.33333333333334</ele><time>2026-04-21T09:05:03.001Z</time></trkpt><trkpt lat="41.97961068322088" lon="12.192014810062792"><ele>115.66666666666667</ele><time>2026-04-21T09:05:04.001Z</time></trkpt><trkpt lat="41.97976585258058" lon="12.19207514115569"><ele>115.0</ele><time>2026-04-21T09:05:05.001Z</time></trkpt><trkpt lat="41.97990355447754" lon="12.192135555195383"><ele>114.66666666666667</ele><time>2026-04-21T09:05:06.001Z</time></trkpt><trkpt lat="41.98003366260872" lon="12.192209544922298"><ele>114.33333333333334</ele><time>2026-04-21T09:05:07.001Z</time></trkpt><trkpt lat="41.9801598492073" lon="12.192326675274366"><ele>114.0</ele><time>2026-04-21T09:05:08.001Z</time></trkpt><trkpt lat="41.98027250001074" lon="12.192480762049973"><ele>114.0</ele><time>2026-04-21T09:05:09.001Z</time></trkpt><trkpt lat="41.98037056112587" lon="12.192660471885535"><ele>114.0</ele><time>2026-04-21T09:05:10.001Z</time></trkpt><trkpt lat="41.98047302567163" lon="12.192860848939347"><ele>114.0</ele><time>2026-04-21T09:05:11.001Z</time></trkpt><trkpt lat="41.980595858397" lon="12.193064659624106"><ele>114.0</ele><time>2026-04-21T09:05:12.001Z</time></trkpt><trkpt lat="41.98069953546106" lon="12.1932382303237"><ele>114.0</ele><time>2026-04-21T09:05:13.001Z</time></trkpt><trkpt lat="41.98079841416726" lon="12.193415034550068"><ele>114.0</ele><time>2026-04-21T09:05:14.001Z</time></trkpt><trkpt lat="41.98090339223563" lon="12.193600159124337"><ele>114.0</ele><time>2026-04-21T09:05:15.001Z</time></trkpt><trkpt lat="41.98101779829105" lon="12.19379223336704"><ele>114.0</ele><time>2026-04-21T09:05:16.001Z</time></trkpt><trkpt lat="41.98114149304355" lon="12.193988727714801"><ele>114.0</ele><time>2026-04-21T09:05:17.001Z</time></trkpt><trkpt lat="41.981284352679324" lon="12.194226239976127"><ele>115.0</ele><time>2026-04-21T09:05:18.001Z</time></trkpt><trkpt lat="41.981429125078094" lon="12.194475066681727"><ele>116.0</ele><time>2026-04-21T09:05:19.001Z</time></trkpt><trkpt lat="41.981557237025505" lon="12.194693788603326"><ele>117.0</ele><time>2026-04-21T09:05:20.001Z</time></trkpt><trkpt lat="41.98167522504402" lon="12.194893049294372"><ele>116.33333333333334</ele><time>2026-04-21T09:05:21.001Z</time></trkpt><trkpt lat="41.981799694458346" lon="12.195090557440777"><ele>115.66666666666667</ele><time>2026-04-21T09:05:22.001Z</time></trkpt><trkpt lat="41.98193855601606" lon="12.195258363567978"><ele>115.0</ele><time>2026-04-21T09:05:23.001Z</time></trkpt><trkpt lat="41.98210557354539" lon="12.19538080345035"><ele>115.0</ele><time>2026-04-21T09:05:24.001Z</time></trkpt><trkpt lat="41.98230201020096" lon="12.195471946186666"><ele>115.0</ele><time>2026-04-21T09:05:25.001Z</time></trkpt><trkpt lat="41.9825099012562" lon="12.1955261145545"><ele>115.0</ele><time>2026-04-21T09:05:26.001Z</time></trkpt><trkpt lat="41.98271876791829" lon="12.195582861369397"><ele>115.0</ele><time>2026-04-21T09:05:27.001Z</time></trkpt><trkpt lat="41.98292877751391" lon="12.195675717793117"><ele>115.0</ele><time>2026-04-21T09:05:28.001Z</time></trkpt><trkpt lat="41.983125875187575" lon="12.19579041434284"><ele>115.0</ele><time>2026-04-21T09:05:29.001Z</time></trkpt><trkpt lat="41.98330367951254" lon="12.195902608801243"><ele>113.33333333333334</ele><time>2026-04-21T09:05:30.001Z</time></trkpt><trkpt lat="41.983481197230546" lon="12.196007489621422"><ele>111.66666666666666</ele><time>2026-04-21T09:05:31.001Z</time></trkpt><trkpt lat="41.9836529552517" lon="12.19609955418476"><ele>110.0</ele><time>2026-04-21T09:05:32.001Z</time></trkpt><trkpt lat="41.983823190626396" lon="12.196172739476921"><ele>110.0</ele><time>2026-04-21T09:05:33.001Z</time></trkpt><trkpt lat="41.983994787345814" lon="12.196207465113353"><ele>110.0</ele><time>2026-04-21T09:05:34.001Z</time></trkpt><trkpt lat="41.984162802945114" lon="12.196190225467465"><ele>110.0</ele><time>2026-04-21T09:05:35.001Z</time></trkpt><trkpt lat="41.98433817137101" lon="12.196121775000742"><ele>109.66666666666666</ele><time>2026-04-21T09:05:36.001Z</time></trkpt><trkpt lat="41.98450337052859" lon="12.19600719788769"><ele>109.33333333333334</ele><time>2026-04-21T09:05:37.001Z</time></trkpt><trkpt lat="41.984674072354196" lon="12.195855161259315"><ele>109.0</ele><time>2026-04-21T09:05:38.001Z</time></trkpt><trkpt lat="41.98484270098252" lon="12.195709897946868"><ele>109.0</ele><time>2026-04-21T09:05:39.001Z</time></trkpt><trkpt lat="41.98501725322675" lon="12.1955662055788"><ele>109.0</ele><time>2026-04-21T09:05:40.001Z</time></trkpt><trkpt lat="41.98523101229656" lon="12.195393902327048"><ele>109.0</ele><time>2026-04-21T09:05:41.001Z</time></trkpt><trkpt lat="41.98542873260012" lon="12.195235180822339"><ele>109.0</ele><time>2026-04-21T09:05:42.001Z</time></trkpt><trkpt lat="41.98560751987567" lon="12.195082634368626"><ele>109.0</ele><time>2026-04-21T09:05:43.001Z</time></trkpt><trkpt lat="41.985763140942105" lon="12.194934604211772"><ele>109.33333333333334</ele><time>2026-04-21T09:05:44.001Z</time></trkpt><trkpt lat="41.985937466800245" lon="12.194779749747807"><ele>109.66666666666666</ele><time>2026-04-21T09:05:45.001Z</time></trkpt><trkpt lat="41.986097798594265" lon="12.194643538333287"><ele>110.0</ele><time>2026-04-21T09:05:46.001Z</time></trkpt><trkpt lat="41.986255280415456" lon="12.194500507360607"><ele>110.0</ele><time>2026-04-21T09:05:47.001Z</time></trkpt><trkpt lat="41.986392258165075" lon="12.194377487594526"><ele>110.0</ele><time>2026-04-21T09:05:48.001Z</time></trkpt><trkpt lat="41.98653621715622" lon="12.194262724760355"><ele>110.0</ele><time>2026-04-21T09:05:49.001Z</time></trkpt><trkpt lat="41.98669680460723" lon="12.1941585008567"><ele>112.66666666666666</ele><time>2026-04-21T09:05:50.001Z</time></trkpt><trkpt lat="41.98687409735739" lon="12.194079077574695"><ele>115.33333333333334</ele><time>2026-04-21T09:05:51Z</time></trkpt><trkpt lat="41.987069343553294" lon="12.194054438536623"><ele>118.0</ele><time>2026-04-21T09:05:52Z</time></trkpt><trkpt lat="41.98725957711472" lon="12.1940651417737"><ele>118.0</ele><time>2026-04-21T09:05:53Z</time></trkpt><trkpt lat="41.987459551019185" lon="12.194088141844745"><ele>118.0</ele><time>2026-04-21T09:05:54Z</time></trkpt><trkpt lat="41.987666889199566" lon="12.194099965688519"><ele>118.0</ele><time>2026-04-21T09:05:55Z</time></trkpt><trkpt lat="41.987875233220514" lon="12.194092778826047"><ele>117.66666666666667</ele><time>2026-04-21T09:05:56Z</time></trkpt><trkpt lat="41.98809295458302" lon="12.194096386719348"><ele>117.33333333333334</ele><time>2026-04-21T09:05:57Z</time></trkpt><trkpt lat="41.98830760368669" lon="12.194098754620745"><ele>117.0</ele><time>2026-04-21T09:05:58Z</time></trkpt><trkpt lat="41.988504837852716" lon="12.194098936797877"><ele>116.33333333333334</ele><time>2026-04-21T09:05:59Z</time></trkpt><trkpt lat="41.988696149332405" lon="12.194093079954804"><ele>115.66666666666667</ele><time>2026-04-21T09:06:00Z</time></trkpt><trkpt lat="41.9889166791416" lon="12.194103676683492"><ele>115.0</ele><time>2026-04-21T09:06:01Z</time></trkpt><trkpt lat="41.98912891066244" lon="12.194108120985668"><ele>116.33333333333334</ele><time>2026-04-21T09:06:02Z</time></trkpt><trkpt lat="41.98934176664932" lon="12.194109509024177"><ele>117.66666666666666</ele><time>2026-04-21T09:06:03Z</time></trkpt><trkpt lat="41.98955132441688" lon="12.19411176419941"><ele>119.0</ele><time>2026-04-21T09:06:04Z</time></trkpt><trkpt lat="41.98974836935395" lon="12.194113647113937"><ele>119.0</ele><time>2026-04-21T09:06:05Z</time></trkpt><trkpt lat="41.98993274547825" lon="12.194118550096356"><ele>119.0</ele><time>2026-04-21T09:06:06Z</time></trkpt><trkpt lat="41.99011309770958" lon="12.194119140794067"><ele>119.0</ele><time>2026-04-21T09:06:07Z</time></trkpt><trkpt lat="41.99030423458375" lon="12.194121759023565"><ele>119.33333333333333</ele><time>2026-04-21T09:06:08Z</time></trkpt><trkpt lat="41.99050184247842" lon="12.194127601984535"><ele>119.66666666666666</ele><time>2026-04-21T09:06:09Z</time></trkpt><trkpt lat="41.99068643434745" lon="12.194134297068903"><ele>120.0</ele><time>2026-04-21T09:06:10Z</time></trkpt><trkpt lat="41.990847650897045" lon="12.194131439941303"><ele>120.0</ele><time>2026-04-21T09:06:11Z</time></trkpt><trkpt lat="41.990996400717094" lon="12.194132505062596"><ele>120.0</ele><time>2026-04-21T09:06:12Z</time></trkpt><trkpt lat="41.9911397159979" lon="12.194124261128376"><ele>120.0</ele><time>2026-04-21T09:06:13Z</time></trkpt><trkpt lat="41.9912834900713" lon="12.194090010152438"><ele>120.0</ele><time>2026-04-21T09:06:14Z</time></trkpt><trkpt lat="41.991436104903244" lon="12.194012874501595"><ele>119.66666666666666</ele><time>2026-04-21T09:06:15Z</time></trkpt><trkpt lat="41.991600661703245" lon="12.193901207081918"><ele>119.33333333333333</ele><time>2026-04-21T09:06:16Z</time></trkpt><trkpt lat="41.991780587102845" lon="12.193770231876764"><ele>119.0</ele><time>2026-04-21T09:06:17Z</time></trkpt><trkpt lat="41.99196271605079" lon="12.193662859868455"><ele>120.0</ele><time>2026-04-21T09:06:18Z</time></trkpt><trkpt lat="41.992108714002676" lon="12.193545002142484"><ele>121.0</ele><time>2026-04-21T09:06:19Z</time></trkpt><trkpt lat="41.99226619796358" lon="12.193450487512992"><ele>122.0</ele><time>2026-04-21T09:06:20Z</time></trkpt><trkpt lat="41.992417947235" lon="12.193356202999324"><ele>120.66666666666666</ele><time>2026-04-21T09:06:21Z</time></trkpt><trkpt lat="41.99257995921651" lon="12.193259417944372"><ele>119.33333333333334</ele><time>2026-04-21T09:06:22Z</time></trkpt><trkpt lat="41.99275963885466" lon="12.193189811849786"><ele>118.0</ele><time>2026-04-21T09:06:23Z</time></trkpt><trkpt lat="41.99294968285747" lon="12.193101672138138"><ele>117.5</ele><time>2026-04-21T09:06:24Z</time></trkpt><trkpt lat="41.99319052339302" lon="12.193045090487937"><ele>117.0</ele><time>2026-04-21T09:06:25Z</time></trkpt><trkpt lat="41.993439910660896" lon="12.192974373107248"><ele>117.0</ele><time>2026-04-21T09:06:26Z</time></trkpt><trkpt lat="41.99366936441562" lon="12.192917696512051"><ele>117.0</ele><time>2026-04-21T09:06:27Z</time></trkpt><trkpt lat="41.99387103568701" lon="12.192866870629805"><ele>117.0</ele><time>2026-04-21T09:06:28Z</time></trkpt><trkpt lat="41.9940786860136" lon="12.192806988621076"><ele>118.0</ele><time>2026-04-21T09:06:29Z</time></trkpt><trkpt lat="41.99427796255535" lon="12.192752453752629"><ele>119.0</ele><time>2026-04-21T09:06:30Z</time></trkpt><trkpt lat="41.994482675189964" lon="12.192692813087836"><ele>120.0</ele><time>2026-04-21T09:06:31.001Z</time></trkpt><trkpt lat="41.99467654942104" lon="12.192636030215333"><ele>120.0</ele><time>2026-04-21T09:06:32.001Z</time></trkpt><trkpt lat="41.99487046083302" lon="12.19257582207672"><ele>120.0</ele><time>2026-04-21T09:06:33.001Z</time></trkpt><trkpt lat="41.99506654412443" lon="12.192514332232866"><ele>120.0</ele><time>2026-04-21T09:06:34.001Z</time></trkpt><trkpt lat="41.99525849364738" lon="12.192456512759968"><ele>121.33333333333334</ele><time>2026-04-21T09:06:35.001Z</time></trkpt><trkpt lat="41.99545481423416" lon="12.192393577413142"><ele>122.66666666666667</ele><time>2026-04-21T09:06:36.001Z</time></trkpt><trkpt lat="41.99564275829837" lon="12.192335117550579"><ele>124.0</ele><time>2026-04-21T09:06:37.001Z</time></trkpt><trkpt lat="41.99583029970674" lon="12.192276731312345"><ele>125.66666666666667</ele><time>2026-04-21T09:06:38.001Z</time></trkpt><trkpt lat="41.99602265022161" lon="12.19221594934449"><ele>127.33333333333334</ele><time>2026-04-21T09:06:39.001Z</time></trkpt><trkpt lat="41.99621594461481" lon="12.192155590451367"><ele>129.0</ele><time>2026-04-21T09:06:40.001Z</time></trkpt><trkpt lat="41.99640823224417" lon="12.192095541040324"><ele>129.0</ele><time>2026-04-21T09:06:41.001Z</time></trkpt><trkpt lat="41.99660816597991" lon="12.192035575175746"><ele>129.0</ele><time>2026-04-21T09:06:42.001Z</time></trkpt><trkpt lat="41.996802438859184" lon="12.19198048388575"><ele>129.0</ele><time>2026-04-21T09:06:43.001Z</time></trkpt><trkpt lat="41.99700385309489" lon="12.191919687480302"><ele>129.0</ele><time>2026-04-21T09:06:44.001Z</time></trkpt><trkpt lat="41.997204307744546" lon="12.191852883973178"><ele>129.0</ele><time>2026-04-21T09:06:45.001Z</time></trkpt><trkpt lat="41.99739356116741" lon="12.191792843764912"><ele>129.0</ele><time>2026-04-21T09:06:46.001Z</time></trkpt><trkpt lat="41.99759352742846" lon="12.191730431345077"><ele>129.0</ele><time>2026-04-21T09:06:47.001Z</time></trkpt><trkpt lat="41.99778318291181" lon="12.191670889601784"><ele>129.0</ele><time>2026-04-21T09:06:48.001Z</time></trkpt><trkpt lat="41.997979965217" lon="12.191604301263116"><ele>129.0</ele><time>2026-04-21T09:06:49.001Z</time></trkpt><trkpt lat="41.998165596164775" lon="12.19155010852361"><ele>128.66666666666666</ele><time>2026-04-21T09:06:50.001Z</time></trkpt><trkpt lat="41.99834764820756" lon="12.191499061757352"><ele>128.33333333333331</ele><time>2026-04-21T09:06:51.001Z</time></trkpt><trkpt lat="41.99852272882577" lon="12.191445468767972"><ele>128.0</ele><time>2026-04-21T09:06:52.001Z</time></trkpt><trkpt lat="41.99870020026039" lon="12.191393578596305"><ele>128.0</ele><time>2026-04-21T09:06:53.001Z</time></trkpt><trkpt lat="41.99889210266986" lon="12.191338088025086"><ele>128.0</ele><time>2026-04-21T09:06:54.001Z</time></trkpt><trkpt lat="41.999079116506955" lon="12.191282675129395"><ele>128.0</ele><time>2026-04-21T09:06:55.001Z</time></trkpt><trkpt lat="41.9992765790682" lon="12.19122108222522"><ele>129.0</ele><time>2026-04-21T09:06:56.001Z</time></trkpt><trkpt lat="41.99947116492881" lon="12.191159666627513"><ele>130.0</ele><time>2026-04-21T09:06:57.001Z</time></trkpt><trkpt lat="41.99966437674973" lon="12.191100661615302"><ele>131.0</ele><time>2026-04-21T09:06:58.001Z</time></trkpt><trkpt lat="41.99987008099582" lon="12.19103655625618"><ele>131.0</ele><time>2026-04-21T09:06:59.001Z</time></trkpt><trkpt lat="42.00006452956964" lon="12.190981793775704"><ele>131.0</ele><time>2026-04-21T09:07:00.001Z</time></trkpt><trkpt lat="42.0002540407551" lon="12.190922732629465"><ele>131.0</ele><time>2026-04-21T09:07:01.001Z</time></trkpt><trkpt lat="42.00045197458294" lon="12.190857007285667"><ele>131.0</ele><time>2026-04-21T09:07:02.001Z</time></trkpt><trkpt lat="42.00063079196424" lon="12.190800446264902"><ele>131.0</ele><time>2026-04-21T09:07:03.001Z</time></trkpt><trkpt lat="42.00080951997028" lon="12.190749685747797"><ele>131.0</ele><time>2026-04-21T09:07:04.001Z</time></trkpt><trkpt lat="42.00096621910414" lon="12.190703666972363"><ele>131.33333333333331</ele><time>2026-04-21T09:07:05.001Z</time></trkpt><trkpt lat="42.00113373063954" lon="12.190655731574253"><ele>131.66666666666666</ele><time>2026-04-21T09:07:06.001Z</time></trkpt><trkpt lat="42.001341166000635" lon="12.190594210734847"><ele>132.0</ele><time>2026-04-21T09:07:07.001Z</time></trkpt><trkpt lat="42.00155493632854" lon="12.190525293823832"><ele>133.0</ele><time>2026-04-21T09:07:08.001Z</time></trkpt><trkpt lat="42.001743333382294" lon="12.190468138835726"><ele>134.0</ele><time>2026-04-21T09:07:09.001Z</time></trkpt><trkpt lat="42.00193298082483" lon="12.190428107266614"><ele>135.0</ele><time>2026-04-21T09:07:10.001Z</time></trkpt><trkpt lat="42.002142552451055" lon="12.190419235098046"><ele>135.0</ele><time>2026-04-21T09:07:11.001Z</time></trkpt><trkpt lat="42.00238062128124" lon="12.190433347061251"><ele>135.0</ele><time>2026-04-21T09:07:12.001Z</time></trkpt><trkpt lat="42.00265102540046" lon="12.190452273408432"><ele>135.5</ele><time>2026-04-21T09:07:13.001Z</time></trkpt><trkpt lat="42.0029003135865" lon="12.190455608424445"><ele>136.0</ele><time>2026-04-21T09:07:14.001Z</time></trkpt><trkpt lat="42.003142208490964" lon="12.190453122905998"><ele>137.0</ele><time>2026-04-21T09:07:15.001Z</time></trkpt><trkpt lat="42.003386231402686" lon="12.190458060133334"><ele>138.0</ele><time>2026-04-21T09:07:16.001Z</time></trkpt><trkpt lat="42.00362192133483" lon="12.190473688099445"><ele>138.0</ele><time>2026-04-21T09:07:17.001Z</time></trkpt><trkpt lat="42.00383810150073" lon="12.190480704650312"><ele>138.0</ele><time>2026-04-21T09:07:18.001Z</time></trkpt><trkpt lat="42.00405045872743" lon="12.19048175538149"><ele>138.0</ele><time>2026-04-21T09:07:19.001Z</time></trkpt><trkpt lat="42.00425478138555" lon="12.19048747647602"><ele>138.66666666666666</ele><time>2026-04-21T09:07:20.001Z</time></trkpt><trkpt lat="42.00444335656336" lon="12.190485999691967"><ele>139.33333333333331</ele><time>2026-04-21T09:07:21.001Z</time></trkpt><trkpt lat="42.004659771795595" lon="12.190495877411626"><ele>140.0</ele><time>2026-04-21T09:07:22.001Z</time></trkpt><trkpt lat="42.0048656678005" lon="12.190523908034878"><ele>138.66666666666666</ele><time>2026-04-21T09:07:23.001Z</time></trkpt><trkpt lat="42.005075465759695" lon="12.190557492128782"><ele>137.33333333333334</ele><time>2026-04-21T09:07:24.001Z</time></trkpt><trkpt lat="42.00529467883574" lon="12.190612255060177"><ele>136.0</ele><time>2026-04-21T09:07:25.001Z</time></trkpt><trkpt lat="42.00549717456437" lon="12.190659565702058"><ele>137.33333333333334</ele><time>2026-04-21T09:07:26.001Z</time></trkpt><trkpt lat="42.00569677878959" lon="12.190688645886867"><ele>138.66666666666666</ele><time>2026-04-21T09:07:27.001Z</time></trkpt><trkpt lat="42.00589128563041" lon="12.190715336249438"><ele>140.0</ele><time>2026-04-21T09:07:28.001Z</time></trkpt><trkpt lat="42.00607150205934" lon="12.190759066867829"><ele>140.33333333333331</ele><time>2026-04-21T09:07:29.001Z</time></trkpt><trkpt lat="42.00626837664244" lon="12.190801653425325"><ele>140.66666666666666</ele><time>2026-04-21T09:07:30.001Z</time></trkpt><trkpt lat="42.0064580227532" lon="12.190798757692928"><ele>141.0</ele><time>2026-04-21T09:07:31.001Z</time></trkpt><trkpt lat="42.00665952177697" lon="12.190796290928716"><ele>141.33333333333334</ele><time>2026-04-21T09:07:32.001Z</time></trkpt><trkpt lat="42.006840902092804" lon="12.190815201342298"><ele>141.66666666666669</ele><time>2026-04-21T09:07:33.001Z</time></trkpt><trkpt lat="42.00700643963376" lon="12.190840365009375"><ele>142.0</ele><time>2026-04-21T09:07:34.001Z</time></trkpt><trkpt lat="42.007175451346185" lon="12.190853124969898"><ele>142.0</ele><time>2026-04-21T09:07:35.001Z</time></trkpt><trkpt lat="42.00733630283031" lon="12.190876720661258"><ele>142.0</ele><time>2026-04-21T09:07:36.001Z</time></trkpt><trkpt lat="42.007507075429395" lon="12.190939207375818"><ele>142.0</ele><time>2026-04-21T09:07:37.001Z</time></trkpt><trkpt lat="42.00767078028819" lon="12.19104776915404"><ele>142.33333333333334</ele><time>2026-04-21T09:07:38.001Z</time></trkpt><trkpt lat="42.00782613247331" lon="12.191193604955185"><ele>142.66666666666666</ele><time>2026-04-21T09:07:39.001Z</time></trkpt><trkpt lat="42.00797810117197" lon="12.191325129063737"><ele>143.0</ele><time>2026-04-21T09:07:40.001Z</time></trkpt><trkpt lat="42.008128317996494" lon="12.191438196409482"><ele>142.33333333333331</ele><time>2026-04-21T09:07:41.001Z</time></trkpt><trkpt lat="42.00828081802503" lon="12.191553175676425"><ele>141.66666666666666</ele><time>2026-04-21T09:07:42.001Z</time></trkpt><trkpt lat="42.008432432266325" lon="12.19167306409508"><ele>141.0</ele><time>2026-04-21T09:07:43.001Z</time></trkpt><trkpt lat="42.00857331441041" lon="12.191776640872153"><ele>141.0</ele><time>2026-04-21T09:07:44.001Z</time></trkpt><trkpt lat="42.00873806677472" lon="12.191896095973714"><ele>141.0</ele><time>2026-04-21T09:07:45.001Z</time></trkpt><trkpt lat="42.008897700464686" lon="12.192005374154489"><ele>141.0</ele><time>2026-04-21T09:07:46.001Z</time></trkpt><trkpt lat="42.009041381177596" lon="12.192125238375297"><ele>141.0</ele><time>2026-04-21T09:07:47.001Z</time></trkpt><trkpt lat="42.0091878709615" lon="12.19223515027839"><ele>141.0</ele><time>2026-04-21T09:07:48.001Z</time></trkpt><trkpt lat="42.00933673046261" lon="12.192329372615687"><ele>141.0</ele><time>2026-04-21T09:07:49.001Z</time></trkpt><trkpt lat="42.00950165150086" lon="12.192397910422594"><ele>141.0</ele><time>2026-04-21T09:07:50.001Z</time></trkpt><trkpt lat="42.00968272632446" lon="12.192431502066556"><ele>141.0</ele><time>2026-04-21T09:07:51.001Z</time></trkpt><trkpt lat="42.00985621045604" lon="12.192455399927894"><ele>141.0</ele><time>2026-04-21T09:07:52.001Z</time></trkpt><trkpt lat="42.01000434402914" lon="12.19248592643993"><ele>140.0</ele><time>2026-04-21T09:07:53.001Z</time></trkpt><trkpt lat="42.01014034835202" lon="12.19253096906094"><ele>139.0</ele><time>2026-04-21T09:07:54.001Z</time></trkpt><trkpt lat="42.01027390296997" lon="12.192595886180019"><ele>138.0</ele><time>2026-04-21T09:07:55.001Z</time></trkpt><trkpt lat="42.01038916945182" lon="12.192705762885483"><ele>137.0</ele><time>2026-04-21T09:07:56.001Z</time></trkpt><trkpt lat="42.0105010237281" lon="12.1928589397404"><ele>137.0</ele><time>2026-04-21T09:07:57Z</time></trkpt><trkpt lat="42.01059852019907" lon="12.19304814772407"><ele>137.0</ele><time>2026-04-21T09:07:58Z</time></trkpt><trkpt lat="42.010691808331146" lon="12.193247120244397"><ele>137.0</ele><time>2026-04-21T09:07:59Z</time></trkpt><trkpt lat="42.01077603865776" lon="12.193402654862721"><ele>138.5</ele><time>2026-04-21T09:08:00Z</time></trkpt><trkpt lat="42.010867287592745" lon="12.193540890843922"><ele>140.0</ele><time>2026-04-21T09:08:01Z</time></trkpt><trkpt lat="42.01096768158028" lon="12.193656883607183"><ele>141.5</ele><time>2026-04-21T09:08:02Z</time></trkpt><trkpt lat="42.01109825684024" lon="12.193759099207643"><ele>143.0</ele><time>2026-04-21T09:08:03Z</time></trkpt><trkpt lat="42.011237403338555" lon="12.19383680850016"><ele>143.0</ele><time>2026-04-21T09:08:04Z</time></trkpt><trkpt lat="42.01139447132119" lon="12.19391170749545"><ele>143.0</ele><time>2026-04-21T09:08:05Z</time></trkpt><trkpt lat="42.011542248410464" lon="12.193980772009075"><ele>143.0</ele><time>2026-04-21T09:08:06Z</time></trkpt><trkpt lat="42.01167112727639" lon="12.194044377159967"><ele>140.75</ele><time>2026-04-21T09:08:07Z</time></trkpt><trkpt lat="42.01179501948579" lon="12.194110154408108"><ele>138.5</ele><time>2026-04-21T09:08:08Z</time></trkpt><trkpt lat="42.011904827423976" lon="12.194195759530341"><ele>136.25</ele><time>2026-04-21T09:08:09Z</time></trkpt><trkpt lat="42.01200939565161" lon="12.194314079132717"><ele>134.0</ele><time>2026-04-21T09:08:10Z</time></trkpt><trkpt lat="42.01212060906014" lon="12.194476987938925"><ele>134.0</ele><time>2026-04-21T09:08:11Z</time></trkpt><trkpt lat="42.01222878038404" lon="12.194680535299364"><ele>134.0</ele><time>2026-04-21T09:08:12Z</time></trkpt><trkpt lat="42.01232012935307" lon="12.194887431871567"><ele>134.0</ele><time>2026-04-21T09:08:13Z</time></trkpt><trkpt lat="42.0124150857796" lon="12.195086949387996"><ele>135.33333333333331</ele><time>2026-04-21T09:08:14Z</time></trkpt><trkpt lat="42.012512676847074" lon="12.195276948852262"><ele>136.66666666666666</ele><time>2026-04-21T09:08:15Z</time></trkpt><trkpt lat="42.01260422545023" lon="12.195449441162403"><ele>138.0</ele><time>2026-04-21T09:08:16Z</time></trkpt><trkpt lat="42.012697129795264" lon="12.195628774695157"><ele>138.0</ele><time>2026-04-21T09:08:17Z</time></trkpt><trkpt lat="42.01278493648287" lon="12.195803107086846"><ele>138.0</ele><time>2026-04-21T09:08:18Z</time></trkpt><trkpt lat="42.012865677393386" lon="12.19596928580969"><ele>138.0</ele><time>2026-04-21T09:08:19Z</time></trkpt><trkpt lat="42.01294926248386" lon="12.196124771110357"><ele>138.0</ele><time>2026-04-21T09:08:20Z</time></trkpt><trkpt lat="42.0130494738987" lon="12.196260724928969"><ele>138.0</ele><time>2026-04-21T09:08:21Z</time></trkpt><trkpt lat="42.01318754884952" lon="12.196354354970312"><ele>138.0</ele><time>2026-04-21T09:08:22Z</time></trkpt><trkpt lat="42.013327339506226" lon="12.196447998170559"><ele>138.0</ele><time>2026-04-21T09:08:23Z</time></trkpt><trkpt lat="42.01348853956864" lon="12.196491371303328"><ele>140.0</ele><time>2026-04-21T09:08:24Z</time></trkpt><trkpt lat="42.01365601707142" lon="12.196474797217943"><ele>142.0</ele><time>2026-04-21T09:08:25Z</time></trkpt><trkpt lat="42.01381680265785" lon="12.196467947638396"><ele>144.0</ele><time>2026-04-21T09:08:26Z</time></trkpt><trkpt lat="42.014010770551174" lon="12.196416583932995"><ele>144.66666666666666</ele><time>2026-04-21T09:08:27Z</time></trkpt><trkpt lat="42.01417476624782" lon="12.196372479311842"><ele>145.33333333333331</ele><time>2026-04-21T09:08:28Z</time></trkpt><trkpt lat="42.01432377733297" lon="12.196336554700347"><ele>146.0</ele><time>2026-04-21T09:08:29Z</time></trkpt><trkpt lat="42.014473665556636" lon="12.196310641536533"><ele>146.0</ele><time>2026-04-21T09:08:30Z</time></trkpt><trkpt lat="42.01461799200985" lon="12.196288904861865"><ele>146.0</ele><time>2026-04-21T09:08:31Z</time></trkpt><trkpt lat="42.01477227768581" lon="12.196273399859356"><ele>146.0</ele><time>2026-04-21T09:08:32Z</time></trkpt><trkpt lat="42.01494147606483" lon="12.196281368793574"><ele>147.33333333333331</ele><time>2026-04-21T09:08:33Z</time></trkpt><trkpt lat="42.01514177659386" lon="12.196298214319047"><ele>148.66666666666666</ele><time>2026-04-21T09:08:34Z</time></trkpt><trkpt lat="42.01536736049399" lon="12.19632141081201"><ele>150.0</ele><time>2026-04-21T09:08:35Z</time></trkpt><trkpt lat="42.01563604933508" lon="12.196336308578315"><ele>151.5</ele><time>2026-04-21T09:08:36Z</time></trkpt><trkpt lat="42.01593148976641" lon="12.196353469145466"><ele>153.0</ele><time>2026-04-21T09:08:37Z</time></trkpt><trkpt lat="42.016181164799356" lon="12.196409181940991"><ele>153.0</ele><time>2026-04-21T09:08:38Z</time></trkpt><trkpt lat="42.01639401488098" lon="12.196451328766978"><ele>153.0</ele><time>2026-04-21T09:08:39Z</time></trkpt><trkpt lat="42.016597182772124" lon="12.196463411303128"><ele>153.0</ele><time>2026-04-21T09:08:40Z</time></trkpt><trkpt lat="42.016775622883905" lon="12.196465672662772"><ele>152.0</ele><time>2026-04-21T09:08:41Z</time></trkpt><trkpt lat="42.01696538684539" lon="12.1964824221527"><ele>151.0</ele><time>2026-04-21T09:08:42Z</time></trkpt><trkpt lat="42.017137138459866" lon="12.196509939738513"><ele>150.0</ele><time>2026-04-21T09:08:43Z</time></trkpt><trkpt lat="42.01730035252581" lon="12.196558956195659"><ele>150.0</ele><time>2026-04-21T09:08:44Z</time></trkpt><trkpt lat="42.017442266916426" lon="12.196621812452102"><ele>150.0</ele><time>2026-04-21T09:08:45Z</time></trkpt><trkpt lat="42.0175646496011" lon="12.19672911640886"><ele>150.0</ele><time>2026-04-21T09:08:46Z</time></trkpt><trkpt lat="42.017673881391936" lon="12.196868112899145"><ele>150.0</ele><time>2026-04-21T09:08:47Z</time></trkpt><trkpt lat="42.017780852345446" lon="12.197035342700797"><ele>151.33333333333334</ele><time>2026-04-21T09:08:48.001Z</time></trkpt><trkpt lat="42.01790532748345" lon="12.197222570293732"><ele>152.66666666666669</ele><time>2026-04-21T09:08:49.001Z</time></trkpt><trkpt lat="42.01805596408729" lon="12.197436385000689"><ele>154.0</ele><time>2026-04-21T09:08:50.001Z</time></trkpt><trkpt lat="42.01819094866546" lon="12.197620814812986"><ele>154.33333333333334</ele><time>2026-04-21T09:08:51.001Z</time></trkpt><trkpt lat="42.018306153090535" lon="12.197791959557897"><ele>154.66666666666666</ele><time>2026-04-21T09:08:52.001Z</time></trkpt><trkpt lat="42.01841712181688" lon="12.197957903812789"><ele>155.0</ele><time>2026-04-21T09:08:53.001Z</time></trkpt><trkpt lat="42.018526181852764" lon="12.198117615956198"><ele>157.33333333333331</ele><time>2026-04-21T09:08:54.001Z</time></trkpt><trkpt lat="42.0186363308004" lon="12.19825705131803"><ele>159.66666666666666</ele><time>2026-04-21T09:08:55.001Z</time></trkpt><trkpt lat="42.01876994592723" lon="12.198378601779027"><ele>162.0</ele><time>2026-04-21T09:08:56.001Z</time></trkpt><trkpt lat="42.01892491884554" lon="12.198468471024755"><ele>162.0</ele><time>2026-04-21T09:08:57.001Z</time></trkpt><trkpt lat="42.019101168481804" lon="12.198563528863936"><ele>162.0</ele><time>2026-04-21T09:08:58.001Z</time></trkpt><trkpt lat="42.01929251905845" lon="12.198675085043975"><ele>162.0</ele><time>2026-04-21T09:08:59.001Z</time></trkpt><trkpt lat="42.019490571507056" lon="12.198792073611667"><ele>162.0</ele><time>2026-04-21T09:09:00.001Z</time></trkpt><trkpt lat="42.019678172034695" lon="12.198904405032053"><ele>162.0</ele><time>2026-04-21T09:09:01.001Z</time></trkpt><trkpt lat="42.01986788008941" lon="12.199016571330244"><ele>162.0</ele><time>2026-04-21T09:09:02.001Z</time></trkpt><trkpt lat="42.02007170326511" lon="12.19912613174319"><ele>161.66666666666666</ele><time>2026-04-21T09:09:03.001Z</time></trkpt><trkpt lat="42.020270267275535" lon="12.199239817847706"><ele>161.33333333333331</ele><time>2026-04-21T09:09:04.001Z</time></trkpt><trkpt lat="42.02045720089263" lon="12.1993481100807"><ele>161.0</ele><time>2026-04-21T09:09:05.001Z</time></trkpt><trkpt lat="42.02064414898881" lon="12.199457814415725"><ele>161.66666666666666</ele><time>2026-04-21T09:09:06.001Z</time></trkpt><trkpt lat="42.0208248080006" lon="12.199561467639247"><ele>162.33333333333334</ele><time>2026-04-21T09:09:07.001Z</time></trkpt><trkpt lat="42.021019944292505" lon="12.1996732241813"><ele>163.0</ele><time>2026-04-21T09:09:08.001Z</time></trkpt><trkpt lat="42.02122053244847" lon="12.19978853799625"><ele>162.66666666666669</ele><time>2026-04-21T09:09:09.001Z</time></trkpt><trkpt lat="42.0214286151461" lon="12.199897580248418"><ele>162.33333333333334</ele><time>2026-04-21T09:09:10.001Z</time></trkpt><trkpt lat="42.02164028157253" lon="12.20000019051779"><ele>162.0</ele><time>2026-04-21T09:09:11.001Z</time></trkpt><trkpt lat="42.021840551590024" lon="12.200095851254455"><ele>163.0</ele><time>2026-04-21T09:09:12.001Z</time></trkpt><trkpt lat="42.02204438973228" lon="12.200196867380006"><ele>164.0</ele><time>2026-04-21T09:09:13.001Z</time></trkpt><trkpt lat="42.02224753599628" lon="12.200301553782866"><ele>165.0</ele><time>2026-04-21T09:09:14.001Z</time></trkpt><trkpt lat="42.02245775070222" lon="12.20040299293499"><ele>165.0</ele><time>2026-04-21T09:09:15.001Z</time></trkpt><trkpt lat="42.0226679093102" lon="12.200502053086494"><ele>165.0</ele><time>2026-04-21T09:09:16.001Z</time></trkpt><trkpt lat="42.02287390642629" lon="12.2006008999488"><ele>165.0</ele><time>2026-04-21T09:09:17.001Z</time></trkpt><trkpt lat="42.023087192489136" lon="12.200708275382766"><ele>165.0</ele><time>2026-04-21T09:09:18.001Z</time></trkpt><trkpt lat="42.02330473580119" lon="12.200819350734367"><ele>165.0</ele><time>2026-04-21T09:09:19.001Z</time></trkpt><trkpt lat="42.02351541496029" lon="12.20092032298634"><ele>165.66666666666666</ele><time>2026-04-21T09:09:20.001Z</time></trkpt><trkpt lat="42.023716623826104" lon="12.201016083435198"><ele>166.33333333333331</ele><time>2026-04-21T09:09:21.001Z</time></trkpt><trkpt lat="42.023902346068695" lon="12.201106453178157"><ele>167.0</ele><time>2026-04-21T09:09:22.001Z</time></trkpt><trkpt lat="42.024083023865316" lon="12.201191960595438"><ele>168.0</ele><time>2026-04-21T09:09:23.001Z</time></trkpt><trkpt lat="42.02426774486268" lon="12.201283240792199"><ele>169.0</ele><time>2026-04-21T09:09:24.001Z</time></trkpt><trkpt lat="42.02445016740288" lon="12.201381754287427"><ele>170.0</ele><time>2026-04-21T09:09:25.001Z</time></trkpt><trkpt lat="42.024636598247426" lon="12.20148382479102"><ele>170.33333333333331</ele><time>2026-04-21T09:09:26.001Z</time></trkpt><trkpt lat="42.02481891668433" lon="12.201571830185607"><ele>170.66666666666666</ele><time>2026-04-21T09:09:27.001Z</time></trkpt><trkpt lat="42.025015324198115" lon="12.201676043228321"><ele>171.0</ele><time>2026-04-21T09:09:28.001Z</time></trkpt><trkpt lat="42.025205863246" lon="12.201784607502889"><ele>171.33333333333334</ele><time>2026-04-21T09:09:29.001Z</time></trkpt><trkpt lat="42.02540260671547" lon="12.20189859689139"><ele>171.66666666666669</ele><time>2026-04-21T09:09:30.001Z</time></trkpt><trkpt lat="42.0255947782758" lon="12.202009816820924"><ele>172.0</ele><time>2026-04-21T09:09:31.001Z</time></trkpt><trkpt lat="42.025786345554856" lon="12.202120861231142"><ele>171.66666666666669</ele><time>2026-04-21T09:09:32.001Z</time></trkpt><trkpt lat="42.025976433821604" lon="12.202226086219698"><ele>171.33333333333334</ele><time>2026-04-21T09:09:33.001Z</time></trkpt><trkpt lat="42.02614603301394" lon="12.202329622754338"><ele>171.0</ele><time>2026-04-21T09:09:34.001Z</time></trkpt><trkpt lat="42.02632011036318" lon="12.202432384338609"><ele>172.66666666666666</ele><time>2026-04-21T09:09:35.001Z</time></trkpt><trkpt lat="42.02648845467652" lon="12.202532612981706"><ele>174.33333333333331</ele><time>2026-04-21T09:09:36.001Z</time></trkpt><trkpt lat="42.026652208041725" lon="12.202629901252248"><ele>176.0</ele><time>2026-04-21T09:09:37.001Z</time></trkpt><trkpt lat="42.02682359788986" lon="12.202730091355255"><ele>176.33333333333331</ele><time>2026-04-21T09:09:38.001Z</time></trkpt><trkpt lat="42.02699562537234" lon="12.202821877445418"><ele>176.66666666666666</ele><time>2026-04-21T09:09:39.001Z</time></trkpt><trkpt lat="42.027162691924325" lon="12.202910690604565"><ele>177.0</ele><time>2026-04-21T09:09:40.001Z</time></trkpt><trkpt lat="42.0273358578173" lon="12.203008387829449"><ele>177.66666666666666</ele><time>2026-04-21T09:09:41.001Z</time></trkpt><trkpt lat="42.02750132646123" lon="12.20310681450597"><ele>178.33333333333331</ele><time>2026-04-21T09:09:42.001Z</time></trkpt><trkpt lat="42.0276686376084" lon="12.203207558149169"><ele>179.0</ele><time>2026-04-21T09:09:43.001Z</time></trkpt><trkpt lat="42.027833381563156" lon="12.203312917861632"><ele>180.0</ele><time>2026-04-21T09:09:44.001Z</time></trkpt><trkpt lat="42.02800402496267" lon="12.203414781016663"><ele>181.0</ele><time>2026-04-21T09:09:45.001Z</time></trkpt><trkpt lat="42.02817775247234" lon="12.20350971520399"><ele>182.0</ele><time>2026-04-21T09:09:46.001Z</time></trkpt><trkpt lat="42.028356449476355" lon="12.203607395503177"><ele>182.0</ele><time>2026-04-21T09:09:47.001Z</time></trkpt><trkpt lat="42.02854201309407" lon="12.203713978408874"><ele>182.0</ele><time>2026-04-21T09:09:48.001Z</time></trkpt><trkpt lat="42.0287274829395" lon="12.203819626101748"><ele>182.0</ele><time>2026-04-21T09:09:49.001Z</time></trkpt><trkpt lat="42.028909853422" lon="12.203927753426695"><ele>183.0</ele><time>2026-04-21T09:09:50.001Z</time></trkpt><trkpt lat="42.02909661506302" lon="12.204040244785084"><ele>184.0</ele><time>2026-04-21T09:09:51.001Z</time></trkpt><trkpt lat="42.029284416905845" lon="12.204140441069631"><ele>185.0</ele><time>2026-04-21T09:09:52.001Z</time></trkpt><trkpt lat="42.029465867338025" lon="12.204235559467307"><ele>185.0</ele><time>2026-04-21T09:09:53.001Z</time></trkpt><trkpt lat="42.02965606525063" lon="12.204324981167508"><ele>185.0</ele><time>2026-04-21T09:09:54.001Z</time></trkpt><trkpt lat="42.029858163448274" lon="12.204413235708017"><ele>185.0</ele><time>2026-04-21T09:09:55.001Z</time></trkpt><trkpt lat="42.0300673057249" lon="12.204514577779372"><ele>185.0</ele><time>2026-04-21T09:09:56.001Z</time></trkpt><trkpt lat="42.03028422743912" lon="12.204615495297714"><ele>185.0</ele><time>2026-04-21T09:09:57.001Z</time></trkpt><trkpt lat="42.03050293062824" lon="12.20471746449146"><ele>185.0</ele><time>2026-04-21T09:09:58.001Z</time></trkpt><trkpt lat="42.030724977714456" lon="12.204815082430859"><ele>185.0</ele><time>2026-04-21T09:09:59.001Z</time></trkpt><trkpt lat="42.03094359192269" lon="12.204912344695568"><ele>185.5</ele><time>2026-04-21T09:10:00.001Z</time></trkpt><trkpt lat="42.03115695970129" lon="12.205011176453421"><ele>186.0</ele><time>2026-04-21T09:10:01.001Z</time></trkpt><trkpt lat="42.03136786792276" lon="12.205113068935358"><ele>186.0</ele><time>2026-04-21T09:10:02Z</time></trkpt><trkpt lat="42.03157093802161" lon="12.205206372647785"><ele>186.0</ele><time>2026-04-21T09:10:03Z</time></trkpt><trkpt lat="42.03178305774656" lon="12.20530745763035"><ele>186.0</ele><time>2026-04-21T09:10:04Z</time></trkpt><trkpt lat="42.031989251700956" lon="12.205400861596909"><ele>188.0</ele><time>2026-04-21T09:10:05Z</time></trkpt><trkpt lat="42.0322028361586" lon="12.205502963959221"><ele>190.0</ele><time>2026-04-21T09:10:06Z</time></trkpt><trkpt lat="42.03241244744043" lon="12.205602677662743"><ele>192.0</ele><time>2026-04-21T09:10:07Z</time></trkpt><trkpt lat="42.0326244622188" lon="12.205698742559102"><ele>192.0</ele><time>2026-04-21T09:10:08Z</time></trkpt><trkpt lat="42.03283149688275" lon="12.205785164819478"><ele>192.0</ele><time>2026-04-21T09:10:09Z</time></trkpt><trkpt lat="42.0330399122174" lon="12.205881333686246"><ele>192.0</ele><time>2026-04-21T09:10:10Z</time></trkpt><trkpt lat="42.03324706031769" lon="12.205980433795315"><ele>193.0</ele><time>2026-04-21T09:10:11Z</time></trkpt><trkpt lat="42.03345705222931" lon="12.206075267995727"><ele>194.0</ele><time>2026-04-21T09:10:12Z</time></trkpt><trkpt lat="42.03366363151362" lon="12.206165642403905"><ele>195.0</ele><time>2026-04-21T09:10:13Z</time></trkpt><trkpt lat="42.03387493516973" lon="12.206251338672875"><ele>195.0</ele><time>2026-04-21T09:10:14Z</time></trkpt><trkpt lat="42.034084487498866" lon="12.206312550513328"><ele>195.0</ele><time>2026-04-21T09:10:15Z</time></trkpt><trkpt lat="42.0343045715962" lon="12.206366680269765"><ele>195.0</ele><time>2026-04-21T09:10:16Z</time></trkpt><trkpt lat="42.03453678564199" lon="12.206413794643272"><ele>194.66666666666669</ele><time>2026-04-21T09:10:17Z</time></trkpt><trkpt lat="42.0347528944519" lon="12.20645014192367"><ele>194.33333333333334</ele><time>2026-04-21T09:10:18Z</time></trkpt><trkpt lat="42.03497060837016" lon="12.206497359979691"><ele>194.0</ele><time>2026-04-21T09:10:19Z</time></trkpt><trkpt lat="42.03518856791669" lon="12.206542088339255"><ele>194.66666666666669</ele><time>2026-04-21T09:10:20Z</time></trkpt><trkpt lat="42.03540241563746" lon="12.20659097002443"><ele>195.33333333333331</ele><time>2026-04-21T09:10:21Z</time></trkpt><trkpt lat="42.03561673241528" lon="12.206643532879731"><ele>196.0</ele><time>2026-04-21T09:10:22Z</time></trkpt><trkpt lat="42.03584027029987" lon="12.206699735862102"><ele>197.5</ele><time>2026-04-21T09:10:23Z</time></trkpt><trkpt lat="42.03606332575173" lon="12.206760018870668"><ele>199.0</ele><time>2026-04-21T09:10:24Z</time></trkpt><trkpt lat="42.03629881961793" lon="12.206822336475524"><ele>199.0</ele><time>2026-04-21T09:10:25Z</time></trkpt><trkpt lat="42.03653294989755" lon="12.206880180461024"><ele>199.0</ele><time>2026-04-21T09:10:26Z</time></trkpt><trkpt lat="42.03676524496797" lon="12.206949434504372"><ele>200.5</ele><time>2026-04-21T09:10:27Z</time></trkpt><trkpt lat="42.036992869980196" lon="12.207016716575554"><ele>202.0</ele><time>2026-04-21T09:10:28Z</time></trkpt><trkpt lat="42.037222446560484" lon="12.20708493934593"><ele>202.0</ele><time>2026-04-21T09:10:29Z</time></trkpt><trkpt lat="42.03744615180197" lon="12.207145918009338"><ele>202.0</ele><time>2026-04-21T09:10:30Z</time></trkpt><trkpt lat="42.03766313448512" lon="12.20721036499163"><ele>202.0</ele><time>2026-04-21T09:10:31Z</time></trkpt><trkpt lat="42.037881964914796" lon="12.20727290145397"><ele>202.0</ele><time>2026-04-21T09:10:32Z</time></trkpt><trkpt lat="42.038099828571546" lon="12.207335926518242"><ele>202.0</ele><time>2026-04-21T09:10:33Z</time></trkpt><trkpt lat="42.03832039580355" lon="12.207400649722025"><ele>202.0</ele><time>2026-04-21T09:10:34Z</time></trkpt><trkpt lat="42.03854174348986" lon="12.207462751745554"><ele>202.0</ele><time>2026-04-21T09:10:35Z</time></trkpt><trkpt lat="42.038764957148054" lon="12.20752502936867"><ele>202.0</ele><time>2026-04-21T09:10:36Z</time></trkpt><trkpt lat="42.03898197283479" lon="12.207582368134613"><ele>202.0</ele><time>2026-04-21T09:10:37Z</time></trkpt><trkpt lat="42.03920277290445" lon="12.20764343383688"><ele>202.0</ele><time>2026-04-21T09:10:38Z</time></trkpt><trkpt lat="42.039420350869534" lon="12.207705478089025"><ele>203.0</ele><time>2026-04-21T09:10:39Z</time></trkpt><trkpt lat="42.03963508442143" lon="12.20777768201362"><ele>204.0</ele><time>2026-04-21T09:10:40Z</time></trkpt><trkpt lat="42.039849227297104" lon="12.207859062230852"><ele>205.0</ele><time>2026-04-21T09:10:41Z</time></trkpt><trkpt lat="42.040061521921295" lon="12.207947327321733"><ele>205.66666666666666</ele><time>2026-04-21T09:10:42Z</time></trkpt><trkpt lat="42.040276689390126" lon="12.208039856748512"><ele>206.33333333333331</ele><time>2026-04-21T09:10:43Z</time></trkpt><trkpt lat="42.04048348060557" lon="12.208126307433261"><ele>207.0</ele><time>2026-04-21T09:10:44Z</time></trkpt><trkpt lat="42.040691000678116" lon="12.208210856205898"><ele>208.0</ele><time>2026-04-21T09:10:45Z</time></trkpt><trkpt lat="42.040881843052645" lon="12.208286422935696"><ele>209.0</ele><time>2026-04-21T09:10:46Z</time></trkpt><trkpt lat="42.041060272594436" lon="12.208351709085864"><ele>210.0</ele><time>2026-04-21T09:10:47Z</time></trkpt><trkpt lat="42.04124069633425" lon="12.208385710581803"><ele>210.0</ele><time>2026-04-21T09:10:48Z</time></trkpt><trkpt lat="42.04142712265709" lon="12.208375024776775"><ele>210.0</ele><time>2026-04-21T09:10:49Z</time></trkpt><trkpt lat="42.04162307071416" lon="12.208327155424884"><ele>210.0</ele><time>2026-04-21T09:10:50Z</time></trkpt><trkpt lat="42.04183244222429" lon="12.208273216899101"><ele>210.0</ele><time>2026-04-21T09:10:51Z</time></trkpt><trkpt lat="42.042045733766386" lon="12.208221519035815"><ele>210.0</ele><time>2026-04-21T09:10:52Z</time></trkpt><trkpt lat="42.04226435085756" lon="12.208169007362095"><ele>210.0</ele><time>2026-04-21T09:10:53Z</time></trkpt><trkpt lat="42.04248811119724" lon="12.208118432664742"><ele>212.66666666666669</ele><time>2026-04-21T09:10:54Z</time></trkpt><trkpt lat="42.04270530825705" lon="12.208079384009512"><ele>215.33333333333334</ele><time>2026-04-21T09:10:55Z</time></trkpt><trkpt lat="42.04291185193932" lon="12.208037699709495"><ele>218.0</ele><time>2026-04-21T09:10:56Z</time></trkpt><trkpt lat="42.04311422796146" lon="12.207992345428913"><ele>219.0</ele><time>2026-04-21T09:10:57Z</time></trkpt><trkpt lat="42.0433081555373" lon="12.2079597942009"><ele>220.0</ele><time>2026-04-21T09:10:58Z</time></trkpt><trkpt lat="42.04349409937526" lon="12.207959963318734"><ele>221.0</ele><time>2026-04-21T09:10:59Z</time></trkpt><trkpt lat="42.043680135335556" lon="12.208002320208879"><ele>221.0</ele><time>2026-04-21T09:11:00Z</time></trkpt><trkpt lat="42.04387743200829" lon="12.208073635407036"><ele>221.0</ele><time>2026-04-21T09:11:01Z</time></trkpt><trkpt lat="42.04408886190973" lon="12.208156700172111"><ele>221.0</ele><time>2026-04-21T09:11:02Z</time></trkpt><trkpt lat="42.04430802988108" lon="12.208223417176244"><ele>220.0</ele><time>2026-04-21T09:11:03Z</time></trkpt><trkpt lat="42.04453762542667" lon="12.208287763015084"><ele>219.0</ele><time>2026-04-21T09:11:04Z</time></trkpt><trkpt lat="42.04475944969995" lon="12.208353228891161"><ele>219.0</ele><time>2026-04-21T09:11:05Z</time></trkpt><trkpt lat="42.04496351755505" lon="12.208414372138904"><ele>219.0</ele><time>2026-04-21T09:11:06Z</time></trkpt><trkpt lat="42.04516358046722" lon="12.208470865177583"><ele>219.0</ele><time>2026-04-21T09:11:07Z</time></trkpt><trkpt lat="42.04536389780632" lon="12.208516837066112"><ele>219.0</ele><time>2026-04-21T09:11:08Z</time></trkpt><trkpt lat="42.04557233446479" lon="12.208536017904693"><ele>219.0</ele><time>2026-04-21T09:11:09Z</time></trkpt><trkpt lat="42.04577195645504" lon="12.208546105866462"><ele>219.0</ele><time>2026-04-21T09:11:10Z</time></trkpt><trkpt lat="42.04596447045573" lon="12.208566504740345"><ele>220.33333333333331</ele><time>2026-04-21T09:11:11Z</time></trkpt><trkpt lat="42.04615650635383" lon="12.208582931426063"><ele>221.66666666666666</ele><time>2026-04-21T09:11:12.001Z</time></trkpt><trkpt lat="42.04635455325159" lon="12.208587391561577"><ele>223.0</ele><time>2026-04-21T09:11:13.001Z</time></trkpt><trkpt lat="42.046554257139505" lon="12.208574423589221"><ele>223.0</ele><time>2026-04-21T09:11:14.001Z</time></trkpt><trkpt lat="42.04675119272791" lon="12.208539236480146"><ele>223.0</ele><time>2026-04-21T09:11:15.001Z</time></trkpt><trkpt lat="42.04694294472231" lon="12.208507309096918"><ele>223.0</ele><time>2026-04-21T09:11:16.001Z</time></trkpt><trkpt lat="42.0471285408238" lon="12.208480744147547"><ele>223.0</ele><time>2026-04-21T09:11:17.001Z</time></trkpt><trkpt lat="42.04730635756157" lon="12.208458564189039"><ele>223.0</ele><time>2026-04-21T09:11:18.001Z</time></trkpt><trkpt lat="42.04747385155489" lon="12.208444480862202"><ele>223.0</ele><time>2026-04-21T09:11:19.001Z</time></trkpt><trkpt lat="42.04763862245949" lon="12.208432572060902"><ele>223.33333333333331</ele><time>2026-04-21T09:11:20.001Z</time></trkpt><trkpt lat="42.04781663712908" lon="12.208433160169685"><ele>223.66666666666669</ele><time>2026-04-21T09:11:21.001Z</time></trkpt><trkpt lat="42.04799786439873" lon="12.208452494960596"><ele>224.0</ele><time>2026-04-21T09:11:22.001Z</time></trkpt><trkpt lat="42.04818427626233" lon="12.208487505130556"><ele>225.0</ele><time>2026-04-21T09:11:23.001Z</time></trkpt><trkpt lat="42.048362655533595" lon="12.208525175722752"><ele>226.0</ele><time>2026-04-21T09:11:24.001Z</time></trkpt><trkpt lat="42.048533325108345" lon="12.208558663268395"><ele>227.0</ele><time>2026-04-21T09:11:25.001Z</time></trkpt><trkpt lat="42.04869207947601" lon="12.20859003827705"><ele>227.0</ele><time>2026-04-21T09:11:26.001Z</time></trkpt><trkpt lat="42.04884724355722" lon="12.208615660980874"><ele>227.0</ele><time>2026-04-21T09:11:27.001Z</time></trkpt><trkpt lat="42.04900073496501" lon="12.208635705812076"><ele>227.0</ele><time>2026-04-21T09:11:28.001Z</time></trkpt><trkpt lat="42.04916406603302" lon="12.208640813137832"><ele>228.0</ele><time>2026-04-21T09:11:29.001Z</time></trkpt><trkpt lat="42.049331607904165" lon="12.208608726657703"><ele>229.0</ele><time>2026-04-21T09:11:30.001Z</time></trkpt><trkpt lat="42.049492740468736" lon="12.208521010525747"><ele>230.0</ele><time>2026-04-21T09:11:31.001Z</time></trkpt><trkpt lat="42.04965280485479" lon="12.208502826538249"><ele>230.0</ele><time>2026-04-21T09:11:32.001Z</time></trkpt><trkpt lat="42.04980330854095" lon="12.208464784874998"><ele>230.0</ele><time>2026-04-21T09:11:33.001Z</time></trkpt><trkpt lat="42.04988596962049" lon="12.208130732804014"><ele>230.0</ele><time>2026-04-21T09:11:34.001Z</time></trkpt><trkpt lat="42.049993177891686" lon="12.208026170857016"><ele>231.0</ele><time>2026-04-21T09:11:35.001Z</time></trkpt><trkpt lat="42.05009917732296" lon="12.20793894714883"><ele>232.0</ele><time>2026-04-21T09:11:36.001Z</time></trkpt><trkpt lat="42.050206981329765" lon="12.207873024256456"><ele>233.0</ele><time>2026-04-21T09:11:37.001Z</time></trkpt><trkpt lat="42.050338970248475" lon="12.207813655613114"><ele>234.0</ele><time>2026-04-21T09:11:38.001Z</time></trkpt><trkpt lat="42.05050664746112" lon="12.207758391870414"><ele>234.0</ele><time>2026-04-21T09:11:39.001Z</time></trkpt><trkpt lat="42.05070764721759" lon="12.207703850565862"><ele>234.0</ele><time>2026-04-21T09:11:40.001Z</time></trkpt><trkpt lat="42.05091091551208" lon="12.207663025450422"><ele>234.0</ele><time>2026-04-21T09:11:41.001Z</time></trkpt><trkpt lat="42.051102604178475" lon="12.207635425903417"><ele>235.66666666666669</ele><time>2026-04-21T09:11:42.001Z</time></trkpt><trkpt lat="42.05130540884614" lon="12.207599338744398"><ele>237.33333333333334</ele><time>2026-04-21T09:11:43.001Z</time></trkpt><trkpt lat="42.0514999847592" lon="12.207553727004946"><ele>239.0</ele><time>2026-04-21T09:11:44.001Z</time></trkpt><trkpt lat="42.051696572862056" lon="12.20750586787988"><ele>239.33333333333334</ele><time>2026-04-21T09:11:45.001Z</time></trkpt><trkpt lat="42.05189381127525" lon="12.207456725730422"><ele>239.66666666666669</ele><time>2026-04-21T09:11:46.001Z</time></trkpt><trkpt lat="42.05209609871436" lon="12.207407843617673"><ele>240.0</ele><time>2026-04-21T09:11:47.001Z</time></trkpt><trkpt lat="42.052302756702495" lon="12.207362429986658"><ele>241.0</ele><time>2026-04-21T09:11:48.001Z</time></trkpt><trkpt lat="42.05250726985987" lon="12.207316944614231"><ele>242.0</ele><time>2026-04-21T09:11:49.001Z</time></trkpt><trkpt lat="42.0527132922475" lon="12.207264792381283"><ele>243.0</ele><time>2026-04-21T09:11:50.001Z</time></trkpt><trkpt lat="42.052930990110326" lon="12.207207560227948"><ele>243.0</ele><time>2026-04-21T09:11:51.001Z</time></trkpt><trkpt lat="42.05312581199353" lon="12.20716026796439"><ele>243.0</ele><time>2026-04-21T09:11:52.001Z</time></trkpt><trkpt lat="42.05331524855935" lon="12.207114301693656"><ele>243.0</ele><time>2026-04-21T09:11:53.001Z</time></trkpt><trkpt lat="42.05351183429429" lon="12.207069040847616"><ele>244.33333333333331</ele><time>2026-04-21T09:11:54.001Z</time></trkpt><trkpt lat="42.05369141903924" lon="12.207027911762319"><ele>245.66666666666666</ele><time>2026-04-21T09:11:55.001Z</time></trkpt><trkpt lat="42.05387156071008" lon="12.206990340071156"><ele>247.0</ele><time>2026-04-21T09:11:56.001Z</time></trkpt><trkpt lat="42.05405094610946" lon="12.206956575608327"><ele>247.66666666666666</ele><time>2026-04-21T09:11:57.001Z</time></trkpt><trkpt lat="42.054231896309865" lon="12.206944188990333"><ele>248.33333333333331</ele><time>2026-04-21T09:11:58.001Z</time></trkpt><trkpt lat="42.05441938646111" lon="12.206947848886957"><ele>249.0</ele><time>2026-04-21T09:11:59.001Z</time></trkpt><trkpt lat="42.05461001496614" lon="12.20695155551201"><ele>249.0</ele><time>2026-04-21T09:12:00.001Z</time></trkpt><trkpt lat="42.05480746650324" lon="12.206955312841576"><ele>249.0</ele><time>2026-04-21T09:12:01.001Z</time></trkpt><trkpt lat="42.05500312186302" lon="12.206974842278171"><ele>249.0</ele><time>2026-04-21T09:12:02.001Z</time></trkpt><trkpt lat="42.05520947461095" lon="12.206968963923288"><ele>251.0</ele><time>2026-04-21T09:12:03.001Z</time></trkpt><trkpt lat="42.055418247433" lon="12.206963475660183"><ele>253.0</ele><time>2026-04-21T09:12:04.001Z</time></trkpt><trkpt lat="42.05563863170379" lon="12.206963159938782"><ele>255.0</ele><time>2026-04-21T09:12:05.001Z</time></trkpt><trkpt lat="42.05586727797899" lon="12.20696145879453"><ele>256.5</ele><time>2026-04-21T09:12:06.001Z</time></trkpt><trkpt lat="42.05611669097625" lon="12.20696272986427"><ele>258.0</ele><time>2026-04-21T09:12:07.001Z</time></trkpt><trkpt lat="42.05639651549029" lon="12.206964964977576"><ele>260.5</ele><time>2026-04-21T09:12:08Z</time></trkpt><trkpt lat="42.05666145473959" lon="12.206967473859885"><ele>263.0</ele><time>2026-04-21T09:12:09Z</time></trkpt><trkpt lat="42.05688695344203" lon="12.206969077041625"><ele>263.0</ele><time>2026-04-21T09:12:10Z</time></trkpt><trkpt lat="42.05710333459551" lon="12.206967991088371"><ele>263.0</ele><time>2026-04-21T09:12:11Z</time></trkpt><trkpt lat="42.05730549918947" lon="12.206969028934859"><ele>263.0</ele><time>2026-04-21T09:12:12Z</time></trkpt><trkpt lat="42.05750542721053" lon="12.206987438072854"><ele>263.6666666666667</ele><time>2026-04-21T09:12:13Z</time></trkpt><trkpt lat="42.057723147567295" lon="12.207046185814484"><ele>264.3333333333333</ele><time>2026-04-21T09:12:14Z</time></trkpt><trkpt lat="42.05794196276801" lon="12.207097231187694"><ele>265.0</ele><time>2026-04-21T09:12:15Z</time></trkpt><trkpt lat="42.058165418848716" lon="12.207142057620853"><ele>263.0</ele><time>2026-04-21T09:12:16Z</time></trkpt><trkpt lat="42.058395215346984" lon="12.207190079713232"><ele>261.0</ele><time>2026-04-21T09:12:17Z</time></trkpt><trkpt lat="42.05862380467373" lon="12.207235259453492"><ele>261.0</ele><time>2026-04-21T09:12:18Z</time></trkpt><trkpt lat="42.05886006440703" lon="12.207274526447094"><ele>261.0</ele><time>2026-04-21T09:12:19Z</time></trkpt><trkpt lat="42.05907968753041" lon="12.207320450970725"><ele>261.0</ele><time>2026-04-21T09:12:20Z</time></trkpt><trkpt lat="42.059286503274826" lon="12.207367362320154"><ele>261.0</ele><time>2026-04-21T09:12:21Z</time></trkpt><trkpt lat="42.05949008516801" lon="12.207412445980363"><ele>261.0</ele><time>2026-04-21T09:12:22Z</time></trkpt><trkpt lat="42.059689115366545" lon="12.207449031143838"><ele>261.0</ele><time>2026-04-21T09:12:23Z</time></trkpt><trkpt lat="42.05987620161969" lon="12.207467796891828"><ele>261.0</ele><time>2026-04-21T09:12:24Z</time></trkpt><trkpt lat="42.06006465064285" lon="12.20743706546036"><ele>261.0</ele><time>2026-04-21T09:12:25Z</time></trkpt><trkpt lat="42.06025321331306" lon="12.207349377438751"><ele>259.3333333333333</ele><time>2026-04-21T09:12:26Z</time></trkpt><trkpt lat="42.06042802762493" lon="12.207253836479525"><ele>257.66666666666663</ele><time>2026-04-21T09:12:27Z</time></trkpt><trkpt lat="42.060609334661926" lon="12.207174178139903"><ele>256.0</ele><time>2026-04-21T09:12:28Z</time></trkpt><trkpt lat="42.06081505302614" lon="12.20712457507311"><ele>255.33333333333331</ele><time>2026-04-21T09:12:29Z</time></trkpt><trkpt lat="42.06102646948914" lon="12.207124134812052"><ele>254.66666666666669</ele><time>2026-04-21T09:12:30Z</time></trkpt><trkpt lat="42.06125087272511" lon="12.20714129167474"><ele>254.0</ele><time>2026-04-21T09:12:31Z</time></trkpt><trkpt lat="42.061491281026676" lon="12.207129013574693"><ele>254.5</ele><time>2026-04-21T09:12:32Z</time></trkpt><trkpt lat="42.06176200049248" lon="12.207119083063702"><ele>255.0</ele><time>2026-04-21T09:12:33Z</time></trkpt><trkpt lat="42.06206681624969" lon="12.207114988397581"><ele>255.0</ele><time>2026-04-21T09:12:34Z</time></trkpt><trkpt lat="42.06234622856669" lon="12.207105602043635"><ele>255.0</ele><time>2026-04-21T09:12:35Z</time></trkpt><trkpt lat="42.06260285869638" lon="12.207097181680943"><ele>255.33333333333331</ele><time>2026-04-21T09:12:36Z</time></trkpt><trkpt lat="42.06283052042216" lon="12.207090791661235"><ele>255.66666666666666</ele><time>2026-04-21T09:12:37Z</time></trkpt><trkpt lat="42.06305178375218" lon="12.207085769175574"><ele>256.0</ele><time>2026-04-21T09:12:38Z</time></trkpt><trkpt lat="42.06325202683651" lon="12.207082492212288"><ele>258.0</ele><time>2026-04-21T09:12:39Z</time></trkpt><trkpt lat="42.06344249146463" lon="12.207056445912547"><ele>260.0</ele><time>2026-04-21T09:12:40Z</time></trkpt><trkpt lat="42.063635143656256" lon="12.206985244681007"><ele>262.0</ele><time>2026-04-21T09:12:41Z</time></trkpt><trkpt lat="42.063818450795175" lon="12.206860629178324"><ele>262.0</ele><time>2026-04-21T09:12:42Z</time></trkpt><trkpt lat="42.06400994741059" lon="12.206707377111048"><ele>262.0</ele><time>2026-04-21T09:12:43Z</time></trkpt><trkpt lat="42.06420174031366" lon="12.206546546274062"><ele>262.0</ele><time>2026-04-21T09:12:44Z</time></trkpt><trkpt lat="42.064379094848526" lon="12.206399582938623"><ele>264.0</ele><time>2026-04-21T09:12:45Z</time></trkpt><trkpt lat="42.064545969625605" lon="12.206270890429426"><ele>266.0</ele><time>2026-04-21T09:12:46Z</time></trkpt><trkpt lat="42.06470592049951" lon="12.206151842193753"><ele>268.0</ele><time>2026-04-21T09:12:47Z</time></trkpt><trkpt lat="42.06489392746628" lon="12.206009564813836"><ele>268.0</ele><time>2026-04-21T09:12:48Z</time></trkpt><trkpt lat="42.06509239449084" lon="12.205857132114918"><ele>268.0</ele><time>2026-04-21T09:12:49Z</time></trkpt><trkpt lat="42.06525833301294" lon="12.205691770270862"><ele>268.0</ele><time>2026-04-21T09:12:50Z</time></trkpt><trkpt lat="42.06540600413887" lon="12.205492550225323"><ele>267.3333333333333</ele><time>2026-04-21T09:12:51Z</time></trkpt><trkpt lat="42.065545845888614" lon="12.205301061152753"><ele>266.6666666666667</ele><time>2026-04-21T09:12:52Z</time></trkpt><trkpt lat="42.06568450581509" lon="12.20511799895818"><ele>266.0</ele><time>2026-04-21T09:12:53Z</time></trkpt><trkpt lat="42.06581683583712" lon="12.204957292957488"><ele>266.0</ele><time>2026-04-21T09:12:54Z</time></trkpt><trkpt lat="42.065954273899706" lon="12.20483006285361"><ele>266.0</ele><time>2026-04-21T09:12:55Z</time></trkpt><trkpt lat="42.06612618722183" lon="12.20473106848114"><ele>266.0</ele><time>2026-04-21T09:12:56Z</time></trkpt><trkpt lat="42.06632092987149" lon="12.204667940306688"><ele>265.5</ele><time>2026-04-21T09:12:57Z</time></trkpt><trkpt lat="42.06654598144182" lon="12.204599704379092"><ele>265.0</ele><time>2026-04-21T09:12:58Z</time></trkpt><trkpt lat="42.06679475464824" lon="12.20451667578702"><ele>265.0</ele><time>2026-04-21T09:12:59Z</time></trkpt><trkpt lat="42.067025237082554" lon="12.204429381017654"><ele>265.0</ele><time>2026-04-21T09:13:00Z</time></trkpt><trkpt lat="42.06723912355015" lon="12.204345957526938"><ele>263.66666666666663</ele><time>2026-04-21T09:13:01Z</time></trkpt><trkpt lat="42.06744693533904" lon="12.204273701314158"><ele>262.3333333333333</ele><time>2026-04-21T09:13:02Z</time></trkpt><trkpt lat="42.06765512256298" lon="12.204198302226331"><ele>261.0</ele><time>2026-04-21T09:13:03Z</time></trkpt><trkpt lat="42.06787093275207" lon="12.204117910672629"><ele>261.0</ele><time>2026-04-21T09:13:04Z</time></trkpt><trkpt lat="42.06809289556438" lon="12.204023852001631"><ele>261.0</ele><time>2026-04-21T09:13:05Z</time></trkpt><trkpt lat="42.068313798580135" lon="12.203909681882584"><ele>261.0</ele><time>2026-04-21T09:13:06Z</time></trkpt><trkpt lat="42.06854109936797" lon="12.203786810576435"><ele>261.0</ele><time>2026-04-21T09:13:07Z</time></trkpt><trkpt lat="42.06876239321424" lon="12.203670476736919"><ele>261.0</ele><time>2026-04-21T09:13:08Z</time></trkpt><trkpt lat="42.06898262482455" lon="12.203555304683118"><ele>261.0</ele><time>2026-04-21T09:13:09Z</time></trkpt><trkpt lat="42.069196500406996" lon="12.203449723870765"><ele>258.5</ele><time>2026-04-21T09:13:10Z</time></trkpt><trkpt lat="42.069418273800316" lon="12.203332442576"><ele>256.0</ele><time>2026-04-21T09:13:11Z</time></trkpt><trkpt lat="42.069642724919795" lon="12.203218561276728"><ele>255.33333333333331</ele><time>2026-04-21T09:13:12Z</time></trkpt><trkpt lat="42.06985301950235" lon="12.20311278209015"><ele>254.66666666666669</ele><time>2026-04-21T09:13:13Z</time></trkpt><trkpt lat="42.07005903253806" lon="12.203003203288741"><ele>254.0</ele><time>2026-04-21T09:13:14Z</time></trkpt><trkpt lat="42.07026373616071" lon="12.20289841110725"><ele>253.66666666666669</ele><time>2026-04-21T09:13:15.001Z</time></trkpt><trkpt lat="42.0704624869402" lon="12.202804843035798"><ele>253.33333333333331</ele><time>2026-04-21T09:13:16.001Z</time></trkpt><trkpt lat="42.070644649685974" lon="12.202732505064118"><ele>253.0</ele><time>2026-04-21T09:13:17.001Z</time></trkpt><trkpt lat="42.07082308649415" lon="12.20268936241621"><ele>252.33333333333331</ele><time>2026-04-21T09:13:18.001Z</time></trkpt><trkpt lat="42.071003365248124" lon="12.202697263229423"><ele>251.66666666666669</ele><time>2026-04-21T09:13:19.001Z</time></trkpt><trkpt lat="42.07119028261298" lon="12.202733886218741"><ele>251.0</ele><time>2026-04-21T09:13:20.001Z</time></trkpt><trkpt lat="42.071380116930726" lon="12.202781002436915"><ele>251.0</ele><time>2026-04-21T09:13:21.001Z</time></trkpt><trkpt lat="42.07157175255156" lon="12.202838563997133"><ele>251.0</ele><time>2026-04-21T09:13:22.001Z</time></trkpt><trkpt lat="42.07176730859011" lon="12.202896934623098"><ele>251.0</ele><time>2026-04-21T09:13:23.001Z</time></trkpt><trkpt lat="42.07199072164697" lon="12.202945914655935"><ele>249.5</ele><time>2026-04-21T09:13:24.001Z</time></trkpt><trkpt lat="42.07224333808125" lon="12.202999007406916"><ele>248.0</ele><time>2026-04-21T09:13:25.001Z</time></trkpt><trkpt lat="42.07248747078952" lon="12.203059281285025"><ele>248.0</ele><time>2026-04-21T09:13:26.001Z</time></trkpt><trkpt lat="42.072706053868856" lon="12.203115903551396"><ele>248.0</ele><time>2026-04-21T09:13:27.001Z</time></trkpt><trkpt lat="42.07291820336619" lon="12.203166542713378"><ele>248.0</ele><time>2026-04-21T09:13:28.001Z</time></trkpt><trkpt lat="42.07313735232359" lon="12.203212171542583"><ele>249.5</ele><time>2026-04-21T09:13:29.001Z</time></trkpt><trkpt lat="42.073360020019976" lon="12.203267285074725"><ele>251.0</ele><time>2026-04-21T09:13:30.001Z</time></trkpt><trkpt lat="42.07358051480305" lon="12.203320834752"><ele>251.0</ele><time>2026-04-21T09:13:31.001Z</time></trkpt><trkpt lat="42.07380711997615" lon="12.203372534289612"><ele>251.0</ele><time>2026-04-21T09:13:32.001Z</time></trkpt><trkpt lat="42.07402765464728" lon="12.20342398321657"><ele>250.5</ele><time>2026-04-21T09:13:33.001Z</time></trkpt><trkpt lat="42.07425055230046" lon="12.203478910757337"><ele>250.0</ele><time>2026-04-21T09:13:34.001Z</time></trkpt><trkpt lat="42.074474851681124" lon="12.20353129203208"><ele>250.0</ele><time>2026-04-21T09:13:35.001Z</time></trkpt><trkpt lat="42.0747067076129" lon="12.203589813429701"><ele>250.0</ele><time>2026-04-21T09:13:36.001Z</time></trkpt><trkpt lat="42.074931644863966" lon="12.203645752106636"><ele>249.0</ele><time>2026-04-21T09:13:37.001Z</time></trkpt><trkpt lat="42.07515159120347" lon="12.203699881590243"><ele>248.0</ele><time>2026-04-21T09:13:38.001Z</time></trkpt><trkpt lat="42.07537544488391" lon="12.203752578473434"><ele>248.0</ele><time>2026-04-21T09:13:39.001Z</time></trkpt><trkpt lat="42.07560083968662" lon="12.203809996536332"><ele>248.0</ele><time>2026-04-21T09:13:40.001Z</time></trkpt><trkpt lat="42.07582479390478" lon="12.203860022810787"><ele>247.33333333333334</ele><time>2026-04-21T09:13:41.001Z</time></trkpt><trkpt lat="42.07602939238031" lon="12.203908408497425"><ele>246.66666666666669</ele><time>2026-04-21T09:13:42.001Z</time></trkpt><trkpt lat="42.076213923879735" lon="12.20395303395434"><ele>246.0</ele><time>2026-04-21T09:13:43.001Z</time></trkpt><trkpt lat="42.0763998386511" lon="12.203999466647275"><ele>246.0</ele><time>2026-04-21T09:13:44.001Z</time></trkpt><trkpt lat="42.076581615202464" lon="12.204036850132544"><ele>246.0</ele><time>2026-04-21T09:13:45.001Z</time></trkpt><trkpt lat="42.076766672021826" lon="12.204080499959279"><ele>246.0</ele><time>2026-04-21T09:13:46.001Z</time></trkpt><trkpt lat="42.076960450403796" lon="12.204126437444089"><ele>245.66666666666669</ele><time>2026-04-21T09:13:47.001Z</time></trkpt><trkpt lat="42.07715518957871" lon="12.204173721930665"><ele>245.33333333333334</ele><time>2026-04-21T09:13:48.001Z</time></trkpt><trkpt lat="42.077351958990775" lon="12.204222409508485"><ele>245.0</ele><time>2026-04-21T09:13:49.001Z</time></trkpt><trkpt lat="42.07755356388501" lon="12.204267981544307"><ele>245.0</ele><time>2026-04-21T09:13:50.001Z</time></trkpt><trkpt lat="42.07775413677628" lon="12.20431608495166"><ele>245.0</ele><time>2026-04-21T09:13:51.001Z</time></trkpt><trkpt lat="42.07793547270347" lon="12.20436162553177"><ele>245.0</ele><time>2026-04-21T09:13:52.001Z</time></trkpt><trkpt lat="42.078101690935036" lon="12.204405003774578"><ele>245.0</ele><time>2026-04-21T09:13:53.001Z</time></trkpt><trkpt lat="42.078263231661154" lon="12.204445827034872"><ele>245.0</ele><time>2026-04-21T09:13:54.001Z</time></trkpt><trkpt lat="42.078409346667456" lon="12.20448222216357"><ele>245.0</ele><time>2026-04-21T09:13:55.001Z</time></trkpt><trkpt lat="42.07853994795141" lon="12.204515205411202"><ele>245.0</ele><time>2026-04-21T09:13:56.001Z</time></trkpt><trkpt lat="42.07865238359238" lon="12.204545452813663"><ele>245.0</ele><time>2026-04-21T09:13:57.001Z</time></trkpt><trkpt lat="42.078748126261125" lon="12.20457367744423"><ele>245.0</ele><time>2026-04-21T09:13:58.001Z</time></trkpt><trkpt lat="42.07882879690231" lon="12.204602279899055"><ele>245.0</ele><time>2026-04-21T09:13:59.001Z</time></trkpt><trkpt lat="42.07892379192705" lon="12.204640291926346"><ele>245.0</ele><time>2026-04-21T09:14:01.001Z</time></trkpt><trkpt lat="42.07902600784157" lon="12.20465141228125"><ele>245.0</ele><time>2026-04-21T09:14:37Z</time></trkpt><trkpt lat="42.07912986988305" lon="12.204675088825345"><ele>245.33333333333334</ele><time>2026-04-21T09:14:39Z</time></trkpt><trkpt lat="42.079200542412025" lon="12.204703152247541"><ele>245.66666666666669</ele><time>2026-04-21T09:14:41Z</time></trkpt><trkpt lat="42.079264760819186" lon="12.204708852526906"><ele>246.0</ele><time>2026-04-21T09:14:46Z</time></trkpt><trkpt lat="42.07935351411202" lon="12.204535689269436"><ele>246.33333333333331</ele><time>2026-04-21T09:14:48Z</time></trkpt><trkpt lat="42.0793935226225" lon="12.204443753161666"><ele>246.66666666666666</ele><time>2026-04-21T09:14:49Z</time></trkpt><trkpt lat="42.07943406306893" lon="12.204356872982425"><ele>247.0</ele><time>2026-04-21T09:14:50Z</time></trkpt><trkpt lat="42.079473945447134" lon="12.20425878547498"><ele>247.0</ele><time>2026-04-21T09:14:51Z</time></trkpt><trkpt lat="42.07951803769226" lon="12.204148330145857"><ele>247.0</ele><time>2026-04-21T09:14:52Z</time></trkpt><trkpt lat="42.079562651969056" lon="12.204023143534224"><ele>247.0</ele><time>2026-04-21T09:14:53Z</time></trkpt><trkpt lat="42.079612407555004" lon="12.20389756976586"><ele>247.0</ele><time>2026-04-21T09:14:54Z</time></trkpt><trkpt lat="42.07966723567191" lon="12.203759694661077"><ele>247.0</ele><time>2026-04-21T09:14:55Z</time></trkpt><trkpt lat="42.07972027793221" lon="12.20360175788595"><ele>247.0</ele><time>2026-04-21T09:14:56Z</time></trkpt><trkpt lat="42.079781577868594" lon="12.203435419573292"><ele>247.0</ele><time>2026-04-21T09:14:57Z</time></trkpt><trkpt lat="42.07984090002664" lon="12.203274157088371"><ele>247.0</ele><time>2026-04-21T09:14:58Z</time></trkpt><trkpt lat="42.07990587783528" lon="12.203103242060905"><ele>247.0</ele><time>2026-04-21T09:14:59Z</time></trkpt><trkpt lat="42.079977302978186" lon="12.202916746570999"><ele>247.33333333333331</ele><time>2026-04-21T09:15:00Z</time></trkpt><trkpt lat="42.080052034526915" lon="12.20272768707282"><ele>247.66666666666669</ele><time>2026-04-21T09:15:01Z</time></trkpt><trkpt lat="42.08013725271788" lon="12.202531051424614"><ele>248.0</ele><time>2026-04-21T09:15:02Z</time></trkpt><trkpt lat="42.08022243560816" lon="12.202333277411999"><ele>248.0</ele><time>2026-04-21T09:15:03Z</time></trkpt><trkpt lat="42.08030416190438" lon="12.202148564446771"><ele>248.0</ele><time>2026-04-21T09:15:04Z</time></trkpt><trkpt lat="42.08040063702737" lon="12.201961000668694"><ele>248.0</ele><time>2026-04-21T09:15:05Z</time></trkpt><trkpt lat="42.0805002303982" lon="12.201771895138638"><ele>248.0</ele><time>2026-04-21T09:15:06Z</time></trkpt><trkpt lat="42.08060646271745" lon="12.201582751216817"><ele>248.0</ele><time>2026-04-21T09:15:07Z</time></trkpt><trkpt lat="42.0807106184069" lon="12.201396766446493"><ele>248.0</ele><time>2026-04-21T09:15:08Z</time></trkpt><trkpt lat="42.080812673791584" lon="12.201200932521084"><ele>248.0</ele><time>2026-04-21T09:15:09Z</time></trkpt><trkpt lat="42.080924489264454" lon="12.201009043861497"><ele>248.0</ele><time>2026-04-21T09:15:10.001Z</time></trkpt><trkpt lat="42.08103878959834" lon="12.200825920131347"><ele>248.0</ele><time>2026-04-21T09:15:11.001Z</time></trkpt><trkpt lat="42.08115510602356" lon="12.200661944090877"><ele>248.0</ele><time>2026-04-21T09:15:12.001Z</time></trkpt><trkpt lat="42.081268995026704" lon="12.200501433294551"><ele>248.0</ele><time>2026-04-21T09:15:13.001Z</time></trkpt><trkpt lat="42.081354763595556" lon="12.200316000990616"><ele>248.0</ele><time>2026-04-21T09:15:14.001Z</time></trkpt><trkpt lat="42.0814203688992" lon="12.200076642849414"><ele>248.0</ele><time>2026-04-21T09:15:15.001Z</time></trkpt><trkpt lat="42.081524163555535" lon="12.199896789238142"><ele>248.0</ele><time>2026-04-21T09:15:16.001Z</time></trkpt><trkpt lat="42.0816260811448" lon="12.199708525895895"><ele>248.0</ele><time>2026-04-21T09:15:17.001Z</time></trkpt><trkpt lat="42.081730782686115" lon="12.199541730686638"><ele>248.33333333333334</ele><time>2026-04-21T09:15:18.001Z</time></trkpt><trkpt lat="42.081838105266876" lon="12.1993850892526"><ele>248.66666666666669</ele><time>2026-04-21T09:15:19.001Z</time></trkpt><trkpt lat="42.081956094777276" lon="12.1992334885099"><ele>249.0</ele><time>2026-04-21T09:15:20.001Z</time></trkpt><trkpt lat="42.08209236068383" lon="12.199074993140414"><ele>248.66666666666669</ele><time>2026-04-21T09:15:21.001Z</time></trkpt><trkpt lat="42.08223295602543" lon="12.198920278596724"><ele>248.33333333333334</ele><time>2026-04-21T09:15:22.001Z</time></trkpt><trkpt lat="42.08237235478964" lon="12.198780489015329"><ele>248.0</ele><time>2026-04-21T09:15:23.001Z</time></trkpt><trkpt lat="42.082514319576504" lon="12.198628437052479"><ele>247.33333333333334</ele><time>2026-04-21T09:15:24.001Z</time></trkpt><trkpt lat="42.08265260963987" lon="12.198465961089905"><ele>246.66666666666669</ele><time>2026-04-21T09:15:25.001Z</time></trkpt><trkpt lat="42.082787740805166" lon="12.198278407164189"><ele>246.0</ele><time>2026-04-21T09:15:26.001Z</time></trkpt><trkpt lat="42.08292396426227" lon="12.19808360670589"><ele>246.0</ele><time>2026-04-21T09:15:27.001Z</time></trkpt><trkpt lat="42.08304778349755" lon="12.19788628505463"><ele>246.0</ele><time>2026-04-21T09:15:28.001Z</time></trkpt><trkpt lat="42.08316689761138" lon="12.197683413918865"><ele>246.0</ele><time>2026-04-21T09:15:29.001Z</time></trkpt><trkpt lat="42.0832831159699" lon="12.197479669093353"><ele>245.66666666666669</ele><time>2026-04-21T09:15:30.001Z</time></trkpt><trkpt lat="42.08339243846477" lon="12.197275443813579"><ele>245.33333333333334</ele><time>2026-04-21T09:15:31.001Z</time></trkpt><trkpt lat="42.083483367519705" lon="12.197054437451246"><ele>245.0</ele><time>2026-04-21T09:15:32.001Z</time></trkpt><trkpt lat="42.083560022074415" lon="12.19681245886987"><ele>245.0</ele><time>2026-04-21T09:15:33.001Z</time></trkpt><trkpt lat="42.08361753691464" lon="12.196556494869283"><ele>245.0</ele><time>2026-04-21T09:15:34.001Z</time></trkpt><trkpt lat="42.08366763939013" lon="12.196306617898733"><ele>245.0</ele><time>2026-04-21T09:15:35.001Z</time></trkpt><trkpt lat="42.083717359527334" lon="12.19606646078471"><ele>243.66666666666669</ele><time>2026-04-21T09:15:36.001Z</time></trkpt><trkpt lat="42.08377103066186" lon="12.195832312045104"><ele>242.33333333333331</ele><time>2026-04-21T09:15:37.001Z</time></trkpt><trkpt lat="42.083825394681234" lon="12.195612730377897"><ele>241.0</ele><time>2026-04-21T09:15:38.001Z</time></trkpt><trkpt lat="42.08387961749698" lon="12.195398991500305"><ele>240.33333333333331</ele><time>2026-04-21T09:15:39.001Z</time></trkpt><trkpt lat="42.08392937891668" lon="12.19518460238515"><ele>239.66666666666669</ele><time>2026-04-21T09:15:40.001Z</time></trkpt><trkpt lat="42.08397734889045" lon="12.194982652524608"><ele>239.0</ele><time>2026-04-21T09:15:41.001Z</time></trkpt><trkpt lat="42.08402172731998" lon="12.194789200952735"><ele>239.0</ele><time>2026-04-21T09:15:42.001Z</time></trkpt><trkpt lat="42.08406598689558" lon="12.194605546588303"><ele>239.0</ele><time>2026-04-21T09:15:43.001Z</time></trkpt><trkpt lat="42.084111689276305" lon="12.19442501759607"><ele>239.0</ele><time>2026-04-21T09:15:44.001Z</time></trkpt><trkpt lat="42.08415675089471" lon="12.194234085195806"><ele>239.0</ele><time>2026-04-21T09:15:45.001Z</time></trkpt><trkpt lat="42.084201177196775" lon="12.194038666292707"><ele>238.66666666666669</ele><time>2026-04-21T09:15:46.001Z</time></trkpt><trkpt lat="42.08424939418563" lon="12.19383656872768"><ele>238.33333333333331</ele><time>2026-04-21T09:15:47.001Z</time></trkpt><trkpt lat="42.08430044866699" lon="12.193635673262863"><ele>238.0</ele><time>2026-04-21T09:15:48.001Z</time></trkpt><trkpt lat="42.084349806790634" lon="12.193435681034964"><ele>238.0</ele><time>2026-04-21T09:15:49.001Z</time></trkpt><trkpt lat="42.08439781564391" lon="12.193232693692764"><ele>238.0</ele><time>2026-04-21T09:15:50.001Z</time></trkpt><trkpt lat="42.084445077522375" lon="12.193022409625858"><ele>238.0</ele><time>2026-04-21T09:15:51.001Z</time></trkpt><trkpt lat="42.08448496246505" lon="12.192820002142591"><ele>238.0</ele><time>2026-04-21T09:15:52.001Z</time></trkpt><trkpt lat="42.08451317754844" lon="12.192622436075846"><ele>238.0</ele><time>2026-04-21T09:15:53.001Z</time></trkpt><trkpt lat="42.08453571542658" lon="12.192436233978054"><ele>238.0</ele><time>2026-04-21T09:15:54.001Z</time></trkpt><trkpt lat="42.08455360007149" lon="12.192252400462676"><ele>238.0</ele><time>2026-04-21T09:15:55.001Z</time></trkpt><trkpt lat="42.084569878541316" lon="12.19207400824678"><ele>238.0</ele><time>2026-04-21T09:15:56.001Z</time></trkpt><trkpt lat="42.08459258411404" lon="12.19190404953074"><ele>238.0</ele><time>2026-04-21T09:15:57.001Z</time></trkpt><trkpt lat="42.084624920416424" lon="12.191732251448784"><ele>238.0</ele><time>2026-04-21T09:15:58.001Z</time></trkpt><trkpt lat="42.08466693197752" lon="12.19156096162743"><ele>238.0</ele><time>2026-04-21T09:15:59.001Z</time></trkpt><trkpt lat="42.084726515206626" lon="12.191388170912614"><ele>238.25</ele><time>2026-04-21T09:16:00.001Z</time></trkpt><trkpt lat="42.08479054728358" lon="12.191218472374132"><ele>238.5</ele><time>2026-04-21T09:16:01.001Z</time></trkpt><trkpt lat="42.08484985368032" lon="12.191044100886339"><ele>238.75</ele><time>2026-04-21T09:16:02.001Z</time></trkpt><trkpt lat="42.08490544149913" lon="12.190863524459145"><ele>239.0</ele><time>2026-04-21T09:16:03.001Z</time></trkpt><trkpt lat="42.084964322862696" lon="12.190694715610752"><ele>239.25</ele><time>2026-04-21T09:16:04.001Z</time></trkpt><trkpt lat="42.085023642931795" lon="12.190536011566769"><ele>239.5</ele><time>2026-04-21T09:16:05.001Z</time></trkpt><trkpt lat="42.0850781435901" lon="12.19038338705766"><ele>239.75</ele><time>2026-04-21T09:16:06.001Z</time></trkpt><trkpt lat="42.08512751382866" lon="12.190243159652743"><ele>240.0</ele><time>2026-04-21T09:16:07.001Z</time></trkpt><trkpt lat="42.08517236560234" lon="12.190106871077655"><ele>240.0</ele><time>2026-04-21T09:16:08.001Z</time></trkpt><trkpt lat="42.08521909274851" lon="12.189962235224895"><ele>240.0</ele><time>2026-04-21T09:16:09.001Z</time></trkpt><trkpt lat="42.085265119968255" lon="12.189820878817212"><ele>240.0</ele><time>2026-04-21T09:16:10.001Z</time></trkpt><trkpt lat="42.08530568439797" lon="12.18968449442623"><ele>240.0</ele><time>2026-04-21T09:16:11.001Z</time></trkpt><trkpt lat="42.0853417925936" lon="12.18955375677862"><ele>240.0</ele><time>2026-04-21T09:16:12.001Z</time></trkpt><trkpt lat="42.0853819214828" lon="12.189418486607552"><ele>240.6</ele><time>2026-04-21T09:16:13.001Z</time></trkpt><trkpt lat="42.08542158862022" lon="12.189288917710313"><ele>241.2</ele><time>2026-04-21T09:16:14.001Z</time></trkpt><trkpt lat="42.08545877303293" lon="12.18917038456825"><ele>241.8</ele><time>2026-04-21T09:16:15.001Z</time></trkpt><trkpt lat="42.085496701761976" lon="12.18904360560469"><ele>242.4</ele><time>2026-04-21T09:16:16.001Z</time></trkpt><trkpt lat="42.085531048691564" lon="12.188923569056048"><ele>243.0</ele><time>2026-04-21T09:16:17.001Z</time></trkpt><trkpt lat="42.08556689506883" lon="12.188792822988162"><ele>243.25</ele><time>2026-04-21T09:16:18.001Z</time></trkpt><trkpt lat="42.08560696555569" lon="12.188655382266223"><ele>243.5</ele><time>2026-04-21T09:16:19.001Z</time></trkpt><trkpt lat="42.08564923074863" lon="12.188505005357259"><ele>243.75</ele><time>2026-04-21T09:16:20Z</time></trkpt><trkpt lat="42.08570994871382" lon="12.18832135901021"><ele>244.0</ele><time>2026-04-21T09:16:21Z</time></trkpt><trkpt lat="42.08577271574296" lon="12.188070241627619"><ele>244.0</ele><time>2026-04-21T09:16:22Z</time></trkpt><trkpt lat="42.085836322800894" lon="12.187817007657214"><ele>244.0</ele><time>2026-04-21T09:16:23Z</time></trkpt><trkpt lat="42.08589109203651" lon="12.18760101728957"><ele>244.0</ele><time>2026-04-21T09:16:24Z</time></trkpt><trkpt lat="42.08593204870929" lon="12.187400258154552"><ele>244.0</ele><time>2026-04-21T09:16:25Z</time></trkpt><trkpt lat="42.08599050532593" lon="12.187219990211991"><ele>244.0</ele><time>2026-04-21T09:16:26Z</time></trkpt><trkpt lat="42.08604182722324" lon="12.187034150422907"><ele>244.0</ele><time>2026-04-21T09:16:27Z</time></trkpt><trkpt lat="42.08610014226433" lon="12.186850176424226"><ele>244.0</ele><time>2026-04-21T09:16:28Z</time></trkpt><trkpt lat="42.08615892086871" lon="12.186683871630715"><ele>244.0</ele><time>2026-04-21T09:16:29Z</time></trkpt><trkpt lat="42.08622388290695" lon="12.18653284347235"><ele>244.0</ele><time>2026-04-21T09:16:30Z</time></trkpt><trkpt lat="42.08629631429122" lon="12.18639525852371"><ele>244.0</ele><time>2026-04-21T09:16:31Z</time></trkpt><trkpt lat="42.08637197730017" lon="12.186264272753935"><ele>244.0</ele><time>2026-04-21T09:16:32Z</time></trkpt><trkpt lat="42.08645832004257" lon="12.186132129915862"><ele>244.0</ele><time>2026-04-21T09:16:33Z</time></trkpt><trkpt lat="42.086546479114354" lon="12.185994527848235"><ele>244.0</ele><time>2026-04-21T09:16:34Z</time></trkpt><trkpt lat="42.08663134977894" lon="12.185859344590583"><ele>244.0</ele><time>2026-04-21T09:16:35Z</time></trkpt><trkpt lat="42.0867197121874" lon="12.185724085647934"><ele>244.0</ele><time>2026-04-21T09:16:36Z</time></trkpt><trkpt lat="42.08681081626492" lon="12.185593374607087"><ele>243.5</ele><time>2026-04-21T09:16:37Z</time></trkpt><trkpt lat="42.08690282681227" lon="12.185467181102794"><ele>243.0</ele><time>2026-04-21T09:16:38Z</time></trkpt><trkpt lat="42.08699535409136" lon="12.185338443251771"><ele>242.5</ele><time>2026-04-21T09:16:39Z</time></trkpt><trkpt lat="42.087084060211225" lon="12.185222610653295"><ele>242.0</ele><time>2026-04-21T09:16:40Z</time></trkpt><trkpt lat="42.08716535309866" lon="12.185118015657508"><ele>242.0</ele><time>2026-04-21T09:16:41Z</time></trkpt><trkpt lat="42.08723795023054" lon="12.185018599839797"><ele>242.0</ele><time>2026-04-21T09:16:42Z</time></trkpt><trkpt lat="42.08730431716861" lon="12.184931821038978"><ele>242.0</ele><time>2026-04-21T09:16:43Z</time></trkpt><trkpt lat="42.08736854403476" lon="12.184841756095386"><ele>242.0</ele><time>2026-04-21T09:16:44Z</time></trkpt><trkpt lat="42.087428781908464" lon="12.184764546538489"><ele>242.0</ele><time>2026-04-21T09:16:45Z</time></trkpt><trkpt lat="42.0874893651801" lon="12.184690111197362"><ele>241.83333333333334</ele><time>2026-04-21T09:16:46Z</time></trkpt><trkpt lat="42.08755544431498" lon="12.184632965734975"><ele>241.66666666666669</ele><time>2026-04-21T09:16:47Z</time></trkpt><trkpt lat="42.08762163225029" lon="12.184600306806061"><ele>241.5</ele><time>2026-04-21T09:16:48Z</time></trkpt><trkpt lat="42.0876905864071" lon="12.184598742173899"><ele>241.33333333333331</ele><time>2026-04-21T09:16:51Z</time></trkpt><trkpt lat="42.08778078456195" lon="12.184579418926148"><ele>241.16666666666666</ele><time>2026-04-21T09:16:56Z</time></trkpt><trkpt lat="42.087869662968544" lon="12.184562811035274"><ele>241.0</ele><time>2026-04-21T09:16:58Z</time></trkpt><trkpt lat="42.08793367369105" lon="12.184505665065485"><ele>241.0</ele><time>2026-04-21T09:17:00Z</time></trkpt><trkpt lat="42.087991006248465" lon="12.184391933450584"><ele>241.00000000000003</ele><time>2026-04-21T09:17:02Z</time></trkpt><trkpt lat="42.088047399692805" lon="12.184291540986234"><ele>241.00000000000003</ele><time>2026-04-21T09:17:04Z</time></trkpt><trkpt lat="42.08811460008899" lon="12.184238969656997"><ele>241.0</ele><time>2026-04-21T09:17:07Z</time></trkpt><trkpt lat="42.0881738024721" lon="12.184150674453592"><ele>241.0</ele><time>2026-04-21T09:17:13Z</time></trkpt><trkpt lat="42.088202558698576" lon="12.18403688893453"><ele>241.49999999999997</ele><time>2026-04-21T09:17:15Z</time></trkpt><trkpt lat="42.08822979034037" lon="12.183929472420182"><ele>242.0</ele><time>2026-04-21T09:17:17Z</time></trkpt><trkpt lat="42.08829451109206" lon="12.18383742067862"><ele>242.5</ele><time>2026-04-21T09:17:19Z</time></trkpt><trkpt lat="42.088377285569166" lon="12.18381269106554"><ele>243.0</ele><time>2026-04-21T09:17:21Z</time></trkpt><trkpt lat="42.088438764944094" lon="12.183791369304444"><ele>243.49999999999997</ele><time>2026-04-21T09:17:23Z</time></trkpt><trkpt lat="42.08849098259246" lon="12.183715779096758"><ele>244.0</ele><time>2026-04-21T09:17:26Z</time></trkpt><trkpt lat="42.08854059379277" lon="12.183654167190888"><ele>244.25</ele><time>2026-04-21T09:17:36Z</time></trkpt><trkpt lat="42.088643577795494" lon="12.18353633091002"><ele>244.5</ele><time>2026-04-21T09:17:38Z</time></trkpt><trkpt lat="42.08870766858795" lon="12.183478470507742"><ele>244.75</ele><time>2026-04-21T09:17:39Z</time></trkpt><trkpt lat="42.08881943464032" lon="12.18337561642327"><ele>245.0</ele><time>2026-04-21T09:17:41Z</time></trkpt><trkpt lat="42.08892291864672" lon="12.183279506697984"><ele>245.0</ele><time>2026-04-21T09:17:42Z</time></trkpt><trkpt lat="42.0890177363119" lon="12.183198944544593"><ele>245.0</ele><time>2026-04-21T09:17:43Z</time></trkpt><trkpt lat="42.089098529019225" lon="12.183137811635687"><ele>245.0</ele><time>2026-04-21T09:17:44Z</time></trkpt><trkpt lat="42.08918432396595" lon="12.183067833460173"><ele>245.0</ele><time>2026-04-21T09:17:45.001Z</time></trkpt><trkpt lat="42.08926520209475" lon="12.182999191576457"><ele>245.0</ele><time>2026-04-21T09:17:46.001Z</time></trkpt><trkpt lat="42.08934676331995" lon="12.182935629428036"><ele>245.50000000000003</ele><time>2026-04-21T09:17:47.001Z</time></trkpt><trkpt lat="42.08942261009182" lon="12.182878752004521"><ele>246.0</ele><time>2026-04-21T09:17:48.001Z</time></trkpt><trkpt lat="42.08949619012598" lon="12.182822435257604"><ele>246.5</ele><time>2026-04-21T09:17:49.001Z</time></trkpt><trkpt lat="42.08956847382888" lon="12.182758349342468"><ele>247.0</ele><time>2026-04-21T09:17:50.001Z</time></trkpt><trkpt lat="42.08964141190755" lon="12.182695294062542"><ele>247.50000000000003</ele><time>2026-04-21T09:17:51.001Z</time></trkpt><trkpt lat="42.08969981557425" lon="12.18263077851945"><ele>248.0</ele><time>2026-04-21T09:17:52.001Z</time></trkpt><trkpt lat="42.08976416054972" lon="12.182560529008233"><ele>248.00000000000003</ele><time>2026-04-21T09:17:53.001Z</time></trkpt><trkpt lat="42.089826813325324" lon="12.182480573900593"><ele>248.0</ele><time>2026-04-21T09:17:54.001Z</time></trkpt><trkpt lat="42.08987501199983" lon="12.182401285740987"><ele>248.0</ele><time>2026-04-21T09:17:55.001Z</time></trkpt><trkpt lat="42.08991987885078" lon="12.18231465989793"><ele>248.0</ele><time>2026-04-21T09:17:56.001Z</time></trkpt><trkpt lat="42.08996505755696" lon="12.182215717844885"><ele>248.00000000000003</ele><time>2026-04-21T09:17:57.001Z</time></trkpt><trkpt lat="42.09000851332213" lon="12.182112250734734"><ele>248.0</ele><time>2026-04-21T09:17:58.001Z</time></trkpt><trkpt lat="42.09004893860741" lon="12.18201070537408"><ele>249.50000000000003</ele><time>2026-04-21T09:17:59.001Z</time></trkpt><trkpt lat="42.09008836104525" lon="12.181920146881724"><ele>251.0</ele><time>2026-04-21T09:18:00.001Z</time></trkpt><trkpt lat="42.09012888125714" lon="12.181813212443487"><ele>252.5</ele><time>2026-04-21T09:18:01.001Z</time></trkpt><trkpt lat="42.090161175028655" lon="12.181711860294904"><ele>254.0</ele><time>2026-04-21T09:18:02.001Z</time></trkpt><trkpt lat="42.090196299493904" lon="12.181619102203914"><ele>255.50000000000003</ele><time>2026-04-21T09:18:03.001Z</time></trkpt><trkpt lat="42.090233038905595" lon="12.181531804279189"><ele>257.0</ele><time>2026-04-21T09:18:04.001Z</time></trkpt><trkpt lat="42.09026786856846" lon="12.181444119882121"><ele>257.1666666666667</ele><time>2026-04-21T09:18:05.001Z</time></trkpt><trkpt lat="42.0903048149382" lon="12.181345802109112"><ele>257.33333333333337</ele><time>2026-04-21T09:18:06.001Z</time></trkpt><trkpt lat="42.090352355186006" lon="12.181244452357268"><ele>257.5</ele><time>2026-04-21T09:18:07.001Z</time></trkpt><trkpt lat="42.090402273054146" lon="12.181162006607238"><ele>257.6666666666667</ele><time>2026-04-21T09:18:08.001Z</time></trkpt><trkpt lat="42.09044698227512" lon="12.181081968223065"><ele>257.8333333333333</ele><time>2026-04-21T09:18:09.001Z</time></trkpt><trkpt lat="42.09050021422362" lon="12.18100316700663"><ele>258.0</ele><time>2026-04-21T09:18:10.001Z</time></trkpt><trkpt lat="42.09055669244986" lon="12.180942672367623"><ele>258.0</ele><time>2026-04-21T09:18:11.001Z</time></trkpt><trkpt lat="42.09062792380778" lon="12.180883711343704"><ele>258.0</ele><time>2026-04-21T09:18:12.001Z</time></trkpt><trkpt lat="42.0907027958618" lon="12.180827276552385"><ele>258.0</ele><time>2026-04-21T09:18:13.001Z</time></trkpt><trkpt lat="42.09078102514692" lon="12.180783565456503"><ele>258.0</ele><time>2026-04-21T09:18:14.001Z</time></trkpt><trkpt lat="42.09086205858833" lon="12.180738375554853"><ele>258.0</ele><time>2026-04-21T09:18:15.001Z</time></trkpt><trkpt lat="42.090948627001076" lon="12.180700841436009"><ele>258.0</ele><time>2026-04-21T09:18:16.001Z</time></trkpt><trkpt lat="42.09103015098855" lon="12.180660452339197"><ele>259.5</ele><time>2026-04-21T09:18:17.001Z</time></trkpt><trkpt lat="42.091104602397664" lon="12.180614559055167"><ele>261.0</ele><time>2026-04-21T09:18:18.001Z</time></trkpt><trkpt lat="42.09119292917539" lon="12.180549215540712"><ele>262.5</ele><time>2026-04-21T09:18:19.001Z</time></trkpt><trkpt lat="42.09129967009892" lon="12.180451591849774"><ele>264.0</ele><time>2026-04-21T09:18:20.001Z</time></trkpt><trkpt lat="42.09143648787278" lon="12.18031032269759"><ele>264.0</ele><time>2026-04-21T09:18:21.001Z</time></trkpt><trkpt lat="42.09158600074885" lon="12.180136077056817"><ele>264.0</ele><time>2026-04-21T09:18:22.001Z</time></trkpt><trkpt lat="42.09169976540595" lon="12.17994945982866"><ele>264.0</ele><time>2026-04-21T09:18:23.001Z</time></trkpt><trkpt lat="42.09182711287588" lon="12.179706048100359"><ele>268.5</ele><time>2026-04-21T09:18:24.001Z</time></trkpt><trkpt lat="42.09198439903301" lon="12.179436033115673"><ele>273.0</ele><time>2026-04-21T09:18:25.001Z</time></trkpt><trkpt lat="42.09212554858476" lon="12.179202440372421"><ele>273.0</ele><time>2026-04-21T09:18:26Z</time></trkpt><trkpt lat="42.09224289959444" lon="12.179006933197554"><ele>273.0</ele><time>2026-04-21T09:18:27Z</time></trkpt><trkpt lat="42.09235888699194" lon="12.178802171700656"><ele>273.0</ele><time>2026-04-21T09:18:28Z</time></trkpt><trkpt lat="42.09248217170095" lon="12.178598429050226"><ele>276.3333333333333</ele><time>2026-04-21T09:18:29Z</time></trkpt><trkpt lat="42.09261142557776" lon="12.17840598173228"><ele>279.66666666666663</ele><time>2026-04-21T09:18:30Z</time></trkpt><trkpt lat="42.09273787897598" lon="12.178200496466829"><ele>283.0</ele><time>2026-04-21T09:18:31Z</time></trkpt><trkpt lat="42.09286026604144" lon="12.17799323989889"><ele>283.66666666666663</ele><time>2026-04-21T09:18:32Z</time></trkpt><trkpt lat="42.09298329616763" lon="12.177787626397192"><ele>284.3333333333333</ele><time>2026-04-21T09:18:33Z</time></trkpt><trkpt lat="42.09310905677269" lon="12.1775833950655"><ele>285.0</ele><time>2026-04-21T09:18:34Z</time></trkpt><trkpt lat="42.093218040400565" lon="12.177404525800567"><ele>289.3333333333333</ele><time>2026-04-21T09:18:35Z</time></trkpt><trkpt lat="42.09331460011758" lon="12.177240527779613"><ele>293.66666666666663</ele><time>2026-04-21T09:18:36Z</time></trkpt><trkpt lat="42.09341460872166" lon="12.177078475508265"><ele>298.0</ele><time>2026-04-21T09:18:37Z</time></trkpt><trkpt lat="42.09352444385123" lon="12.176904518963504"><ele>298.0</ele><time>2026-04-21T09:18:38Z</time></trkpt><trkpt lat="42.09363099372124" lon="12.176723127102077"><ele>298.0</ele><time>2026-04-21T09:18:39Z</time></trkpt><trkpt lat="42.0937429118149" lon="12.176538854236581"><ele>298.0</ele><time>2026-04-21T09:18:40Z</time></trkpt><trkpt lat="42.09385255846861" lon="12.17636182839974"><ele>298.66666666666663</ele><time>2026-04-21T09:18:41Z</time></trkpt><trkpt lat="42.0939614433281" lon="12.17618494241989"><ele>299.3333333333333</ele><time>2026-04-21T09:18:42Z</time></trkpt><trkpt lat="42.09406946938461" lon="12.17600696682061"><ele>300.0</ele><time>2026-04-21T09:18:43Z</time></trkpt><trkpt lat="42.09417691524714" lon="12.175826554098796"><ele>302.0</ele><time>2026-04-21T09:18:44Z</time></trkpt><trkpt lat="42.09427957331186" lon="12.175647315693858"><ele>304.0</ele><time>2026-04-21T09:18:45Z</time></trkpt><trkpt lat="42.09437319802956" lon="12.175488196697849"><ele>306.0</ele><time>2026-04-21T09:18:46Z</time></trkpt><trkpt lat="42.094470975478565" lon="12.175324663221385"><ele>306.0</ele><time>2026-04-21T09:18:47Z</time></trkpt><trkpt lat="42.094555666349585" lon="12.175146386539344"><ele>306.0</ele><time>2026-04-21T09:18:48Z</time></trkpt><trkpt lat="42.094630780584" lon="12.174958524293604"><ele>306.0</ele><time>2026-04-21T09:18:49Z</time></trkpt><trkpt lat="42.094699412187595" lon="12.174756955059355"><ele>306.3333333333333</ele><time>2026-04-21T09:18:50Z</time></trkpt><trkpt lat="42.09476329500586" lon="12.17455286321949"><ele>306.66666666666663</ele><time>2026-04-21T09:18:51Z</time></trkpt><trkpt lat="42.094830729359124" lon="12.174346446677486"><ele>307.0</ele><time>2026-04-21T09:18:52Z</time></trkpt><trkpt lat="42.094899412689344" lon="12.174136397103112"><ele>310.3333333333333</ele><time>2026-04-21T09:18:53Z</time></trkpt><trkpt lat="42.09496835339745" lon="12.17392707362075"><ele>313.6666666666667</ele><time>2026-04-21T09:18:54Z</time></trkpt><trkpt lat="42.09505018210788" lon="12.173720554576144"><ele>317.0</ele><time>2026-04-21T09:18:55Z</time></trkpt><trkpt lat="42.0951202980328" lon="12.173501999024529"><ele>317.0</ele><time>2026-04-21T09:18:56Z</time></trkpt><trkpt lat="42.09518944581942" lon="12.173288636696027"><ele>317.0</ele><time>2026-04-21T09:18:57Z</time></trkpt><trkpt lat="42.0952521128631" lon="12.173107621363776"><ele>317.0</ele><time>2026-04-21T09:18:58Z</time></trkpt><trkpt lat="42.0953114003223" lon="12.172930898426632"><ele>317.25</ele><time>2026-04-21T09:18:59Z</time></trkpt><trkpt lat="42.09537145583527" lon="12.172745650728244"><ele>317.5</ele><time>2026-04-21T09:19:00Z</time></trkpt><trkpt lat="42.095426307284164" lon="12.172574998189578"><ele>317.75</ele><time>2026-04-21T09:19:01Z</time></trkpt><trkpt lat="42.09548040554265" lon="12.172409506418305"><ele>318.0</ele><time>2026-04-21T09:19:02Z</time></trkpt><trkpt lat="42.09553653945218" lon="12.172238675086618"><ele>317.5</ele><time>2026-04-21T09:19:03Z</time></trkpt><trkpt lat="42.09559544864269" lon="12.172078206872825"><ele>317.0</ele><time>2026-04-21T09:19:04Z</time></trkpt><trkpt lat="42.095654265445624" lon="12.171917759285826"><ele>316.5</ele><time>2026-04-21T09:19:05Z</time></trkpt><trkpt lat="42.09571581787716" lon="12.171760808705947"><ele>316.0</ele><time>2026-04-21T09:19:06Z</time></trkpt><trkpt lat="42.09578108135934" lon="12.17162346709217"><ele>314.5</ele><time>2026-04-21T09:19:07Z</time></trkpt><trkpt lat="42.09585359841321" lon="12.171493631608511"><ele>313.0</ele><time>2026-04-21T09:19:08Z</time></trkpt><trkpt lat="42.09592764678459" lon="12.171374031110998"><ele>311.5</ele><time>2026-04-21T09:19:09Z</time></trkpt><trkpt lat="42.09599739049068" lon="12.171262696456175"><ele>310.0</ele><time>2026-04-21T09:19:10Z</time></trkpt><trkpt lat="42.09606790604321" lon="12.171153432682313"><ele>310.0</ele><time>2026-04-21T09:19:11Z</time></trkpt><trkpt lat="42.09613732268694" lon="12.171045897485703"><ele>310.0</ele><time>2026-04-21T09:19:12Z</time></trkpt><trkpt lat="42.09620612064285" lon="12.170931107395246"><ele>310.0</ele><time>2026-04-21T09:19:13Z</time></trkpt><trkpt lat="42.09628108840311" lon="12.170817203885228"><ele>310.0</ele><time>2026-04-21T09:19:14Z</time></trkpt><trkpt lat="42.096356064003885" lon="12.170704012769784"><ele>310.0</ele><time>2026-04-21T09:19:15Z</time></trkpt><trkpt lat="42.09643241556828" lon="12.170592315584678"><ele>310.0</ele><time>2026-04-21T09:19:16Z</time></trkpt><trkpt lat="42.09651317974218" lon="12.17047206646286"><ele>310.0</ele><time>2026-04-21T09:19:17Z</time></trkpt><trkpt lat="42.09659925908903" lon="12.170348902113936"><ele>310.0</ele><time>2026-04-21T09:19:18Z</time></trkpt><trkpt lat="42.09668628773207" lon="12.170230562765033"><ele>310.0</ele><time>2026-04-21T09:19:19Z</time></trkpt><trkpt lat="42.096784910015856" lon="12.17012473538599"><ele>310.0</ele><time>2026-04-21T09:19:20Z</time></trkpt><trkpt lat="42.09687885245934" lon="12.170017803799132"><ele>310.0</ele><time>2026-04-21T09:19:21Z</time></trkpt><trkpt lat="42.096973606446184" lon="12.169928867031954"><ele>310.0</ele><time>2026-04-21T09:19:22Z</time></trkpt><trkpt lat="42.09705939625777" lon="12.169843191226855"><ele>310.0</ele><time>2026-04-21T09:19:23Z</time></trkpt><trkpt lat="42.09714618724502" lon="12.169753742367872"><ele>311.5</ele><time>2026-04-21T09:19:24Z</time></trkpt><trkpt lat="42.09723709275977" lon="12.169660585547062"><ele>313.0</ele><time>2026-04-21T09:19:25Z</time></trkpt><trkpt lat="42.097336073904074" lon="12.169564247336595"><ele>314.5</ele><time>2026-04-21T09:19:26.001Z</time></trkpt><trkpt lat="42.09743764819253" lon="12.169458840142859"><ele>316.0</ele><time>2026-04-21T09:19:27.001Z</time></trkpt><trkpt lat="42.09753828901677" lon="12.169353849674627"><ele>316.8</ele><time>2026-04-21T09:19:28.001Z</time></trkpt><trkpt lat="42.097627445379054" lon="12.16925709758438"><ele>317.6</ele><time>2026-04-21T09:19:29.001Z</time></trkpt><trkpt lat="42.0977116859239" lon="12.169167277207622"><ele>318.4</ele><time>2026-04-21T09:19:30.001Z</time></trkpt><trkpt lat="42.09779561584001" lon="12.169082995661947"><ele>319.2</ele><time>2026-04-21T09:19:31.001Z</time></trkpt><trkpt lat="42.097880686903736" lon="12.168990707451634"><ele>320.0</ele><time>2026-04-21T09:19:32.001Z</time></trkpt><trkpt lat="42.09796420980411" lon="12.168906032800134"><ele>319.8</ele><time>2026-04-21T09:19:33.001Z</time></trkpt><trkpt lat="42.098040803176545" lon="12.168829375732994"><ele>319.6</ele><time>2026-04-21T09:19:34.001Z</time></trkpt><trkpt lat="42.09812074652979" lon="12.168742348650145"><ele>319.4</ele><time>2026-04-21T09:19:35.001Z</time></trkpt><trkpt lat="42.09819755023" lon="12.16866421331151"><ele>319.2</ele><time>2026-04-21T09:19:36.001Z</time></trkpt><trkpt lat="42.09827532610311" lon="12.168581040180909"><ele>319.0</ele><time>2026-04-21T09:19:37.001Z</time></trkpt><trkpt lat="42.09834019378619" lon="12.168514510432933"><ele>319.0</ele><time>2026-04-21T09:19:38.001Z</time></trkpt><trkpt lat="42.09840408093151" lon="12.168443178460794"><ele>319.0</ele><time>2026-04-21T09:19:39.001Z</time></trkpt><trkpt lat="42.09846633846975" lon="12.168381362417716"><ele>319.0</ele><time>2026-04-21T09:19:40.001Z</time></trkpt><trkpt lat="42.098528079752505" lon="12.168331577604356"><ele>319.0</ele><time>2026-04-21T09:19:41.001Z</time></trkpt><trkpt lat="42.09858820133202" lon="12.168297305971695"><ele>319.0</ele><time>2026-04-21T09:19:42.001Z</time></trkpt><trkpt lat="42.09864877566811" lon="12.168252652723101"><ele>319.0</ele><time>2026-04-21T09:19:43.001Z</time></trkpt><trkpt lat="42.09870989595054" lon="12.168196243583706"><ele>319.0</ele><time>2026-04-21T09:19:44.001Z</time></trkpt><trkpt lat="42.09876050785308" lon="12.168131941351241"><ele>319.0</ele><time>2026-04-21T09:19:45.001Z</time></trkpt><trkpt lat="42.09882012373446" lon="12.168059964222897"><ele>319.0</ele><time>2026-04-21T09:19:46.001Z</time></trkpt><trkpt lat="42.09888460398318" lon="12.167983659484445"><ele>319.0</ele><time>2026-04-21T09:19:47.001Z</time></trkpt><trkpt lat="42.0989520986911" lon="12.167906621980459"><ele>319.0</ele><time>2026-04-21T09:19:48.001Z</time></trkpt><trkpt lat="42.09901624483609" lon="12.167839430905703"><ele>319.0</ele><time>2026-04-21T09:19:49.001Z</time></trkpt><trkpt lat="42.09907931016562" lon="12.167774127266723"><ele>319.0</ele><time>2026-04-21T09:19:50.001Z</time></trkpt><trkpt lat="42.09914612467697" lon="12.167689085334905"><ele>319.0</ele><time>2026-04-21T09:19:51.001Z</time></trkpt><trkpt lat="42.09920889395867" lon="12.167624807191936"><ele>319.0</ele><time>2026-04-21T09:19:52.001Z</time></trkpt><trkpt lat="42.09926869092878" lon="12.167564859905193"><ele>319.0</ele><time>2026-04-21T09:19:53.001Z</time></trkpt><trkpt lat="42.09933345558779" lon="12.167500934511509"><ele>319.0</ele><time>2026-04-21T09:19:54.001Z</time></trkpt><trkpt lat="42.09938520718497" lon="12.1674499115967"><ele>319.0</ele><time>2026-04-21T09:19:55.001Z</time></trkpt><trkpt lat="42.0994685789435" lon="12.167361989738943"><ele>319.0</ele><time>2026-04-21T09:19:57.001Z</time></trkpt><trkpt lat="42.09954231884922" lon="12.167281772753878"><ele>319.3333333333333</ele><time>2026-04-21T09:19:59.001Z</time></trkpt><trkpt lat="42.09959685535764" lon="12.167227120562035"><ele>319.66666666666663</ele><time>2026-04-21T09:20:01.001Z</time></trkpt><trkpt lat="42.09965739902479" lon="12.167166857461549"><ele>320.0</ele><time>2026-04-21T09:20:05.001Z</time></trkpt><trkpt lat="42.09972235344033" lon="12.16710110756865"><ele>320.3333333333333</ele><time>2026-04-21T09:20:09.001Z</time></trkpt><trkpt lat="42.09979255794354" lon="12.16707566163551"><ele>320.6666666666667</ele><time>2026-04-21T09:20:14.001Z</time></trkpt><trkpt lat="42.099884058300695" lon="12.16697061042016"><ele>321.0</ele><time>2026-04-21T09:20:17.001Z</time></trkpt><trkpt lat="42.099949581878796" lon="12.166888394840335"><ele>320.0</ele><time>2026-04-21T09:20:18.001Z</time></trkpt><trkpt lat="42.10004363959575" lon="12.166788723728466"><ele>319.0</ele><time>2026-04-21T09:20:19.001Z</time></trkpt><trkpt lat="42.10012981990356" lon="12.16668569032429"><ele>318.0</ele><time>2026-04-21T09:20:20.001Z</time></trkpt><trkpt lat="42.10023441413285" lon="12.16659391842588"><ele>317.0</ele><time>2026-04-21T09:20:21.001Z</time></trkpt><trkpt lat="42.100353522032776" lon="12.16648150272766"><ele>317.0</ele><time>2026-04-21T09:20:22.001Z</time></trkpt><trkpt lat="42.100474776511284" lon="12.166347202755123"><ele>317.0</ele><time>2026-04-21T09:20:23.001Z</time></trkpt><trkpt lat="42.100593759215684" lon="12.16622676628031"><ele>317.0</ele><time>2026-04-21T09:20:24.001Z</time></trkpt><trkpt lat="42.10071965424977" lon="12.166103646598595"><ele>315.6666666666667</ele><time>2026-04-21T09:20:25.001Z</time></trkpt><trkpt lat="42.10084905975524" lon="12.165974532267878"><ele>314.3333333333333</ele><time>2026-04-21T09:20:26.001Z</time></trkpt><trkpt lat="42.10100344557242" lon="12.16582122036271"><ele>313.0</ele><time>2026-04-21T09:20:27.001Z</time></trkpt><trkpt lat="42.101162278220094" lon="12.165667353276474"><ele>313.0</ele><time>2026-04-21T09:20:28.001Z</time></trkpt><trkpt lat="42.10130787172637" lon="12.16553746483295"><ele>313.0</ele><time>2026-04-21T09:20:29.001Z</time></trkpt><trkpt lat="42.10144016455882" lon="12.165392206548768"><ele>313.0</ele><time>2026-04-21T09:20:30.001Z</time></trkpt><trkpt lat="42.101581408649444" lon="12.16524501089477"><ele>311.3333333333333</ele><time>2026-04-21T09:20:31.001Z</time></trkpt><trkpt lat="42.101727058374195" lon="12.165094190336925"><ele>309.6666666666667</ele><time>2026-04-21T09:20:32Z</time></trkpt><trkpt lat="42.10187752185604" lon="12.164940344745588"><ele>308.0</ele><time>2026-04-21T09:20:33Z</time></trkpt><trkpt lat="42.10202528631192" lon="12.164785367579256"><ele>307.6666666666667</ele><time>2026-04-21T09:20:34Z</time></trkpt><trkpt lat="42.10217472871105" lon="12.164636687859787"><ele>307.3333333333333</ele><time>2026-04-21T09:20:35Z</time></trkpt><trkpt lat="42.10232369319206" lon="12.164484279779588"><ele>307.0</ele><time>2026-04-21T09:20:36Z</time></trkpt><trkpt lat="42.102471958087975" lon="12.164332600863425"><ele>306.3333333333333</ele><time>2026-04-21T09:20:37Z</time></trkpt><trkpt lat="42.10261591198376" lon="12.164179214628035"><ele>305.6666666666667</ele><time>2026-04-21T09:20:38Z</time></trkpt><trkpt lat="42.10276526878186" lon="12.164031981192124"><ele>305.0</ele><time>2026-04-21T09:20:39Z</time></trkpt><trkpt lat="42.1029027897349" lon="12.163892753278006"><ele>304.6666666666667</ele><time>2026-04-21T09:20:40Z</time></trkpt><trkpt lat="42.10304625241989" lon="12.163746502044944"><ele>304.3333333333333</ele><time>2026-04-21T09:20:41Z</time></trkpt><trkpt lat="42.10318770987127" lon="12.163603597875566"><ele>304.0</ele><time>2026-04-21T09:20:42Z</time></trkpt><trkpt lat="42.103323467841804" lon="12.163468619598415"><ele>304.0</ele><time>2026-04-21T09:20:43Z</time></trkpt><trkpt lat="42.10346615709927" lon="12.1633244307185"><ele>304.0</ele><time>2026-04-21T09:20:44Z</time></trkpt><trkpt lat="42.10359715544492" lon="12.163187692758791"><ele>304.0</ele><time>2026-04-21T09:20:45Z</time></trkpt><trkpt lat="42.10372620188213" lon="12.16305613061656"><ele>304.0</ele><time>2026-04-21T09:20:46Z</time></trkpt><trkpt lat="42.103847504585474" lon="12.162934539371177"><ele>304.0</ele><time>2026-04-21T09:20:47Z</time></trkpt><trkpt lat="42.103962784783164" lon="12.162818679679583"><ele>304.0</ele><time>2026-04-21T09:20:48Z</time></trkpt><trkpt lat="42.10407159225212" lon="12.162706625937547"><ele>304.0</ele><time>2026-04-21T09:20:49Z</time></trkpt><trkpt lat="42.104173652487795" lon="12.162595509236969"><ele>303.75</ele><time>2026-04-21T09:20:50Z</time></trkpt><trkpt lat="42.10425380121186" lon="12.162471340943261"><ele>303.5</ele><time>2026-04-21T09:20:51Z</time></trkpt><trkpt lat="42.10429305552096" lon="12.162331701664007"><ele>303.25</ele><time>2026-04-21T09:20:52Z</time></trkpt><trkpt lat="42.10429058885008" lon="12.162178205482311"><ele>303.0</ele><time>2026-04-21T09:20:53Z</time></trkpt><trkpt lat="42.104272050000496" lon="12.161994834041568"><ele>303.0</ele><time>2026-04-21T09:20:54Z</time></trkpt><trkpt lat="42.104274011625364" lon="12.161741684438743"><ele>303.0</ele><time>2026-04-21T09:20:55Z</time></trkpt><trkpt lat="42.104267461761495" lon="12.161447541322046"><ele>303.0</ele><time>2026-04-21T09:20:56Z</time></trkpt><trkpt lat="42.104249829948564" lon="12.161156475989808"><ele>302.3333333333333</ele><time>2026-04-21T09:20:57Z</time></trkpt><trkpt lat="42.10425324024789" lon="12.160906233863066"><ele>301.66666666666663</ele><time>2026-04-21T09:20:58Z</time></trkpt><trkpt lat="42.10424342568245" lon="12.160666045790926"><ele>301.0</ele><time>2026-04-21T09:20:59Z</time></trkpt><trkpt lat="42.104237080014165" lon="12.160447006368413"><ele>301.0</ele><time>2026-04-21T09:21:00Z</time></trkpt><trkpt lat="42.1042310514023" lon="12.160219347880366"><ele>301.0</ele><time>2026-04-21T09:21:01Z</time></trkpt><trkpt lat="42.104227211730716" lon="12.159987133934594"><ele>301.0</ele><time>2026-04-21T09:21:02Z</time></trkpt><trkpt lat="42.10422645827247" lon="12.15975432297869"><ele>301.0</ele><time>2026-04-21T09:21:03Z</time></trkpt><trkpt lat="42.10422017930123" lon="12.159543915573405"><ele>301.0</ele><time>2026-04-21T09:21:04Z</time></trkpt><trkpt lat="42.10421686104656" lon="12.159359722253438"><ele>301.0</ele><time>2026-04-21T09:21:05Z</time></trkpt><trkpt lat="42.104210865430055" lon="12.15916863584603"><ele>301.0</ele><time>2026-04-21T09:21:06Z</time></trkpt><trkpt lat="42.10420540926377" lon="12.158959234209304"><ele>300.0</ele><time>2026-04-21T09:21:07Z</time></trkpt><trkpt lat="42.104198113418875" lon="12.158716976185975"><ele>299.0</ele><time>2026-04-21T09:21:08Z</time></trkpt><trkpt lat="42.104198265750505" lon="12.15846445672452"><ele>298.0</ele><time>2026-04-21T09:21:09Z</time></trkpt><trkpt lat="42.104189500644345" lon="12.158218773842098"><ele>297.5</ele><time>2026-04-21T09:21:10Z</time></trkpt><trkpt lat="42.104185323672915" lon="12.158011658414349"><ele>297.0</ele><time>2026-04-21T09:21:11Z</time></trkpt><trkpt lat="42.10417750389844" lon="12.157818236652139"><ele>296.5</ele><time>2026-04-21T09:21:12Z</time></trkpt><trkpt lat="42.104175331218954" lon="12.157628540952842"><ele>296.0</ele><time>2026-04-21T09:21:13Z</time></trkpt><trkpt lat="42.10418775768098" lon="12.157433853651577"><ele>296.0</ele><time>2026-04-21T09:21:14Z</time></trkpt><trkpt lat="42.10418520826565" lon="12.15721896791705"><ele>296.0</ele><time>2026-04-21T09:21:15Z</time></trkpt><trkpt lat="42.10418218118465" lon="12.156984781682576"><ele>296.0</ele><time>2026-04-21T09:21:16Z</time></trkpt><trkpt lat="42.10417862107185" lon="12.156709358568325"><ele>296.6666666666667</ele><time>2026-04-21T09:21:17Z</time></trkpt><trkpt lat="42.10416476242418" lon="12.156473460990336"><ele>297.3333333333333</ele><time>2026-04-21T09:21:18Z</time></trkpt><trkpt lat="42.10418059580859" lon="12.156261442681851"><ele>298.0</ele><time>2026-04-21T09:21:19Z</time></trkpt><trkpt lat="42.10420674026059" lon="12.156073034119581"><ele>298.0</ele><time>2026-04-21T09:21:20Z</time></trkpt><trkpt lat="42.10424698277137" lon="12.155872362970213"><ele>298.0</ele><time>2026-04-21T09:21:21Z</time></trkpt><trkpt lat="42.10427523431609" lon="12.15566693853609"><ele>298.0</ele><time>2026-04-21T09:21:22Z</time></trkpt><trkpt lat="42.10425988752606" lon="12.155412438529796"><ele>298.66666666666663</ele><time>2026-04-21T09:21:23Z</time></trkpt><trkpt lat="42.10431564853461" lon="12.155212665090403"><ele>299.3333333333333</ele><time>2026-04-21T09:21:24Z</time></trkpt><trkpt lat="42.104368244675854" lon="12.155016341621675"><ele>300.0</ele><time>2026-04-21T09:21:25Z</time></trkpt><trkpt lat="42.10440998019656" lon="12.154799442378494"><ele>300.0</ele><time>2026-04-21T09:21:26Z</time></trkpt><trkpt lat="42.10447320363199" lon="12.154593081132921"><ele>300.0</ele><time>2026-04-21T09:21:27Z</time></trkpt><trkpt lat="42.10453238897331" lon="12.154382185189348"><ele>300.0</ele><time>2026-04-21T09:21:28Z</time></trkpt><trkpt lat="42.10459044852167" lon="12.154166731177428"><ele>301.0</ele><time>2026-04-21T09:21:29Z</time></trkpt><trkpt lat="42.10464312087944" lon="12.153960169719225"><ele>302.0</ele><time>2026-04-21T09:21:30Z</time></trkpt><trkpt lat="42.10469886634028" lon="12.153754765242866"><ele>303.0</ele><time>2026-04-21T09:21:31Z</time></trkpt><trkpt lat="42.10475296049042" lon="12.153538445667232"><ele>303.0</ele><time>2026-04-21T09:21:32.001Z</time></trkpt><trkpt lat="42.10481039184015" lon="12.153316782761364"><ele>303.0</ele><time>2026-04-21T09:21:33.001Z</time></trkpt><trkpt lat="42.10487006690211" lon="12.153086474876314"><ele>303.0</ele><time>2026-04-21T09:21:34.001Z</time></trkpt><trkpt lat="42.10493575697779" lon="12.152836595893959"><ele>304.5</ele><time>2026-04-21T09:21:35.001Z</time></trkpt><trkpt lat="42.10500896922842" lon="12.152566286357228"><ele>306.0</ele><time>2026-04-21T09:21:36.001Z</time></trkpt><trkpt lat="42.10509889421923" lon="12.152255027496606"><ele>307.6666666666667</ele><time>2026-04-21T09:21:37.001Z</time></trkpt><trkpt lat="42.10520971929153" lon="12.15200355554701"><ele>309.33333333333337</ele><time>2026-04-21T09:21:38.001Z</time></trkpt><trkpt lat="42.105318568933534" lon="12.15176783277523"><ele>311.0</ele><time>2026-04-21T09:21:39.001Z</time></trkpt><trkpt lat="42.10544479590173" lon="12.151554827532971"><ele>311.6666666666667</ele><time>2026-04-21T09:21:40.001Z</time></trkpt><trkpt lat="42.10558510182816" lon="12.15138260756563"><ele>312.3333333333333</ele><time>2026-04-21T09:21:41.001Z</time></trkpt><trkpt lat="42.105745904135205" lon="12.151252149542447"><ele>313.0</ele><time>2026-04-21T09:21:42.001Z</time></trkpt><trkpt lat="42.10592414132596" lon="12.151145220091992"><ele>313.66666666666663</ele><time>2026-04-21T09:21:43.001Z</time></trkpt><trkpt lat="42.106098503398464" lon="12.151032913279938"><ele>314.3333333333333</ele><time>2026-04-21T09:21:44.001Z</time></trkpt><trkpt lat="42.10627320969803" lon="12.150922673196114"><ele>315.0</ele><time>2026-04-21T09:21:45.001Z</time></trkpt><trkpt lat="42.10639775828098" lon="12.150737616046328"><ele>316.6666666666667</ele><time>2026-04-21T09:21:46.001Z</time></trkpt><trkpt lat="42.106501035809366" lon="12.150501778105765"><ele>318.33333333333337</ele><time>2026-04-21T09:21:47.001Z</time></trkpt><trkpt lat="42.10658125179638" lon="12.150246349250626"><ele>320.0</ele><time>2026-04-21T09:21:48.001Z</time></trkpt><trkpt lat="42.1066631140819" lon="12.149988122508605"><ele>321.0</ele><time>2026-04-21T09:21:49.001Z</time></trkpt><trkpt lat="42.10675548658505" lon="12.149701973434196"><ele>322.0</ele><time>2026-04-21T09:21:50.001Z</time></trkpt><trkpt lat="42.10684084700069" lon="12.14944462812017"><ele>323.0</ele><time>2026-04-21T09:21:51.001Z</time></trkpt><trkpt lat="42.10692458183258" lon="12.14922238235859"><ele>323.0</ele><time>2026-04-21T09:21:52.001Z</time></trkpt><trkpt lat="42.10700507562896" lon="12.148993309562703"><ele>323.0</ele><time>2026-04-21T09:21:53.001Z</time></trkpt><trkpt lat="42.107081653043196" lon="12.14876631239355"><ele>323.0</ele><time>2026-04-21T09:21:54.001Z</time></trkpt><trkpt lat="42.10714834898676" lon="12.14854916974774"><ele>323.0</ele><time>2026-04-21T09:21:55.001Z</time></trkpt><trkpt lat="42.10721335841921" lon="12.14831942467475"><ele>323.0</ele><time>2026-04-21T09:21:56.001Z</time></trkpt><trkpt lat="42.10726575649944" lon="12.148089362864757"><ele>323.0</ele><time>2026-04-21T09:21:57.001Z</time></trkpt><trkpt lat="42.10730805838107" lon="12.14784809334696"><ele>324.0</ele><time>2026-04-21T09:21:58.001Z</time></trkpt><trkpt lat="42.10733544763105" lon="12.147609653947928"><ele>325.0</ele><time>2026-04-21T09:21:59.001Z</time></trkpt><trkpt lat="42.10736007341446" lon="12.147368791244183"><ele>326.0</ele><time>2026-04-21T09:22:00.001Z</time></trkpt><trkpt lat="42.107387054225164" lon="12.147122831850405"><ele>328.33333333333337</ele><time>2026-04-21T09:22:01.001Z</time></trkpt><trkpt lat="42.10741086807373" lon="12.146889225074359"><ele>330.6666666666667</ele><time>2026-04-21T09:22:02.001Z</time></trkpt><trkpt lat="42.10743633098173" lon="12.146643423448754"><ele>333.0</ele><time>2026-04-21T09:22:03.001Z</time></trkpt><trkpt lat="42.10745958886224" lon="12.146411865125389"><ele>334.3333333333333</ele><time>2026-04-21T09:22:04.001Z</time></trkpt><trkpt lat="42.10748590343722" lon="12.14618939807277"><ele>335.66666666666663</ele><time>2026-04-21T09:22:05.001Z</time></trkpt><trkpt lat="42.10751349630344" lon="12.145962776944758"><ele>337.0</ele><time>2026-04-21T09:22:06.001Z</time></trkpt><trkpt lat="42.10754064411383" lon="12.14575110661399"><ele>338.66666666666663</ele><time>2026-04-21T09:22:07.001Z</time></trkpt><trkpt lat="42.107565379388056" lon="12.145536584763256"><ele>340.3333333333333</ele><time>2026-04-21T09:22:08.001Z</time></trkpt><trkpt lat="42.10761525759552" lon="12.145317782492597"><ele>342.0</ele><time>2026-04-21T09:22:09.001Z</time></trkpt><trkpt lat="42.10765683651341" lon="12.145107811763534"><ele>342.0</ele><time>2026-04-21T09:22:10.001Z</time></trkpt><trkpt lat="42.107704248631826" lon="12.144910007798648"><ele>342.0</ele><time>2026-04-21T09:22:11.001Z</time></trkpt><trkpt lat="42.107754398339374" lon="12.144722833351178"><ele>342.0</ele><time>2026-04-21T09:22:12.001Z</time></trkpt><trkpt lat="42.10779642824577" lon="12.144521031461123"><ele>341.6666666666667</ele><time>2026-04-21T09:22:13.001Z</time></trkpt><trkpt lat="42.10784866555143" lon="12.14432853254949"><ele>341.33333333333337</ele><time>2026-04-21T09:22:14.001Z</time></trkpt><trkpt lat="42.10789577309863" lon="12.14412422325347"><ele>341.0</ele><time>2026-04-21T09:22:15.001Z</time></trkpt><trkpt lat="42.107944316834484" lon="12.143900615245494"><ele>341.6666666666667</ele><time>2026-04-21T09:22:16.001Z</time></trkpt><trkpt lat="42.10798143773405" lon="12.14367238961055"><ele>342.3333333333333</ele><time>2026-04-21T09:22:17.001Z</time></trkpt><trkpt lat="42.10799740664532" lon="12.143448692996405"><ele>343.0</ele><time>2026-04-21T09:22:18.001Z</time></trkpt><trkpt lat="42.10800212442859" lon="12.143213126614427"><ele>345.0</ele><time>2026-04-21T09:22:19.001Z</time></trkpt><trkpt lat="42.107990230376444" lon="12.142963984789397"><ele>347.0</ele><time>2026-04-21T09:22:20.001Z</time></trkpt><trkpt lat="42.10798406464347" lon="12.142687277775874"><ele>349.0</ele><time>2026-04-21T09:22:21.001Z</time></trkpt><trkpt lat="42.1079703423065" lon="12.142420192358498"><ele>349.66666666666663</ele><time>2026-04-21T09:22:22.001Z</time></trkpt><trkpt lat="42.107961252991466" lon="12.142187410635582"><ele>350.3333333333333</ele><time>2026-04-21T09:22:23.001Z</time></trkpt><trkpt lat="42.10794549854008" lon="12.141956782980214"><ele>351.0</ele><time>2026-04-21T09:22:24.001Z</time></trkpt><trkpt lat="42.10791985624" lon="12.141698906160014"><ele>351.0</ele><time>2026-04-21T09:22:25.001Z</time></trkpt><trkpt lat="42.10790400447574" lon="12.141382532518854"><ele>351.0</ele><time>2026-04-21T09:22:26.001Z</time></trkpt><trkpt lat="42.107847572255366" lon="12.14107248494865"><ele>351.0</ele><time>2026-04-21T09:22:27.001Z</time></trkpt><trkpt lat="42.107792467368114" lon="12.140820976315325"><ele>351.0</ele><time>2026-04-21T09:22:28.001Z</time></trkpt><trkpt lat="42.10774764723742" lon="12.140614966394493"><ele>351.0</ele><time>2026-04-21T09:22:29.001Z</time></trkpt><trkpt lat="42.107712948740996" lon="12.140425848276442"><ele>351.5</ele><time>2026-04-21T09:22:30.001Z</time></trkpt><trkpt lat="42.107687596105755" lon="12.140250580977328"><ele>352.0</ele><time>2026-04-21T09:22:31.001Z</time></trkpt><trkpt lat="42.10767475016356" lon="12.14008274954496"><ele>352.5</ele><time>2026-04-21T09:22:32.001Z</time></trkpt><trkpt lat="42.107671221363205" lon="12.139902194342282"><ele>353.0</ele><time>2026-04-21T09:22:33.001Z</time></trkpt><trkpt lat="42.10767993585712" lon="12.13970686150052"><ele>353.75</ele><time>2026-04-21T09:22:34.001Z</time></trkpt><trkpt lat="42.107703854989566" lon="12.139519011020765"><ele>354.5</ele><time>2026-04-21T09:22:35.001Z</time></trkpt><trkpt lat="42.1077360286267" lon="12.139332847782029"><ele>355.25</ele><time>2026-04-21T09:22:36.001Z</time></trkpt><trkpt lat="42.10777735912358" lon="12.139155675363492"><ele>356.0</ele><time>2026-04-21T09:22:37.001Z</time></trkpt><trkpt lat="42.107825740051986" lon="12.138968159044826"><ele>356.25</ele><time>2026-04-21T09:22:38Z</time></trkpt><trkpt lat="42.107873679717045" lon="12.138787803997555"><ele>356.5</ele><time>2026-04-21T09:22:39Z</time></trkpt><trkpt lat="42.10792049710391" lon="12.138613709003415"><ele>356.75</ele><time>2026-04-21T09:22:40Z</time></trkpt><trkpt lat="42.107965969237775" lon="12.138445716748102"><ele>357.0</ele><time>2026-04-21T09:22:41Z</time></trkpt><trkpt lat="42.10800641819753" lon="12.138252319513693"><ele>357.25</ele><time>2026-04-21T09:22:42Z</time></trkpt><trkpt lat="42.10806929150742" lon="12.13809935259502"><ele>357.5</ele><time>2026-04-21T09:22:43Z</time></trkpt><trkpt lat="42.10812051764556" lon="12.137923339900745"><ele>357.75</ele><time>2026-04-21T09:22:44Z</time></trkpt><trkpt lat="42.10815204373295" lon="12.13773544649094"><ele>358.0</ele><time>2026-04-21T09:22:45Z</time></trkpt><trkpt lat="42.10818650801596" lon="12.137557058380125"><ele>356.3333333333333</ele><time>2026-04-21T09:22:46Z</time></trkpt><trkpt lat="42.108209920202775" lon="12.13736302829142"><ele>354.6666666666667</ele><time>2026-04-21T09:22:47Z</time></trkpt><trkpt lat="42.10821945803478" lon="12.137136812955855"><ele>353.0</ele><time>2026-04-21T09:22:48Z</time></trkpt><trkpt lat="42.10824412571116" lon="12.136892031206532"><ele>351.0</ele><time>2026-04-21T09:22:49Z</time></trkpt><trkpt lat="42.10825572058541" lon="12.136575480029638"><ele>349.0</ele><time>2026-04-21T09:22:50Z</time></trkpt><trkpt lat="42.108268864486064" lon="12.13621663892343"><ele>347.5</ele><time>2026-04-21T09:22:51Z</time></trkpt><trkpt lat="42.10828186346105" lon="12.135834773121537"><ele>346.0</ele><time>2026-04-21T09:22:52Z</time></trkpt><trkpt lat="42.10829501155555" lon="12.135493047263742"><ele>345.3333333333333</ele><time>2026-04-21T09:22:53Z</time></trkpt><trkpt lat="42.10831103695526" lon="12.135200808446694"><ele>344.6666666666667</ele><time>2026-04-21T09:22:54Z</time></trkpt><trkpt lat="42.108334650081154" lon="12.134965503654104"><ele>344.0</ele><time>2026-04-21T09:22:55Z</time></trkpt><trkpt lat="42.1083704284816" lon="12.134745458740264"><ele>344.0</ele><time>2026-04-21T09:22:56Z</time></trkpt><trkpt lat="42.108426057736764" lon="12.13453363403035"><ele>344.0</ele><time>2026-04-21T09:22:57Z</time></trkpt><trkpt lat="42.108503017841095" lon="12.13429988692991"><ele>344.0</ele><time>2026-04-21T09:22:58Z</time></trkpt><trkpt lat="42.10861058445162" lon="12.133997859206348"><ele>345.6666666666667</ele><time>2026-04-21T09:22:59Z</time></trkpt><trkpt lat="42.10870798968198" lon="12.1337178215552"><ele>347.3333333333333</ele><time>2026-04-21T09:23:00Z</time></trkpt><trkpt lat="42.108777728056296" lon="12.133481193637483"><ele>349.0</ele><time>2026-04-21T09:23:01Z</time></trkpt><trkpt lat="42.108836793815094" lon="12.133275905431889"><ele>352.0</ele><time>2026-04-21T09:23:02Z</time></trkpt><trkpt lat="42.10888052489173" lon="12.133067741464744"><ele>355.0</ele><time>2026-04-21T09:23:03Z</time></trkpt><trkpt lat="42.108919267149766" lon="12.132848029826008"><ele>358.0</ele><time>2026-04-21T09:23:04Z</time></trkpt><trkpt lat="42.10896236533469" lon="12.132555112760787"><ele>356.0</ele><time>2026-04-21T09:23:05Z</time></trkpt><trkpt lat="42.10900161719016" lon="12.132228450227984"><ele>354.0</ele><time>2026-04-21T09:23:06Z</time></trkpt><trkpt lat="42.10901115921247" lon="12.131941346754823"><ele>354.0</ele><time>2026-04-21T09:23:07Z</time></trkpt><trkpt lat="42.10900760748439" lon="12.131682818728546"><ele>354.0</ele><time>2026-04-21T09:23:08Z</time></trkpt><trkpt lat="42.1090165077951" lon="12.131451847683895"><ele>354.0</ele><time>2026-04-21T09:23:09Z</time></trkpt><trkpt lat="42.10901713257" lon="12.131224335251002"><ele>352.6666666666667</ele><time>2026-04-21T09:23:10Z</time></trkpt><trkpt lat="42.10902143128938" lon="12.131005396842838"><ele>351.33333333333337</ele><time>2026-04-21T09:23:11Z</time></trkpt><trkpt lat="42.109032375569214" lon="12.13078791312707"><ele>350.0</ele><time>2026-04-21T09:23:12Z</time></trkpt><trkpt lat="42.1090352215062" lon="12.130587254685258"><ele>349.6666666666667</ele><time>2026-04-21T09:23:13Z</time></trkpt><trkpt lat="42.10906544622443" lon="12.130380129805912"><ele>349.3333333333333</ele><time>2026-04-21T09:23:14Z</time></trkpt><trkpt lat="42.10909782379206" lon="12.130176603838528"><ele>349.0</ele><time>2026-04-21T09:23:15Z</time></trkpt><trkpt lat="42.10913802632155" lon="12.129946134790353"><ele>351.0</ele><time>2026-04-21T09:23:16Z</time></trkpt><trkpt lat="42.109198497707965" lon="12.129672727355292"><ele>353.0</ele><time>2026-04-21T09:23:17Z</time></trkpt><trkpt lat="42.109297590427126" lon="12.129415920476138"><ele>355.0</ele><time>2026-04-21T09:23:18Z</time></trkpt><trkpt lat="42.10937936943253" lon="12.129188210173798"><ele>354.3333333333333</ele><time>2026-04-21T09:23:19Z</time></trkpt><trkpt lat="42.10946099286964" lon="12.128974169219262"><ele>353.6666666666667</ele><time>2026-04-21T09:23:20Z</time></trkpt><trkpt lat="42.109538499490455" lon="12.12875550230077"><ele>353.0</ele><time>2026-04-21T09:23:21Z</time></trkpt><trkpt lat="42.10964036969036" lon="12.128547720657998"><ele>353.0</ele><time>2026-04-21T09:23:22Z</time></trkpt><trkpt lat="42.10976436314944" lon="12.128353086646465"><ele>353.0</ele><time>2026-04-21T09:23:23Z</time></trkpt><trkpt lat="42.109911294315886" lon="12.128122733449395"><ele>353.0</ele><time>2026-04-21T09:23:24Z</time></trkpt><trkpt lat="42.110059266729245" lon="12.127888629225765"><ele>351.33333333333337</ele><time>2026-04-21T09:23:25Z</time></trkpt><trkpt lat="42.110227405415905" lon="12.127700512232868"><ele>349.6666666666667</ele><time>2026-04-21T09:23:26Z</time></trkpt><trkpt lat="42.11039174341996" lon="12.127528709555342"><ele>348.0</ele><time>2026-04-21T09:23:27Z</time></trkpt><trkpt lat="42.110551855773046" lon="12.1273693359004"><ele>347.3333333333333</ele><time>2026-04-21T09:23:28Z</time></trkpt><trkpt lat="42.110717505346784" lon="12.12722186079124"><ele>346.66666666666663</ele><time>2026-04-21T09:23:29Z</time></trkpt><trkpt lat="42.11087998621653" lon="12.127081121193013"><ele>346.0</ele><time>2026-04-21T09:23:30Z</time></trkpt><trkpt lat="42.11104857664129" lon="12.126926380460528"><ele>346.0</ele><time>2026-04-21T09:23:31Z</time></trkpt><trkpt lat="42.11122484610593" lon="12.126771757923164"><ele>346.0</ele><time>2026-04-21T09:23:32Z</time></trkpt><trkpt lat="42.11139448195745" lon="12.126624939564264"><ele>346.0</ele><time>2026-04-21T09:23:33Z</time></trkpt><trkpt lat="42.1115630364632" lon="12.126478897590156"><ele>349.0</ele><time>2026-04-21T09:23:34Z</time></trkpt><trkpt lat="42.111738203768674" lon="12.126327603146136"><ele>352.0</ele><time>2026-04-21T09:23:35Z</time></trkpt><trkpt lat="42.111923355949486" lon="12.126164202808276"><ele>355.0</ele><time>2026-04-21T09:23:36Z</time></trkpt><trkpt lat="42.1121104578913" lon="12.126007593380937"><ele>355.0</ele><time>2026-04-21T09:23:37Z</time></trkpt><trkpt lat="42.11227965528789" lon="12.125861262448346"><ele>355.0</ele><time>2026-04-21T09:23:38Z</time></trkpt><trkpt lat="42.112436567303604" lon="12.125718786115774"><ele>355.0</ele><time>2026-04-21T09:23:39Z</time></trkpt><trkpt lat="42.11258406892955" lon="12.125586304135531"><ele>351.3333333333333</ele><time>2026-04-21T09:23:40Z</time></trkpt><trkpt lat="42.11273272262376" lon="12.12545948145042"><ele>347.6666666666667</ele><time>2026-04-21T09:23:41Z</time></trkpt><trkpt lat="42.112878243371455" lon="12.125338485076174"><ele>344.0</ele><time>2026-04-21T09:23:42Z</time></trkpt><trkpt lat="42.113021932662754" lon="12.125212484055512"><ele>344.0</ele><time>2026-04-21T09:23:43Z</time></trkpt><trkpt lat="42.1131600960177" lon="12.125088531253006"><ele>344.0</ele><time>2026-04-21T09:23:44Z</time></trkpt><trkpt lat="42.11330876321533" lon="12.124959531007299"><ele>344.0</ele><time>2026-04-21T09:23:45Z</time></trkpt><trkpt lat="42.113468978975106" lon="12.124834339928102"><ele>340.0</ele><time>2026-04-21T09:23:46Z</time></trkpt><trkpt lat="42.11364718143489" lon="12.124715993287843"><ele>336.0</ele><time>2026-04-21T09:23:47.001Z</time></trkpt><trkpt lat="42.11383733396988" lon="12.124612261789524"><ele>332.0</ele><time>2026-04-21T09:23:48.001Z</time></trkpt><trkpt lat="42.114038885924295" lon="12.12455164845627"><ele>332.33333333333337</ele><time>2026-04-21T09:23:49.001Z</time></trkpt><trkpt lat="42.11424524073711" lon="12.124513178646737"><ele>332.6666666666667</ele><time>2026-04-21T09:23:50.001Z</time></trkpt><trkpt lat="42.114459522737064" lon="12.124505915615599"><ele>333.0</ele><time>2026-04-21T09:23:51.001Z</time></trkpt><trkpt lat="42.114669671391184" lon="12.124533072620839"><ele>333.0</ele><time>2026-04-21T09:23:52.001Z</time></trkpt><trkpt lat="42.11487766494557" lon="12.124593113050691"><ele>333.0</ele><time>2026-04-21T09:23:53.001Z</time></trkpt><trkpt lat="42.11508332096368" lon="12.124661246083422"><ele>333.0</ele><time>2026-04-21T09:23:54.001Z</time></trkpt><trkpt lat="42.115291130797" lon="12.124727782054778"><ele>332.6666666666667</ele><time>2026-04-21T09:23:55.001Z</time></trkpt><trkpt lat="42.11547528847091" lon="12.12476696918094"><ele>332.33333333333337</ele><time>2026-04-21T09:23:56.001Z</time></trkpt><trkpt lat="42.115662984528264" lon="12.124817126753157"><ele>332.0</ele><time>2026-04-21T09:23:57.001Z</time></trkpt><trkpt lat="42.11585733404981" lon="12.124876451791396"><ele>332.6666666666667</ele><time>2026-04-21T09:23:58.001Z</time></trkpt><trkpt lat="42.11605182740199" lon="12.124934100138862"><ele>333.3333333333333</ele><time>2026-04-21T09:23:59.001Z</time></trkpt><trkpt lat="42.11624995242672" lon="12.124990202411553"><ele>334.0</ele><time>2026-04-21T09:24:00.001Z</time></trkpt><trkpt lat="42.116448510500604" lon="12.125041626315202"><ele>335.3333333333333</ele><time>2026-04-21T09:24:01.001Z</time></trkpt><trkpt lat="42.11664235705178" lon="12.125093754002412"><ele>336.6666666666667</ele><time>2026-04-21T09:24:02.001Z</time></trkpt><trkpt lat="42.11682210408393" lon="12.125144511098167"><ele>338.0</ele><time>2026-04-21T09:24:03.001Z</time></trkpt><trkpt lat="42.116992148744146" lon="12.125192904783821"><ele>338.0</ele><time>2026-04-21T09:24:04.001Z</time></trkpt><trkpt lat="42.11715187477969" lon="12.125234460212612"><ele>338.0</ele><time>2026-04-21T09:24:05.001Z</time></trkpt><trkpt lat="42.11731929395978" lon="12.125280244626685"><ele>338.0</ele><time>2026-04-21T09:24:06.001Z</time></trkpt><trkpt lat="42.11749124423262" lon="12.125327288243586"><ele>341.33333333333337</ele><time>2026-04-21T09:24:07.001Z</time></trkpt><trkpt lat="42.117665425648084" lon="12.125374506444137"><ele>344.6666666666667</ele><time>2026-04-21T09:24:08.001Z</time></trkpt><trkpt lat="42.1178373693828" lon="12.125421972913264"><ele>348.0</ele><time>2026-04-21T09:24:09.001Z</time></trkpt><trkpt lat="42.1180094072489" lon="12.125467974978477"><ele>348.0</ele><time>2026-04-21T09:24:10.001Z</time></trkpt><trkpt lat="42.118188892442966" lon="12.12551561560587"><ele>348.0</ele><time>2026-04-21T09:24:11.001Z</time></trkpt><trkpt lat="42.118379825874214" lon="12.125569061382965"><ele>348.0</ele><time>2026-04-21T09:24:12.001Z</time></trkpt><trkpt lat="42.118566349445395" lon="12.12562662981609"><ele>349.6666666666667</ele><time>2026-04-21T09:24:13.001Z</time></trkpt><trkpt lat="42.11874032451464" lon="12.125674679570958"><ele>351.33333333333337</ele><time>2026-04-21T09:24:14.001Z</time></trkpt><trkpt lat="42.11890200485747" lon="12.125720242090498"><ele>353.0</ele><time>2026-04-21T09:24:15.001Z</time></trkpt><trkpt lat="42.11905085352361" lon="12.125758207844946"><ele>352.0</ele><time>2026-04-21T09:24:16.001Z</time></trkpt><trkpt lat="42.119193949269146" lon="12.125795280618174"><ele>351.0</ele><time>2026-04-21T09:24:17.001Z</time></trkpt><trkpt lat="42.11932319666569" lon="12.12583311315665"><ele>350.0</ele><time>2026-04-21T09:24:18.001Z</time></trkpt><trkpt lat="42.1194591622381" lon="12.125870413025211"><ele>349.0</ele><time>2026-04-21T09:24:19.001Z</time></trkpt><trkpt lat="42.11960511017286" lon="12.125905585357314"><ele>349.0</ele><time>2026-04-21T09:24:20.001Z</time></trkpt><trkpt lat="42.11973892331589" lon="12.12593979364803"><ele>349.0</ele><time>2026-04-21T09:24:21.001Z</time></trkpt><trkpt lat="42.11986431176745" lon="12.125970388913473"><ele>349.0</ele><time>2026-04-21T09:24:22.001Z</time></trkpt><trkpt lat="42.119976672262005" lon="12.126003173558942"><ele>349.0</ele><time>2026-04-21T09:24:23.001Z</time></trkpt><trkpt lat="42.12007925180713" lon="12.126019011085374"><ele>349.8333333333333</ele><time>2026-04-21T09:24:24.001Z</time></trkpt><trkpt lat="42.12017005020025" lon="12.126024801460503"><ele>350.66666666666663</ele><time>2026-04-21T09:24:25.001Z</time></trkpt><trkpt lat="42.12025421980197" lon="12.126034311503721"><ele>351.5</ele><time>2026-04-21T09:24:26.001Z</time></trkpt><trkpt lat="42.120332192378626" lon="12.126042484533322"><ele>352.3333333333333</ele><time>2026-04-21T09:24:27.001Z</time></trkpt><trkpt lat="42.12039963391853" lon="12.12604879510642"><ele>353.1666666666667</ele><time>2026-04-21T09:24:28.001Z</time></trkpt><trkpt lat="42.12052517820964" lon="12.12606087721539"><ele>354.0</ele><time>2026-04-21T09:24:30.001Z</time></trkpt><trkpt lat="42.12059227151086" lon="12.126082825756777"><ele>354.0</ele><time>2026-04-21T09:24:31.001Z</time></trkpt><trkpt lat="42.12065309171613" lon="12.126121794150638"><ele>354.0</ele><time>2026-04-21T09:24:32.001Z</time></trkpt><trkpt lat="42.120716269739624" lon="12.126160001759862"><ele>354.0</ele><time>2026-04-21T09:24:33.001Z</time></trkpt><trkpt lat="42.120835918553546" lon="12.126094362469306"><ele>354.0</ele><time>2026-04-21T09:24:35.001Z</time></trkpt><trkpt lat="42.120856472568164" lon="12.125992567894825"><ele>354.0</ele><time>2026-04-21T09:24:36.001Z</time></trkpt><trkpt lat="42.12087128727178" lon="12.125902265542964"><ele>354.0</ele><time>2026-04-21T09:24:37.001Z</time></trkpt><trkpt lat="42.12091577076973" lon="12.125828579200356"><ele>354.4</ele><time>2026-04-21T09:24:38.001Z</time></trkpt><trkpt lat="42.12097836125412" lon="12.125761978066901"><ele>354.79999999999995</ele><time>2026-04-21T09:24:39.001Z</time></trkpt><trkpt lat="42.121041862882635" lon="12.125691225461665"><ele>355.20000000000005</ele><time>2026-04-21T09:24:40.001Z</time></trkpt><trkpt lat="42.12111669929564" lon="12.125604166612137"><ele>355.6</ele><time>2026-04-21T09:24:41.001Z</time></trkpt><trkpt lat="42.121217994341905" lon="12.125471890689301"><ele>356.0</ele><time>2026-04-21T09:24:42.001Z</time></trkpt><trkpt lat="42.121319924884006" lon="12.125336285800953"><ele>355.25</ele><time>2026-04-21T09:24:43.001Z</time></trkpt><trkpt lat="42.12141255680548" lon="12.125222133433502"><ele>354.5</ele><time>2026-04-21T09:24:44Z</time></trkpt><trkpt lat="42.1215188295602" lon="12.125080886216923"><ele>353.75</ele><time>2026-04-21T09:24:45Z</time></trkpt><trkpt lat="42.12161992719198" lon="12.124946717711229"><ele>353.0</ele><time>2026-04-21T09:24:46Z</time></trkpt><trkpt lat="42.121746864627305" lon="12.124760096181985"><ele>358.0</ele><time>2026-04-21T09:24:47Z</time></trkpt><trkpt lat="42.1218857338004" lon="12.124589650300885"><ele>363.0</ele><time>2026-04-21T09:24:48Z</time></trkpt><trkpt lat="42.12200198805155" lon="12.124439674811317"><ele>368.0</ele><time>2026-04-21T09:24:49Z</time></trkpt><trkpt lat="42.12211804033041" lon="12.124291291724141"><ele>368.0</ele><time>2026-04-21T09:24:50Z</time></trkpt><trkpt lat="42.122227616675794" lon="12.124132718291527"><ele>368.0</ele><time>2026-04-21T09:24:51Z</time></trkpt><trkpt lat="42.12234427840653" lon="12.123964582831153"><ele>368.0</ele><time>2026-04-21T09:24:52Z</time></trkpt><trkpt lat="42.122468170602374" lon="12.1237929061076"><ele>368.6666666666667</ele><time>2026-04-21T09:24:53Z</time></trkpt><trkpt lat="42.122592810537526" lon="12.123632788751936"><ele>369.3333333333333</ele><time>2026-04-21T09:24:54Z</time></trkpt><trkpt lat="42.12272564256336" lon="12.123485338965136"><ele>370.0</ele><time>2026-04-21T09:24:55Z</time></trkpt><trkpt lat="42.1228711684793" lon="12.123348889428923"><ele>369.3333333333333</ele><time>2026-04-21T09:24:56Z</time></trkpt><trkpt lat="42.12303626268629" lon="12.123229681826324"><ele>368.6666666666667</ele><time>2026-04-21T09:24:57Z</time></trkpt><trkpt lat="42.123200173485046" lon="12.123118402196614"><ele>368.0</ele><time>2026-04-21T09:24:58Z</time></trkpt><trkpt lat="42.12336658845243" lon="12.123033111098119"><ele>368.0</ele><time>2026-04-21T09:24:59Z</time></trkpt><trkpt lat="42.12352748661041" lon="12.122979926490265"><ele>368.0</ele><time>2026-04-21T09:25:00Z</time></trkpt><trkpt lat="42.12368965085827" lon="12.122943846566656"><ele>368.0</ele><time>2026-04-21T09:25:01Z</time></trkpt><trkpt lat="42.1238677507768" lon="12.122950439955066"><ele>368.0</ele><time>2026-04-21T09:25:02Z</time></trkpt><trkpt lat="42.124033936400906" lon="12.122986674562432"><ele>368.0</ele><time>2026-04-21T09:25:03Z</time></trkpt><trkpt lat="42.12419752644917" lon="12.123053129904699"><ele>368.0</ele><time>2026-04-21T09:25:04Z</time></trkpt><trkpt lat="42.12434715717154" lon="12.123135471549313"><ele>365.33333333333337</ele><time>2026-04-21T09:25:05Z</time></trkpt><trkpt lat="42.12448822665089" lon="12.123245940749328"><ele>362.6666666666667</ele><time>2026-04-21T09:25:06Z</time></trkpt><trkpt lat="42.124659505055185" lon="12.123142300508636"><ele>360.0</ele><time>2026-04-21T09:25:07Z</time></trkpt><trkpt lat="42.12477818318153" lon="12.123225480449356"><ele>359.5</ele><time>2026-04-21T09:25:08Z</time></trkpt><trkpt lat="42.12488251759409" lon="12.123301817531324"><ele>359.0</ele><time>2026-04-21T09:25:09Z</time></trkpt><trkpt lat="42.12498137706184" lon="12.123374326824877"><ele>358.5</ele><time>2026-04-21T09:25:10Z</time></trkpt><trkpt lat="42.12508462246242" lon="12.123439721928452"><ele>358.0</ele><time>2026-04-21T09:25:11Z</time></trkpt><trkpt lat="42.125187955106625" lon="12.123501258864074"><ele>357.4</ele><time>2026-04-21T09:25:12Z</time></trkpt><trkpt lat="42.12528951865291" lon="12.123564367084182"><ele>356.79999999999995</ele><time>2026-04-21T09:25:13Z</time></trkpt><trkpt lat="42.12539498331809" lon="12.123633394188877"><ele>356.2</ele><time>2026-04-21T09:25:14Z</time></trkpt><trkpt lat="42.12549165821221" lon="12.123702835621593"><ele>355.6</ele><time>2026-04-21T09:25:15Z</time></trkpt><trkpt lat="42.12558007151663" lon="12.123765494168337"><ele>355.0</ele><time>2026-04-21T09:25:16.001Z</time></trkpt><trkpt lat="42.125654169406886" lon="12.123823651680462"><ele>355.0</ele><time>2026-04-21T09:25:17.001Z</time></trkpt><trkpt lat="42.1257197652178" lon="12.123880367864816"><ele>355.0</ele><time>2026-04-21T09:25:19.001Z</time></trkpt><trkpt lat="42.12578371065548" lon="12.123952042995798"><ele>355.0</ele><time>2026-04-21T09:25:23.001Z</time></trkpt><trkpt lat="42.12587436004135" lon="12.124062089127852"><ele>355.0</ele><time>2026-04-21T09:25:25.001Z</time></trkpt><trkpt lat="42.12595965899034" lon="12.12413702522581"><ele>355.0</ele><time>2026-04-21T09:25:26.001Z</time></trkpt><trkpt lat="42.12604425381681" lon="12.124220307191194"><ele>355.0</ele><time>2026-04-21T09:25:27.001Z</time></trkpt><trkpt lat="42.12612043497011" lon="12.12428777231573"><ele>355.0</ele><time>2026-04-21T09:25:28.001Z</time></trkpt><trkpt lat="42.12622125491441" lon="12.124383884576549"><ele>355.0</ele><time>2026-04-21T09:25:29.001Z</time></trkpt><trkpt lat="42.12633038574351" lon="12.124498733005755"><ele>355.0</ele><time>2026-04-21T09:25:30.001Z</time></trkpt><trkpt lat="42.12648440618563" lon="12.124643379916774"><ele>355.0</ele><time>2026-04-21T09:25:31.001Z</time></trkpt><trkpt lat="42.12662728376838" lon="12.124802945987884"><ele>355.0</ele><time>2026-04-21T09:25:32.001Z</time></trkpt><trkpt lat="42.12675335793705" lon="12.124932452710361"><ele>355.0</ele><time>2026-04-21T09:25:33.001Z</time></trkpt><trkpt lat="42.1268846257772" lon="12.125075145083153"><ele>355.0</ele><time>2026-04-21T09:25:34.001Z</time></trkpt><trkpt lat="42.12702498408046" lon="12.125213832125949"><ele>355.0</ele><time>2026-04-21T09:25:35.001Z</time></trkpt><trkpt lat="42.12717690500558" lon="12.125369165768245"><ele>355.0</ele><time>2026-04-21T09:25:36.001Z</time></trkpt><trkpt lat="42.12731769430334" lon="12.125511837883481"><ele>354.66666666666663</ele><time>2026-04-21T09:25:37.001Z</time></trkpt><trkpt lat="42.127451300638185" lon="12.125649578185442"><ele>354.3333333333333</ele><time>2026-04-21T09:25:38.001Z</time></trkpt><trkpt lat="42.127589712348545" lon="12.125797215380452"><ele>354.0</ele><time>2026-04-21T09:25:39.001Z</time></trkpt><trkpt lat="42.1277248999521" lon="12.12593008256808"><ele>354.0</ele><time>2026-04-21T09:25:40.001Z</time></trkpt><trkpt lat="42.127845247502734" lon="12.126049504019445"><ele>354.0</ele><time>2026-04-21T09:25:41.001Z</time></trkpt><trkpt lat="42.12797235818943" lon="12.12616746373113"><ele>354.0</ele><time>2026-04-21T09:25:42.001Z</time></trkpt><trkpt lat="42.12810670831846" lon="12.126271043804282"><ele>354.5</ele><time>2026-04-21T09:25:43.001Z</time></trkpt><trkpt lat="42.128244056938684" lon="12.126347206719398"><ele>355.0</ele><time>2026-04-21T09:25:44.001Z</time></trkpt><trkpt lat="42.128383209337834" lon="12.126405157174045"><ele>355.5</ele><time>2026-04-21T09:25:45.001Z</time></trkpt><trkpt lat="42.12852837740448" lon="12.12644376971387"><ele>356.0</ele><time>2026-04-21T09:25:46.001Z</time></trkpt><trkpt lat="42.128668470870664" lon="12.126492587392748"><ele>356.0</ele><time>2026-04-21T09:25:47.001Z</time></trkpt><trkpt lat="42.128792950254415" lon="12.126537013859329"><ele>356.0</ele><time>2026-04-21T09:25:48.001Z</time></trkpt><trkpt lat="42.12890990620155" lon="12.126580693238079"><ele>356.0</ele><time>2026-04-21T09:25:49.001Z</time></trkpt><trkpt lat="42.12903172686" lon="12.126620993280802"><ele>356.0</ele><time>2026-04-21T09:25:50.001Z</time></trkpt><trkpt lat="42.129154075496096" lon="12.126665828192202"><ele>357.0</ele><time>2026-04-21T09:25:51.001Z</time></trkpt><trkpt lat="42.12928210061491" lon="12.126714704047721"><ele>358.0</ele><time>2026-04-21T09:25:52.001Z</time></trkpt><trkpt lat="42.12941177248973" lon="12.126759765343273"><ele>359.0</ele><time>2026-04-21T09:25:53.001Z</time></trkpt><trkpt lat="42.129544990967744" lon="12.126796532385349"><ele>360.0</ele><time>2026-04-21T09:25:54.001Z</time></trkpt><trkpt lat="42.129680392675276" lon="12.12682269442249"><ele>360.0</ele><time>2026-04-21T09:25:55.001Z</time></trkpt><trkpt lat="42.12980602937729" lon="12.12683267766906"><ele>360.0</ele><time>2026-04-21T09:25:56.001Z</time></trkpt><trkpt lat="42.12993958766304" lon="12.126840113397716"><ele>360.0</ele><time>2026-04-21T09:25:57.001Z</time></trkpt><trkpt lat="42.13007212528225" lon="12.126833417735435"><ele>360.0</ele><time>2026-04-21T09:25:58.001Z</time></trkpt><trkpt lat="42.13020424318004" lon="12.126817143419187"><ele>360.75</ele><time>2026-04-21T09:25:59.001Z</time></trkpt><trkpt lat="42.13032655081543" lon="12.12679366488139"><ele>361.5</ele><time>2026-04-21T09:26:00.001Z</time></trkpt><trkpt lat="42.13045963303346" lon="12.1267708899527"><ele>362.25</ele><time>2026-04-21T09:26:01.001Z</time></trkpt><trkpt lat="42.130578818712465" lon="12.126762354846429"><ele>363.0</ele><time>2026-04-21T09:26:02.001Z</time></trkpt><trkpt lat="42.13069195841126" lon="12.126757884776811"><ele>363.4</ele><time>2026-04-21T09:26:03.001Z</time></trkpt><trkpt lat="42.130815329589254" lon="12.126740200199077"><ele>363.79999999999995</ele><time>2026-04-21T09:26:04.001Z</time></trkpt><trkpt lat="42.130929081266956" lon="12.126725776081317"><ele>364.2</ele><time>2026-04-21T09:26:05.001Z</time></trkpt><trkpt lat="42.131030442475875" lon="12.12671146246789"><ele>364.6</ele><time>2026-04-21T09:26:06.001Z</time></trkpt><trkpt lat="42.13112507817136" lon="12.126698481055449"><ele>365.0</ele><time>2026-04-21T09:26:07.001Z</time></trkpt><trkpt lat="42.13121884953596" lon="12.126684075161432"><ele>365.0</ele><time>2026-04-21T09:26:08.001Z</time></trkpt><trkpt lat="42.13129804216201" lon="12.126670713006158"><ele>365.0</ele><time>2026-04-21T09:26:09.001Z</time></trkpt><trkpt lat="42.131373862501164" lon="12.126663153055638"><ele>365.0</ele><time>2026-04-21T09:26:10.001Z</time></trkpt><trkpt lat="42.13144330479843" lon="12.126654115932512"><ele>365.0</ele><time>2026-04-21T09:26:11.001Z</time></trkpt><trkpt lat="42.13150670364599" lon="12.126644098794323"><ele>365.0</ele><time>2026-04-21T09:26:12.001Z</time></trkpt><trkpt lat="42.13160472641858" lon="12.126625655564485"><ele>365.0</ele><time>2026-04-21T09:26:14.001Z</time></trkpt><trkpt lat="42.131678132105684" lon="12.12662120409624"><ele>365.6</ele><time>2026-04-21T09:26:56.001Z</time></trkpt><trkpt lat="42.131767054930734" lon="12.126604930704714"><ele>366.2</ele><time>2026-04-21T09:26:59.001Z</time></trkpt><trkpt lat="42.13182881464381" lon="12.126579577039958"><ele>366.79999999999995</ele><time>2026-04-21T09:27:02.001Z</time></trkpt><trkpt lat="42.13191225729545" lon="12.126492430927192"><ele>367.4</ele><time>2026-04-21T09:27:05.001Z</time></trkpt><trkpt lat="42.13197129264501" lon="12.12635728518824"><ele>368.0</ele><time>2026-04-21T09:27:07.001Z</time></trkpt><trkpt lat="42.13200922415319" lon="12.126253963467727"><ele>368.0</ele><time>2026-04-21T09:27:08.001Z</time></trkpt><trkpt lat="42.132046300459635" lon="12.126153916634367"><ele>368.0</ele><time>2026-04-21T09:27:09.001Z</time></trkpt><trkpt lat="42.132081171674955" lon="12.126045807000635"><ele>368.0</ele><time>2026-04-21T09:27:10.001Z</time></trkpt><trkpt lat="42.13212540205793" lon="12.125926763388431"><ele>368.0</ele><time>2026-04-21T09:27:11.001Z</time></trkpt><trkpt lat="42.13216686905721" lon="12.125810520906038"><ele>368.0</ele><time>2026-04-21T09:27:12.001Z</time></trkpt><trkpt lat="42.13221281452166" lon="12.125697979578446"><ele>367.0</ele><time>2026-04-21T09:27:13.001Z</time></trkpt><trkpt lat="42.132252507410804" lon="12.125585553781738"><ele>366.0</ele><time>2026-04-21T09:27:14.001Z</time></trkpt><trkpt lat="42.132307988883966" lon="12.125446072058471"><ele>365.0</ele><time>2026-04-21T09:27:15.001Z</time></trkpt><trkpt lat="42.13236503725363" lon="12.12528789521473"><ele>364.0</ele><time>2026-04-21T09:27:16.001Z</time></trkpt><trkpt lat="42.13241489531772" lon="12.125153054334152"><ele>364.0</ele><time>2026-04-21T09:27:17.001Z</time></trkpt><trkpt lat="42.132463379292126" lon="12.125018368039902"><ele>364.0</ele><time>2026-04-21T09:27:18.001Z</time></trkpt><trkpt lat="42.13251543080036" lon="12.124856669203867"><ele>364.0</ele><time>2026-04-21T09:27:19.001Z</time></trkpt><trkpt lat="42.13258083574068" lon="12.124697750005657"><ele>364.0</ele><time>2026-04-21T09:27:20.001Z</time></trkpt><trkpt lat="42.13264077972309" lon="12.12452708333405"><ele>364.25</ele><time>2026-04-21T09:27:21.001Z</time></trkpt><trkpt lat="42.13270164006877" lon="12.124353885031638"><ele>364.5</ele><time>2026-04-21T09:27:22.001Z</time></trkpt><trkpt lat="42.132755445198256" lon="12.124187932369376"><ele>364.75</ele><time>2026-04-21T09:27:23.001Z</time></trkpt><trkpt lat="42.13280073525128" lon="12.124012315301472"><ele>365.0</ele><time>2026-04-21T09:27:24.001Z</time></trkpt><trkpt lat="42.132818366433945" lon="12.123819549368994"><ele>365.0</ele><time>2026-04-21T09:27:25.001Z</time></trkpt><trkpt lat="42.132802497655966" lon="12.123607619840845"><ele>365.0</ele><time>2026-04-21T09:27:26.001Z</time></trkpt><trkpt lat="42.132752962852265" lon="12.123389278981328"><ele>365.0</ele><time>2026-04-21T09:27:27.001Z</time></trkpt><trkpt lat="42.13266905655381" lon="12.123190960794256"><ele>364.6666666666667</ele><time>2026-04-21T09:27:28.001Z</time></trkpt><trkpt lat="42.13256715182217" lon="12.122989640634382"><ele>364.3333333333333</ele><time>2026-04-21T09:27:29.001Z</time></trkpt><trkpt lat="42.13243345709453" lon="12.122721094055334"><ele>364.0</ele><time>2026-04-21T09:27:30.001Z</time></trkpt><trkpt lat="42.132296114724745" lon="12.12244691301756"><ele>366.66666666666663</ele><time>2026-04-21T09:27:31.001Z</time></trkpt><trkpt lat="42.13218595888531" lon="12.12221838900747"><ele>369.3333333333333</ele><time>2026-04-21T09:27:32.001Z</time></trkpt><trkpt lat="42.13209913843164" lon="12.122026421495042"><ele>372.0</ele><time>2026-04-21T09:27:33.001Z</time></trkpt><trkpt lat="42.132010100423656" lon="12.12185602065499"><ele>372.0</ele><time>2026-04-21T09:27:34.001Z</time></trkpt><trkpt lat="42.1319320137233" lon="12.121694737415371"><ele>372.0</ele><time>2026-04-21T09:27:35.001Z</time></trkpt><trkpt lat="42.13186653230521" lon="12.121548830529965"><ele>372.0</ele><time>2026-04-21T09:27:36.001Z</time></trkpt><trkpt lat="42.131803436756734" lon="12.121422249936762"><ele>372.0</ele><time>2026-04-21T09:27:37.001Z</time></trkpt><trkpt lat="42.131754016559675" lon="12.121287928612588"><ele>372.25</ele><time>2026-04-21T09:27:38.001Z</time></trkpt><trkpt lat="42.13171369000861" lon="12.121151603486176"><ele>372.5</ele><time>2026-04-21T09:27:39.001Z</time></trkpt><trkpt lat="42.13170663327697" lon="12.120989626554413"><ele>372.75</ele><time>2026-04-21T09:27:40.001Z</time></trkpt><trkpt lat="42.13171530800146" lon="12.120814099525338"><ele>373.0</ele><time>2026-04-21T09:27:41.001Z</time></trkpt><trkpt lat="42.13173265720602" lon="12.120618974338232"><ele>373.0</ele><time>2026-04-21T09:27:42.001Z</time></trkpt><trkpt lat="42.131757292461934" lon="12.12039536058302"><ele>373.0</ele><time>2026-04-21T09:27:43.001Z</time></trkpt><trkpt lat="42.13175960150712" lon="12.120192317299585"><ele>373.0</ele><time>2026-04-21T09:27:44.001Z</time></trkpt><trkpt lat="42.13177004986843" lon="12.120011714204091"><ele>373.0</ele><time>2026-04-21T09:27:45.001Z</time></trkpt><trkpt lat="42.13178927818509" lon="12.119835945391205"><ele>373.0</ele><time>2026-04-21T09:27:46.001Z</time></trkpt><trkpt lat="42.131813247244864" lon="12.119645023380324"><ele>373.0</ele><time>2026-04-21T09:27:47.001Z</time></trkpt><trkpt lat="42.131849281439955" lon="12.119435886467866"><ele>373.0</ele><time>2026-04-21T09:27:48.001Z</time></trkpt><trkpt lat="42.13189712853816" lon="12.119209575490581"><ele>371.0</ele><time>2026-04-21T09:27:49.001Z</time></trkpt><trkpt lat="42.1319634865579" lon="12.118958167863086"><ele>369.0</ele><time>2026-04-21T09:27:50.001Z</time></trkpt><trkpt lat="42.132025567412654" lon="12.118728236993778"><ele>367.0</ele><time>2026-04-21T09:27:51.001Z</time></trkpt><trkpt lat="42.13208159988949" lon="12.118501712649055"><ele>367.0</ele><time>2026-04-21T09:27:52.001Z</time></trkpt><trkpt lat="42.13214129645787" lon="12.118268060531287"><ele>367.0</ele><time>2026-04-21T09:27:53.001Z</time></trkpt><trkpt lat="42.13220901717742" lon="12.118032469839415"><ele>367.0</ele><time>2026-04-21T09:27:54.001Z</time></trkpt><trkpt lat="42.13226346974897" lon="12.11782459721756"><ele>365.0</ele><time>2026-04-21T09:27:55.001Z</time></trkpt><trkpt lat="42.132318337143865" lon="12.117628926824203"><ele>363.0</ele><time>2026-04-21T09:27:56.001Z</time></trkpt><trkpt lat="42.13235983284245" lon="12.117417516848803"><ele>361.0</ele><time>2026-04-21T09:27:57.001Z</time></trkpt><trkpt lat="42.132379594252654" lon="12.117189656303058"><ele>361.0</ele><time>2026-04-21T09:27:58.001Z</time></trkpt><trkpt lat="42.132381098235605" lon="12.116962526092777"><ele>361.0</ele><time>2026-04-21T09:27:59.001Z</time></trkpt><trkpt lat="42.132365108447445" lon="12.116750418146726"><ele>361.0</ele><time>2026-04-21T09:28:00.001Z</time></trkpt><trkpt lat="42.13232801299206" lon="12.11656394955931"><ele>365.0</ele><time>2026-04-21T09:28:01.001Z</time></trkpt><trkpt lat="42.13225318214813" lon="12.116407861400141"><ele>369.0</ele><time>2026-04-21T09:28:02.001Z</time></trkpt><trkpt lat="42.1321369502741" lon="12.116283066155633"><ele>373.0</ele><time>2026-04-21T09:28:03.001Z</time></trkpt><trkpt lat="42.131982762043236" lon="12.116206180908389"><ele>373.0</ele><time>2026-04-21T09:28:04.001Z</time></trkpt><trkpt lat="42.131817656504666" lon="12.11613534135376"><ele>373.0</ele><time>2026-04-21T09:28:05.001Z</time></trkpt><trkpt lat="42.1316435001268" lon="12.115976486377118"><ele>373.0</ele><time>2026-04-21T09:28:06.001Z</time></trkpt><trkpt lat="42.13146772507337" lon="12.11583407660549"><ele>372.0</ele><time>2026-04-21T09:28:07.001Z</time></trkpt><trkpt lat="42.131347802389094" lon="12.115695361793598"><ele>371.0</ele><time>2026-04-21T09:28:08.001Z</time></trkpt><trkpt lat="42.131253762745274" lon="12.115527416565591"><ele>370.0</ele><time>2026-04-21T09:28:09.001Z</time></trkpt><trkpt lat="42.13116053679295" lon="12.115339954874761"><ele>370.0</ele><time>2026-04-21T09:28:10.001Z</time></trkpt><trkpt lat="42.131057001588744" lon="12.115106135382558"><ele>370.0</ele><time>2026-04-21T09:28:11.001Z</time></trkpt><trkpt lat="42.13095394900126" lon="12.114875397962637"><ele>370.0</ele><time>2026-04-21T09:28:12.001Z</time></trkpt><trkpt lat="42.13086345545235" lon="12.114673713113541"><ele>370.3333333333333</ele><time>2026-04-21T09:28:13.001Z</time></trkpt><trkpt lat="42.13077669576499" lon="12.114483221976032"><ele>370.6666666666667</ele><time>2026-04-21T09:28:14.001Z</time></trkpt><trkpt lat="42.1306882294083" lon="12.11429304874339"><ele>371.0</ele><time>2026-04-21T09:28:15.001Z</time></trkpt><trkpt lat="42.13058598615685" lon="12.114125894466456"><ele>368.0</ele><time>2026-04-21T09:28:16.001Z</time></trkpt><trkpt lat="42.13048819560184" lon="12.113938192234501"><ele>365.0</ele><time>2026-04-21T09:28:17.001Z</time></trkpt><trkpt lat="42.13039501888924" lon="12.113769462078048"><ele>362.0</ele><time>2026-04-21T09:28:18.001Z</time></trkpt><trkpt lat="42.13031443304365" lon="12.11361346239581"><ele>362.0</ele><time>2026-04-21T09:28:19.001Z</time></trkpt><trkpt lat="42.13022894060214" lon="12.113457411334569"><ele>362.0</ele><time>2026-04-21T09:28:20.001Z</time></trkpt><trkpt lat="42.13017569077594" lon="12.113325090337907"><ele>362.0</ele><time>2026-04-21T09:28:21.001Z</time></trkpt><trkpt lat="42.13015171122849" lon="12.113188023827618"><ele>362.0</ele><time>2026-04-21T09:28:22.001Z</time></trkpt><trkpt lat="42.13016731265983" lon="12.113030284693656"><ele>360.25</ele><time>2026-04-21T09:28:23.001Z</time></trkpt><trkpt lat="42.130253716592875" lon="12.112930588417274"><ele>358.5</ele><time>2026-04-21T09:28:24.001Z</time></trkpt><trkpt lat="42.13034025811796" lon="12.112791398465745"><ele>356.75</ele><time>2026-04-21T09:28:25.001Z</time></trkpt><trkpt lat="42.130462627595634" lon="12.112653218059961"><ele>355.0</ele><time>2026-04-21T09:28:26.001Z</time></trkpt><trkpt lat="42.13059415544805" lon="12.112471911360567"><ele>354.25</ele><time>2026-04-21T09:28:27.001Z</time></trkpt><trkpt lat="42.13068237949643" lon="12.11230437643239"><ele>353.5</ele><time>2026-04-21T09:28:28.001Z</time></trkpt><trkpt lat="42.13073000563645" lon="12.112117295289197"><ele>352.75</ele><time>2026-04-21T09:28:29.001Z</time></trkpt><trkpt lat="42.13074711247424" lon="12.111928588140021"><ele>352.0</ele><time>2026-04-21T09:28:30.001Z</time></trkpt><trkpt lat="42.13072930790032" lon="12.111738152668028"><ele>350.0</ele><time>2026-04-21T09:28:31.001Z</time></trkpt><trkpt lat="42.13068084912123" lon="12.111541152730101"><ele>348.0</ele><time>2026-04-21T09:28:32.001Z</time></trkpt><trkpt lat="42.13064162745526" lon="12.111352719727266"><ele>346.0</ele><time>2026-04-21T09:28:33.001Z</time></trkpt><trkpt lat="42.13060445497592" lon="12.111167160415729"><ele>344.0</ele><time>2026-04-21T09:28:34.001Z</time></trkpt><trkpt lat="42.13058337564894" lon="12.110986623683278"><ele>344.0</ele><time>2026-04-21T09:28:35.001Z</time></trkpt><trkpt lat="42.1305431223419" lon="12.110814046317593"><ele>344.0</ele><time>2026-04-21T09:28:36.001Z</time></trkpt><trkpt lat="42.13049748208215" lon="12.110705201223583"><ele>344.0</ele><time>2026-04-21T09:28:37.001Z</time></trkpt><trkpt lat="42.13045333603966" lon="12.110585567167027"><ele>344.0</ele><time>2026-04-21T09:28:38.001Z</time></trkpt><trkpt lat="42.13039422678564" lon="12.110477347151207"><ele>344.0</ele><time>2026-04-21T09:28:39.001Z</time></trkpt><trkpt lat="42.130322444633265" lon="12.110378996697841"><ele>346.0</ele><time>2026-04-21T09:28:40.001Z</time></trkpt><trkpt lat="42.13022448007196" lon="12.11028932547424"><ele>348.0</ele><time>2026-04-21T09:28:41.001Z</time></trkpt><trkpt lat="42.13009796678699" lon="12.11016061474226"><ele>350.0</ele><time>2026-04-21T09:28:42.001Z</time></trkpt><trkpt lat="42.12995015550204" lon="12.110025943402547"><ele>349.6666666666667</ele><time>2026-04-21T09:28:43.001Z</time></trkpt><trkpt lat="42.12979758189814" lon="12.109887716436772"><ele>349.3333333333333</ele><time>2026-04-21T09:28:44.001Z</time></trkpt><trkpt lat="42.12964188960522" lon="12.109746663815184"><ele>349.0</ele><time>2026-04-21T09:28:45.001Z</time></trkpt><trkpt lat="42.12949489819471" lon="12.109606357037636"><ele>349.0</ele><time>2026-04-21T09:28:46.001Z</time></trkpt><trkpt lat="42.12936551476999" lon="12.109470566684971"><ele>349.0</ele><time>2026-04-21T09:28:47.001Z</time></trkpt><trkpt lat="42.129246690945116" lon="12.109351697971913"><ele>349.0</ele><time>2026-04-21T09:28:48.001Z</time></trkpt><trkpt lat="42.12914316963155" lon="12.109210575888511"><ele>349.0</ele><time>2026-04-21T09:28:49.001Z</time></trkpt><trkpt lat="42.12905396405842" lon="12.109069862627743"><ele>349.0</ele><time>2026-04-21T09:28:50.001Z</time></trkpt><trkpt lat="42.128939660987015" lon="12.10896442488402"><ele>349.0</ele><time>2026-04-21T09:28:51.001Z</time></trkpt><trkpt lat="42.12884179949946" lon="12.108848603163773"><ele>349.0</ele><time>2026-04-21T09:28:52.001Z</time></trkpt><trkpt lat="42.12874988692086" lon="12.108737851753135"><ele>349.0</ele><time>2026-04-21T09:28:53.001Z</time></trkpt><trkpt lat="42.128665623056804" lon="12.108634742604083"><ele>349.0</ele><time>2026-04-21T09:28:54.001Z</time></trkpt><trkpt lat="42.12858884154512" lon="12.108535298521463"><ele>349.0</ele><time>2026-04-21T09:28:55Z</time></trkpt><trkpt lat="42.12852605732068" lon="12.108419935417366"><ele>349.0</ele><time>2026-04-21T09:28:56Z</time></trkpt><trkpt lat="42.12851415246778" lon="12.10828281833872"><ele>349.0</ele><time>2026-04-21T09:28:57Z</time></trkpt><trkpt lat="42.12847798790289" lon="12.108164302141773"><ele>347.75</ele><time>2026-04-21T09:28:58Z</time></trkpt><trkpt lat="42.12848962479129" lon="12.108026109771103"><ele>346.5</ele><time>2026-04-21T09:28:59Z</time></trkpt><trkpt lat="42.12851644671817" lon="12.107874929787286"><ele>345.25</ele><time>2026-04-21T09:29:00Z</time></trkpt><trkpt lat="42.128556905271196" lon="12.1077050295741"><ele>344.0</ele><time>2026-04-21T09:29:01Z</time></trkpt><trkpt lat="42.128606674593165" lon="12.107558961694284"><ele>342.6666666666667</ele><time>2026-04-21T09:29:02Z</time></trkpt><trkpt lat="42.128678291480725" lon="12.107394494477273"><ele>341.3333333333333</ele><time>2026-04-21T09:29:03Z</time></trkpt><trkpt lat="42.128761924153494" lon="12.107233123552707"><ele>340.0</ele><time>2026-04-21T09:29:04Z</time></trkpt><trkpt lat="42.12886247659808" lon="12.107056236276078"><ele>340.0</ele><time>2026-04-21T09:29:05Z</time></trkpt><trkpt lat="42.12897190885103" lon="12.10689262100205"><ele>340.0</ele><time>2026-04-21T09:29:06Z</time></trkpt><trkpt lat="42.129074957854854" lon="12.106732815804687"><ele>340.0</ele><time>2026-04-21T09:29:07Z</time></trkpt><trkpt lat="42.12917509281858" lon="12.106585524574278"><ele>340.66666666666663</ele><time>2026-04-21T09:29:08Z</time></trkpt><trkpt lat="42.12927117587742" lon="12.106445663949486"><ele>341.3333333333333</ele><time>2026-04-21T09:29:09Z</time></trkpt><trkpt lat="42.12937277243219" lon="12.106284344953972"><ele>342.0</ele><time>2026-04-21T09:29:10Z</time></trkpt><trkpt lat="42.129503882162396" lon="12.10608134812204"><ele>342.0</ele><time>2026-04-21T09:29:11Z</time></trkpt><trkpt lat="42.12961756354822" lon="12.105848000987267"><ele>342.0</ele><time>2026-04-21T09:29:12Z</time></trkpt><trkpt lat="42.129723343568045" lon="12.105656886521915"><ele>342.0</ele><time>2026-04-21T09:29:13Z</time></trkpt><trkpt lat="42.129827724348004" lon="12.105457722528733"><ele>341.0</ele><time>2026-04-21T09:29:14Z</time></trkpt><trkpt lat="42.129802952741926" lon="12.105323692743992"><ele>340.0</ele><time>2026-04-21T09:29:15Z</time></trkpt><trkpt lat="42.12977615382337" lon="12.105140301342852"><ele>339.0</ele><time>2026-04-21T09:29:16Z</time></trkpt><trkpt lat="42.12969771551389" lon="12.104967344950298"><ele>338.0</ele><time>2026-04-21T09:29:17Z</time></trkpt><trkpt lat="42.12958872744224" lon="12.104786901307435"><ele>337.33333333333337</ele><time>2026-04-21T09:29:18Z</time></trkpt><trkpt lat="42.12944929055243" lon="12.104579060256272"><ele>336.6666666666667</ele><time>2026-04-21T09:29:19Z</time></trkpt><trkpt lat="42.12930856890645" lon="12.104327734429155"><ele>336.0</ele><time>2026-04-21T09:29:20Z</time></trkpt><trkpt lat="42.12918658782953" lon="12.104107006296516"><ele>336.0</ele><time>2026-04-21T09:29:21Z</time></trkpt><trkpt lat="42.129092613971004" lon="12.103894380507182"><ele>336.0</ele><time>2026-04-21T09:29:22Z</time></trkpt><trkpt lat="42.1289940330664" lon="12.103694116667757"><ele>336.0</ele><time>2026-04-21T09:29:23Z</time></trkpt><trkpt lat="42.12890136933794" lon="12.103495339656138"><ele>334.3333333333333</ele><time>2026-04-21T09:29:24Z</time></trkpt><trkpt lat="42.12881280205925" lon="12.103290721450165"><ele>332.66666666666663</ele><time>2026-04-21T09:29:25Z</time></trkpt><trkpt lat="42.128716748461265" lon="12.103061591576825"><ele>331.0</ele><time>2026-04-21T09:29:26Z</time></trkpt><trkpt lat="42.12861506351259" lon="12.102815671891884"><ele>331.0</ele><time>2026-04-21T09:29:27Z</time></trkpt><trkpt lat="42.12852344557594" lon="12.102591838517883"><ele>331.0</ele><time>2026-04-21T09:29:28Z</time></trkpt><trkpt lat="42.12843773890688" lon="12.102382439912416"><ele>331.0</ele><time>2026-04-21T09:29:29Z</time></trkpt><trkpt lat="42.12833975319641" lon="12.102190673896995"><ele>330.0</ele><time>2026-04-21T09:29:30Z</time></trkpt><trkpt lat="42.12826101522264" lon="12.102004052997337"><ele>329.0</ele><time>2026-04-21T09:29:31Z</time></trkpt><trkpt lat="42.128172474593754" lon="12.101827361955808"><ele>328.0</ele><time>2026-04-21T09:29:32Z</time></trkpt><trkpt lat="42.12809500823285" lon="12.101632896388113"><ele>327.66666666666663</ele><time>2026-04-21T09:29:33Z</time></trkpt><trkpt lat="42.12800017426858" lon="12.101435972767286"><ele>327.3333333333333</ele><time>2026-04-21T09:29:34Z</time></trkpt><trkpt lat="42.12791036637141" lon="12.101246883837144"><ele>327.0</ele><time>2026-04-21T09:29:35Z</time></trkpt><trkpt lat="42.12782142318565" lon="12.101055852420407"><ele>327.0</ele><time>2026-04-21T09:29:36Z</time></trkpt><trkpt lat="42.12773056797145" lon="12.10085512337464"><ele>327.0</ele><time>2026-04-21T09:29:37Z</time></trkpt><trkpt lat="42.12763053071095" lon="12.100617889842495"><ele>327.0</ele><time>2026-04-21T09:29:38Z</time></trkpt><trkpt lat="42.12752016844062" lon="12.100347601318571"><ele>326.6666666666667</ele><time>2026-04-21T09:29:39.001Z</time></trkpt><trkpt lat="42.127413439522186" lon="12.100109706675136"><ele>326.33333333333337</ele><time>2026-04-21T09:29:40.001Z</time></trkpt><trkpt lat="42.12733492925209" lon="12.099838490484668"><ele>326.0</ele><time>2026-04-21T09:29:41.001Z</time></trkpt><trkpt lat="42.12725721008918" lon="12.09957390010575"><ele>326.0</ele><time>2026-04-21T09:29:42.001Z</time></trkpt><trkpt lat="42.12718293178648" lon="12.099303085577528"><ele>326.0</ele><time>2026-04-21T09:29:43.001Z</time></trkpt><trkpt lat="42.127127145591366" lon="12.099046538563572"><ele>326.0</ele><time>2026-04-21T09:29:44.001Z</time></trkpt><trkpt lat="42.127073406778145" lon="12.098786461157928"><ele>326.33333333333337</ele><time>2026-04-21T09:29:45.001Z</time></trkpt><trkpt lat="42.127039587805456" lon="12.098542241730597"><ele>326.6666666666667</ele><time>2026-04-21T09:29:46.001Z</time></trkpt><trkpt lat="42.12699018112905" lon="12.09829573620274"><ele>327.0</ele><time>2026-04-21T09:29:47.001Z</time></trkpt><trkpt lat="42.12693534911017" lon="12.098059916723878"><ele>327.0</ele><time>2026-04-21T09:29:48.001Z</time></trkpt><trkpt lat="42.12689216289496" lon="12.097810538944145"><ele>327.0</ele><time>2026-04-21T09:29:49.001Z</time></trkpt><trkpt lat="42.12687003259687" lon="12.097543078518871"><ele>327.0</ele><time>2026-04-21T09:29:50.001Z</time></trkpt><trkpt lat="42.126858255676346" lon="12.097281195600354"><ele>326.0</ele><time>2026-04-21T09:29:51.001Z</time></trkpt><trkpt lat="42.12685132476223" lon="12.097003583983264"><ele>325.0</ele><time>2026-04-21T09:29:52.001Z</time></trkpt><trkpt lat="42.12684717169898" lon="12.096736219144551"><ele>324.0</ele><time>2026-04-21T09:29:53.001Z</time></trkpt><trkpt lat="42.12683987021287" lon="12.096479749333906"><ele>323.3333333333333</ele><time>2026-04-21T09:29:54.001Z</time></trkpt><trkpt lat="42.12683519464448" lon="12.096231921951127"><ele>322.66666666666663</ele><time>2026-04-21T09:29:55.001Z</time></trkpt><trkpt lat="42.12682668704875" lon="12.095955431212621"><ele>322.0</ele><time>2026-04-21T09:29:56.001Z</time></trkpt><trkpt lat="42.126808553545985" lon="12.09563854306057"><ele>320.0</ele><time>2026-04-21T09:29:57.001Z</time></trkpt><trkpt lat="42.12676273929179" lon="12.095285977495482"><ele>318.0</ele><time>2026-04-21T09:29:58.001Z</time></trkpt><trkpt lat="42.12672393013875" lon="12.094906454969244"><ele>317.0</ele><time>2026-04-21T09:29:59.001Z</time></trkpt><trkpt lat="42.126668283526875" lon="12.094485941641791"><ele>316.0</ele><time>2026-04-21T09:30:00.001Z</time></trkpt><trkpt lat="42.126607249413624" lon="12.094096484652109"><ele>315.5</ele><time>2026-04-21T09:30:01.001Z</time></trkpt><trkpt lat="42.12656554273708" lon="12.093736709811688"><ele>315.0</ele><time>2026-04-21T09:30:02.001Z</time></trkpt><trkpt lat="42.12651936102438" lon="12.093417290651788"><ele>312.5</ele><time>2026-04-21T09:30:03.001Z</time></trkpt><trkpt lat="42.12647474233561" lon="12.093100001545729"><ele>310.0</ele><time>2026-04-21T09:30:04.001Z</time></trkpt><trkpt lat="42.1264311997646" lon="12.092796969789319"><ele>310.0</ele><time>2026-04-21T09:30:05.001Z</time></trkpt><trkpt lat="42.126387614955085" lon="12.092518987407697"><ele>310.0</ele><time>2026-04-21T09:30:06.001Z</time></trkpt><trkpt lat="42.126349047498756" lon="12.092259770272694"><ele>310.0</ele><time>2026-04-21T09:30:07.001Z</time></trkpt><trkpt lat="42.126322688370585" lon="12.091986014286526"><ele>309.5</ele><time>2026-04-21T09:30:08.001Z</time></trkpt><trkpt lat="42.12630318524771" lon="12.091696590019856"><ele>309.0</ele><time>2026-04-21T09:30:09.001Z</time></trkpt><trkpt lat="42.126306108149365" lon="12.09136656182789"><ele>309.0</ele><time>2026-04-21T09:30:10.001Z</time></trkpt><trkpt lat="42.12632450491927" lon="12.091017800646208"><ele>309.0</ele><time>2026-04-21T09:30:11.001Z</time></trkpt><trkpt lat="42.12633195192071" lon="12.090718073257612"><ele>309.0</ele><time>2026-04-21T09:30:12.001Z</time></trkpt><trkpt lat="42.126340207196385" lon="12.090431083700967"><ele>309.0</ele><time>2026-04-21T09:30:13.001Z</time></trkpt><trkpt lat="42.12635023112654" lon="12.090148131839422"><ele>309.0</ele><time>2026-04-21T09:30:14.001Z</time></trkpt><trkpt lat="42.12636202970663" lon="12.08985064427292"><ele>309.0</ele><time>2026-04-21T09:30:15.001Z</time></trkpt><trkpt lat="42.12635868556062" lon="12.089562083095556"><ele>309.0</ele><time>2026-04-21T09:30:16.001Z</time></trkpt><trkpt lat="42.12636574374777" lon="12.089245437611668"><ele>309.0</ele><time>2026-04-21T09:30:17.001Z</time></trkpt><trkpt lat="42.12639085878429" lon="12.088928748331837"><ele>309.0</ele><time>2026-04-21T09:30:18.001Z</time></trkpt><trkpt lat="42.12639915052219" lon="12.088611989420983"><ele>309.0</ele><time>2026-04-21T09:30:19.001Z</time></trkpt><trkpt lat="42.12640349218886" lon="12.088315251286975"><ele>308.3333333333333</ele><time>2026-04-21T09:30:20.001Z</time></trkpt><trkpt lat="42.12640774555531" lon="12.088005322868561"><ele>307.66666666666663</ele><time>2026-04-21T09:30:21.001Z</time></trkpt><trkpt lat="42.126416272286356" lon="12.08771851707264"><ele>307.0</ele><time>2026-04-21T09:30:22.001Z</time></trkpt><trkpt lat="42.126433822143596" lon="12.087419893910027"><ele>307.0</ele><time>2026-04-21T09:30:23.001Z</time></trkpt><trkpt lat="42.12643595370226" lon="12.087127646898473"><ele>307.0</ele><time>2026-04-21T09:30:24.001Z</time></trkpt><trkpt lat="42.126453413279556" lon="12.08684045362093"><ele>307.0</ele><time>2026-04-21T09:30:25.001Z</time></trkpt><trkpt lat="42.12651610506444" lon="12.086562162387693"><ele>305.5</ele><time>2026-04-21T09:30:26.001Z</time></trkpt><trkpt lat="42.126591460281446" lon="12.08622909367003"><ele>304.0</ele><time>2026-04-21T09:30:27.001Z</time></trkpt><trkpt lat="42.12667467909103" lon="12.08587534184044"><ele>303.0</ele><time>2026-04-21T09:30:28.001Z</time></trkpt><trkpt lat="42.126732588945686" lon="12.085573157491286"><ele>302.0</ele><time>2026-04-21T09:30:29.001Z</time></trkpt><trkpt lat="42.12680449609583" lon="12.085284669201867"><ele>302.0</ele><time>2026-04-21T09:30:30.001Z</time></trkpt><trkpt lat="42.126871326602085" lon="12.085000309653712"><ele>302.0</ele><time>2026-04-21T09:30:31.001Z</time></trkpt><trkpt lat="42.12694142180472" lon="12.084714343071681"><ele>302.0</ele><time>2026-04-21T09:30:32.001Z</time></trkpt><trkpt lat="42.12701423223478" lon="12.084403388175105"><ele>301.0</ele><time>2026-04-21T09:30:33.001Z</time></trkpt><trkpt lat="42.12708926638392" lon="12.084097045656392"><ele>300.0</ele><time>2026-04-21T09:30:34.001Z</time></trkpt><trkpt lat="42.12715713620974" lon="12.083796676105118"><ele>299.3333333333333</ele><time>2026-04-21T09:30:35.001Z</time></trkpt><trkpt lat="42.12722631788392" lon="12.083513058186439"><ele>298.66666666666663</ele><time>2026-04-21T09:30:36.001Z</time></trkpt><trkpt lat="42.12728966061481" lon="12.083236334765925"><ele>298.0</ele><time>2026-04-21T09:30:37.001Z</time></trkpt><trkpt lat="42.127356111854915" lon="12.082960650728568"><ele>295.5</ele><time>2026-04-21T09:30:38.001Z</time></trkpt><trkpt lat="42.12743253894473" lon="12.082674272098739"><ele>293.0</ele><time>2026-04-21T09:30:39.001Z</time></trkpt><trkpt lat="42.127518641447274" lon="12.082374978029677"><ele>291.5</ele><time>2026-04-21T09:30:40.001Z</time></trkpt><trkpt lat="42.12761490236275" lon="12.082088226911681"><ele>290.0</ele><time>2026-04-21T09:30:41.001Z</time></trkpt><trkpt lat="42.12772097244443" lon="12.081812040824419"><ele>288.33333333333337</ele><time>2026-04-21T09:30:42.001Z</time></trkpt><trkpt lat="42.1278201900167" lon="12.081529347537954"><ele>286.6666666666667</ele><time>2026-04-21T09:30:43.001Z</time></trkpt><trkpt lat="42.12791220445183" lon="12.081269184421839"><ele>285.0</ele><time>2026-04-21T09:30:44.001Z</time></trkpt><trkpt lat="42.12800821896388" lon="12.080999056566183"><ele>284.6666666666667</ele><time>2026-04-21T09:30:45.001Z</time></trkpt><trkpt lat="42.12809664190257" lon="12.080737193029204"><ele>284.33333333333337</ele><time>2026-04-21T09:30:46.001Z</time></trkpt><trkpt lat="42.12817978142144" lon="12.080461765530737"><ele>284.0</ele><time>2026-04-21T09:30:47.001Z</time></trkpt><trkpt lat="42.12824048544573" lon="12.080167893832462"><ele>283.0</ele><time>2026-04-21T09:30:48.001Z</time></trkpt><trkpt lat="42.128265878601404" lon="12.079849838874313"><ele>282.0</ele><time>2026-04-21T09:30:49.001Z</time></trkpt><trkpt lat="42.12826946407159" lon="12.079512224415552"><ele>282.0</ele><time>2026-04-21T09:30:50.001Z</time></trkpt><trkpt lat="42.12826717829471" lon="12.079208332793629"><ele>282.0</ele><time>2026-04-21T09:30:51.001Z</time></trkpt><trkpt lat="42.12825288878025" lon="12.078911376653405"><ele>282.0</ele><time>2026-04-21T09:30:52.001Z</time></trkpt><trkpt lat="42.12822365350095" lon="12.078634177799032"><ele>281.0</ele><time>2026-04-21T09:30:53.001Z</time></trkpt><trkpt lat="42.12817141238403" lon="12.078356179713406"><ele>280.0</ele><time>2026-04-21T09:30:54.001Z</time></trkpt><trkpt lat="42.12807745329205" lon="12.078096789610221"><ele>279.0</ele><time>2026-04-21T09:30:55.001Z</time></trkpt><trkpt lat="42.127958465992826" lon="12.07783013872168"><ele>282.5</ele><time>2026-04-21T09:30:56.001Z</time></trkpt><trkpt lat="42.12784071843228" lon="12.077509222474431"><ele>286.0</ele><time>2026-04-21T09:30:57.001Z</time></trkpt><trkpt lat="42.127738972489055" lon="12.077217577484525"><ele>286.0</ele><time>2026-04-21T09:30:58.001Z</time></trkpt><trkpt lat="42.12764618402402" lon="12.076950150385121"><ele>286.0</ele><time>2026-04-21T09:30:59.001Z</time></trkpt><trkpt lat="42.12755671981719" lon="12.076691238896547"><ele>286.0</ele><time>2026-04-21T09:31:00.001Z</time></trkpt><trkpt lat="42.12745950237011" lon="12.07641856660553"><ele>285.5</ele><time>2026-04-21T09:31:01Z</time></trkpt><trkpt lat="42.12735626492332" lon="12.076134394639848"><ele>285.0</ele><time>2026-04-21T09:31:02Z</time></trkpt><trkpt lat="42.12725791385441" lon="12.075847680768765"><ele>284.6666666666667</ele><time>2026-04-21T09:31:03Z</time></trkpt><trkpt lat="42.12715929209872" lon="12.075572577411702"><ele>284.33333333333337</ele><time>2026-04-21T09:31:04Z</time></trkpt><trkpt lat="42.127064201133244" lon="12.075314792463066"><ele>284.0</ele><time>2026-04-21T09:31:05Z</time></trkpt><trkpt lat="42.12696766996193" lon="12.075042514956195"><ele>283.33333333333337</ele><time>2026-04-21T09:31:06Z</time></trkpt><trkpt lat="42.126874268080186" lon="12.07479008250174"><ele>282.6666666666667</ele><time>2026-04-21T09:31:07Z</time></trkpt><trkpt lat="42.126778014348446" lon="12.074524341138059"><ele>282.0</ele><time>2026-04-21T09:31:08Z</time></trkpt><trkpt lat="42.12668486041777" lon="12.074263951042118"><ele>282.0</ele><time>2026-04-21T09:31:09Z</time></trkpt><trkpt lat="42.12659546335773" lon="12.074005146685666"><ele>282.0</ele><time>2026-04-21T09:31:10Z</time></trkpt><trkpt lat="42.126503437900475" lon="12.073743823310126"><ele>282.0</ele><time>2026-04-21T09:31:11Z</time></trkpt><trkpt lat="42.126412854448574" lon="12.073497783557125"><ele>281.6666666666667</ele><time>2026-04-21T09:31:12Z</time></trkpt><trkpt lat="42.12631331629272" lon="12.073273447642125"><ele>281.33333333333337</ele><time>2026-04-21T09:31:13Z</time></trkpt><trkpt lat="42.12619108186143" lon="12.073075764701846"><ele>281.0</ele><time>2026-04-21T09:31:14Z</time></trkpt><trkpt lat="42.126035260308775" lon="12.07290035052982"><ele>280.0</ele><time>2026-04-21T09:31:15Z</time></trkpt><trkpt lat="42.12586703263678" lon="12.07273962179105"><ele>279.0</ele><time>2026-04-21T09:31:16Z</time></trkpt><trkpt lat="42.125709141826604" lon="12.07256367399677"><ele>278.0</ele><time>2026-04-21T09:31:17Z</time></trkpt><trkpt lat="42.12557099495921" lon="12.072408016444637"><ele>276.33333333333337</ele><time>2026-04-21T09:31:18Z</time></trkpt><trkpt lat="42.12544087367154" lon="12.072260515628377"><ele>274.6666666666667</ele><time>2026-04-21T09:31:19Z</time></trkpt><trkpt lat="42.12533184272178" lon="12.07210162916873"><ele>273.0</ele><time>2026-04-21T09:31:20Z</time></trkpt><trkpt lat="42.12524840655581" lon="12.071913456521916"><ele>273.0</ele><time>2026-04-21T09:31:21Z</time></trkpt><trkpt lat="42.12520372868668" lon="12.071693679182992"><ele>273.0</ele><time>2026-04-21T09:31:22Z</time></trkpt><trkpt lat="42.12519872467131" lon="12.07145285896944"><ele>273.0</ele><time>2026-04-21T09:31:23Z</time></trkpt><trkpt lat="42.12522190102806" lon="12.071205867012923"><ele>273.3333333333333</ele><time>2026-04-21T09:31:24Z</time></trkpt><trkpt lat="42.12525315214071" lon="12.070948621028839"><ele>273.66666666666663</ele><time>2026-04-21T09:31:25Z</time></trkpt><trkpt lat="42.12527088482188" lon="12.07071852168103"><ele>274.0</ele><time>2026-04-21T09:31:26Z</time></trkpt><trkpt lat="42.12528628024326" lon="12.07049272761994"><ele>276.3333333333333</ele><time>2026-04-21T09:31:27Z</time></trkpt><trkpt lat="42.125300061909506" lon="12.070279583529299"><ele>278.6666666666667</ele><time>2026-04-21T09:31:28Z</time></trkpt><trkpt lat="42.125311323838524" lon="12.07006935768172"><ele>281.0</ele><time>2026-04-21T09:31:29Z</time></trkpt><trkpt lat="42.12529491382492" lon="12.069857074186613"><ele>281.0</ele><time>2026-04-21T09:31:30Z</time></trkpt><trkpt lat="42.125232890535266" lon="12.069660231535272"><ele>281.0</ele><time>2026-04-21T09:31:31Z</time></trkpt><trkpt lat="42.125118501534985" lon="12.069518190367456"><ele>281.0</ele><time>2026-04-21T09:31:32Z</time></trkpt><trkpt lat="42.12494985151531" lon="12.069442779666145"><ele>280.33333333333337</ele><time>2026-04-21T09:31:33Z</time></trkpt><trkpt lat="42.12476624501869" lon="12.06936593418259"><ele>279.6666666666667</ele><time>2026-04-21T09:31:34Z</time></trkpt><trkpt lat="42.12458356385896" lon="12.069271113553429"><ele>279.0</ele><time>2026-04-21T09:31:35Z</time></trkpt><trkpt lat="42.12442404654555" lon="12.06917846890543"><ele>277.6666666666667</ele><time>2026-04-21T09:31:36Z</time></trkpt><trkpt lat="42.124280981775875" lon="12.069085333177872"><ele>276.33333333333337</ele><time>2026-04-21T09:31:37Z</time></trkpt><trkpt lat="42.124131988872385" lon="12.068983187859748"><ele>275.0</ele><time>2026-04-21T09:31:38Z</time></trkpt><trkpt lat="42.12399691551869" lon="12.068851209007548"><ele>275.6666666666667</ele><time>2026-04-21T09:31:39Z</time></trkpt><trkpt lat="42.123892065225796" lon="12.068655439125687"><ele>276.3333333333333</ele><time>2026-04-21T09:31:40Z</time></trkpt><trkpt lat="42.12378006692114" lon="12.068449603754464"><ele>277.0</ele><time>2026-04-21T09:31:41Z</time></trkpt><trkpt lat="42.12366905165993" lon="12.06821030639696"><ele>277.0</ele><time>2026-04-21T09:31:42.001Z</time></trkpt><trkpt lat="42.12355968698967" lon="12.067980009567668"><ele>277.0</ele><time>2026-04-21T09:31:43.001Z</time></trkpt><trkpt lat="42.12348827064731" lon="12.06776853171603"><ele>277.0</ele><time>2026-04-21T09:31:44.001Z</time></trkpt><trkpt lat="42.12340650539193" lon="12.067543060487168"><ele>275.66666666666663</ele><time>2026-04-21T09:31:45.001Z</time></trkpt><trkpt lat="42.12331942135525" lon="12.067309761525536"><ele>274.3333333333333</ele><time>2026-04-21T09:31:46.001Z</time></trkpt><trkpt lat="42.12325724728325" lon="12.06705435883357"><ele>273.0</ele><time>2026-04-21T09:31:47.001Z</time></trkpt><trkpt lat="42.1231837025356" lon="12.066801438447426"><ele>275.3333333333333</ele><time>2026-04-21T09:31:48.001Z</time></trkpt><trkpt lat="42.12309669755509" lon="12.066512376100675"><ele>277.66666666666663</ele><time>2026-04-21T09:31:49.001Z</time></trkpt><trkpt lat="42.12303798450081" lon="12.066230561061088"><ele>280.0</ele><time>2026-04-21T09:31:50.001Z</time></trkpt><trkpt lat="42.12297979583451" lon="12.065955435645893"><ele>281.66666666666663</ele><time>2026-04-21T09:31:51.001Z</time></trkpt><trkpt lat="42.12291628591361" lon="12.065690765964227"><ele>283.3333333333333</ele><time>2026-04-21T09:31:52.001Z</time></trkpt><trkpt lat="42.122851876474975" lon="12.065437593327959"><ele>285.0</ele><time>2026-04-21T09:31:53.001Z</time></trkpt><trkpt lat="42.122782140280805" lon="12.0652192628921"><ele>285.0</ele><time>2026-04-21T09:31:54.001Z</time></trkpt><trkpt lat="42.122733689717705" lon="12.065024217341396"><ele>285.0</ele><time>2026-04-21T09:31:55.001Z</time></trkpt><trkpt lat="42.12270041413021" lon="12.064831867782056"><ele>285.0</ele><time>2026-04-21T09:31:56.001Z</time></trkpt><trkpt lat="42.122695625338686" lon="12.064652662766118"><ele>285.0</ele><time>2026-04-21T09:31:57.001Z</time></trkpt><trkpt lat="42.12275867069776" lon="12.064478698855213"><ele>283.6666666666667</ele><time>2026-04-21T09:31:58.001Z</time></trkpt><trkpt lat="42.12282048954164" lon="12.064274520821034"><ele>282.33333333333337</ele><time>2026-04-21T09:31:59.001Z</time></trkpt><trkpt lat="42.122920063550055" lon="12.064068735173738"><ele>281.0</ele><time>2026-04-21T09:32:00.001Z</time></trkpt><trkpt lat="42.123047959626156" lon="12.06384320548119"><ele>281.0</ele><time>2026-04-21T09:32:01.001Z</time></trkpt><trkpt lat="42.123176384603326" lon="12.063607299351359"><ele>281.0</ele><time>2026-04-21T09:32:02.001Z</time></trkpt><trkpt lat="42.12329603382951" lon="12.063373130508031"><ele>281.0</ele><time>2026-04-21T09:32:03.001Z</time></trkpt><trkpt lat="42.123421260819036" lon="12.063128268056436"><ele>277.6666666666667</ele><time>2026-04-21T09:32:04.001Z</time></trkpt><trkpt lat="42.123543159880946" lon="12.06287779517987"><ele>274.3333333333333</ele><time>2026-04-21T09:32:05.001Z</time></trkpt><trkpt lat="42.12366572622366" lon="12.062639855722848"><ele>271.0</ele><time>2026-04-21T09:32:06.001Z</time></trkpt><trkpt lat="42.12379407338957" lon="12.06240922172995"><ele>271.0</ele><time>2026-04-21T09:32:07.001Z</time></trkpt><trkpt lat="42.1239225394677" lon="12.062176620001145"><ele>271.0</ele><time>2026-04-21T09:32:08.001Z</time></trkpt><trkpt lat="42.124045007284735" lon="12.061971556092377"><ele>271.0</ele><time>2026-04-21T09:32:09.001Z</time></trkpt><trkpt lat="42.124176899622846" lon="12.061780389591478"><ele>268.66666666666663</ele><time>2026-04-21T09:32:10.001Z</time></trkpt><trkpt lat="42.12431513512297" lon="12.06160712331893"><ele>266.3333333333333</ele><time>2026-04-21T09:32:11.001Z</time></trkpt><trkpt lat="42.12444206599201" lon="12.061422615195738"><ele>264.0</ele><time>2026-04-21T09:32:12.001Z</time></trkpt><trkpt lat="42.12455749593564" lon="12.061244538914174"><ele>264.0</ele><time>2026-04-21T09:32:13.001Z</time></trkpt><trkpt lat="42.124657057125184" lon="12.061082851817796"><ele>264.0</ele><time>2026-04-21T09:32:14.001Z</time></trkpt><trkpt lat="42.124752164402906" lon="12.060901767414302"><ele>264.0</ele><time>2026-04-21T09:32:15.001Z</time></trkpt><trkpt lat="42.124818102182665" lon="12.06069611309104"><ele>264.0</ele><time>2026-04-21T09:32:16.001Z</time></trkpt><trkpt lat="42.12484044369727" lon="12.06047590121828"><ele>264.0</ele><time>2026-04-21T09:32:17.001Z</time></trkpt><trkpt lat="42.1248166186091" lon="12.060266876666072"><ele>264.0</ele><time>2026-04-21T09:32:18.001Z</time></trkpt><trkpt lat="42.12475122746235" lon="12.060074752204418"><ele>267.6666666666667</ele><time>2026-04-21T09:32:19.001Z</time></trkpt><trkpt lat="42.12465730579319" lon="12.059899620554317"><ele>271.33333333333337</ele><time>2026-04-21T09:32:20.001Z</time></trkpt><trkpt lat="42.12454452637997" lon="12.059759171064258"><ele>275.0</ele><time>2026-04-21T09:32:21.001Z</time></trkpt><trkpt lat="42.12439472782066" lon="12.059663124911564"><ele>275.0</ele><time>2026-04-21T09:32:22.001Z</time></trkpt><trkpt lat="42.124221140631974" lon="12.059600448332038"><ele>275.0</ele><time>2026-04-21T09:32:23.001Z</time></trkpt><trkpt lat="42.1240378798561" lon="12.05958744790204"><ele>275.0</ele><time>2026-04-21T09:32:24.001Z</time></trkpt><trkpt lat="42.12383870417916" lon="12.059624920239397"><ele>276.33333333333337</ele><time>2026-04-21T09:32:25.001Z</time></trkpt><trkpt lat="42.12366483240885" lon="12.05960808749604"><ele>277.6666666666667</ele><time>2026-04-21T09:32:26.001Z</time></trkpt><trkpt lat="42.12350271339778" lon="12.059612780598712"><ele>279.0</ele><time>2026-04-21T09:32:27.001Z</time></trkpt><trkpt lat="42.123338340347" lon="12.059613744261775"><ele>278.6666666666667</ele><time>2026-04-21T09:32:28.001Z</time></trkpt><trkpt lat="42.123182360453875" lon="12.059627415291073"><ele>278.33333333333337</ele><time>2026-04-21T09:32:29.001Z</time></trkpt><trkpt lat="42.12302880766072" lon="12.059608394935205"><ele>278.0</ele><time>2026-04-21T09:32:30.001Z</time></trkpt><trkpt lat="42.12286886924291" lon="12.059548319988986"><ele>278.0</ele><time>2026-04-21T09:32:31.001Z</time></trkpt><trkpt lat="42.12269763943721" lon="12.059511706799386"><ele>278.0</ele><time>2026-04-21T09:32:32.001Z</time></trkpt><trkpt lat="42.122501656154135" lon="12.059462880723608"><ele>278.0</ele><time>2026-04-21T09:32:33.001Z</time></trkpt><trkpt lat="42.12230022426018" lon="12.059424750590113"><ele>277.0</ele><time>2026-04-21T09:32:34.001Z</time></trkpt><trkpt lat="42.12209722331521" lon="12.059402258551984"><ele>276.0</ele><time>2026-04-21T09:32:35.001Z</time></trkpt><trkpt lat="42.12192679988053" lon="12.059407851870633"><ele>275.0</ele><time>2026-04-21T09:32:36.001Z</time></trkpt><trkpt lat="42.121761682021784" lon="12.059363496287647"><ele>275.0</ele><time>2026-04-21T09:32:37.001Z</time></trkpt><trkpt lat="42.1216063562354" lon="12.059323831376108"><ele>275.0</ele><time>2026-04-21T09:32:38.001Z</time></trkpt><trkpt lat="42.12146435759694" lon="12.059232223215957"><ele>275.0</ele><time>2026-04-21T09:32:39.001Z</time></trkpt><trkpt lat="42.12134980539283" lon="12.059105627298125"><ele>272.6666666666667</ele><time>2026-04-21T09:32:40.001Z</time></trkpt><trkpt lat="42.12124845891257" lon="12.058924268201467"><ele>270.3333333333333</ele><time>2026-04-21T09:32:41.001Z</time></trkpt><trkpt lat="42.12115057408559" lon="12.058710738173504"><ele>268.0</ele><time>2026-04-21T09:32:42.001Z</time></trkpt><trkpt lat="42.121046162468645" lon="12.05849081502571"><ele>270.0</ele><time>2026-04-21T09:32:43.001Z</time></trkpt><trkpt lat="42.12094947170966" lon="12.058224833039482"><ele>272.0</ele><time>2026-04-21T09:32:44.001Z</time></trkpt><trkpt lat="42.120835554945316" lon="12.05794180153765"><ele>270.0</ele><time>2026-04-21T09:32:45.001Z</time></trkpt><trkpt lat="42.12071937984665" lon="12.057698954013361"><ele>268.0</ele><time>2026-04-21T09:32:46.001Z</time></trkpt><trkpt lat="42.12061415073548" lon="12.057469310830415"><ele>266.0</ele><time>2026-04-21T09:32:47.001Z</time></trkpt><trkpt lat="42.120482866105256" lon="12.057251200476077"><ele>266.0</ele><time>2026-04-21T09:32:48.001Z</time></trkpt><trkpt lat="42.12033758522874" lon="12.057034627818844"><ele>266.0</ele><time>2026-04-21T09:32:49.001Z</time></trkpt><trkpt lat="42.12017434212485" lon="12.056809087877355"><ele>270.0</ele><time>2026-04-21T09:32:50.001Z</time></trkpt><trkpt lat="42.119998261066485" lon="12.05657001103756"><ele>274.0</ele><time>2026-04-21T09:32:51.001Z</time></trkpt><trkpt lat="42.119844791497954" lon="12.05636389408014"><ele>268.0</ele><time>2026-04-21T09:32:52.001Z</time></trkpt><trkpt lat="42.119704330505144" lon="12.05617090057072"><ele>262.0</ele><time>2026-04-21T09:32:53.001Z</time></trkpt><trkpt lat="42.119574530660174" lon="12.055985065979497"><ele>256.0</ele><time>2026-04-21T09:32:54.001Z</time></trkpt><trkpt lat="42.119466945676265" lon="12.055790329219395"><ele>257.66666666666663</ele><time>2026-04-21T09:32:55.001Z</time></trkpt><trkpt lat="42.119382210541715" lon="12.05557652772906"><ele>259.3333333333333</ele><time>2026-04-21T09:32:56.001Z</time></trkpt><trkpt lat="42.11930697771341" lon="12.055334288709693"><ele>261.0</ele><time>2026-04-21T09:32:57.001Z</time></trkpt><trkpt lat="42.11922055715929" lon="12.055088098188081"><ele>261.3333333333333</ele><time>2026-04-21T09:32:58.001Z</time></trkpt><trkpt lat="42.11915940645664" lon="12.054830113160765"><ele>261.66666666666663</ele><time>2026-04-21T09:32:59.001Z</time></trkpt><trkpt lat="42.11909029574498" lon="12.054587553526032"><ele>262.0</ele><time>2026-04-21T09:33:00.001Z</time></trkpt><trkpt lat="42.119013845531754" lon="12.054342663472626"><ele>260.0</ele><time>2026-04-21T09:33:01.001Z</time></trkpt><trkpt lat="42.11895028208431" lon="12.054115757109862"><ele>258.0</ele><time>2026-04-21T09:33:02.001Z</time></trkpt><trkpt lat="42.118902222832986" lon="12.053899341975516"><ele>256.0</ele><time>2026-04-21T09:33:03.001Z</time></trkpt><trkpt lat="42.11885804538261" lon="12.053705355104047"><ele>256.0</ele><time>2026-04-21T09:33:04.001Z</time></trkpt><trkpt lat="42.118824468037964" lon="12.053509431565383"><ele>256.0</ele><time>2026-04-21T09:33:05.001Z</time></trkpt><trkpt lat="42.11880231419413" lon="12.05330923802192"><ele>256.0</ele><time>2026-04-21T09:33:06.001Z</time></trkpt><trkpt lat="42.11883963549587" lon="12.053140602571604"><ele>256.0</ele><time>2026-04-21T09:33:07Z</time></trkpt><trkpt lat="42.118916198768524" lon="12.052990844073026"><ele>256.0</ele><time>2026-04-21T09:33:08Z</time></trkpt><trkpt lat="42.11904403546469" lon="12.052918550710604"><ele>256.0</ele><time>2026-04-21T09:33:09Z</time></trkpt><trkpt lat="42.11917286221629" lon="12.052804960640808"><ele>256.0</ele><time>2026-04-21T09:33:10Z</time></trkpt><trkpt lat="42.11934819613154" lon="12.05271101859294"><ele>254.0</ele><time>2026-04-21T09:33:11Z</time></trkpt><trkpt lat="42.119551145151505" lon="12.052567843683251"><ele>252.0</ele><time>2026-04-21T09:33:12Z</time></trkpt><trkpt lat="42.119755502426806" lon="12.05241351180942"><ele>248.33333333333331</ele><time>2026-04-21T09:33:13Z</time></trkpt><trkpt lat="42.11994828480142" lon="12.052279937310104"><ele>244.66666666666666</ele><time>2026-04-21T09:33:14Z</time></trkpt><trkpt lat="42.12014174875512" lon="12.05213756774"><ele>241.0</ele><time>2026-04-21T09:33:15Z</time></trkpt><trkpt lat="42.120318883806185" lon="12.051952816939929"><ele>241.0</ele><time>2026-04-21T09:33:16Z</time></trkpt><trkpt lat="42.12047628716765" lon="12.051722123188512"><ele>241.0</ele><time>2026-04-21T09:33:17Z</time></trkpt><trkpt lat="42.12062317186237" lon="12.05150510244328"><ele>240.33333333333331</ele><time>2026-04-21T09:33:18Z</time></trkpt><trkpt lat="42.12079154517192" lon="12.05135461130063"><ele>239.66666666666669</ele><time>2026-04-21T09:33:19Z</time></trkpt><trkpt lat="42.120965025772456" lon="12.051263978168784"><ele>239.0</ele><time>2026-04-21T09:33:20Z</time></trkpt><trkpt lat="42.121110603018394" lon="12.051212267651055"><ele>239.0</ele><time>2026-04-21T09:33:21Z</time></trkpt><trkpt lat="42.12122902474235" lon="12.05108852235205"><ele>239.0</ele><time>2026-04-21T09:33:22Z</time></trkpt><trkpt lat="42.12130741773978" lon="12.050915403302616"><ele>239.0</ele><time>2026-04-21T09:33:23Z</time></trkpt><trkpt lat="42.12132263453837" lon="12.050685619764504"><ele>236.33333333333334</ele><time>2026-04-21T09:33:24Z</time></trkpt><trkpt lat="42.12130387142516" lon="12.050441963638498"><ele>233.66666666666669</ele><time>2026-04-21T09:33:25Z</time></trkpt><trkpt lat="42.12130730284973" lon="12.050176670121864"><ele>231.0</ele><time>2026-04-21T09:33:26Z</time></trkpt><trkpt lat="42.12140616568921" lon="12.049958447482098"><ele>230.66666666666669</ele><time>2026-04-21T09:33:27Z</time></trkpt><trkpt lat="42.12154318045821" lon="12.049752427452402"><ele>230.33333333333334</ele><time>2026-04-21T09:33:28Z</time></trkpt><trkpt lat="42.121706399785865" lon="12.049570428352968"><ele>230.0</ele><time>2026-04-21T09:33:29Z</time></trkpt><trkpt lat="42.12187601128393" lon="12.04940318206684"><ele>230.0</ele><time>2026-04-21T09:33:30Z</time></trkpt><trkpt lat="42.121996051638995" lon="12.04924188132409"><ele>230.0</ele><time>2026-04-21T09:33:31Z</time></trkpt><trkpt lat="42.122077814773114" lon="12.04909052171026"><ele>230.0</ele><time>2026-04-21T09:33:32Z</time></trkpt><trkpt lat="42.12209477053484" lon="12.048908492449085"><ele>230.0</ele><time>2026-04-21T09:33:33Z</time></trkpt><trkpt lat="42.1220532155156" lon="12.04869539916038"><ele>227.66666666666669</ele><time>2026-04-21T09:33:34Z</time></trkpt><trkpt lat="42.121988744561456" lon="12.04842415568502"><ele>225.33333333333331</ele><time>2026-04-21T09:33:35Z</time></trkpt><trkpt lat="42.121962826635084" lon="12.04815079915848"><ele>223.0</ele><time>2026-04-21T09:33:36Z</time></trkpt><trkpt lat="42.12187186531011" lon="12.047737617410732"><ele>221.0</ele><time>2026-04-21T09:33:37Z</time></trkpt><trkpt lat="42.1217894332316" lon="12.047326497702032"><ele>219.0</ele><time>2026-04-21T09:33:38Z</time></trkpt><trkpt lat="42.12170685018661" lon="12.046944288743306"><ele>218.0</ele><time>2026-04-21T09:33:39Z</time></trkpt><trkpt lat="42.12161117158088" lon="12.046508949042364"><ele>217.0</ele><time>2026-04-21T09:33:40Z</time></trkpt><trkpt lat="42.12152719657827" lon="12.046104455964208"><ele>218.0</ele><time>2026-04-21T09:33:41.001Z</time></trkpt><trkpt lat="42.12146939044307" lon="12.045740258096407"><ele>219.0</ele><time>2026-04-21T09:33:42.001Z</time></trkpt><trkpt lat="42.12139599617325" lon="12.045413368777263"><ele>219.0</ele><time>2026-04-21T09:33:43.001Z</time></trkpt><trkpt lat="42.12132651601187" lon="12.045102561011188"><ele>219.0</ele><time>2026-04-21T09:33:44.001Z</time></trkpt><trkpt lat="42.12127689279479" lon="12.044825254491636"><ele>220.0</ele><time>2026-04-21T09:33:45.001Z</time></trkpt><trkpt lat="42.12125124343915" lon="12.044572301414995"><ele>221.0</ele><time>2026-04-21T09:33:46.001Z</time></trkpt><trkpt lat="42.121265449894366" lon="12.04432927716851"><ele>222.0</ele><time>2026-04-21T09:33:47.001Z</time></trkpt><trkpt lat="42.121314704510716" lon="12.04421342077242"><ele>222.0</ele><time>2026-04-21T09:33:48.001Z</time></trkpt><trkpt lat="42.12140046036824" lon="12.044068944897411"><ele>222.0</ele><time>2026-04-21T09:33:49.001Z</time></trkpt><trkpt lat="42.121521975033325" lon="12.043899024010543"><ele>222.0</ele><time>2026-04-21T09:33:50.001Z</time></trkpt><trkpt lat="42.12168414675998" lon="12.043743405432627"><ele>222.0</ele><time>2026-04-21T09:33:51.001Z</time></trkpt><trkpt lat="42.121891086710676" lon="12.043622355535787"><ele>222.0</ele><time>2026-04-21T09:33:52.001Z</time></trkpt><trkpt lat="42.122117564296495" lon="12.043546545989892"><ele>222.0</ele><time>2026-04-21T09:33:53.001Z</time></trkpt><trkpt lat="42.1223629623169" lon="12.04352230805002"><ele>222.0</ele><time>2026-04-21T09:33:54.001Z</time></trkpt><trkpt lat="42.12258185800218" lon="12.043513609588913"><ele>222.0</ele><time>2026-04-21T09:33:55.001Z</time></trkpt><trkpt lat="42.12277586237567" lon="12.043511050996049"><ele>222.0</ele><time>2026-04-21T09:33:56.001Z</time></trkpt><trkpt lat="42.12293282384924" lon="12.04347338773844"><ele>222.0</ele><time>2026-04-21T09:33:57.001Z</time></trkpt><trkpt lat="42.12305977658978" lon="12.043399987767891"><ele>222.0</ele><time>2026-04-21T09:33:58.001Z</time></trkpt><trkpt lat="42.12317467953239" lon="12.043269934347903"><ele>222.0</ele><time>2026-04-21T09:33:59.001Z</time></trkpt><trkpt lat="42.12327241682988" lon="12.043061812217116"><ele>222.0</ele><time>2026-04-21T09:34:00.001Z</time></trkpt><trkpt lat="42.12333443151833" lon="12.042818912946895"><ele>220.5</ele><time>2026-04-21T09:34:01.001Z</time></trkpt><trkpt lat="42.123383775686705" lon="12.042538648909458"><ele>219.0</ele><time>2026-04-21T09:34:02.001Z</time></trkpt><trkpt lat="42.12342905754262" lon="12.042182201919653"><ele>217.5</ele><time>2026-04-21T09:34:03.001Z</time></trkpt><trkpt lat="42.12347966841815" lon="12.041790295964642"><ele>216.0</ele><time>2026-04-21T09:34:04.001Z</time></trkpt><trkpt lat="42.12356738070715" lon="12.041383215979332"><ele>215.0</ele><time>2026-04-21T09:34:05.001Z</time></trkpt><trkpt lat="42.12364127060242" lon="12.041044573731988"><ele>214.0</ele><time>2026-04-21T09:34:06.001Z</time></trkpt><trkpt lat="42.1237177230705" lon="12.040694540521462"><ele>212.0</ele><time>2026-04-21T09:34:07.001Z</time></trkpt><trkpt lat="42.12379207677445" lon="12.040325311379789"><ele>210.0</ele><time>2026-04-21T09:34:08.001Z</time></trkpt><trkpt lat="42.123840621493535" lon="12.03995490615195"><ele>209.0</ele><time>2026-04-21T09:34:09.001Z</time></trkpt><trkpt lat="42.12390288477354" lon="12.03962391531139"><ele>208.0</ele><time>2026-04-21T09:34:10.001Z</time></trkpt><trkpt lat="42.1239577240559" lon="12.039342187788447"><ele>207.0</ele><time>2026-04-21T09:34:11.001Z</time></trkpt><trkpt lat="42.124010179411584" lon="12.039036025612498"><ele>206.0</ele><time>2026-04-21T09:34:12.001Z</time></trkpt><trkpt lat="42.12407190661174" lon="12.03870224926679"><ele>208.0</ele><time>2026-04-21T09:34:13.001Z</time></trkpt><trkpt lat="42.12414044786665" lon="12.038383263643999"><ele>210.0</ele><time>2026-04-21T09:34:14.001Z</time></trkpt><trkpt lat="42.12420330656166" lon="12.038040667413"><ele>210.0</ele><time>2026-04-21T09:34:15.001Z</time></trkpt><trkpt lat="42.12426224424948" lon="12.037726236113928"><ele>210.0</ele><time>2026-04-21T09:34:16.001Z</time></trkpt><trkpt lat="42.12432187675756" lon="12.03742696332656"><ele>210.33333333333331</ele><time>2026-04-21T09:34:17.001Z</time></trkpt><trkpt lat="42.12437405862205" lon="12.037138445710172"><ele>210.66666666666666</ele><time>2026-04-21T09:34:18.001Z</time></trkpt><trkpt lat="42.12442739612598" lon="12.03686833249605"><ele>211.0</ele><time>2026-04-21T09:34:19.001Z</time></trkpt><trkpt lat="42.12447232243708" lon="12.036607598300186"><ele>212.33333333333331</ele><time>2026-04-21T09:34:20.001Z</time></trkpt><trkpt lat="42.12452308457589" lon="12.03636012606429"><ele>213.66666666666669</ele><time>2026-04-21T09:34:21.001Z</time></trkpt><trkpt lat="42.12461126147595" lon="12.03611327980437"><ele>215.0</ele><time>2026-04-21T09:34:22.001Z</time></trkpt><trkpt lat="42.12472263868758" lon="12.035853573848728"><ele>213.33333333333334</ele><time>2026-04-21T09:34:23.001Z</time></trkpt><trkpt lat="42.12483734330002" lon="12.03563133501585"><ele>211.66666666666669</ele><time>2026-04-21T09:34:24.001Z</time></trkpt><trkpt lat="42.12494154661939" lon="12.03542236430094"><ele>210.0</ele><time>2026-04-21T09:34:25.001Z</time></trkpt><trkpt lat="42.12505637159984" lon="12.03522431626233"><ele>210.0</ele><time>2026-04-21T09:34:26.001Z</time></trkpt><trkpt lat="42.12518377009965" lon="12.035062210062298"><ele>210.0</ele><time>2026-04-21T09:34:27.001Z</time></trkpt><trkpt lat="42.12534580986444" lon="12.034963570924884"><ele>210.0</ele><time>2026-04-21T09:34:28.001Z</time></trkpt><trkpt lat="42.12554132590751" lon="12.03490774527457"><ele>208.0</ele><time>2026-04-21T09:34:29.001Z</time></trkpt><trkpt lat="42.12574383936702" lon="12.034832783633103"><ele>206.0</ele><time>2026-04-21T09:34:30.001Z</time></trkpt><trkpt lat="42.12599928639815" lon="12.034752491336736"><ele>206.0</ele><time>2026-04-21T09:34:31.001Z</time></trkpt><trkpt lat="42.12625543134353" lon="12.034645241975442"><ele>206.0</ele><time>2026-04-21T09:34:32.001Z</time></trkpt><trkpt lat="42.12649130811412" lon="12.034564380954256"><ele>203.5</ele><time>2026-04-21T09:34:33.001Z</time></trkpt><trkpt lat="42.12671913737636" lon="12.034483254642169"><ele>201.0</ele><time>2026-04-21T09:34:34.001Z</time></trkpt><trkpt lat="42.12694838607799" lon="12.03440302408635"><ele>201.0</ele><time>2026-04-21T09:34:35.001Z</time></trkpt><trkpt lat="42.127173555477086" lon="12.034327438441537"><ele>201.0</ele><time>2026-04-21T09:34:36.001Z</time></trkpt><trkpt lat="42.12738807032618" lon="12.034255414680732"><ele>200.66666666666669</ele><time>2026-04-21T09:34:37.001Z</time></trkpt><trkpt lat="42.12759004604918" lon="12.034181728165127"><ele>200.33333333333334</ele><time>2026-04-21T09:34:38.001Z</time></trkpt><trkpt lat="42.12778602135756" lon="12.034112890118646"><ele>200.0</ele><time>2026-04-21T09:34:39.001Z</time></trkpt><trkpt lat="42.127981360642444" lon="12.03404380399248"><ele>200.0</ele><time>2026-04-21T09:34:40.001Z</time></trkpt><trkpt lat="42.12816357185152" lon="12.033980245746253"><ele>200.0</ele><time>2026-04-21T09:34:41.001Z</time></trkpt><trkpt lat="42.12834167224266" lon="12.033920325766053"><ele>200.0</ele><time>2026-04-21T09:34:42.001Z</time></trkpt><trkpt lat="42.12850710258903" lon="12.033860685172142"><ele>199.0</ele><time>2026-04-21T09:34:43.001Z</time></trkpt><trkpt lat="42.12864575926397" lon="12.033760078237888"><ele>198.0</ele><time>2026-04-21T09:34:44.001Z</time></trkpt><trkpt lat="42.12873499645653" lon="12.033650919195182"><ele>197.0</ele><time>2026-04-21T09:34:45.001Z</time></trkpt><trkpt lat="42.12877473309028" lon="12.033460624043109"><ele>196.0</ele><time>2026-04-21T09:34:46.001Z</time></trkpt><trkpt lat="42.12880534419232" lon="12.033247278003982"><ele>196.0</ele><time>2026-04-21T09:34:47.001Z</time></trkpt><trkpt lat="42.128870968838264" lon="12.033042143893411"><ele>196.0</ele><time>2026-04-21T09:34:48.001Z</time></trkpt><trkpt lat="42.128985953728" lon="12.03288479526423"><ele>196.0</ele><time>2026-04-21T09:34:49.001Z</time></trkpt><trkpt lat="42.12912043189072" lon="12.03269435187425"><ele>191.33333333333331</ele><time>2026-04-21T09:34:50.001Z</time></trkpt><trkpt lat="42.12927978405831" lon="12.032530356588946"><ele>186.66666666666666</ele><time>2026-04-21T09:34:51.001Z</time></trkpt><trkpt lat="42.12937928390714" lon="12.032395340658898"><ele>182.0</ele><time>2026-04-21T09:34:52.001Z</time></trkpt><trkpt lat="42.12950561899458" lon="12.032309105940099"><ele>181.66666666666666</ele><time>2026-04-21T09:34:53.001Z</time></trkpt><trkpt lat="42.12963744394396" lon="12.0322729155711"><ele>181.33333333333334</ele><time>2026-04-21T09:34:54.001Z</time></trkpt><trkpt lat="42.12980995172332" lon="12.032278925976582"><ele>181.0</ele><time>2026-04-21T09:34:55.001Z</time></trkpt><trkpt lat="42.129999153951395" lon="12.032288363208556"><ele>179.0</ele><time>2026-04-21T09:34:56.001Z</time></trkpt><trkpt lat="42.1301728496157" lon="12.03232260431146"><ele>177.0</ele><time>2026-04-21T09:34:57.001Z</time></trkpt><trkpt lat="42.13034466892706" lon="12.032360536389643"><ele>175.0</ele><time>2026-04-21T09:34:58.001Z</time></trkpt><trkpt lat="42.13051036982909" lon="12.032356891307044"><ele>175.0</ele><time>2026-04-21T09:34:59.001Z</time></trkpt><trkpt lat="42.13068806742392" lon="12.032373831895942"><ele>175.0</ele><time>2026-04-21T09:35:00.001Z</time></trkpt><trkpt lat="42.130841822304326" lon="12.032388070489406"><ele>175.0</ele><time>2026-04-21T09:35:01.001Z</time></trkpt><trkpt lat="42.13098205745576" lon="12.032367103260505"><ele>172.33333333333334</ele><time>2026-04-21T09:35:02.001Z</time></trkpt><trkpt lat="42.131109799780646" lon="12.032282862486392"><ele>169.66666666666666</ele><time>2026-04-21T09:35:03.001Z</time></trkpt><trkpt lat="42.13122659231734" lon="12.03212046074826"><ele>167.0</ele><time>2026-04-21T09:35:04.001Z</time></trkpt><trkpt lat="42.131324668198104" lon="12.031910082156722"><ele>167.0</ele><time>2026-04-21T09:35:05.001Z</time></trkpt><trkpt lat="42.13141209903422" lon="12.031715525197786"><ele>167.0</ele><time>2026-04-21T09:35:06.001Z</time></trkpt><trkpt lat="42.131502221530965" lon="12.0315482627831"><ele>167.0</ele><time>2026-04-21T09:35:07.001Z</time></trkpt><trkpt lat="42.13159674746482" lon="12.031416215474044"><ele>165.75</ele><time>2026-04-21T09:35:08.001Z</time></trkpt><trkpt lat="42.131706724361564" lon="12.031312175005702"><ele>164.5</ele><time>2026-04-21T09:35:09.001Z</time></trkpt><trkpt lat="42.13183254155441" lon="12.031254037818627"><ele>163.25</ele><time>2026-04-21T09:35:10.001Z</time></trkpt><trkpt lat="42.13196086976614" lon="12.031236189058045"><ele>162.0</ele><time>2026-04-21T09:35:11.001Z</time></trkpt><trkpt lat="42.132094463525995" lon="12.031271662698495"><ele>162.0</ele><time>2026-04-21T09:35:12.001Z</time></trkpt><trkpt lat="42.13220489445431" lon="12.031377503263034"><ele>162.0</ele><time>2026-04-21T09:35:13Z</time></trkpt><trkpt lat="42.1323246015407" lon="12.03151564857067"><ele>162.0</ele><time>2026-04-21T09:35:14Z</time></trkpt><trkpt lat="42.132431248948635" lon="12.03167972231241"><ele>157.33333333333334</ele><time>2026-04-21T09:35:15Z</time></trkpt><trkpt lat="42.13256534771205" lon="12.031868634570284"><ele>152.66666666666669</ele><time>2026-04-21T09:35:16Z</time></trkpt><trkpt lat="42.13270076186652" lon="12.032048655701724"><ele>148.0</ele><time>2026-04-21T09:35:17Z</time></trkpt><trkpt lat="42.132826822972035" lon="12.032204182233077"><ele>148.0</ele><time>2026-04-21T09:35:18Z</time></trkpt><trkpt lat="42.132933496983355" lon="12.032343520590777"><ele>148.0</ele><time>2026-04-21T09:35:19Z</time></trkpt><trkpt lat="42.133031138639666" lon="12.032470793313344"><ele>148.0</ele><time>2026-04-21T09:35:20Z</time></trkpt><trkpt lat="42.13313008770616" lon="12.032588512676755"><ele>148.0</ele><time>2026-04-21T09:35:21Z</time></trkpt><trkpt lat="42.13324253007183" lon="12.03268477025355"><ele>146.66666666666669</ele><time>2026-04-21T09:35:22Z</time></trkpt><trkpt lat="42.133374402123174" lon="12.032760468636297"><ele>145.33333333333334</ele><time>2026-04-21T09:35:23Z</time></trkpt><trkpt lat="42.13353383363236" lon="12.032815991501558"><ele>144.0</ele><time>2026-04-21T09:35:24Z</time></trkpt><trkpt lat="42.13371922180567" lon="12.032843244909106"><ele>144.0</ele><time>2026-04-21T09:35:25Z</time></trkpt><trkpt lat="42.133895575350586" lon="12.032866154952478"><ele>144.0</ele><time>2026-04-21T09:35:26Z</time></trkpt><trkpt lat="42.134048694650424" lon="12.032889061037567"><ele>144.0</ele><time>2026-04-21T09:35:27Z</time></trkpt><trkpt lat="42.1342119828471" lon="12.032917354020706"><ele>144.66666666666666</ele><time>2026-04-21T09:35:28Z</time></trkpt><trkpt lat="42.13438007585585" lon="12.032963258202376"><ele>145.33333333333331</ele><time>2026-04-21T09:35:29Z</time></trkpt><trkpt lat="42.134537068748465" lon="12.03305936751212"><ele>146.0</ele><time>2026-04-21T09:35:30Z</time></trkpt><trkpt lat="42.13467984722744" lon="12.03320744202207"><ele>143.33333333333331</ele><time>2026-04-21T09:35:31Z</time></trkpt><trkpt lat="42.134812768382155" lon="12.03333720530672"><ele>140.66666666666666</ele><time>2026-04-21T09:35:32Z</time></trkpt><trkpt lat="42.134971646576716" lon="12.033379636688789"><ele>138.0</ele><time>2026-04-21T09:35:33Z</time></trkpt><trkpt lat="42.1351559386182" lon="12.03334759547635"><ele>138.0</ele><time>2026-04-21T09:35:34Z</time></trkpt><trkpt lat="42.1353569342981" lon="12.033279928094679"><ele>138.0</ele><time>2026-04-21T09:35:35Z</time></trkpt><trkpt lat="42.135550615901074" lon="12.033262997647197"><ele>138.0</ele><time>2026-04-21T09:35:36Z</time></trkpt><trkpt lat="42.13575219903065" lon="12.033343934420206"><ele>138.0</ele><time>2026-04-21T09:35:37Z</time></trkpt><trkpt lat="42.135947958367524" lon="12.033488515679093"><ele>138.0</ele><time>2026-04-21T09:35:38Z</time></trkpt><trkpt lat="42.13612611989823" lon="12.03362010212054"><ele>138.0</ele><time>2026-04-21T09:35:39Z</time></trkpt><trkpt lat="42.13631599284238" lon="12.033714609946736"><ele>138.0</ele><time>2026-04-21T09:35:40Z</time></trkpt><trkpt lat="42.13652374089903" lon="12.033766545803335"><ele>138.0</ele><time>2026-04-21T09:35:41Z</time></trkpt><trkpt lat="42.13670954267214" lon="12.033801701202957"><ele>138.0</ele><time>2026-04-21T09:35:42Z</time></trkpt><trkpt lat="42.13688010969042" lon="12.033827621482898"><ele>138.66666666666666</ele><time>2026-04-21T09:35:43Z</time></trkpt><trkpt lat="42.13706907529107" lon="12.033822188225518"><ele>139.33333333333331</ele><time>2026-04-21T09:35:44Z</time></trkpt><trkpt lat="42.13726685987293" lon="12.03375497760374"><ele>140.0</ele><time>2026-04-21T09:35:45Z</time></trkpt><trkpt lat="42.137477438391755" lon="12.033663993492693"><ele>137.66666666666666</ele><time>2026-04-21T09:35:46Z</time></trkpt><trkpt lat="42.137658417668206" lon="12.033599573224087"><ele>135.33333333333334</ele><time>2026-04-21T09:35:47Z</time></trkpt><trkpt lat="42.13782097980205" lon="12.033538629438565"><ele>133.0</ele><time>2026-04-21T09:35:48Z</time></trkpt><trkpt lat="42.13798736135264" lon="12.033434907169669"><ele>132.66666666666669</ele><time>2026-04-21T09:35:49Z</time></trkpt><trkpt lat="42.138137999831855" lon="12.033279421144265"><ele>132.33333333333334</ele><time>2026-04-21T09:35:50Z</time></trkpt><trkpt lat="42.13828503809804" lon="12.033075327470502"><ele>132.0</ele><time>2026-04-21T09:35:51.001Z</time></trkpt><trkpt lat="42.1384352239257" lon="12.03283627473677"><ele>132.0</ele><time>2026-04-21T09:35:52.001Z</time></trkpt><trkpt lat="42.138567609430126" lon="12.032635739609816"><ele>132.0</ele><time>2026-04-21T09:35:53.001Z</time></trkpt><trkpt lat="42.13869283895827" lon="12.032447498775749"><ele>132.0</ele><time>2026-04-21T09:35:54.001Z</time></trkpt><trkpt lat="42.13883334685695" lon="12.032234411934244"><ele>131.5</ele><time>2026-04-21T09:35:55.001Z</time></trkpt><trkpt lat="42.1389856574031" lon="12.032004602587437"><ele>131.0</ele><time>2026-04-21T09:35:56.001Z</time></trkpt><trkpt lat="42.13913086824446" lon="12.031779637980819"><ele>132.33333333333331</ele><time>2026-04-21T09:35:57.001Z</time></trkpt><trkpt lat="42.139266964250574" lon="12.03156973667729"><ele>133.66666666666666</ele><time>2026-04-21T09:35:58.001Z</time></trkpt><trkpt lat="42.13940753326877" lon="12.031343644229207"><ele>135.0</ele><time>2026-04-21T09:35:59.001Z</time></trkpt><trkpt lat="42.1395112729653" lon="12.031080657655467"><ele>138.0</ele><time>2026-04-21T09:36:00.001Z</time></trkpt><trkpt lat="42.13960916562146" lon="12.030753166083313"><ele>141.0</ele><time>2026-04-21T09:36:01.001Z</time></trkpt><trkpt lat="42.13970876275702" lon="12.030422970261258"><ele>141.0</ele><time>2026-04-21T09:36:02.001Z</time></trkpt><trkpt lat="42.13979569737618" lon="12.030141381662796"><ele>141.0</ele><time>2026-04-21T09:36:03.001Z</time></trkpt><trkpt lat="42.13987508632537" lon="12.029869228816377"><ele>141.0</ele><time>2026-04-21T09:36:04.001Z</time></trkpt><trkpt lat="42.13993156452896" lon="12.02958672422938"><ele>133.5</ele><time>2026-04-21T09:36:05.001Z</time></trkpt><trkpt lat="42.13996333642954" lon="12.029284045210304"><ele>126.0</ele><time>2026-04-21T09:36:06.001Z</time></trkpt><trkpt lat="42.13998008500864" lon="12.028968429501559"><ele>126.0</ele><time>2026-04-21T09:36:07.001Z</time></trkpt><trkpt lat="42.139991528347025" lon="12.028654430023122"><ele>126.0</ele><time>2026-04-21T09:36:08.001Z</time></trkpt><trkpt lat="42.140009854121494" lon="12.028366640149923"><ele>126.0</ele><time>2026-04-21T09:36:09.001Z</time></trkpt><trkpt lat="42.1400296701376" lon="12.02810297599086"><ele>126.33333333333334</ele><time>2026-04-21T09:36:10.001Z</time></trkpt><trkpt lat="42.14004716980253" lon="12.02784169500616"><ele>126.66666666666667</ele><time>2026-04-21T09:36:11.001Z</time></trkpt><trkpt lat="42.14005418994097" lon="12.0276062359425"><ele>127.0</ele><time>2026-04-21T09:36:12.001Z</time></trkpt><trkpt lat="42.14003995558798" lon="12.027383418950011"><ele>127.33333333333334</ele><time>2026-04-21T09:36:13.001Z</time></trkpt><trkpt lat="42.139978168347724" lon="12.02714315836256"><ele>127.66666666666666</ele><time>2026-04-21T09:36:14.001Z</time></trkpt><trkpt lat="42.13986684902144" lon="12.026890575627984"><ele>128.0</ele><time>2026-04-21T09:36:15.001Z</time></trkpt><trkpt lat="42.1397275942794" lon="12.02660215812597"><ele>125.5</ele><time>2026-04-21T09:36:16.001Z</time></trkpt><trkpt lat="42.13958751939482" lon="12.026290409819737"><ele>123.0</ele><time>2026-04-21T09:36:17.001Z</time></trkpt><trkpt lat="42.13947853291143" lon="12.02599851094156"><ele>122.5</ele><time>2026-04-21T09:36:18.001Z</time></trkpt><trkpt lat="42.13936335129379" lon="12.025730274484381"><ele>122.0</ele><time>2026-04-21T09:36:19.001Z</time></trkpt><trkpt lat="42.13925214988717" lon="12.025459622140506"><ele>122.0</ele><time>2026-04-21T09:36:20.001Z</time></trkpt><trkpt lat="42.139149061749585" lon="12.025215897054323"><ele>122.0</ele><time>2026-04-21T09:36:21.001Z</time></trkpt><trkpt lat="42.139052244754794" lon="12.024985062568403"><ele>122.0</ele><time>2026-04-21T09:36:22.001Z</time></trkpt><trkpt lat="42.13894320301967" lon="12.024751855807233"><ele>122.33333333333333</ele><time>2026-04-21T09:36:23.001Z</time></trkpt><trkpt lat="42.13884739270825" lon="12.024507636672988"><ele>122.66666666666666</ele><time>2026-04-21T09:36:24.001Z</time></trkpt><trkpt lat="42.138755762711234" lon="12.02428719962267"><ele>123.0</ele><time>2026-04-21T09:36:25.001Z</time></trkpt><trkpt lat="42.138672254433324" lon="12.024070977149062"><ele>123.0</ele><time>2026-04-21T09:36:26.001Z</time></trkpt><trkpt lat="42.138602822211816" lon="12.023871733525196"><ele>123.0</ele><time>2026-04-21T09:36:27.001Z</time></trkpt><trkpt lat="42.13854619049821" lon="12.023678269972388"><ele>123.0</ele><time>2026-04-21T09:36:28.001Z</time></trkpt><trkpt lat="42.138514816342195" lon="12.023469186300296"><ele>122.66666666666666</ele><time>2026-04-21T09:36:29.001Z</time></trkpt><trkpt lat="42.13851891592776" lon="12.023238607471137"><ele>122.33333333333333</ele><time>2026-04-21T09:36:30.001Z</time></trkpt><trkpt lat="42.138560765648435" lon="12.022985261796038"><ele>122.0</ele><time>2026-04-21T09:36:31.001Z</time></trkpt><trkpt lat="42.13861075823967" lon="12.022706406339262"><ele>123.33333333333333</ele><time>2026-04-21T09:36:32.001Z</time></trkpt><trkpt lat="42.13865060401411" lon="12.022453017703462"><ele>124.66666666666666</ele><time>2026-04-21T09:36:33.001Z</time></trkpt><trkpt lat="42.13868182492105" lon="12.022214609693425"><ele>126.0</ele><time>2026-04-21T09:36:34.001Z</time></trkpt><trkpt lat="42.13871463981794" lon="12.02199030263691"><ele>126.0</ele><time>2026-04-21T09:36:35.001Z</time></trkpt><trkpt lat="42.13875629560638" lon="12.021774805889232"><ele>126.0</ele><time>2026-04-21T09:36:36.001Z</time></trkpt><trkpt lat="42.13881738708886" lon="12.021572172184026"><ele>126.0</ele><time>2026-04-21T09:36:37.001Z</time></trkpt><trkpt lat="42.13891949948239" lon="12.021392536070278"><ele>127.33333333333334</ele><time>2026-04-21T09:36:38.001Z</time></trkpt><trkpt lat="42.13907304780353" lon="12.021259946862262"><ele>128.66666666666669</ele><time>2026-04-21T09:36:39.001Z</time></trkpt><trkpt lat="42.139253724823334" lon="12.021136255719364"><ele>130.0</ele><time>2026-04-21T09:36:40.001Z</time></trkpt><trkpt lat="42.13942673281724" lon="12.021007784856405"><ele>130.0</ele><time>2026-04-21T09:36:41.001Z</time></trkpt><trkpt lat="42.139578573621534" lon="12.0208871508382"><ele>130.0</ele><time>2026-04-21T09:36:42.001Z</time></trkpt><trkpt lat="42.139724312548324" lon="12.02078539462554"><ele>130.0</ele><time>2026-04-21T09:36:43.001Z</time></trkpt><trkpt lat="42.139872201631306" lon="12.020706024902573"><ele>133.0</ele><time>2026-04-21T09:36:44.001Z</time></trkpt><trkpt lat="42.140058120125005" lon="12.020681993896035"><ele>136.0</ele><time>2026-04-21T09:36:45.001Z</time></trkpt><trkpt lat="42.140287533524095" lon="12.020672228019976"><ele>139.0</ele><time>2026-04-21T09:36:46.001Z</time></trkpt><trkpt lat="42.14049996641966" lon="12.020662956006912"><ele>139.0</ele><time>2026-04-21T09:36:47.001Z</time></trkpt><trkpt lat="42.140689099173805" lon="12.020653519663906"><ele>139.0</ele><time>2026-04-21T09:36:48.001Z</time></trkpt><trkpt lat="42.140889526515494" lon="12.020605484356796"><ele>139.0</ele><time>2026-04-21T09:36:49.001Z</time></trkpt><trkpt lat="42.141079064984496" lon="12.020506604562657"><ele>136.66666666666669</ele><time>2026-04-21T09:36:50.001Z</time></trkpt><trkpt lat="42.14125630900663" lon="12.020385400633861"><ele>134.33333333333334</ele><time>2026-04-21T09:36:51.001Z</time></trkpt><trkpt lat="42.141391759525305" lon="12.020252303335022"><ele>132.0</ele><time>2026-04-21T09:36:52.001Z</time></trkpt><trkpt lat="42.14150144690292" lon="12.020083204779622"><ele>128.33333333333334</ele><time>2026-04-21T09:36:53.001Z</time></trkpt><trkpt lat="42.141584086991614" lon="12.019882435858346"><ele>124.66666666666667</ele><time>2026-04-21T09:36:54.001Z</time></trkpt><trkpt lat="42.141635618028246" lon="12.019629801711492"><ele>121.0</ele><time>2026-04-21T09:36:55.001Z</time></trkpt><trkpt lat="42.14168245512716" lon="12.019341813513643"><ele>119.66666666666667</ele><time>2026-04-21T09:36:56.001Z</time></trkpt><trkpt lat="42.14174085662824" lon="12.01904196761908"><ele>118.33333333333334</ele><time>2026-04-21T09:36:57.001Z</time></trkpt><trkpt lat="42.14179883439888" lon="12.018779296723618"><ele>117.0</ele><time>2026-04-21T09:36:58.001Z</time></trkpt><trkpt lat="42.14185428211184" lon="12.018540257314339"><ele>117.0</ele><time>2026-04-21T09:36:59.001Z</time></trkpt><trkpt lat="42.14190247451113" lon="12.018325176329098"><ele>117.0</ele><time>2026-04-21T09:37:00.001Z</time></trkpt><trkpt lat="42.14194634699207" lon="12.018108319656703"><ele>117.0</ele><time>2026-04-21T09:37:01.001Z</time></trkpt><trkpt lat="42.14199111840646" lon="12.01791371203372"><ele>116.75</ele><time>2026-04-21T09:37:02.001Z</time></trkpt><trkpt lat="42.14204189753998" lon="12.01772797573659"><ele>116.5</ele><time>2026-04-21T09:37:03.001Z</time></trkpt><trkpt lat="42.142114423251435" lon="12.017557355163973"><ele>116.25</ele><time>2026-04-21T09:37:04.001Z</time></trkpt><trkpt lat="42.1422171552413" lon="12.017413363283083"><ele>116.0</ele><time>2026-04-21T09:37:05.001Z</time></trkpt><trkpt lat="42.142356598022936" lon="12.017317890111213"><ele>119.0</ele><time>2026-04-21T09:37:06.001Z</time></trkpt><trkpt lat="42.142513062409684" lon="12.017268166884065"><ele>122.0</ele><time>2026-04-21T09:37:07.001Z</time></trkpt><trkpt lat="42.14268792215426" lon="12.01723610281654"><ele>125.0</ele><time>2026-04-21T09:37:08.001Z</time></trkpt><trkpt lat="42.14289115705697" lon="12.017175937011832"><ele>125.0</ele><time>2026-04-21T09:37:09.001Z</time></trkpt><trkpt lat="42.14310054101702" lon="12.017088277326668"><ele>125.0</ele><time>2026-04-21T09:37:10.001Z</time></trkpt><trkpt lat="42.14328322936087" lon="12.01699189449586"><ele>125.0</ele><time>2026-04-21T09:37:11.001Z</time></trkpt><trkpt lat="42.143470861710114" lon="12.016879304615316"><ele>122.5</ele><time>2026-04-21T09:37:12.001Z</time></trkpt><trkpt lat="42.14368208872451" lon="12.01673862194202"><ele>120.0</ele><time>2026-04-21T09:37:13.001Z</time></trkpt><trkpt lat="42.14390769827981" lon="12.016594555266618"><ele>123.0</ele><time>2026-04-21T09:37:14.001Z</time></trkpt><trkpt lat="42.144128855630235" lon="12.016459242453571"><ele>126.0</ele><time>2026-04-21T09:37:15.001Z</time></trkpt><trkpt lat="42.14432335803793" lon="12.016329806154049"><ele>126.0</ele><time>2026-04-21T09:37:16.001Z</time></trkpt><trkpt lat="42.144529211414955" lon="12.016195155256455"><ele>126.0</ele><time>2026-04-21T09:37:17.001Z</time></trkpt><trkpt lat="42.14475062471561" lon="12.016056418887693"><ele>123.66666666666666</ele><time>2026-04-21T09:37:18.001Z</time></trkpt><trkpt lat="42.144941807719206" lon="12.015942092460866"><ele>121.33333333333333</ele><time>2026-04-21T09:37:19Z</time></trkpt><trkpt lat="42.14511691207635" lon="12.01582797682878"><ele>119.0</ele><time>2026-04-21T09:37:20Z</time></trkpt><trkpt lat="42.14528979144586" lon="12.01570605876558"><ele>118.33333333333333</ele><time>2026-04-21T09:37:21Z</time></trkpt><trkpt lat="42.14547144029763" lon="12.015550963335048"><ele>117.66666666666666</ele><time>2026-04-21T09:37:22Z</time></trkpt><trkpt lat="42.1456453794838" lon="12.015347526424012"><ele>117.0</ele><time>2026-04-21T09:37:23Z</time></trkpt><trkpt lat="42.14579921791241" lon="12.01512203986785"><ele>118.0</ele><time>2026-04-21T09:37:24Z</time></trkpt><trkpt lat="42.14594168074591" lon="12.014910540585024"><ele>119.0</ele><time>2026-04-21T09:37:25Z</time></trkpt><trkpt lat="42.14608584826386" lon="12.014710850173017"><ele>120.0</ele><time>2026-04-21T09:37:26Z</time></trkpt><trkpt lat="42.14622103215154" lon="12.014530711499559"><ele>120.0</ele><time>2026-04-21T09:37:27Z</time></trkpt><trkpt lat="42.14635197591642" lon="12.014360275380211"><ele>120.0</ele><time>2026-04-21T09:37:28Z</time></trkpt><trkpt lat="42.14647756826952" lon="12.01420564086741"><ele>120.0</ele><time>2026-04-21T09:37:29Z</time></trkpt><trkpt lat="42.146609469003984" lon="12.0140777167183"><ele>121.75</ele><time>2026-04-21T09:37:30Z</time></trkpt><trkpt lat="42.14673445859557" lon="12.013979327414141"><ele>123.5</ele><time>2026-04-21T09:37:31Z</time></trkpt><trkpt lat="42.146863821460684" lon="12.01387698315678"><ele>125.25</ele><time>2026-04-21T09:37:32Z</time></trkpt><trkpt lat="42.14699031106926" lon="12.013782777295601"><ele>127.0</ele><time>2026-04-21T09:37:33Z</time></trkpt><trkpt lat="42.147116437809956" lon="12.013708284056605"><ele>127.0</ele><time>2026-04-21T09:37:34Z</time></trkpt><trkpt lat="42.147255758929674" lon="12.013636778246399"><ele>127.0</ele><time>2026-04-21T09:37:35Z</time></trkpt><trkpt lat="42.14739883552193" lon="12.013569571425109"><ele>127.0</ele><time>2026-04-21T09:37:36Z</time></trkpt><trkpt lat="42.14755348185946" lon="12.013515707471779"><ele>125.0</ele><time>2026-04-21T09:37:37Z</time></trkpt><trkpt lat="42.147710752963135" lon="12.013482581565437"><ele>123.0</ele><time>2026-04-21T09:37:38Z</time></trkpt><trkpt lat="42.14789741187369" lon="12.01342247023226"><ele>121.0</ele><time>2026-04-21T09:37:39Z</time></trkpt><trkpt lat="42.14805029979551" lon="12.0133465619262"><ele>122.33333333333334</ele><time>2026-04-21T09:37:40Z</time></trkpt><trkpt lat="42.14818795036605" lon="12.01327128441705"><ele>123.66666666666666</ele><time>2026-04-21T09:37:41Z</time></trkpt><trkpt lat="42.148334572866446" lon="12.013192208429203"><ele>125.0</ele><time>2026-04-21T09:37:42Z</time></trkpt><trkpt lat="42.148492274093336" lon="12.01311354668229"><ele>125.0</ele><time>2026-04-21T09:37:43Z</time></trkpt><trkpt lat="42.14866694099778" lon="12.0130284018005"><ele>125.0</ele><time>2026-04-21T09:37:44Z</time></trkpt><trkpt lat="42.1488293746663" lon="12.012940428999897"><ele>125.0</ele><time>2026-04-21T09:37:45Z</time></trkpt><trkpt lat="42.14897913532026" lon="12.012858845900222"><ele>125.66666666666666</ele><time>2026-04-21T09:37:46Z</time></trkpt><trkpt lat="42.1491241680151" lon="12.012782896754512"><ele>126.33333333333334</ele><time>2026-04-21T09:37:47Z</time></trkpt><trkpt lat="42.149287294434565" lon="12.012714305683232"><ele>127.0</ele><time>2026-04-21T09:37:48Z</time></trkpt><trkpt lat="42.149467177123285" lon="12.01267673339366"><ele>127.0</ele><time>2026-04-21T09:37:49Z</time></trkpt><trkpt lat="42.149652787789876" lon="12.012680806708051"><ele>127.0</ele><time>2026-04-21T09:37:50Z</time></trkpt><trkpt lat="42.149840323421635" lon="12.012744496058392"><ele>127.0</ele><time>2026-04-21T09:37:51.001Z</time></trkpt><trkpt lat="42.14999421059432" lon="12.012847627871121"><ele>129.0</ele><time>2026-04-21T09:37:52.001Z</time></trkpt><trkpt lat="42.15016273322657" lon="12.012972329451944"><ele>131.0</ele><time>2026-04-21T09:37:53.001Z</time></trkpt><trkpt lat="42.15032938167782" lon="12.013060242365313"><ele>133.0</ele><time>2026-04-21T09:37:54.001Z</time></trkpt><trkpt lat="42.15051823148222" lon="12.013094270160702"><ele>133.0</ele><time>2026-04-21T09:37:55.001Z</time></trkpt><trkpt lat="42.150700624873664" lon="12.013079341149371"><ele>133.0</ele><time>2026-04-21T09:37:56.001Z</time></trkpt><trkpt lat="42.150859184932095" lon="12.013077957246423"><ele>133.0</ele><time>2026-04-21T09:37:57.001Z</time></trkpt><trkpt lat="42.15101253302357" lon="12.013029930917918"><ele>131.66666666666669</ele><time>2026-04-21T09:37:58.001Z</time></trkpt><trkpt lat="42.15115913272347" lon="12.012890707410985"><ele>130.33333333333334</ele><time>2026-04-21T09:37:59.001Z</time></trkpt><trkpt lat="42.15128528792087" lon="12.012706214545851"><ele>129.0</ele><time>2026-04-21T09:38:00.001Z</time></trkpt><trkpt lat="42.151441357221856" lon="12.01247647614679"><ele>125.0</ele><time>2026-04-21T09:38:01.001Z</time></trkpt><trkpt lat="42.15160682543456" lon="12.012242033805753"><ele>121.0</ele><time>2026-04-21T09:38:02.001Z</time></trkpt><trkpt lat="42.15176114464905" lon="12.012049981382814"><ele>121.0</ele><time>2026-04-21T09:38:03.001Z</time></trkpt><trkpt lat="42.151905301505096" lon="12.011866352570255"><ele>121.0</ele><time>2026-04-21T09:38:04.001Z</time></trkpt><trkpt lat="42.152037921565736" lon="12.011666691822406"><ele>121.0</ele><time>2026-04-21T09:38:05.001Z</time></trkpt><trkpt lat="42.1521402645819" lon="12.01144571223393"><ele>124.0</ele><time>2026-04-21T09:38:06.001Z</time></trkpt><trkpt lat="42.15221059588406" lon="12.011197951852099"><ele>127.0</ele><time>2026-04-21T09:38:07.001Z</time></trkpt><trkpt lat="42.152268902270755" lon="12.010898439905729"><ele>130.0</ele><time>2026-04-21T09:38:08.001Z</time></trkpt><trkpt lat="42.15232218092957" lon="12.010604952178749"><ele>122.5</ele><time>2026-04-21T09:38:09.001Z</time></trkpt><trkpt lat="42.15237562053145" lon="12.010314865217225"><ele>115.0</ele><time>2026-04-21T09:38:10.001Z</time></trkpt><trkpt lat="42.15243501148263" lon="12.010017891533373"><ele>115.66666666666667</ele><time>2026-04-21T09:38:11.001Z</time></trkpt><trkpt lat="42.152496153763074" lon="12.009723528931783"><ele>116.33333333333334</ele><time>2026-04-21T09:38:12.001Z</time></trkpt><trkpt lat="42.152558925603834" lon="12.00945158174764"><ele>117.0</ele><time>2026-04-21T09:38:13.001Z</time></trkpt><trkpt lat="42.15261221240461" lon="12.009182304815115"><ele>116.0</ele><time>2026-04-21T09:38:14.001Z</time></trkpt><trkpt lat="42.152666022512996" lon="12.00893087036746"><ele>115.0</ele><time>2026-04-21T09:38:15.001Z</time></trkpt><trkpt lat="42.15271571499148" lon="12.008688911899313"><ele>114.0</ele><time>2026-04-21T09:38:16.001Z</time></trkpt><trkpt lat="42.15276190262325" lon="12.008452271533722"><ele>114.33333333333334</ele><time>2026-04-21T09:38:17.001Z</time></trkpt><trkpt lat="42.15279479312142" lon="12.008241430941958"><ele>114.66666666666667</ele><time>2026-04-21T09:38:18.001Z</time></trkpt><trkpt lat="42.15279955858079" lon="12.00802037643298"><ele>115.0</ele><time>2026-04-21T09:38:19.001Z</time></trkpt><trkpt lat="42.15275899614329" lon="12.007805746655265"><ele>115.0</ele><time>2026-04-21T09:38:20.001Z</time></trkpt><trkpt lat="42.15266924955881" lon="12.007617083253361"><ele>115.0</ele><time>2026-04-21T09:38:21.001Z</time></trkpt><trkpt lat="42.15254954543328" lon="12.007402518186955"><ele>115.0</ele><time>2026-04-21T09:38:22.001Z</time></trkpt><trkpt lat="42.152430261676166" lon="12.00716268128343"><ele>115.33333333333334</ele><time>2026-04-21T09:38:23.001Z</time></trkpt><trkpt lat="42.1523398465025" lon="12.006935616169114"><ele>115.66666666666666</ele><time>2026-04-21T09:38:24.001Z</time></trkpt><trkpt lat="42.152279574040335" lon="12.006696577363305"><ele>116.0</ele><time>2026-04-21T09:38:25.001Z</time></trkpt><trkpt lat="42.15223268436504" lon="12.006451049709932"><ele>116.33333333333333</ele><time>2026-04-21T09:38:26.001Z</time></trkpt><trkpt lat="42.152178084167446" lon="12.006209175454451"><ele>116.66666666666666</ele><time>2026-04-21T09:38:27.001Z</time></trkpt><trkpt lat="42.15209709606791" lon="12.005981927994199"><ele>117.0</ele><time>2026-04-21T09:38:28.001Z</time></trkpt><trkpt lat="42.15202351099913" lon="12.005763244509232"><ele>117.33333333333334</ele><time>2026-04-21T09:38:29.001Z</time></trkpt><trkpt lat="42.15199927649357" lon="12.005506594166125"><ele>117.66666666666667</ele><time>2026-04-21T09:38:30.001Z</time></trkpt><trkpt lat="42.152036594782196" lon="12.00524073588827"><ele>118.0</ele><time>2026-04-21T09:38:31.001Z</time></trkpt><trkpt lat="42.15209704632027" lon="12.004978625063229"><ele>117.33333333333334</ele><time>2026-04-21T09:38:32.001Z</time></trkpt><trkpt lat="42.1521449506805" lon="12.004726953553831"><ele>116.66666666666666</ele><time>2026-04-21T09:38:33.001Z</time></trkpt><trkpt lat="42.15213858190436" lon="12.004467501586015"><ele>116.0</ele><time>2026-04-21T09:38:34.001Z</time></trkpt><trkpt lat="42.15207659153122" lon="12.00417777105882"><ele>116.0</ele><time>2026-04-21T09:38:35.001Z</time></trkpt><trkpt lat="42.151979064756986" lon="12.003855859407278"><ele>116.0</ele><time>2026-04-21T09:38:36.001Z</time></trkpt><trkpt lat="42.15187656334548" lon="12.003508943885016"><ele>117.5</ele><time>2026-04-21T09:38:37.001Z</time></trkpt><trkpt lat="42.15180345280753" lon="12.003195858789052"><ele>119.0</ele><time>2026-04-21T09:38:38.001Z</time></trkpt><trkpt lat="42.15173432876689" lon="12.002903523591629"><ele>119.0</ele><time>2026-04-21T09:38:39.001Z</time></trkpt><trkpt lat="42.15166966616886" lon="12.002621674039334"><ele>119.0</ele><time>2026-04-21T09:38:40.001Z</time></trkpt><trkpt lat="42.15162254154747" lon="12.00235826101373"><ele>119.0</ele><time>2026-04-21T09:38:41.001Z</time></trkpt><trkpt lat="42.1515837879191" lon="12.002064594780164"><ele>118.33333333333333</ele><time>2026-04-21T09:38:42.001Z</time></trkpt><trkpt lat="42.15153747295535" lon="12.001791199049404"><ele>117.66666666666666</ele><time>2026-04-21T09:38:43.001Z</time></trkpt><trkpt lat="42.15145670348592" lon="12.001516514172458"><ele>117.0</ele><time>2026-04-21T09:38:44.001Z</time></trkpt><trkpt lat="42.151340667817884" lon="12.00124886137112"><ele>116.5</ele><time>2026-04-21T09:38:45.001Z</time></trkpt><trkpt lat="42.151197738616695" lon="12.000977012520853"><ele>116.0</ele><time>2026-04-21T09:38:46.001Z</time></trkpt><trkpt lat="42.15104630161757" lon="12.000685122148331"><ele>117.33333333333333</ele><time>2026-04-21T09:38:47.001Z</time></trkpt><trkpt lat="42.15091913638455" lon="12.000428210559175"><ele>118.66666666666666</ele><time>2026-04-21T09:38:48.001Z</time></trkpt><trkpt lat="42.15081004744154" lon="12.000200801624802"><ele>120.0</ele><time>2026-04-21T09:38:49.001Z</time></trkpt><trkpt lat="42.15070545514802" lon="11.999970917358105"><ele>120.0</ele><time>2026-04-21T09:38:50.001Z</time></trkpt><trkpt lat="42.15062498206883" lon="11.999726430702658"><ele>120.0</ele><time>2026-04-21T09:38:51.001Z</time></trkpt><trkpt lat="42.150566760435765" lon="11.999429802751173"><ele>120.0</ele><time>2026-04-21T09:38:52.001Z</time></trkpt><trkpt lat="42.150519224570594" lon="11.999057780433837"><ele>120.0</ele><time>2026-04-21T09:38:53.001Z</time></trkpt><trkpt lat="42.150482620507184" lon="11.998715678588207"><ele>120.0</ele><time>2026-04-21T09:38:54.001Z</time></trkpt><trkpt lat="42.1504320603674" lon="11.998402072483826"><ele>121.5</ele><time>2026-04-21T09:38:55.001Z</time></trkpt><trkpt lat="42.15037553466268" lon="11.998060164439085"><ele>123.0</ele><time>2026-04-21T09:38:56.001Z</time></trkpt><trkpt lat="42.15032220591173" lon="11.9977385672487"><ele>122.5</ele><time>2026-04-21T09:38:57.001Z</time></trkpt><trkpt lat="42.15023800926752" lon="11.997441400477054"><ele>122.0</ele><time>2026-04-21T09:38:58.001Z</time></trkpt><trkpt lat="42.15014012833045" lon="11.9971044465"><ele>122.0</ele><time>2026-04-21T09:38:59.001Z</time></trkpt><trkpt lat="42.15006335205816" lon="11.996785838060235"><ele>122.0</ele><time>2026-04-21T09:39:00.001Z</time></trkpt><trkpt lat="42.149980872300375" lon="11.996487129785073"><ele>121.5</ele><time>2026-04-21T09:39:01.001Z</time></trkpt><trkpt lat="42.14990070074419" lon="11.996153344644139"><ele>121.0</ele><time>2026-04-21T09:39:02.001Z</time></trkpt><trkpt lat="42.14980592915464" lon="11.995888480759259"><ele>120.0</ele><time>2026-04-21T09:39:03.001Z</time></trkpt><trkpt lat="42.1497204758514" lon="11.995627504841577"><ele>119.0</ele><time>2026-04-21T09:39:04.001Z</time></trkpt><trkpt lat="42.14961455706422" lon="11.995376344032977"><ele>118.0</ele><time>2026-04-21T09:39:05.001Z</time></trkpt><trkpt lat="42.14948597139954" lon="11.99518053538669"><ele>118.0</ele><time>2026-04-21T09:39:06.001Z</time></trkpt><trkpt lat="42.149349269711706" lon="11.995010517479379"><ele>118.0</ele><time>2026-04-21T09:39:07.001Z</time></trkpt><trkpt lat="42.149231805209894" lon="11.99485968216796"><ele>118.0</ele><time>2026-04-21T09:39:08.001Z</time></trkpt><trkpt lat="42.149151906306486" lon="11.994692986775505"><ele>119.66666666666667</ele><time>2026-04-21T09:39:09.001Z</time></trkpt><trkpt lat="42.1491156931211" lon="11.99449749344483"><ele>121.33333333333334</ele><time>2026-04-21T09:39:10.001Z</time></trkpt><trkpt lat="42.14911548433808" lon="11.994300644859656"><ele>123.0</ele><time>2026-04-21T09:39:11.001Z</time></trkpt><trkpt lat="42.149167205523476" lon="11.994098685839896"><ele>124.0</ele><time>2026-04-21T09:39:12.001Z</time></trkpt><trkpt lat="42.14922807730598" lon="11.993877876657434"><ele>125.0</ele><time>2026-04-21T09:39:13.001Z</time></trkpt><trkpt lat="42.149332594714494" lon="11.99362468624506"><ele>126.0</ele><time>2026-04-21T09:39:14.001Z</time></trkpt><trkpt lat="42.14941643603861" lon="11.993367687715333"><ele>126.0</ele><time>2026-04-21T09:39:15.001Z</time></trkpt><trkpt lat="42.14948571313404" lon="11.993141856799024"><ele>126.0</ele><time>2026-04-21T09:39:16.001Z</time></trkpt><trkpt lat="42.14955777033946" lon="11.99291682399081"><ele>126.0</ele><time>2026-04-21T09:39:17.001Z</time></trkpt><trkpt lat="42.14961862761102" lon="11.992670287673967"><ele>125.5</ele><time>2026-04-21T09:39:18.001Z</time></trkpt><trkpt lat="42.14967013564543" lon="11.992384365083474"><ele>125.0</ele><time>2026-04-21T09:39:19.001Z</time></trkpt><trkpt lat="42.14970825087392" lon="11.99206012417062"><ele>125.0</ele><time>2026-04-21T09:39:20.001Z</time></trkpt><trkpt lat="42.149750952731" lon="11.991703647186323"><ele>125.0</ele><time>2026-04-21T09:39:21.001Z</time></trkpt><trkpt lat="42.14979632024212" lon="11.991372788085005"><ele>124.66666666666666</ele><time>2026-04-21T09:39:22.001Z</time></trkpt><trkpt lat="42.14984237363023" lon="11.991219326764986"><ele>124.33333333333334</ele><time>2026-04-21T09:39:23.001Z</time></trkpt><trkpt lat="42.149865252591965" lon="11.990966999057589"><ele>124.0</ele><time>2026-04-21T09:39:24.001Z</time></trkpt><trkpt lat="42.14988172820074" lon="11.990761280165293"><ele>124.0</ele><time>2026-04-21T09:39:25Z</time></trkpt><trkpt lat="42.149863682915175" lon="11.9905841735623"><ele>124.0</ele><time>2026-04-21T09:39:26Z</time></trkpt><trkpt lat="42.14981782414261" lon="11.990423606434636"><ele>124.0</ele><time>2026-04-21T09:39:27Z</time></trkpt><trkpt lat="42.14965119524492" lon="11.990298055287651"><ele>124.0</ele><time>2026-04-21T09:39:28Z</time></trkpt><trkpt lat="42.149470826471315" lon="11.990165969095633"><ele>124.0</ele><time>2026-04-21T09:39:29Z</time></trkpt><trkpt lat="42.14924864978883" lon="11.9899985661732"><ele>124.0</ele><time>2026-04-21T09:39:30Z</time></trkpt><trkpt lat="42.149024619175705" lon="11.989799400534102"><ele>124.0</ele><time>2026-04-21T09:39:31Z</time></trkpt><trkpt lat="42.14885983552492" lon="11.989630331470606"><ele>124.0</ele><time>2026-04-21T09:39:32Z</time></trkpt><trkpt lat="42.148682507700855" lon="11.989467995314394"><ele>124.0</ele><time>2026-04-21T09:39:33Z</time></trkpt><trkpt lat="42.14847936736478" lon="11.989274696700999"><ele>126.0</ele><time>2026-04-21T09:39:34Z</time></trkpt><trkpt lat="42.14831722330032" lon="11.989094208249329"><ele>128.0</ele><time>2026-04-21T09:39:35Z</time></trkpt><trkpt lat="42.14820822613283" lon="11.988911468525474"><ele>130.0</ele><time>2026-04-21T09:39:36Z</time></trkpt><trkpt lat="42.14810365751398" lon="11.988692100290933"><ele>130.0</ele><time>2026-04-21T09:39:37Z</time></trkpt><trkpt lat="42.147980434804246" lon="11.98843046790162"><ele>130.0</ele><time>2026-04-21T09:39:38Z</time></trkpt><trkpt lat="42.147839427268785" lon="11.988124254875798"><ele>130.0</ele><time>2026-04-21T09:39:39Z</time></trkpt><trkpt lat="42.14771618515755" lon="11.987853708183488"><ele>130.0</ele><time>2026-04-21T09:39:40Z</time></trkpt><trkpt lat="42.14759156371623" lon="11.987621709384538"><ele>130.0</ele><time>2026-04-21T09:39:41Z</time></trkpt><trkpt lat="42.14748208992729" lon="11.987377107485365"><ele>131.66666666666669</ele><time>2026-04-21T09:39:42Z</time></trkpt><trkpt lat="42.14739006857214" lon="11.987156188233987"><ele>133.33333333333334</ele><time>2026-04-21T09:39:43Z</time></trkpt><trkpt lat="42.14728650255321" lon="11.986963985386161"><ele>135.0</ele><time>2026-04-21T09:39:44Z</time></trkpt><trkpt lat="42.147136202739624" lon="11.9868080639521"><ele>135.0</ele><time>2026-04-21T09:39:45Z</time></trkpt><trkpt lat="42.14698456100456" lon="11.986706671606997"><ele>135.0</ele><time>2026-04-21T09:39:46Z</time></trkpt><trkpt lat="42.14685118521855" lon="11.986600177027956"><ele>135.0</ele><time>2026-04-21T09:39:47Z</time></trkpt><trkpt lat="42.14674818880128" lon="11.986424623438362"><ele>136.0</ele><time>2026-04-21T09:39:48Z</time></trkpt><trkpt lat="42.14669950778331" lon="11.986214195613668"><ele>137.0</ele><time>2026-04-21T09:39:49Z</time></trkpt><trkpt lat="42.14668300797466" lon="11.985969225164576"><ele>138.0</ele><time>2026-04-21T09:39:50Z</time></trkpt><trkpt lat="42.14665128919845" lon="11.985714422021324"><ele>139.0</ele><time>2026-04-21T09:39:51Z</time></trkpt><trkpt lat="42.14658223689098" lon="11.985500941440021"><ele>140.0</ele><time>2026-04-21T09:39:52Z</time></trkpt><trkpt lat="42.14647830908524" lon="11.985321071326469"><ele>141.0</ele><time>2026-04-21T09:39:53Z</time></trkpt><trkpt lat="42.14634164491301" lon="11.985195748613506"><ele>138.66666666666666</ele><time>2026-04-21T09:39:54Z</time></trkpt><trkpt lat="42.14615866361954" lon="11.985105618155554"><ele>136.33333333333331</ele><time>2026-04-21T09:39:55Z</time></trkpt><trkpt lat="42.145972098864135" lon="11.984973983200277"><ele>134.0</ele><time>2026-04-21T09:39:56Z</time></trkpt><trkpt lat="42.145835268515114" lon="11.984822151476054"><ele>134.0</ele><time>2026-04-21T09:39:57Z</time></trkpt><trkpt lat="42.14571491269651" lon="11.984639567831977"><ele>134.0</ele><time>2026-04-21T09:39:58Z</time></trkpt><trkpt lat="42.14556316073762" lon="11.984457688568588"><ele>134.0</ele><time>2026-04-21T09:39:59Z</time></trkpt><trkpt lat="42.14542247529726" lon="11.984267381593275"><ele>133.0</ele><time>2026-04-21T09:40:00Z</time></trkpt><trkpt lat="42.14529642485005" lon="11.9840854649954"><ele>132.0</ele><time>2026-04-21T09:40:01Z</time></trkpt><trkpt lat="42.1451756863319" lon="11.983903629787779"><ele>131.0</ele><time>2026-04-21T09:40:02Z</time></trkpt><trkpt lat="42.1450831965208" lon="11.983712912764762"><ele>131.0</ele><time>2026-04-21T09:40:03Z</time></trkpt><trkpt lat="42.14502240065943" lon="11.983486007809038"><ele>131.0</ele><time>2026-04-21T09:40:04Z</time></trkpt><trkpt lat="42.14498843250905" lon="11.983218080636027"><ele>131.0</ele><time>2026-04-21T09:40:05.001Z</time></trkpt><trkpt lat="42.144982551746125" lon="11.982937122973244"><ele>131.66666666666666</ele><time>2026-04-21T09:40:06.001Z</time></trkpt><trkpt lat="42.14494572303335" lon="11.98264480699442"><ele>132.33333333333334</ele><time>2026-04-21T09:40:07.001Z</time></trkpt><trkpt lat="42.144916285953315" lon="11.982392803044887"><ele>133.0</ele><time>2026-04-21T09:40:08.001Z</time></trkpt><trkpt lat="42.14490292054678" lon="11.982157774479147"><ele>133.66666666666669</ele><time>2026-04-21T09:40:09.001Z</time></trkpt><trkpt lat="42.14493021534695" lon="11.981916253386666"><ele>134.33333333333334</ele><time>2026-04-21T09:40:10.001Z</time></trkpt><trkpt lat="42.14500622910923" lon="11.981667124024412"><ele>135.0</ele><time>2026-04-21T09:40:11.001Z</time></trkpt><trkpt lat="42.145105009078115" lon="11.981439218970372"><ele>135.0</ele><time>2026-04-21T09:40:12.001Z</time></trkpt><trkpt lat="42.14520329317968" lon="11.98117825728552"><ele>135.0</ele><time>2026-04-21T09:40:13.001Z</time></trkpt><trkpt lat="42.14531755000941" lon="11.980886905503876"><ele>135.0</ele><time>2026-04-21T09:40:14.001Z</time></trkpt><trkpt lat="42.145412873361494" lon="11.980626614372277"><ele>135.0</ele><time>2026-04-21T09:40:15.001Z</time></trkpt><trkpt lat="42.14551209085458" lon="11.980346791232472"><ele>135.0</ele><time>2026-04-21T09:40:16.001Z</time></trkpt><trkpt lat="42.14560683194042" lon="11.98007255648835"><ele>135.5</ele><time>2026-04-21T09:40:17.001Z</time></trkpt><trkpt lat="42.14571182596507" lon="11.97977371739412"><ele>136.0</ele><time>2026-04-21T09:40:18.001Z</time></trkpt><trkpt lat="42.145823015515525" lon="11.97943632190151"><ele>137.0</ele><time>2026-04-21T09:40:19.001Z</time></trkpt><trkpt lat="42.14591790989491" lon="11.979087992244793"><ele>138.0</ele><time>2026-04-21T09:40:20.001Z</time></trkpt><trkpt lat="42.14599346205468" lon="11.978751259734928"><ele>138.0</ele><time>2026-04-21T09:40:21.001Z</time></trkpt><trkpt lat="42.14605988131368" lon="11.978426481944988"><ele>138.0</ele><time>2026-04-21T09:40:22.001Z</time></trkpt><trkpt lat="42.14612947527085" lon="11.978093654473321"><ele>138.0</ele><time>2026-04-21T09:40:23.001Z</time></trkpt><trkpt lat="42.14620309459379" lon="11.977745033482362"><ele>138.0</ele><time>2026-04-21T09:40:24.001Z</time></trkpt><trkpt lat="42.14626682058101" lon="11.977423094662095"><ele>139.0</ele><time>2026-04-21T09:40:25.001Z</time></trkpt><trkpt lat="42.14633062943361" lon="11.977104614335046"><ele>140.0</ele><time>2026-04-21T09:40:26.001Z</time></trkpt><trkpt lat="42.14639180330859" lon="11.97677743164132"><ele>141.0</ele><time>2026-04-21T09:40:27.001Z</time></trkpt><trkpt lat="42.146453151624144" lon="11.976453713546936"><ele>142.0</ele><time>2026-04-21T09:40:28.001Z</time></trkpt><trkpt lat="42.146520058296275" lon="11.976128609456197"><ele>145.0</ele><time>2026-04-21T09:40:29.001Z</time></trkpt><trkpt lat="42.14657936153472" lon="11.975836027659922"><ele>148.0</ele><time>2026-04-21T09:40:30.001Z</time></trkpt><trkpt lat="42.146652889416245" lon="11.975527880672036"><ele>148.0</ele><time>2026-04-21T09:40:31.001Z</time></trkpt><trkpt lat="42.14674094492348" lon="11.975220195006004"><ele>148.0</ele><time>2026-04-21T09:40:32.001Z</time></trkpt><trkpt lat="42.146828692026396" lon="11.974937960666965"><ele>147.0</ele><time>2026-04-21T09:40:33.001Z</time></trkpt><trkpt lat="42.14692167724037" lon="11.974650288865883"><ele>146.0</ele><time>2026-04-21T09:40:34.001Z</time></trkpt><trkpt lat="42.14702258103445" lon="11.974388976977037"><ele>145.5</ele><time>2026-04-21T09:40:35.001Z</time></trkpt><trkpt lat="42.147147631636784" lon="11.974120478721842"><ele>145.0</ele><time>2026-04-21T09:40:36.001Z</time></trkpt><trkpt lat="42.14730197811583" lon="11.973860169253792"><ele>147.5</ele><time>2026-04-21T09:40:37.001Z</time></trkpt><trkpt lat="42.14747390782405" lon="11.973566241395995"><ele>150.0</ele><time>2026-04-21T09:40:38.001Z</time></trkpt><trkpt lat="42.14765619507243" lon="11.973256018201122"><ele>150.0</ele><time>2026-04-21T09:40:39.001Z</time></trkpt><trkpt lat="42.14783507983013" lon="11.972960988875204"><ele>150.0</ele><time>2026-04-21T09:40:40.001Z</time></trkpt><trkpt lat="42.148019339691295" lon="11.972677842081211"><ele>149.5</ele><time>2026-04-21T09:40:41.001Z</time></trkpt><trkpt lat="42.14820196380705" lon="11.972381773546665"><ele>149.0</ele><time>2026-04-21T09:40:42.001Z</time></trkpt><trkpt lat="42.14838187751488" lon="11.97208179856761"><ele>153.5</ele><time>2026-04-21T09:40:43.001Z</time></trkpt><trkpt lat="42.148574674551334" lon="11.971767364971013"><ele>158.0</ele><time>2026-04-21T09:40:44.001Z</time></trkpt><trkpt lat="42.14874639702846" lon="11.971476391279658"><ele>158.0</ele><time>2026-04-21T09:40:45.001Z</time></trkpt><trkpt lat="42.14891033470471" lon="11.971202243429497"><ele>158.0</ele><time>2026-04-21T09:40:46.001Z</time></trkpt><trkpt lat="42.149069766429484" lon="11.970950080655399"><ele>163.5</ele><time>2026-04-21T09:40:47.001Z</time></trkpt><trkpt lat="42.14923016168387" lon="11.970689783401296"><ele>169.0</ele><time>2026-04-21T09:40:48.001Z</time></trkpt><trkpt lat="42.149387039756554" lon="11.97042438490996"><ele>169.0</ele><time>2026-04-21T09:40:49.001Z</time></trkpt><trkpt lat="42.149539629426634" lon="11.97016019046187"><ele>169.0</ele><time>2026-04-21T09:40:50.001Z</time></trkpt><trkpt lat="42.149688733398094" lon="11.969911705664538"><ele>168.0</ele><time>2026-04-21T09:40:51.001Z</time></trkpt><trkpt lat="42.14982312709762" lon="11.96968643998232"><ele>167.0</ele><time>2026-04-21T09:40:52.001Z</time></trkpt><trkpt lat="42.149955890674015" lon="11.969482994001673"><ele>166.0</ele><time>2026-04-21T09:40:53.001Z</time></trkpt><trkpt lat="42.15012341207031" lon="11.969305221423829"><ele>168.66666666666669</ele><time>2026-04-21T09:40:54.001Z</time></trkpt><trkpt lat="42.15030241486809" lon="11.969137161797187"><ele>171.33333333333334</ele><time>2026-04-21T09:40:55.001Z</time></trkpt><trkpt lat="42.15049829424075" lon="11.968994686911389"><ele>174.0</ele><time>2026-04-21T09:40:56.001Z</time></trkpt><trkpt lat="42.15068044548734" lon="11.96884442508358"><ele>181.0</ele><time>2026-04-21T09:40:57.001Z</time></trkpt><trkpt lat="42.150877289106354" lon="11.968672944881021"><ele>188.0</ele><time>2026-04-21T09:40:58.001Z</time></trkpt><trkpt lat="42.15110831611554" lon="11.9684884400808"><ele>185.0</ele><time>2026-04-21T09:40:59.001Z</time></trkpt><trkpt lat="42.15134143181159" lon="11.968291596026672"><ele>182.0</ele><time>2026-04-21T09:41:00.001Z</time></trkpt><trkpt lat="42.15154118438989" lon="11.96814875748428"><ele>186.33333333333331</ele><time>2026-04-21T09:41:01.001Z</time></trkpt><trkpt lat="42.1517297260676" lon="11.967996501269024"><ele>190.66666666666666</ele><time>2026-04-21T09:41:02.001Z</time></trkpt><trkpt lat="42.15191652871994" lon="11.967839712589852"><ele>195.0</ele><time>2026-04-21T09:41:03.001Z</time></trkpt><trkpt lat="42.152111785375716" lon="11.967683663051268"><ele>195.0</ele><time>2026-04-21T09:41:04.001Z</time></trkpt><trkpt lat="42.15230849670327" lon="11.96752788784636"><ele>195.0</ele><time>2026-04-21T09:41:05.001Z</time></trkpt><trkpt lat="42.15248568163069" lon="11.967393709448663"><ele>195.0</ele><time>2026-04-21T09:41:06.001Z</time></trkpt><trkpt lat="42.152669411498046" lon="11.967236334766982"><ele>199.0</ele><time>2026-04-21T09:41:07.001Z</time></trkpt><trkpt lat="42.152868855483995" lon="11.967097055986372"><ele>203.0</ele><time>2026-04-21T09:41:08.001Z</time></trkpt><trkpt lat="42.15307096301766" lon="11.966940450728874"><ele>205.33333333333334</ele><time>2026-04-21T09:41:09.001Z</time></trkpt><trkpt lat="42.153229598252764" lon="11.966807783513234"><ele>207.66666666666669</ele><time>2026-04-21T09:41:10.001Z</time></trkpt><trkpt lat="42.153399602240334" lon="11.966699135343266"><ele>210.0</ele><time>2026-04-21T09:41:11.001Z</time></trkpt><trkpt lat="42.153557497933804" lon="11.966539521389759"><ele>210.0</ele><time>2026-04-21T09:41:12.001Z</time></trkpt><trkpt lat="42.153700245002774" lon="11.966362604802256"><ele>210.0</ele><time>2026-04-21T09:41:13.001Z</time></trkpt><trkpt lat="42.15382608071187" lon="11.966144536022004"><ele>210.0</ele><time>2026-04-21T09:41:14.001Z</time></trkpt><trkpt lat="42.15394455664727" lon="11.965898789479752"><ele>211.0</ele><time>2026-04-21T09:41:15.001Z</time></trkpt><trkpt lat="42.15403449038136" lon="11.965603945429336"><ele>212.0</ele><time>2026-04-21T09:41:16.001Z</time></trkpt><trkpt lat="42.15415502625196" lon="11.965317353911477"><ele>212.0</ele><time>2026-04-21T09:41:17.001Z</time></trkpt><trkpt lat="42.1542538030875" lon="11.965055448370402"><ele>212.0</ele><time>2026-04-21T09:41:18.001Z</time></trkpt><trkpt lat="42.154396820997256" lon="11.964794708789057"><ele>216.0</ele><time>2026-04-21T09:41:19.001Z</time></trkpt><trkpt lat="42.15454836107472" lon="11.96453790004297"><ele>220.0</ele><time>2026-04-21T09:41:20.001Z</time></trkpt><trkpt lat="42.154703381300344" lon="11.964296483615636"><ele>221.0</ele><time>2026-04-21T09:41:21.001Z</time></trkpt><trkpt lat="42.15486528384858" lon="11.964043374136038"><ele>222.0</ele><time>2026-04-21T09:41:22.001Z</time></trkpt><trkpt lat="42.15505456049622" lon="11.963817083362168"><ele>222.0</ele><time>2026-04-21T09:41:23.001Z</time></trkpt><trkpt lat="42.15521983872442" lon="11.963595011955423"><ele>222.0</ele><time>2026-04-21T09:41:24.001Z</time></trkpt><trkpt lat="42.155379416507195" lon="11.963382127911647"><ele>225.5</ele><time>2026-04-21T09:41:25.001Z</time></trkpt><trkpt lat="42.155543514315426" lon="11.963157114169263"><ele>229.0</ele><time>2026-04-21T09:41:26.001Z</time></trkpt><trkpt lat="42.15571213609561" lon="11.96293226823565"><ele>232.5</ele><time>2026-04-21T09:41:27.001Z</time></trkpt><trkpt lat="42.155880458705354" lon="11.962691675250808"><ele>236.0</ele><time>2026-04-21T09:41:28.001Z</time></trkpt><trkpt lat="42.15607482056728" lon="11.962453664482762"><ele>236.0</ele><time>2026-04-21T09:41:29.001Z</time></trkpt><trkpt lat="42.156246494256415" lon="11.962221595584694"><ele>236.0</ele><time>2026-04-21T09:41:30.001Z</time></trkpt><trkpt lat="42.15640929932058" lon="11.961989092382955"><ele>240.0</ele><time>2026-04-21T09:41:31Z</time></trkpt><trkpt lat="42.156575460249286" lon="11.96174939427373"><ele>244.0</ele><time>2026-04-21T09:41:32Z</time></trkpt><trkpt lat="42.15671017864512" lon="11.961497788447414"><ele>244.0</ele><time>2026-04-21T09:41:33Z</time></trkpt><trkpt lat="42.15680450600707" lon="11.961197641508969"><ele>244.0</ele><time>2026-04-21T09:41:34Z</time></trkpt><trkpt lat="42.15687926490457" lon="11.960884507722886"><ele>245.0</ele><time>2026-04-21T09:41:35Z</time></trkpt><trkpt lat="42.15695944570216" lon="11.96053851306967"><ele>246.0</ele><time>2026-04-21T09:41:36Z</time></trkpt><trkpt lat="42.157045603749765" lon="11.960175267312598"><ele>247.0</ele><time>2026-04-21T09:41:37Z</time></trkpt><trkpt lat="42.15714907985066" lon="11.959812420637592"><ele>248.0</ele><time>2026-04-21T09:41:38Z</time></trkpt><trkpt lat="42.157241814163875" lon="11.95944069606306"><ele>250.5</ele><time>2026-04-21T09:41:39Z</time></trkpt><trkpt lat="42.157350184833966" lon="11.959036888856104"><ele>253.0</ele><time>2026-04-21T09:41:40Z</time></trkpt><trkpt lat="42.15745481301956" lon="11.958623483978752"><ele>257.5</ele><time>2026-04-21T09:41:41Z</time></trkpt><trkpt lat="42.157563235039134" lon="11.95820712782174"><ele>262.0</ele><time>2026-04-21T09:41:42Z</time></trkpt><trkpt lat="42.15765847389446" lon="11.957854257723808"><ele>262.0</ele><time>2026-04-21T09:41:43Z</time></trkpt><trkpt lat="42.15774895113254" lon="11.957541702901313"><ele>262.0</ele><time>2026-04-21T09:41:44Z</time></trkpt><trkpt lat="42.157825268309374" lon="11.957246633786257"><ele>264.3333333333333</ele><time>2026-04-21T09:41:45Z</time></trkpt><trkpt lat="42.157888541603356" lon="11.95697298824348"><ele>266.6666666666667</ele><time>2026-04-21T09:41:46Z</time></trkpt><trkpt lat="42.15793561905124" lon="11.956703015521517"><ele>269.0</ele><time>2026-04-21T09:41:47Z</time></trkpt><trkpt lat="42.15795427260682" lon="11.95643982546083"><ele>273.33333333333337</ele><time>2026-04-21T09:41:48Z</time></trkpt><trkpt lat="42.157939997722714" lon="11.956163245301504"><ele>277.6666666666667</ele><time>2026-04-21T09:41:49Z</time></trkpt><trkpt lat="42.15789104664209" lon="11.955886534024662"><ele>282.0</ele><time>2026-04-21T09:41:50Z</time></trkpt><trkpt lat="42.157832290162645" lon="11.955590770278429"><ele>284.3333333333333</ele><time>2026-04-21T09:41:51Z</time></trkpt><trkpt lat="42.15778303974369" lon="11.95527878345468"><ele>286.66666666666663</ele><time>2026-04-21T09:41:52Z</time></trkpt><trkpt lat="42.15773971486349" lon="11.955010939860133"><ele>289.0</ele><time>2026-04-21T09:41:53Z</time></trkpt><trkpt lat="42.15769334778841" lon="11.954743925606486"><ele>288.66666666666663</ele><time>2026-04-21T09:41:54Z</time></trkpt><trkpt lat="42.15766220574844" lon="11.954493619183108"><ele>288.3333333333333</ele><time>2026-04-21T09:41:55Z</time></trkpt><trkpt lat="42.15768687149964" lon="11.95423382700333"><ele>288.0</ele><time>2026-04-21T09:41:56Z</time></trkpt><trkpt lat="42.1577401246867" lon="11.953970783274304"><ele>288.0</ele><time>2026-04-21T09:41:57Z</time></trkpt><trkpt lat="42.157799364174515" lon="11.953700734480426"><ele>288.0</ele><time>2026-04-21T09:41:58Z</time></trkpt><trkpt lat="42.157884222625846" lon="11.953358452540938"><ele>285.5</ele><time>2026-04-21T09:41:59Z</time></trkpt><trkpt lat="42.15795196805808" lon="11.953025150988159"><ele>283.0</ele><time>2026-04-21T09:42:00Z</time></trkpt><trkpt lat="42.158015194720576" lon="11.952717123823827"><ele>283.0</ele><time>2026-04-21T09:42:01Z</time></trkpt><trkpt lat="42.15807870924739" lon="11.952402670205174"><ele>283.0</ele><time>2026-04-21T09:42:02Z</time></trkpt><trkpt lat="42.15816545555606" lon="11.952087645229302"><ele>283.0</ele><time>2026-04-21T09:42:03Z</time></trkpt><trkpt lat="42.1581711326267" lon="11.95174579777556"><ele>283.0</ele><time>2026-04-21T09:42:04Z</time></trkpt><trkpt lat="42.158184683626395" lon="11.951438594026238"><ele>284.0</ele><time>2026-04-21T09:42:05Z</time></trkpt><trkpt lat="42.158199369899016" lon="11.951162971146664"><ele>285.0</ele><time>2026-04-21T09:42:06Z</time></trkpt><trkpt lat="42.158221027078625" lon="11.950908547250243"><ele>286.0</ele><time>2026-04-21T09:42:07Z</time></trkpt><trkpt lat="42.15824901206932" lon="11.95067514095381"><ele>289.0</ele><time>2026-04-21T09:42:08Z</time></trkpt><trkpt lat="42.158298675258955" lon="11.950462652910684"><ele>292.0</ele><time>2026-04-21T09:42:09Z</time></trkpt><trkpt lat="42.158407085835165" lon="11.950273016777516"><ele>295.0</ele><time>2026-04-21T09:42:10Z</time></trkpt><trkpt lat="42.1585579504676" lon="11.950095626567117"><ele>297.0</ele><time>2026-04-21T09:42:11Z</time></trkpt><trkpt lat="42.158709615188556" lon="11.949885116336569"><ele>299.0</ele><time>2026-04-21T09:42:12Z</time></trkpt><trkpt lat="42.15883305374628" lon="11.949660556920154"><ele>301.0</ele><time>2026-04-21T09:42:13Z</time></trkpt><trkpt lat="42.158918547627124" lon="11.949427094504603"><ele>302.66666666666663</ele><time>2026-04-21T09:42:14Z</time></trkpt><trkpt lat="42.158974336144674" lon="11.949164437575183"><ele>304.3333333333333</ele><time>2026-04-21T09:42:15Z</time></trkpt><trkpt lat="42.15900097081425" lon="11.948886998568439"><ele>306.0</ele><time>2026-04-21T09:42:16Z</time></trkpt><trkpt lat="42.158993934410915" lon="11.94859763543381"><ele>311.5</ele><time>2026-04-21T09:42:17Z</time></trkpt><trkpt lat="42.15896803400126" lon="11.948297680384455"><ele>317.0</ele><time>2026-04-21T09:42:18Z</time></trkpt><trkpt lat="42.158932593271025" lon="11.947976048824524"><ele>317.0</ele><time>2026-04-21T09:42:19Z</time></trkpt><trkpt lat="42.15890478177383" lon="11.947715609821564"><ele>317.0</ele><time>2026-04-21T09:42:20Z</time></trkpt><trkpt lat="42.15888088450528" lon="11.947482480923673"><ele>317.0</ele><time>2026-04-21T09:42:21Z</time></trkpt><trkpt lat="42.158853597540364" lon="11.947242169126557"><ele>320.0</ele><time>2026-04-21T09:42:22.001Z</time></trkpt><trkpt lat="42.15882418452387" lon="11.946981269719252"><ele>323.0</ele><time>2026-04-21T09:42:23.001Z</time></trkpt><trkpt lat="42.15880248304088" lon="11.946736594463067"><ele>326.0</ele><time>2026-04-21T09:42:24.001Z</time></trkpt><trkpt lat="42.158786606735966" lon="11.946502143271982"><ele>329.6666666666667</ele><time>2026-04-21T09:42:25.001Z</time></trkpt><trkpt lat="42.15879490343762" lon="11.946299337293897"><ele>333.3333333333333</ele><time>2026-04-21T09:42:26.001Z</time></trkpt><trkpt lat="42.15884503055069" lon="11.946102420046188"><ele>337.0</ele><time>2026-04-21T09:42:27.001Z</time></trkpt><trkpt lat="42.158935866171845" lon="11.945906578844163"><ele>336.0</ele><time>2026-04-21T09:42:28.001Z</time></trkpt><trkpt lat="42.15905420933029" lon="11.945705063273348"><ele>335.0</ele><time>2026-04-21T09:42:29.001Z</time></trkpt><trkpt lat="42.15919315724062" lon="11.945480239124985"><ele>334.0</ele><time>2026-04-21T09:42:30.001Z</time></trkpt><trkpt lat="42.159333968443384" lon="11.945269327824326"><ele>334.0</ele><time>2026-04-21T09:42:31.001Z</time></trkpt><trkpt lat="42.159463809292724" lon="11.94507755196909"><ele>334.0</ele><time>2026-04-21T09:42:32.001Z</time></trkpt><trkpt lat="42.15961504235346" lon="11.944855642756764"><ele>334.0</ele><time>2026-04-21T09:42:33.001Z</time></trkpt><trkpt lat="42.15978545973026" lon="11.944619977293717"><ele>334.5</ele><time>2026-04-21T09:42:34.001Z</time></trkpt><trkpt lat="42.15996461781635" lon="11.944417391034525"><ele>335.0</ele><time>2026-04-21T09:42:35.001Z</time></trkpt><trkpt lat="42.16014194657075" lon="11.944231824797212"><ele>341.0</ele><time>2026-04-21T09:42:36.001Z</time></trkpt><trkpt lat="42.160294127672984" lon="11.944064177502725"><ele>347.0</ele><time>2026-04-21T09:42:37.001Z</time></trkpt><trkpt lat="42.16043038895537" lon="11.943920836664576"><ele>353.0</ele><time>2026-04-21T09:42:38.001Z</time></trkpt><trkpt lat="42.16056730117188" lon="11.943805946053182"><ele>350.6666666666667</ele><time>2026-04-21T09:42:39.001Z</time></trkpt><trkpt lat="42.16071293842154" lon="11.943751204670987"><ele>348.3333333333333</ele><time>2026-04-21T09:42:40.001Z</time></trkpt><trkpt lat="42.16087607263103" lon="11.943755187500948"><ele>346.0</ele><time>2026-04-21T09:42:41.001Z</time></trkpt><trkpt lat="42.16104847893112" lon="11.943787047701516"><ele>346.0</ele><time>2026-04-21T09:42:42.001Z</time></trkpt><trkpt lat="42.161222626320416" lon="11.943773123095111"><ele>346.0</ele><time>2026-04-21T09:42:43.001Z</time></trkpt><trkpt lat="42.161401227887616" lon="11.943713891920899"><ele>346.0</ele><time>2026-04-21T09:42:44.001Z</time></trkpt><trkpt lat="42.16157203704358" lon="11.943631838260663"><ele>344.3333333333333</ele><time>2026-04-21T09:42:45.001Z</time></trkpt><trkpt lat="42.161739916761604" lon="11.943526698064817"><ele>342.6666666666667</ele><time>2026-04-21T09:42:46.001Z</time></trkpt><trkpt lat="42.16187600133713" lon="11.943382768362552"><ele>341.0</ele><time>2026-04-21T09:42:47.001Z</time></trkpt><trkpt lat="42.16199823396154" lon="11.943205689612116"><ele>346.0</ele><time>2026-04-21T09:42:48.001Z</time></trkpt><trkpt lat="42.16211464716252" lon="11.943024031640462"><ele>351.0</ele><time>2026-04-21T09:42:49.001Z</time></trkpt><trkpt lat="42.16221677279204" lon="11.942868984369014"><ele>356.0</ele><time>2026-04-21T09:42:50.001Z</time></trkpt><trkpt lat="42.16230947455244" lon="11.942722299443671"><ele>356.6666666666667</ele><time>2026-04-21T09:42:51.001Z</time></trkpt><trkpt lat="42.16238543234077" lon="11.942559425962331"><ele>357.3333333333333</ele><time>2026-04-21T09:42:52.001Z</time></trkpt><trkpt lat="42.16242320299057" lon="11.942341132717399"><ele>358.0</ele><time>2026-04-21T09:42:53.001Z</time></trkpt><trkpt lat="42.16241557702245" lon="11.942112457758352"><ele>360.0</ele><time>2026-04-21T09:42:54.001Z</time></trkpt><trkpt lat="42.16238795133523" lon="11.941880469470057"><ele>362.0</ele><time>2026-04-21T09:42:55.001Z</time></trkpt><trkpt lat="42.162330156115935" lon="11.941642596546615"><ele>364.0</ele><time>2026-04-21T09:42:56.001Z</time></trkpt><trkpt lat="42.1622424971726" lon="11.941422393574657"><ele>372.3333333333333</ele><time>2026-04-21T09:42:57.001Z</time></trkpt><trkpt lat="42.16213793700614" lon="11.941220640034915"><ele>380.66666666666663</ele><time>2026-04-21T09:42:58.001Z</time></trkpt><trkpt lat="42.16201874102367" lon="11.940984187896369"><ele>389.0</ele><time>2026-04-21T09:42:59.001Z</time></trkpt><trkpt lat="42.16191049794278" lon="11.940755210932782"><ele>390.3333333333333</ele><time>2026-04-21T09:43:00.001Z</time></trkpt><trkpt lat="42.16181457445962" lon="11.940570549106747"><ele>391.66666666666663</ele><time>2026-04-21T09:43:01.001Z</time></trkpt><trkpt lat="42.16174324242885" lon="11.940363245978487"><ele>393.0</ele><time>2026-04-21T09:43:02.001Z</time></trkpt><trkpt lat="42.16168560355183" lon="11.940193734584568"><ele>390.25</ele><time>2026-04-21T09:43:03.001Z</time></trkpt><trkpt lat="42.16160298817197" lon="11.940033916496036"><ele>387.5</ele><time>2026-04-21T09:43:04.001Z</time></trkpt><trkpt lat="42.161504840439015" lon="11.93992484836159"><ele>384.75</ele><time>2026-04-21T09:43:05.001Z</time></trkpt><trkpt lat="42.16135929844797" lon="11.939902135470083"><ele>382.0</ele><time>2026-04-21T09:43:06.001Z</time></trkpt><trkpt lat="42.16118963448493" lon="11.93993242065948"><ele>382.0</ele><time>2026-04-21T09:43:07.001Z</time></trkpt><trkpt lat="42.161018586187474" lon="11.939993881678992"><ele>382.0</ele><time>2026-04-21T09:43:08.001Z</time></trkpt><trkpt lat="42.16082669722155" lon="11.940033565452799"><ele>382.0</ele><time>2026-04-21T09:43:09.001Z</time></trkpt><trkpt lat="42.160634769054916" lon="11.940046226573733"><ele>384.75</ele><time>2026-04-21T09:43:10.001Z</time></trkpt><trkpt lat="42.16051260348381" lon="11.940133242498948"><ele>387.5</ele><time>2026-04-21T09:43:11.001Z</time></trkpt><trkpt lat="42.16040304737093" lon="11.940248268425067"><ele>390.25</ele><time>2026-04-21T09:43:12.001Z</time></trkpt><trkpt lat="42.16033164035785" lon="11.940412853951766"><ele>393.0</ele><time>2026-04-21T09:43:13.001Z</time></trkpt><trkpt lat="42.16027881093972" lon="11.940618324075338"><ele>393.0</ele><time>2026-04-21T09:43:14.001Z</time></trkpt><trkpt lat="42.16022216682281" lon="11.940836490350609"><ele>393.0</ele><time>2026-04-21T09:43:15.001Z</time></trkpt><trkpt lat="42.16017398632381" lon="11.941041806739017"><ele>393.0</ele><time>2026-04-21T09:43:16.001Z</time></trkpt><trkpt lat="42.160124797302416" lon="11.941232791776432"><ele>394.0</ele><time>2026-04-21T09:43:17.001Z</time></trkpt><trkpt lat="42.16005317099283" lon="11.941438654945111"><ele>395.0</ele><time>2026-04-21T09:43:18.001Z</time></trkpt><trkpt lat="42.159964089080866" lon="11.94161951553905"><ele>396.0</ele><time>2026-04-21T09:43:19.001Z</time></trkpt><trkpt lat="42.15985124792406" lon="11.941782413590605"><ele>396.66666666666663</ele><time>2026-04-21T09:43:20.001Z</time></trkpt><trkpt lat="42.15971143027862" lon="11.941951163939304"><ele>397.3333333333333</ele><time>2026-04-21T09:43:21.001Z</time></trkpt><trkpt lat="42.159567676757156" lon="11.942095796217513"><ele>398.0</ele><time>2026-04-21T09:43:22.001Z</time></trkpt><trkpt lat="42.15943526084446" lon="11.942209960007032"><ele>398.0</ele><time>2026-04-21T09:43:23.001Z</time></trkpt><trkpt lat="42.15930731408506" lon="11.942283005528457"><ele>398.0</ele><time>2026-04-21T09:43:24.001Z</time></trkpt><trkpt lat="42.15917742789093" lon="11.942300242031331"><ele>398.0</ele><time>2026-04-21T09:43:25.001Z</time></trkpt><trkpt lat="42.15905586003765" lon="11.942257242227697"><ele>398.0</ele><time>2026-04-21T09:43:26.001Z</time></trkpt><trkpt lat="42.15895865896315" lon="11.942144363367872"><ele>399.0</ele><time>2026-04-21T09:43:27.001Z</time></trkpt><trkpt lat="42.15885410416101" lon="11.94199694980491"><ele>400.0</ele><time>2026-04-21T09:43:28.001Z</time></trkpt><trkpt lat="42.1587199056292" lon="11.941847709504463"><ele>401.0</ele><time>2026-04-21T09:43:29.001Z</time></trkpt><trkpt lat="42.15859515799278" lon="11.941746953493698"><ele>406.66666666666663</ele><time>2026-04-21T09:43:30.001Z</time></trkpt><trkpt lat="42.158448062892006" lon="11.941674322268614"><ele>412.33333333333337</ele><time>2026-04-21T09:43:31.001Z</time></trkpt><trkpt lat="42.158288322613174" lon="11.941658658703922"><ele>418.0</ele><time>2026-04-21T09:43:32.001Z</time></trkpt><trkpt lat="42.15813707718245" lon="11.941718905733815"><ele>420.6666666666667</ele><time>2026-04-21T09:43:33.001Z</time></trkpt><trkpt lat="42.1579546689255" lon="11.941810204465552"><ele>423.33333333333337</ele><time>2026-04-21T09:43:34.001Z</time></trkpt><trkpt lat="42.157754561425776" lon="11.941919648534602"><ele>426.0</ele><time>2026-04-21T09:43:35.001Z</time></trkpt><trkpt lat="42.157574090778276" lon="11.942004171369685"><ele>426.0</ele><time>2026-04-21T09:43:36.001Z</time></trkpt><trkpt lat="42.15743028592012" lon="11.94208546903187"><ele>426.0</ele><time>2026-04-21T09:43:37Z</time></trkpt><trkpt lat="42.157311861084835" lon="11.942223569360142"><ele>426.0</ele><time>2026-04-21T09:43:38Z</time></trkpt><trkpt lat="42.15721842245331" lon="11.94241318847004"><ele>422.66666666666663</ele><time>2026-04-21T09:43:39Z</time></trkpt><trkpt lat="42.157139632244636" lon="11.942590169821713"><ele>419.3333333333333</ele><time>2026-04-21T09:43:40Z</time></trkpt><trkpt lat="42.157022276453745" lon="11.942714935274747"><ele>416.0</ele><time>2026-04-21T09:43:41Z</time></trkpt><trkpt lat="42.15689007957434" lon="11.942822714632195"><ele>416.0</ele><time>2026-04-21T09:43:42Z</time></trkpt><trkpt lat="42.15673373663606" lon="11.942902696638535"><ele>416.0</ele><time>2026-04-21T09:43:43Z</time></trkpt><trkpt lat="42.15658868470077" lon="11.94294399861175"><ele>416.0</ele><time>2026-04-21T09:43:44Z</time></trkpt><trkpt lat="42.15644365336481" lon="11.942940522355324"><ele>413.0</ele><time>2026-04-21T09:43:45Z</time></trkpt><trkpt lat="42.1563020936155" lon="11.942894254738295"><ele>410.0</ele><time>2026-04-21T09:43:46Z</time></trkpt><trkpt lat="42.15617381328809" lon="11.94279378690125"><ele>407.0</ele><time>2026-04-21T09:43:47Z</time></trkpt><trkpt lat="42.156065620627196" lon="11.942663699196569"><ele>404.0</ele><time>2026-04-21T09:43:48Z</time></trkpt><trkpt lat="42.15596296597693" lon="11.942507046110942"><ele>409.5</ele><time>2026-04-21T09:43:49Z</time></trkpt><trkpt lat="42.15589877568558" lon="11.94233439336576"><ele>415.0</ele><time>2026-04-21T09:43:50Z</time></trkpt><trkpt lat="42.155829730055935" lon="11.942186509349233"><ele>420.5</ele><time>2026-04-21T09:43:51Z</time></trkpt><trkpt lat="42.15573391687515" lon="11.942093014021232"><ele>426.0</ele><time>2026-04-21T09:43:52Z</time></trkpt><trkpt lat="42.155647763863335" lon="11.941977125274796"><ele>426.0</ele><time>2026-04-21T09:43:53Z</time></trkpt><trkpt lat="42.15554337529063" lon="11.94186188604941"><ele>426.0</ele><time>2026-04-21T09:43:54Z</time></trkpt><trkpt lat="42.155447181326636" lon="11.941747289123095"><ele>426.0</ele><time>2026-04-21T09:43:55Z</time></trkpt><trkpt lat="42.15534959743775" lon="11.941650497800218"><ele>426.0</ele><time>2026-04-21T09:43:56Z</time></trkpt><trkpt lat="42.155267463301165" lon="11.94151673168922"><ele>428.0</ele><time>2026-04-21T09:43:57Z</time></trkpt><trkpt lat="42.15517620363003" lon="11.941389976489498"><ele>430.0</ele><time>2026-04-21T09:43:58Z</time></trkpt><trkpt lat="42.15509281790621" lon="11.941253968318811"><ele>432.0</ele><time>2026-04-21T09:43:59Z</time></trkpt><trkpt lat="42.15502010626841" lon="11.941137300394246"><ele>434.0</ele><time>2026-04-21T09:44:00Z</time></trkpt><trkpt lat="42.154955007650656" lon="11.94102400572726"><ele>434.0</ele><time>2026-04-21T09:44:01Z</time></trkpt><trkpt lat="42.15489674362946" lon="11.94090173765448"><ele>434.0</ele><time>2026-04-21T09:44:02Z</time></trkpt><trkpt lat="42.154847353333295" lon="11.9407946978946"><ele>434.0</ele><time>2026-04-21T09:44:03Z</time></trkpt><trkpt lat="42.154795251759374" lon="11.940675390261564"><ele>434.0</ele><time>2026-04-21T09:44:04Z</time></trkpt><trkpt lat="42.1547427542095" lon="11.940550367195856"><ele>434.0</ele><time>2026-04-21T09:44:05.001Z</time></trkpt><trkpt lat="42.15469552027993" lon="11.940410135645003"><ele>436.5</ele><time>2026-04-21T09:44:06.001Z</time></trkpt><trkpt lat="42.15465965307868" lon="11.940250863387865"><ele>439.0</ele><time>2026-04-21T09:44:07.001Z</time></trkpt><trkpt lat="42.154638782012675" lon="11.940081220415427"><ele>441.5</ele><time>2026-04-21T09:44:08.001Z</time></trkpt><trkpt lat="42.15462274654882" lon="11.939913671756068"><ele>444.0</ele><time>2026-04-21T09:44:09.001Z</time></trkpt><trkpt lat="42.15460791775684" lon="11.939777663186197"><ele>445.2</ele><time>2026-04-21T09:44:10.001Z</time></trkpt><trkpt lat="42.15457963820945" lon="11.939639717445122"><ele>446.4</ele><time>2026-04-21T09:44:11.001Z</time></trkpt><trkpt lat="42.1545317419756" lon="11.93951308677476"><ele>447.6</ele><time>2026-04-21T09:44:12.001Z</time></trkpt><trkpt lat="42.154463561410594" lon="11.939411866577359"><ele>448.8</ele><time>2026-04-21T09:44:13.001Z</time></trkpt><trkpt lat="42.15437572514061" lon="11.939348886265257"><ele>450.0</ele><time>2026-04-21T09:44:14.001Z</time></trkpt><trkpt lat="42.1542833761783" lon="11.93931448852018"><ele>450.0</ele><time>2026-04-21T09:44:15.001Z</time></trkpt><trkpt lat="42.15418171726764" lon="11.939338061201834"><ele>450.0</ele><time>2026-04-21T09:44:16.001Z</time></trkpt><trkpt lat="42.15408491024288" lon="11.939342721707895"><ele>450.0</ele><time>2026-04-21T09:44:17.001Z</time></trkpt><trkpt lat="42.1539814331113" lon="11.93935164666572"><ele>450.0</ele><time>2026-04-21T09:44:18.001Z</time></trkpt><trkpt lat="42.15387485845932" lon="11.939357707788666"><ele>450.0</ele><time>2026-04-21T09:44:19.001Z</time></trkpt><trkpt lat="42.15377010304008" lon="11.939381686784843"><ele>453.1666666666667</ele><time>2026-04-21T09:44:20.001Z</time></trkpt><trkpt lat="42.15367184037466" lon="11.939381097942878"><ele>456.33333333333337</ele><time>2026-04-21T09:44:21.001Z</time></trkpt><trkpt lat="42.153598363900976" lon="11.939386071435232"><ele>459.5</ele><time>2026-04-21T09:44:22.001Z</time></trkpt><trkpt lat="42.15350964352592" lon="11.939434251687855"><ele>462.6666666666667</ele><time>2026-04-21T09:44:23.001Z</time></trkpt><trkpt lat="42.153435329799855" lon="11.939486338078849"><ele>465.83333333333337</ele><time>2026-04-21T09:44:24.001Z</time></trkpt><trkpt lat="42.153369534154564" lon="11.939553595379376"><ele>469.0</ele><time>2026-04-21T09:44:25.001Z</time></trkpt><trkpt lat="42.15336087236483" lon="11.939780159255092"><ele>469.0</ele><time>2026-04-21T09:44:27.001Z</time></trkpt><trkpt lat="42.15338700469464" lon="11.939917554363822"><ele>469.0</ele><time>2026-04-21T09:44:28.001Z</time></trkpt><trkpt lat="42.153408757298145" lon="11.940079732043774"><ele>469.0</ele><time>2026-04-21T09:44:29.001Z</time></trkpt><trkpt lat="42.15344700613123" lon="11.940248530375534"><ele>469.0</ele><time>2026-04-21T09:44:30.001Z</time></trkpt><trkpt lat="42.1534786420079" lon="11.940393425928642"><ele>469.33333333333337</ele><time>2026-04-21T09:44:31.001Z</time></trkpt><trkpt lat="42.15350714096185" lon="11.94052608472977"><ele>469.6666666666667</ele><time>2026-04-21T09:44:32.001Z</time></trkpt><trkpt lat="42.15353094541503" lon="11.940660385699163"><ele>470.0</ele><time>2026-04-21T09:44:33.001Z</time></trkpt><trkpt lat="42.15354213149552" lon="11.940772346927357"><ele>470.33333333333337</ele><time>2026-04-21T09:44:34.001Z</time></trkpt><trkpt lat="42.15353854600283" lon="11.94086862341553"><ele>470.6666666666667</ele><time>2026-04-21T09:44:35.001Z</time></trkpt><trkpt lat="42.1535086650918" lon="11.940948780205138"><ele>471.0</ele><time>2026-04-21T09:44:36.001Z</time></trkpt><trkpt lat="42.15349384107444" lon="11.941034903601897"><ele>471.1666666666667</ele><time>2026-04-21T09:44:37.001Z</time></trkpt><trkpt lat="42.153428118120715" lon="11.94108476152575"><ele>471.33333333333337</ele><time>2026-04-21T09:44:38.001Z</time></trkpt><trkpt lat="42.153346553010444" lon="11.94113934044793"><ele>471.5</ele><time>2026-04-21T09:44:39.001Z</time></trkpt><trkpt lat="42.15329011152042" lon="11.941214550297042"><ele>471.6666666666667</ele><time>2026-04-21T09:44:40.001Z</time></trkpt><trkpt lat="42.153225527294374" lon="11.941269141851672"><ele>471.83333333333337</ele><time>2026-04-21T09:44:41.001Z</time></trkpt><trkpt lat="42.15316812366679" lon="11.941318136352404"><ele>472.0</ele><time>2026-04-21T09:44:42.001Z</time></trkpt><trkpt lat="42.153098876000676" lon="11.941374339605618"><ele>473.8</ele><time>2026-04-21T09:44:44.001Z</time></trkpt><trkpt lat="42.15301891140859" lon="11.941373481352215"><ele>475.6</ele><time>2026-04-21T09:44:46.001Z</time></trkpt><trkpt lat="42.15292704464232" lon="11.941298171272436"><ele>477.40000000000003</ele><time>2026-04-21T09:44:48.001Z</time></trkpt><trkpt lat="42.15286016341327" lon="11.94130392643351"><ele>479.20000000000005</ele><time>2026-04-21T09:44:49.001Z</time></trkpt><trkpt lat="42.15275010194986" lon="11.941249428149689"><ele>481.0</ele><time>2026-04-21T09:44:51.001Z</time></trkpt><trkpt lat="42.15267504248368" lon="11.941215490891807"><ele>481.00000000000006</ele><time>2026-04-21T09:44:53.001Z</time></trkpt><trkpt lat="42.152608684747996" lon="11.941145781933553"><ele>481.0</ele><time>2026-04-21T09:44:55.001Z</time></trkpt><trkpt lat="42.1525848148005" lon="11.94105585964948"><ele>481.0</ele><time>2026-04-21T09:44:57.001Z</time></trkpt><trkpt lat="42.15255792184476" lon="11.940931395591534"><ele>481.0</ele><time>2026-04-21T09:44:59.001Z</time></trkpt><trkpt lat="42.15252670606881" lon="11.940822663888833"><ele>481.00000000000006</ele><time>2026-04-21T09:45:01.001Z</time></trkpt><trkpt lat="42.1524674806283" lon="11.94079372949463"><ele>481.0</ele><time>2026-04-21T09:45:02.001Z</time></trkpt><trkpt lat="42.15236824541852" lon="11.940700669760709"><ele>478.1666666666667</ele><time>2026-04-21T09:45:04.001Z</time></trkpt><trkpt lat="42.15228326203288" lon="11.940601547463807"><ele>475.33333333333337</ele><time>2026-04-21T09:45:06.001Z</time></trkpt><trkpt lat="42.152179550198845" lon="11.940525483965791"><ele>472.5</ele><time>2026-04-21T09:45:08.001Z</time></trkpt><trkpt lat="42.15211670507164" lon="11.940504942520738"><ele>469.66666666666663</ele><time>2026-04-21T09:45:09.001Z</time></trkpt><trkpt lat="42.15206478561501" lon="11.940449509847497"><ele>466.8333333333333</ele><time>2026-04-21T09:45:10.001Z</time></trkpt><trkpt lat="42.15199965638928" lon="11.940408466064644"><ele>464.0</ele><time>2026-04-21T09:45:11.001Z</time></trkpt><trkpt lat="42.15190422348355" lon="11.940321823478842"><ele>464.0</ele><time>2026-04-21T09:45:13.001Z</time></trkpt><trkpt lat="42.15180689514783" lon="11.94023276534123"><ele>464.0</ele><time>2026-04-21T09:45:15.001Z</time></trkpt><trkpt lat="42.151735017778364" lon="11.94015011561908"><ele>464.0</ele><time>2026-04-21T09:45:17.001Z</time></trkpt><trkpt lat="42.151654577337425" lon="11.940086031604487"><ele>464.0</ele><time>2026-04-21T09:45:19.001Z</time></trkpt><trkpt lat="42.151563099774755" lon="11.939993616766134"><ele>464.0</ele><time>2026-04-21T09:45:21.001Z</time></trkpt><trkpt lat="42.151477473768246" lon="11.939889605473677"><ele>463.3333333333333</ele><time>2026-04-21T09:45:23.001Z</time></trkpt><trkpt lat="42.15141640308176" lon="11.939826610094311"><ele>462.66666666666663</ele><time>2026-04-21T09:45:24.001Z</time></trkpt><trkpt lat="42.15136415972931" lon="11.939773438512987"><ele>462.0</ele><time>2026-04-21T09:45:25.001Z</time></trkpt><trkpt lat="42.1513013433067" lon="11.939710858398296"><ele>461.33333333333337</ele><time>2026-04-21T09:45:26.001Z</time></trkpt><trkpt lat="42.151236183762585" lon="11.939648161459784"><ele>460.6666666666667</ele><time>2026-04-21T09:45:27.001Z</time></trkpt><trkpt lat="42.15113466757745" lon="11.939553637649343"><ele>460.0</ele><time>2026-04-21T09:45:29.001Z</time></trkpt><trkpt lat="42.15107531088737" lon="11.939500007857614"><ele>460.00000000000006</ele><time>2026-04-21T09:45:30.001Z</time></trkpt><trkpt lat="42.1510054348035" lon="11.93943862900175"><ele>460.0</ele><time>2026-04-21T09:45:31.001Z</time></trkpt><trkpt lat="42.150937486925976" lon="11.939380487749283"><ele>460.0</ele><time>2026-04-21T09:45:32.001Z</time></trkpt><trkpt lat="42.15082511192155" lon="11.939286690333224"><ele>460.0</ele><time>2026-04-21T09:45:34.001Z</time></trkpt><trkpt lat="42.15075810732335" lon="11.939233179361736"><ele>460.00000000000006</ele><time>2026-04-21T09:45:35.001Z</time></trkpt><trkpt lat="42.150700031968526" lon="11.939189213127836"><ele>460.0</ele><time>2026-04-21T09:45:36.001Z</time></trkpt><trkpt lat="42.15063833892584" lon="11.9391442018145"><ele>463.0</ele><time>2026-04-21T09:45:37.001Z</time></trkpt><trkpt lat="42.150532405732385" lon="11.939067727832361"><ele>466.0</ele><time>2026-04-21T09:45:39.001Z</time></trkpt><trkpt lat="42.15044102725467" lon="11.938999759516548"><ele>469.0</ele><time>2026-04-21T09:45:41.002Z</time></trkpt><trkpt lat="42.150361013319404" lon="11.938932596787467"><ele>472.0</ele><time>2026-04-21T09:45:43.001Z</time></trkpt><trkpt lat="42.15029553381191" lon="11.938870491114056"><ele>475.0</ele><time>2026-04-21T09:45:45.001Z</time></trkpt><trkpt lat="42.1502226648702" lon="11.93878905856672"><ele>475.00000000000006</ele><time>2026-04-21T09:45:47.001Z</time></trkpt><trkpt lat="42.15017131772493" lon="11.938709195899362"><ele>475.0</ele><time>2026-04-21T09:45:49.001Z</time></trkpt><trkpt lat="42.15013634611983" lon="11.938615708784436"><ele>475.0</ele><time>2026-04-21T09:45:51.001Z</time></trkpt><trkpt lat="42.1501193238131" lon="11.938513213323704"><ele>475.0</ele><time>2026-04-21T09:45:53.001Z</time></trkpt><trkpt lat="42.15011535395665" lon="11.938368689962019"><ele>475.00000000000006</ele><time>2026-04-21T09:45:55.001Z</time></trkpt><trkpt lat="42.15011535395765" lon="11.938277344252887"><ele>475.0</ele><time>2026-04-21T09:45:56.001Z</time></trkpt><trkpt lat="42.1501195708743" lon="11.93813005838476"><ele>474.6</ele><time>2026-04-21T09:45:58.001Z</time></trkpt><trkpt lat="42.15012255946967" lon="11.938037384485256"><ele>474.2</ele><time>2026-04-21T09:45:59.001Z</time></trkpt><trkpt lat="42.15012645430819" lon="11.937916608792062"><ele>473.79999999999995</ele><time>2026-04-21T09:46:01.001Z</time></trkpt><trkpt lat="42.14997137884417" lon="11.937787418169059"><ele>473.4</ele><time>2026-04-21T09:46:05.001Z</time></trkpt><trkpt lat="42.149876252438865" lon="11.937795139914556"><ele>473.0</ele><time>2026-04-21T09:46:07.001Z</time></trkpt><trkpt lat="42.14978696078379" lon="11.93780244758159"><ele>473.0</ele><time>2026-04-21T09:46:09.001Z</time></trkpt><trkpt lat="42.149705461229146" lon="11.93780911753376"><ele>472.99999999999994</ele><time>2026-04-21T09:46:15.001Z</time></trkpt><trkpt lat="42.149627779672855" lon="11.9378154750263"><ele>472.99999999999994</ele><time>2026-04-21T09:46:18.001Z</time></trkpt><trkpt lat="42.149554940524006" lon="11.937934442980184"><ele>473.0</ele><time>2026-04-21T09:46:20.001Z</time></trkpt><trkpt lat="42.14964640526255" lon="11.938129637925831"><ele>473.0</ele><time>2026-04-21T09:46:22.001Z</time></trkpt><trkpt lat="42.14972565540451" lon="11.938216381420201"><ele>473.0</ele><time>2026-04-21T09:46:24.001Z</time></trkpt><trkpt lat="42.14979176534084" lon="11.938304255511422"><ele>473.0</ele><time>2026-04-21T09:46:26.001Z</time></trkpt><trkpt lat="42.14982913383077" lon="11.938387631306766"><ele>452.0</ele><time>2026-04-21T09:46:30.001Z</time></trkpt></trkseg></trk></gpx>